<?xml version="1.0" encoding="UTF-8" standalone="no" ?>
<gpx xmlns="http://www.topografix.com/GPX/1/1" xmlns:xsi="http://www.w3.org/2001/XMLSchema-instance" xsi:schemaLocation="http://www.topografix.com/GPX/1/1 http://www.topografix.com/GPX/1/1/gpx.xsd" version="1.1" creator="VisuGPX - https://www.visugpx.com">
  <metadata>
    <name>MOTO CORSICA</name>
  </metadata>
  <wpt lat="45.87977" lon="4.59604">
    <ele>292.6</ele>
    <name><![CDATA[Argon]]></name>
  </wpt>
  <wpt lat="41.62056" lon="9.29931">
    <ele>40.02</ele>
    <name><![CDATA[Camping Porto Vecchio]]></name>
  </wpt>
  <wpt lat="43.29702" lon="3.51216">
    <ele>-1.08</ele>
    <name><![CDATA[Cassiopee]]></name>
  </wpt>
  <wpt lat="41.62054" lon="9.29927">
    <ele>24.88</ele>
    <name><![CDATA[Dernière position]]></name>
  </wpt>
  <wpt lat="25.06178" lon="121.64027">
    <ele>38.1</ele>
    <name><![CDATA[Garmin Asia]]></name>
  </wpt>
  <wpt lat="50.9017" lon="-1.48935">
    <ele>35.93</ele>
    <name><![CDATA[Garmin Europe]]></name>
  </wpt>
  <wpt lat="38.85555" lon="-94.79902">
    <ele>325.05</ele>
    <name><![CDATA[Garmin USA]]></name>
  </wpt>
  <wpt lat="45.53375" lon="4.6308">
    <ele>238.77</ele>
    <name><![CDATA[Zezette]]></name>
  </wpt>
  <trk>
    <name><![CDATA[Enregistremen: 05 JUIN 2014 07:44]]></name>
    <trkseg>
      <trkpt lat="41.62068" lon="9.29925">
        <ele>6.87</ele>
        <time>2014-06-05T05:44:53Z</time>
      </trkpt>
      <trkpt lat="41.62066" lon="9.29914">
        <ele>25.61</ele>
        <time>2014-06-05T05:45:03Z</time>
      </trkpt>
      <trkpt lat="41.6205" lon="9.29908">
        <ele>18.88</ele>
        <time>2014-06-05T05:45:10Z</time>
      </trkpt>
      <trkpt lat="41.62041" lon="9.29885">
        <ele>15.52</ele>
        <time>2014-06-05T05:45:16Z</time>
      </trkpt>
      <trkpt lat="41.62038" lon="9.29868">
        <ele>14.56</ele>
        <time>2014-06-05T05:45:28Z</time>
      </trkpt>
      <trkpt lat="41.62042" lon="9.2987">
        <ele>5.42</ele>
        <time>2014-06-05T05:45:37Z</time>
      </trkpt>
      <trkpt lat="41.62056" lon="9.29852">
        <ele>9.27</ele>
        <time>2014-06-05T05:45:48Z</time>
      </trkpt>
      <trkpt lat="41.62063" lon="9.29853">
        <ele>8.79</ele>
        <time>2014-06-05T05:45:49Z</time>
      </trkpt>
      <trkpt lat="41.62081" lon="9.29858">
        <ele>8.79</ele>
        <time>2014-06-05T05:45:51Z</time>
      </trkpt>
      <trkpt lat="41.62091" lon="9.29862">
        <ele>8.79</ele>
        <time>2014-06-05T05:45:52Z</time>
      </trkpt>
      <trkpt lat="41.62213" lon="9.29936">
        <ele>6.87</ele>
        <time>2014-06-05T05:46:04Z</time>
      </trkpt>
      <trkpt lat="41.62333" lon="9.30011">
        <ele>7.35</ele>
        <time>2014-06-05T05:46:16Z</time>
      </trkpt>
      <trkpt lat="41.62372" lon="9.3003">
        <ele>6.39</ele>
        <time>2014-06-05T05:46:20Z</time>
      </trkpt>
      <trkpt lat="41.62382" lon="9.30031">
        <ele>6.39</ele>
        <time>2014-06-05T05:46:21Z</time>
      </trkpt>
      <trkpt lat="41.62391" lon="9.30031">
        <ele>6.39</ele>
        <time>2014-06-05T05:46:22Z</time>
      </trkpt>
      <trkpt lat="41.62427" lon="9.30027">
        <ele>7.35</ele>
        <time>2014-06-05T05:46:26Z</time>
      </trkpt>
      <trkpt lat="41.62434" lon="9.30024">
        <ele>7.35</ele>
        <time>2014-06-05T05:46:27Z</time>
      </trkpt>
      <trkpt lat="41.62441" lon="9.30019">
        <ele>7.83</ele>
        <time>2014-06-05T05:46:28Z</time>
      </trkpt>
      <trkpt lat="41.62447" lon="9.30013">
        <ele>8.31</ele>
        <time>2014-06-05T05:46:29Z</time>
      </trkpt>
      <trkpt lat="41.62452" lon="9.30006">
        <ele>8.31</ele>
        <time>2014-06-05T05:46:30Z</time>
      </trkpt>
      <trkpt lat="41.62461" lon="9.29996">
        <ele>8.79</ele>
        <time>2014-06-05T05:46:32Z</time>
      </trkpt>
      <trkpt lat="41.62465" lon="9.29994">
        <ele>9.27</ele>
        <time>2014-06-05T05:46:33Z</time>
      </trkpt>
      <trkpt lat="41.6247" lon="9.29993">
        <ele>9.75</ele>
        <time>2014-06-05T05:46:34Z</time>
      </trkpt>
      <trkpt lat="41.62475" lon="9.29996">
        <ele>10.23</ele>
        <time>2014-06-05T05:46:35Z</time>
      </trkpt>
      <trkpt lat="41.62479" lon="9.30001">
        <ele>10.23</ele>
        <time>2014-06-05T05:46:36Z</time>
      </trkpt>
      <trkpt lat="41.62484" lon="9.3001">
        <ele>10.23</ele>
        <time>2014-06-05T05:46:37Z</time>
      </trkpt>
      <trkpt lat="41.62489" lon="9.30021">
        <ele>10.23</ele>
        <time>2014-06-05T05:46:38Z</time>
      </trkpt>
      <trkpt lat="41.6254" lon="9.3013">
        <ele>11.67</ele>
        <time>2014-06-05T05:46:45Z</time>
      </trkpt>
      <trkpt lat="41.62624" lon="9.30261">
        <ele>7.35</ele>
        <time>2014-06-05T05:46:53Z</time>
      </trkpt>
      <trkpt lat="41.62764" lon="9.30419">
        <ele>1.58</ele>
        <time>2014-06-05T05:47:04Z</time>
      </trkpt>
      <trkpt lat="41.62773" lon="9.30436">
        <ele>0.62</ele>
        <time>2014-06-05T05:47:05Z</time>
      </trkpt>
      <trkpt lat="41.6278" lon="9.30453">
        <ele>-0.34</ele>
        <time>2014-06-05T05:47:06Z</time>
      </trkpt>
      <trkpt lat="41.62787" lon="9.30471">
        <ele>-1.79</ele>
        <time>2014-06-05T05:47:07Z</time>
      </trkpt>
      <trkpt lat="41.62795" lon="9.30487">
        <ele>-2.75</ele>
        <time>2014-06-05T05:47:08Z</time>
      </trkpt>
      <trkpt lat="41.62804" lon="9.30502">
        <ele>-3.23</ele>
        <time>2014-06-05T05:47:09Z</time>
      </trkpt>
      <trkpt lat="41.62815" lon="9.30516">
        <ele>-2.75</ele>
        <time>2014-06-05T05:47:10Z</time>
      </trkpt>
      <trkpt lat="41.62827" lon="9.30527">
        <ele>-2.27</ele>
        <time>2014-06-05T05:47:11Z</time>
      </trkpt>
      <trkpt lat="41.62859" lon="9.30563">
        <ele>-0.34</ele>
        <time>2014-06-05T05:47:14Z</time>
      </trkpt>
      <trkpt lat="41.62868" lon="9.30576">
        <ele>0.14</ele>
        <time>2014-06-05T05:47:15Z</time>
      </trkpt>
      <trkpt lat="41.62876" lon="9.30591">
        <ele>0.14</ele>
        <time>2014-06-05T05:47:16Z</time>
      </trkpt>
      <trkpt lat="41.62935" lon="9.30716">
        <ele>0.14</ele>
        <time>2014-06-05T05:47:23Z</time>
      </trkpt>
      <trkpt lat="41.62941" lon="9.30735">
        <ele>1.1</ele>
        <time>2014-06-05T05:47:24Z</time>
      </trkpt>
      <trkpt lat="41.62945" lon="9.30754">
        <ele>2.54</ele>
        <time>2014-06-05T05:47:25Z</time>
      </trkpt>
      <trkpt lat="41.62948" lon="9.30773">
        <ele>3.5</ele>
        <time>2014-06-05T05:47:26Z</time>
      </trkpt>
      <trkpt lat="41.62948" lon="9.30792">
        <ele>4.94</ele>
        <time>2014-06-05T05:47:27Z</time>
      </trkpt>
      <trkpt lat="41.62948" lon="9.30812">
        <ele>5.42</ele>
        <time>2014-06-05T05:47:28Z</time>
      </trkpt>
      <trkpt lat="41.6295" lon="9.30847">
        <ele>6.87</ele>
        <time>2014-06-05T05:47:30Z</time>
      </trkpt>
      <trkpt lat="41.62953" lon="9.30864">
        <ele>5.91</ele>
        <time>2014-06-05T05:47:31Z</time>
      </trkpt>
      <trkpt lat="41.62996" lon="9.31033">
        <ele>-0.82</ele>
        <time>2014-06-05T05:47:39Z</time>
      </trkpt>
      <trkpt lat="41.6303" lon="9.31177">
        <ele>-7.55</ele>
        <time>2014-06-05T05:47:46Z</time>
      </trkpt>
      <trkpt lat="41.6303" lon="9.31198">
        <ele>-8.51</ele>
        <time>2014-06-05T05:47:47Z</time>
      </trkpt>
      <trkpt lat="41.63028" lon="9.31221">
        <ele>-9</ele>
        <time>2014-06-05T05:47:48Z</time>
      </trkpt>
      <trkpt lat="41.63025" lon="9.31281">
        <ele>-9.48</ele>
        <time>2014-06-05T05:47:51Z</time>
      </trkpt>
      <trkpt lat="41.63028" lon="9.31301">
        <ele>-9.96</ele>
        <time>2014-06-05T05:47:52Z</time>
      </trkpt>
      <trkpt lat="41.63032" lon="9.31322">
        <ele>-10.44</ele>
        <time>2014-06-05T05:47:53Z</time>
      </trkpt>
      <trkpt lat="41.63095" lon="9.31497">
        <ele>-3.23</ele>
        <time>2014-06-05T05:48:01Z</time>
      </trkpt>
      <trkpt lat="41.63196" lon="9.31673">
        <ele>2.06</ele>
        <time>2014-06-05T05:48:10Z</time>
      </trkpt>
      <trkpt lat="41.63204" lon="9.31689">
        <ele>3.02</ele>
        <time>2014-06-05T05:48:11Z</time>
      </trkpt>
      <trkpt lat="41.63209" lon="9.31706">
        <ele>3.98</ele>
        <time>2014-06-05T05:48:12Z</time>
      </trkpt>
      <trkpt lat="41.63211" lon="9.31725">
        <ele>4.46</ele>
        <time>2014-06-05T05:48:13Z</time>
      </trkpt>
      <trkpt lat="41.63211" lon="9.31742">
        <ele>5.42</ele>
        <time>2014-06-05T05:48:14Z</time>
      </trkpt>
      <trkpt lat="41.63209" lon="9.31761">
        <ele>5.91</ele>
        <time>2014-06-05T05:48:15Z</time>
      </trkpt>
      <trkpt lat="41.63206" lon="9.31781">
        <ele>5.91</ele>
        <time>2014-06-05T05:48:16Z</time>
      </trkpt>
      <trkpt lat="41.63202" lon="9.31801">
        <ele>5.91</ele>
        <time>2014-06-05T05:48:17Z</time>
      </trkpt>
      <trkpt lat="41.63197" lon="9.31821">
        <ele>5.42</ele>
        <time>2014-06-05T05:48:18Z</time>
      </trkpt>
      <trkpt lat="41.63168" lon="9.31962">
        <ele>3.02</ele>
        <time>2014-06-05T05:48:25Z</time>
      </trkpt>
      <trkpt lat="41.63163" lon="9.31979">
        <ele>2.06</ele>
        <time>2014-06-05T05:48:26Z</time>
      </trkpt>
      <trkpt lat="41.63155" lon="9.31996">
        <ele>1.58</ele>
        <time>2014-06-05T05:48:27Z</time>
      </trkpt>
      <trkpt lat="41.63111" lon="9.32085">
        <ele>-1.79</ele>
        <time>2014-06-05T05:48:32Z</time>
      </trkpt>
      <trkpt lat="41.63106" lon="9.32107">
        <ele>-1.79</ele>
        <time>2014-06-05T05:48:33Z</time>
      </trkpt>
      <trkpt lat="41.63102" lon="9.32129">
        <ele>-1.79</ele>
        <time>2014-06-05T05:48:34Z</time>
      </trkpt>
      <trkpt lat="41.63096" lon="9.32193">
        <ele>-1.79</ele>
        <time>2014-06-05T05:48:37Z</time>
      </trkpt>
      <trkpt lat="41.63097" lon="9.32213">
        <ele>-2.27</ele>
        <time>2014-06-05T05:48:38Z</time>
      </trkpt>
      <trkpt lat="41.631" lon="9.32234">
        <ele>-2.75</ele>
        <time>2014-06-05T05:48:39Z</time>
      </trkpt>
      <trkpt lat="41.63135" lon="9.32403">
        <ele>-3.23</ele>
        <time>2014-06-05T05:48:46Z</time>
      </trkpt>
      <trkpt lat="41.63195" lon="9.32758">
        <ele>-2.75</ele>
        <time>2014-06-05T05:49:01Z</time>
      </trkpt>
      <trkpt lat="41.63222" lon="9.32894">
        <ele>-3.23</ele>
        <time>2014-06-05T05:49:08Z</time>
      </trkpt>
      <trkpt lat="41.6325" lon="9.32973">
        <ele>-0.34</ele>
        <time>2014-06-05T05:49:13Z</time>
      </trkpt>
      <trkpt lat="41.63255" lon="9.33006">
        <ele>-0.82</ele>
        <time>2014-06-05T05:49:15Z</time>
      </trkpt>
      <trkpt lat="41.63252" lon="9.33083">
        <ele>1.58</ele>
        <time>2014-06-05T05:49:21Z</time>
      </trkpt>
      <trkpt lat="41.63246" lon="9.33108">
        <ele>0.62</ele>
        <time>2014-06-05T05:49:26Z</time>
      </trkpt>
      <trkpt lat="41.63246" lon="9.33115">
        <ele>0.14</ele>
        <time>2014-06-05T05:49:27Z</time>
      </trkpt>
      <trkpt lat="41.63249" lon="9.33122">
        <ele>-0.34</ele>
        <time>2014-06-05T05:49:28Z</time>
      </trkpt>
      <trkpt lat="41.63253" lon="9.3313">
        <ele>-0.34</ele>
        <time>2014-06-05T05:49:29Z</time>
      </trkpt>
      <trkpt lat="41.63258" lon="9.33138">
        <ele>0.14</ele>
        <time>2014-06-05T05:49:30Z</time>
      </trkpt>
      <trkpt lat="41.63301" lon="9.33242">
        <ele>-1.79</ele>
        <time>2014-06-05T05:49:38Z</time>
      </trkpt>
      <trkpt lat="41.63385" lon="9.33367">
        <ele>-3.23</ele>
        <time>2014-06-05T05:49:46Z</time>
      </trkpt>
      <trkpt lat="41.6342" lon="9.3341">
        <ele>-3.23</ele>
        <time>2014-06-05T05:49:49Z</time>
      </trkpt>
      <trkpt lat="41.63434" lon="9.3342">
        <ele>-4.19</ele>
        <time>2014-06-05T05:49:50Z</time>
      </trkpt>
      <trkpt lat="41.63449" lon="9.33429">
        <ele>-4.19</ele>
        <time>2014-06-05T05:49:51Z</time>
      </trkpt>
      <trkpt lat="41.63466" lon="9.33436">
        <ele>-4.19</ele>
        <time>2014-06-05T05:49:52Z</time>
      </trkpt>
      <trkpt lat="41.63484" lon="9.33442">
        <ele>-3.71</ele>
        <time>2014-06-05T05:49:53Z</time>
      </trkpt>
      <trkpt lat="41.63705" lon="9.33519">
        <ele>5.91</ele>
        <time>2014-06-05T05:50:05Z</time>
      </trkpt>
      <trkpt lat="41.63796" lon="9.33551">
        <ele>9.27</ele>
        <time>2014-06-05T05:50:12Z</time>
      </trkpt>
      <trkpt lat="41.63828" lon="9.33561">
        <ele>10.23</ele>
        <time>2014-06-05T05:50:16Z</time>
      </trkpt>
      <trkpt lat="41.63831" lon="9.33567">
        <ele>10.23</ele>
        <time>2014-06-05T05:50:17Z</time>
      </trkpt>
      <trkpt lat="41.63832" lon="9.33573">
        <ele>10.23</ele>
        <time>2014-06-05T05:50:18Z</time>
      </trkpt>
      <trkpt lat="41.63834" lon="9.3358">
        <ele>9.75</ele>
        <time>2014-06-05T05:50:19Z</time>
      </trkpt>
      <trkpt lat="41.63838" lon="9.33587">
        <ele>9.75</ele>
        <time>2014-06-05T05:50:20Z</time>
      </trkpt>
      <trkpt lat="41.63844" lon="9.33592">
        <ele>8.79</ele>
        <time>2014-06-05T05:50:21Z</time>
      </trkpt>
      <trkpt lat="41.6385" lon="9.33596">
        <ele>9.27</ele>
        <time>2014-06-05T05:50:22Z</time>
      </trkpt>
      <trkpt lat="41.63858" lon="9.33599">
        <ele>10.23</ele>
        <time>2014-06-05T05:50:23Z</time>
      </trkpt>
      <trkpt lat="41.63876" lon="9.33609">
        <ele>10.71</ele>
        <time>2014-06-05T05:50:25Z</time>
      </trkpt>
      <trkpt lat="41.63884" lon="9.33617">
        <ele>10.71</ele>
        <time>2014-06-05T05:50:26Z</time>
      </trkpt>
      <trkpt lat="41.63894" lon="9.33627">
        <ele>10.71</ele>
        <time>2014-06-05T05:50:27Z</time>
      </trkpt>
      <trkpt lat="41.63978" lon="9.33728">
        <ele>11.67</ele>
        <time>2014-06-05T05:50:34Z</time>
      </trkpt>
      <trkpt lat="41.64134" lon="9.33915">
        <ele>7.83</ele>
        <time>2014-06-05T05:50:44Z</time>
      </trkpt>
      <trkpt lat="41.64398" lon="9.34221">
        <ele>8.79</ele>
        <time>2014-06-05T05:51:00Z</time>
      </trkpt>
      <trkpt lat="41.64604" lon="9.34441">
        <ele>6.39</ele>
        <time>2014-06-05T05:51:13Z</time>
      </trkpt>
      <trkpt lat="41.64761" lon="9.34529">
        <ele>14.08</ele>
        <time>2014-06-05T05:51:22Z</time>
      </trkpt>
      <trkpt lat="41.64779" lon="9.34531">
        <ele>15.04</ele>
        <time>2014-06-05T05:51:23Z</time>
      </trkpt>
      <trkpt lat="41.6485" lon="9.34536">
        <ele>18.4</ele>
        <time>2014-06-05T05:51:27Z</time>
      </trkpt>
      <trkpt lat="41.64864" lon="9.34541">
        <ele>19.84</ele>
        <time>2014-06-05T05:51:28Z</time>
      </trkpt>
      <trkpt lat="41.64877" lon="9.34548">
        <ele>20.81</ele>
        <time>2014-06-05T05:51:29Z</time>
      </trkpt>
      <trkpt lat="41.6489" lon="9.34554">
        <ele>21.29</ele>
        <time>2014-06-05T05:51:30Z</time>
      </trkpt>
      <trkpt lat="41.64902" lon="9.34559">
        <ele>22.25</ele>
        <time>2014-06-05T05:51:31Z</time>
      </trkpt>
      <trkpt lat="41.64916" lon="9.34562">
        <ele>22.25</ele>
        <time>2014-06-05T05:51:32Z</time>
      </trkpt>
      <trkpt lat="41.6493" lon="9.34564">
        <ele>22.25</ele>
        <time>2014-06-05T05:51:33Z</time>
      </trkpt>
      <trkpt lat="41.64944" lon="9.34565">
        <ele>22.73</ele>
        <time>2014-06-05T05:51:34Z</time>
      </trkpt>
      <trkpt lat="41.65087" lon="9.346">
        <ele>24.65</ele>
        <time>2014-06-05T05:51:44Z</time>
      </trkpt>
      <trkpt lat="41.65159" lon="9.34628">
        <ele>25.13</ele>
        <time>2014-06-05T05:51:50Z</time>
      </trkpt>
      <trkpt lat="41.65168" lon="9.34636">
        <ele>25.61</ele>
        <time>2014-06-05T05:51:51Z</time>
      </trkpt>
      <trkpt lat="41.65175" lon="9.34648">
        <ele>26.57</ele>
        <time>2014-06-05T05:51:52Z</time>
      </trkpt>
      <trkpt lat="41.65214" lon="9.34733">
        <ele>28.5</ele>
        <time>2014-06-05T05:51:59Z</time>
      </trkpt>
      <trkpt lat="41.65222" lon="9.3477">
        <ele>27.53</ele>
        <time>2014-06-05T05:52:07Z</time>
      </trkpt>
      <trkpt lat="41.65222" lon="9.34822">
        <ele>27.53</ele>
        <time>2014-06-05T05:52:19Z</time>
      </trkpt>
      <trkpt lat="41.65222" lon="9.34854">
        <ele>24.65</ele>
        <time>2014-06-05T05:52:27Z</time>
      </trkpt>
      <trkpt lat="41.65222" lon="9.34857">
        <ele>24.65</ele>
        <time>2014-06-05T05:52:28Z</time>
      </trkpt>
      <trkpt lat="41.65219" lon="9.34863">
        <ele>23.69</ele>
        <time>2014-06-05T05:52:30Z</time>
      </trkpt>
      <trkpt lat="41.65201" lon="9.34885">
        <ele>21.29</ele>
        <time>2014-06-05T05:52:42Z</time>
      </trkpt>
      <trkpt lat="41.65199" lon="9.34887">
        <ele>20.81</ele>
        <time>2014-06-05T05:52:43Z</time>
      </trkpt>
      <trkpt lat="41.65192" lon="9.34894">
        <ele>21.29</ele>
        <time>2014-06-05T05:52:46Z</time>
      </trkpt>
      <trkpt lat="41.65174" lon="9.34907">
        <ele>19.84</ele>
        <time>2014-06-05T05:52:59Z</time>
      </trkpt>
      <trkpt lat="41.65174" lon="9.34908">
        <ele>19.84</ele>
        <time>2014-06-05T05:53:12Z</time>
      </trkpt>
      <trkpt lat="41.65175" lon="9.34919">
        <ele>21.29</ele>
        <time>2014-06-05T05:53:26Z</time>
      </trkpt>
      <trkpt lat="41.65171" lon="9.34922">
        <ele>15.04</ele>
        <time>2014-06-05T06:00:32Z</time>
      </trkpt>
      <trkpt lat="41.65188" lon="9.34937">
        <ele>13.12</ele>
        <time>2014-06-05T06:00:44Z</time>
      </trkpt>
      <trkpt lat="41.65214" lon="9.34915">
        <ele>17.92</ele>
        <time>2014-06-05T06:00:57Z</time>
      </trkpt>
      <trkpt lat="41.65213" lon="9.34916">
        <ele>17.92</ele>
        <time>2014-06-05T06:03:17Z</time>
      </trkpt>
      <trkpt lat="41.65212" lon="9.34916">
        <ele>17.92</ele>
        <time>2014-06-05T06:05:53Z</time>
      </trkpt>
      <trkpt lat="41.65212" lon="9.34917">
        <ele>17.92</ele>
        <time>2014-06-05T06:07:44Z</time>
      </trkpt>
      <trkpt lat="41.65212" lon="9.34917">
        <ele>17.92</ele>
        <time>2014-06-05T06:09:26Z</time>
      </trkpt>
      <trkpt lat="41.65211" lon="9.34917">
        <ele>17.92</ele>
        <time>2014-06-05T06:11:22Z</time>
      </trkpt>
      <trkpt lat="41.65216" lon="9.34893">
        <ele>18.88</ele>
        <time>2014-06-05T06:11:38Z</time>
      </trkpt>
      <trkpt lat="41.65217" lon="9.34856">
        <ele>20.81</ele>
        <time>2014-06-05T06:11:49Z</time>
      </trkpt>
      <trkpt lat="41.65214" lon="9.3483">
        <ele>22.73</ele>
        <time>2014-06-05T06:11:55Z</time>
      </trkpt>
      <trkpt lat="41.65213" lon="9.34829">
        <ele>23.21</ele>
        <time>2014-06-05T06:11:56Z</time>
      </trkpt>
      <trkpt lat="41.65213" lon="9.34825">
        <ele>23.21</ele>
        <time>2014-06-05T06:11:57Z</time>
      </trkpt>
      <trkpt lat="41.65214" lon="9.34821">
        <ele>23.21</ele>
        <time>2014-06-05T06:11:58Z</time>
      </trkpt>
      <trkpt lat="41.65215" lon="9.34816">
        <ele>23.69</ele>
        <time>2014-06-05T06:11:59Z</time>
      </trkpt>
      <trkpt lat="41.65218" lon="9.34809">
        <ele>23.69</ele>
        <time>2014-06-05T06:12:00Z</time>
      </trkpt>
      <trkpt lat="41.65218" lon="9.34779">
        <ele>25.61</ele>
        <time>2014-06-05T06:12:05Z</time>
      </trkpt>
      <trkpt lat="41.65216" lon="9.34774">
        <ele>25.61</ele>
        <time>2014-06-05T06:12:06Z</time>
      </trkpt>
      <trkpt lat="41.65214" lon="9.34756">
        <ele>26.57</ele>
        <time>2014-06-05T06:12:11Z</time>
      </trkpt>
      <trkpt lat="41.65216" lon="9.34753">
        <ele>27.05</ele>
        <time>2014-06-05T06:12:23Z</time>
      </trkpt>
      <trkpt lat="41.65216" lon="9.34753">
        <ele>27.05</ele>
        <time>2014-06-05T06:12:26Z</time>
      </trkpt>
      <trkpt lat="41.65226" lon="9.34763">
        <ele>27.05</ele>
        <time>2014-06-05T06:12:30Z</time>
      </trkpt>
      <trkpt lat="41.65231" lon="9.34773">
        <ele>26.57</ele>
        <time>2014-06-05T06:12:31Z</time>
      </trkpt>
      <trkpt lat="41.65262" lon="9.34834">
        <ele>25.13</ele>
        <time>2014-06-05T06:12:36Z</time>
      </trkpt>
      <trkpt lat="41.6527" lon="9.34844">
        <ele>25.13</ele>
        <time>2014-06-05T06:12:37Z</time>
      </trkpt>
      <trkpt lat="41.65322" lon="9.34906">
        <ele>28.5</ele>
        <time>2014-06-05T06:12:45Z</time>
      </trkpt>
      <trkpt lat="41.65329" lon="9.34912">
        <ele>28.5</ele>
        <time>2014-06-05T06:12:46Z</time>
      </trkpt>
      <trkpt lat="41.65336" lon="9.34917">
        <ele>29.46</ele>
        <time>2014-06-05T06:12:47Z</time>
      </trkpt>
      <trkpt lat="41.65344" lon="9.34921">
        <ele>29.46</ele>
        <time>2014-06-05T06:12:48Z</time>
      </trkpt>
      <trkpt lat="41.65352" lon="9.34924">
        <ele>29.94</ele>
        <time>2014-06-05T06:12:49Z</time>
      </trkpt>
      <trkpt lat="41.65365" lon="9.34932">
        <ele>30.9</ele>
        <time>2014-06-05T06:12:51Z</time>
      </trkpt>
      <trkpt lat="41.65395" lon="9.34956">
        <ele>34.26</ele>
        <time>2014-06-05T06:13:00Z</time>
      </trkpt>
      <trkpt lat="41.6541" lon="9.34969">
        <ele>35.71</ele>
        <time>2014-06-05T06:13:07Z</time>
      </trkpt>
      <trkpt lat="41.65416" lon="9.34972">
        <ele>36.19</ele>
        <time>2014-06-05T06:13:08Z</time>
      </trkpt>
      <trkpt lat="41.6543" lon="9.34976">
        <ele>36.67</ele>
        <time>2014-06-05T06:13:10Z</time>
      </trkpt>
      <trkpt lat="41.65438" lon="9.34976">
        <ele>37.15</ele>
        <time>2014-06-05T06:13:11Z</time>
      </trkpt>
      <trkpt lat="41.65503" lon="9.34972">
        <ele>38.59</ele>
        <time>2014-06-05T06:13:19Z</time>
      </trkpt>
      <trkpt lat="41.65511" lon="9.3497">
        <ele>38.11</ele>
        <time>2014-06-05T06:13:20Z</time>
      </trkpt>
      <trkpt lat="41.65519" lon="9.34965">
        <ele>38.11</ele>
        <time>2014-06-05T06:13:21Z</time>
      </trkpt>
      <trkpt lat="41.65559" lon="9.34954">
        <ele>35.71</ele>
        <time>2014-06-05T06:13:25Z</time>
      </trkpt>
      <trkpt lat="41.65627" lon="9.34964">
        <ele>38.59</ele>
        <time>2014-06-05T06:13:31Z</time>
      </trkpt>
      <trkpt lat="41.65636" lon="9.3497">
        <ele>39.07</ele>
        <time>2014-06-05T06:13:32Z</time>
      </trkpt>
      <trkpt lat="41.65644" lon="9.34977">
        <ele>40.03</ele>
        <time>2014-06-05T06:13:33Z</time>
      </trkpt>
      <trkpt lat="41.65651" lon="9.34988">
        <ele>40.03</ele>
        <time>2014-06-05T06:13:34Z</time>
      </trkpt>
      <trkpt lat="41.65657" lon="9.35001">
        <ele>40.99</ele>
        <time>2014-06-05T06:13:35Z</time>
      </trkpt>
      <trkpt lat="41.65665" lon="9.35016">
        <ele>41.47</ele>
        <time>2014-06-05T06:13:36Z</time>
      </trkpt>
      <trkpt lat="41.657" lon="9.35099">
        <ele>43.88</ele>
        <time>2014-06-05T06:13:41Z</time>
      </trkpt>
      <trkpt lat="41.65703" lon="9.35113">
        <ele>44.36</ele>
        <time>2014-06-05T06:13:42Z</time>
      </trkpt>
      <trkpt lat="41.65704" lon="9.35126">
        <ele>44.84</ele>
        <time>2014-06-05T06:13:43Z</time>
      </trkpt>
      <trkpt lat="41.65703" lon="9.3514">
        <ele>45.32</ele>
        <time>2014-06-05T06:13:44Z</time>
      </trkpt>
      <trkpt lat="41.65703" lon="9.35154">
        <ele>45.8</ele>
        <time>2014-06-05T06:13:45Z</time>
      </trkpt>
      <trkpt lat="41.65685" lon="9.35317">
        <ele>48.68</ele>
        <time>2014-06-05T06:13:56Z</time>
      </trkpt>
      <trkpt lat="41.65685" lon="9.3533">
        <ele>49.16</ele>
        <time>2014-06-05T06:13:57Z</time>
      </trkpt>
      <trkpt lat="41.65687" lon="9.35341">
        <ele>50.61</ele>
        <time>2014-06-05T06:13:58Z</time>
      </trkpt>
      <trkpt lat="41.6569" lon="9.35353">
        <ele>52.05</ele>
        <time>2014-06-05T06:13:59Z</time>
      </trkpt>
      <trkpt lat="41.65695" lon="9.35362">
        <ele>53.01</ele>
        <time>2014-06-05T06:14:00Z</time>
      </trkpt>
      <trkpt lat="41.657" lon="9.3537">
        <ele>53.49</ele>
        <time>2014-06-05T06:14:01Z</time>
      </trkpt>
      <trkpt lat="41.65707" lon="9.35377">
        <ele>53.49</ele>
        <time>2014-06-05T06:14:02Z</time>
      </trkpt>
      <trkpt lat="41.65714" lon="9.35385">
        <ele>53.97</ele>
        <time>2014-06-05T06:14:03Z</time>
      </trkpt>
      <trkpt lat="41.65728" lon="9.35401">
        <ele>53.49</ele>
        <time>2014-06-05T06:14:05Z</time>
      </trkpt>
      <trkpt lat="41.65735" lon="9.35411">
        <ele>53.49</ele>
        <time>2014-06-05T06:14:06Z</time>
      </trkpt>
      <trkpt lat="41.6574" lon="9.35423">
        <ele>53.01</ele>
        <time>2014-06-05T06:14:07Z</time>
      </trkpt>
      <trkpt lat="41.65744" lon="9.35436">
        <ele>52.53</ele>
        <time>2014-06-05T06:14:08Z</time>
      </trkpt>
      <trkpt lat="41.65747" lon="9.3545">
        <ele>52.05</ele>
        <time>2014-06-05T06:14:09Z</time>
      </trkpt>
      <trkpt lat="41.65749" lon="9.35464">
        <ele>52.05</ele>
        <time>2014-06-05T06:14:10Z</time>
      </trkpt>
      <trkpt lat="41.65759" lon="9.355">
        <ele>52.05</ele>
        <time>2014-06-05T06:14:13Z</time>
      </trkpt>
      <trkpt lat="41.65764" lon="9.35509">
        <ele>52.05</ele>
        <time>2014-06-05T06:14:14Z</time>
      </trkpt>
      <trkpt lat="41.65771" lon="9.35515">
        <ele>51.57</ele>
        <time>2014-06-05T06:14:15Z</time>
      </trkpt>
      <trkpt lat="41.6578" lon="9.3552">
        <ele>51.09</ele>
        <time>2014-06-05T06:14:16Z</time>
      </trkpt>
      <trkpt lat="41.6579" lon="9.35524">
        <ele>50.61</ele>
        <time>2014-06-05T06:14:17Z</time>
      </trkpt>
      <trkpt lat="41.65801" lon="9.35527">
        <ele>49.16</ele>
        <time>2014-06-05T06:14:18Z</time>
      </trkpt>
      <trkpt lat="41.65823" lon="9.35534">
        <ele>48.2</ele>
        <time>2014-06-05T06:14:20Z</time>
      </trkpt>
      <trkpt lat="41.65833" lon="9.3554">
        <ele>46.76</ele>
        <time>2014-06-05T06:14:21Z</time>
      </trkpt>
      <trkpt lat="41.65841" lon="9.35548">
        <ele>45.32</ele>
        <time>2014-06-05T06:14:22Z</time>
      </trkpt>
      <trkpt lat="41.65849" lon="9.35558">
        <ele>43.88</ele>
        <time>2014-06-05T06:14:23Z</time>
      </trkpt>
      <trkpt lat="41.65858" lon="9.35569">
        <ele>42.44</ele>
        <time>2014-06-05T06:14:24Z</time>
      </trkpt>
      <trkpt lat="41.65925" lon="9.35661">
        <ele>40.03</ele>
        <time>2014-06-05T06:14:31Z</time>
      </trkpt>
      <trkpt lat="41.65941" lon="9.35686">
        <ele>39.07</ele>
        <time>2014-06-05T06:14:33Z</time>
      </trkpt>
      <trkpt lat="41.65948" lon="9.35699">
        <ele>39.55</ele>
        <time>2014-06-05T06:14:34Z</time>
      </trkpt>
      <trkpt lat="41.65954" lon="9.35713">
        <ele>39.55</ele>
        <time>2014-06-05T06:14:35Z</time>
      </trkpt>
      <trkpt lat="41.65993" lon="9.3582">
        <ele>40.03</ele>
        <time>2014-06-05T06:14:43Z</time>
      </trkpt>
      <trkpt lat="41.66034" lon="9.35921">
        <ele>32.34</ele>
        <time>2014-06-05T06:14:50Z</time>
      </trkpt>
      <trkpt lat="41.66041" lon="9.35933">
        <ele>31.86</ele>
        <time>2014-06-05T06:14:51Z</time>
      </trkpt>
      <trkpt lat="41.66095" lon="9.36002">
        <ele>28.5</ele>
        <time>2014-06-05T06:14:57Z</time>
      </trkpt>
      <trkpt lat="41.66106" lon="9.3601">
        <ele>28.02</ele>
        <time>2014-06-05T06:14:58Z</time>
      </trkpt>
      <trkpt lat="41.662" lon="9.36083">
        <ele>34.74</ele>
        <time>2014-06-05T06:15:06Z</time>
      </trkpt>
      <trkpt lat="41.66289" lon="9.36135">
        <ele>32.34</ele>
        <time>2014-06-05T06:15:13Z</time>
      </trkpt>
      <trkpt lat="41.66302" lon="9.36139">
        <ele>33.78</ele>
        <time>2014-06-05T06:15:14Z</time>
      </trkpt>
      <trkpt lat="41.66315" lon="9.3614">
        <ele>35.71</ele>
        <time>2014-06-05T06:15:15Z</time>
      </trkpt>
      <trkpt lat="41.66351" lon="9.36142">
        <ele>41.47</ele>
        <time>2014-06-05T06:15:18Z</time>
      </trkpt>
      <trkpt lat="41.66362" lon="9.36145">
        <ele>41.95</ele>
        <time>2014-06-05T06:15:19Z</time>
      </trkpt>
      <trkpt lat="41.66386" lon="9.36156">
        <ele>44.36</ele>
        <time>2014-06-05T06:15:21Z</time>
      </trkpt>
      <trkpt lat="41.66397" lon="9.36165">
        <ele>45.32</ele>
        <time>2014-06-05T06:15:22Z</time>
      </trkpt>
      <trkpt lat="41.66407" lon="9.36175">
        <ele>45.32</ele>
        <time>2014-06-05T06:15:23Z</time>
      </trkpt>
      <trkpt lat="41.66417" lon="9.36186">
        <ele>45.8</ele>
        <time>2014-06-05T06:15:24Z</time>
      </trkpt>
      <trkpt lat="41.66426" lon="9.36199">
        <ele>45.8</ele>
        <time>2014-06-05T06:15:25Z</time>
      </trkpt>
      <trkpt lat="41.66433" lon="9.36213">
        <ele>45.8</ele>
        <time>2014-06-05T06:15:26Z</time>
      </trkpt>
      <trkpt lat="41.66439" lon="9.36227">
        <ele>45.32</ele>
        <time>2014-06-05T06:15:27Z</time>
      </trkpt>
      <trkpt lat="41.66445" lon="9.36242">
        <ele>44.84</ele>
        <time>2014-06-05T06:15:28Z</time>
      </trkpt>
      <trkpt lat="41.66458" lon="9.36267">
        <ele>42.92</ele>
        <time>2014-06-05T06:15:30Z</time>
      </trkpt>
      <trkpt lat="41.66474" lon="9.36291">
        <ele>41.47</ele>
        <time>2014-06-05T06:15:32Z</time>
      </trkpt>
      <trkpt lat="41.6648" lon="9.36305">
        <ele>40.99</ele>
        <time>2014-06-05T06:15:33Z</time>
      </trkpt>
      <trkpt lat="41.66486" lon="9.3632">
        <ele>42.44</ele>
        <time>2014-06-05T06:15:34Z</time>
      </trkpt>
      <trkpt lat="41.66501" lon="9.36344">
        <ele>42.92</ele>
        <time>2014-06-05T06:15:36Z</time>
      </trkpt>
      <trkpt lat="41.6651" lon="9.36354">
        <ele>42.44</ele>
        <time>2014-06-05T06:15:37Z</time>
      </trkpt>
      <trkpt lat="41.66523" lon="9.36363">
        <ele>42.44</ele>
        <time>2014-06-05T06:15:38Z</time>
      </trkpt>
      <trkpt lat="41.66537" lon="9.36374">
        <ele>40.99</ele>
        <time>2014-06-05T06:15:39Z</time>
      </trkpt>
      <trkpt lat="41.6655" lon="9.36386">
        <ele>40.51</ele>
        <time>2014-06-05T06:15:40Z</time>
      </trkpt>
      <trkpt lat="41.66562" lon="9.364">
        <ele>40.99</ele>
        <time>2014-06-05T06:15:41Z</time>
      </trkpt>
      <trkpt lat="41.66586" lon="9.36425">
        <ele>40.03</ele>
        <time>2014-06-05T06:15:43Z</time>
      </trkpt>
      <trkpt lat="41.66599" lon="9.36435">
        <ele>40.03</ele>
        <time>2014-06-05T06:15:44Z</time>
      </trkpt>
      <trkpt lat="41.66612" lon="9.36443">
        <ele>39.55</ele>
        <time>2014-06-05T06:15:45Z</time>
      </trkpt>
      <trkpt lat="41.66625" lon="9.36452">
        <ele>39.07</ele>
        <time>2014-06-05T06:15:46Z</time>
      </trkpt>
      <trkpt lat="41.66637" lon="9.36462">
        <ele>38.59</ele>
        <time>2014-06-05T06:15:47Z</time>
      </trkpt>
      <trkpt lat="41.66648" lon="9.36474">
        <ele>38.59</ele>
        <time>2014-06-05T06:15:48Z</time>
      </trkpt>
      <trkpt lat="41.66658" lon="9.36485">
        <ele>38.59</ele>
        <time>2014-06-05T06:15:49Z</time>
      </trkpt>
      <trkpt lat="41.66687" lon="9.3651">
        <ele>37.63</ele>
        <time>2014-06-05T06:15:52Z</time>
      </trkpt>
      <trkpt lat="41.66696" lon="9.36512">
        <ele>37.15</ele>
        <time>2014-06-05T06:15:53Z</time>
      </trkpt>
      <trkpt lat="41.66706" lon="9.36512">
        <ele>36.19</ele>
        <time>2014-06-05T06:15:54Z</time>
      </trkpt>
      <trkpt lat="41.66716" lon="9.36507">
        <ele>35.71</ele>
        <time>2014-06-05T06:15:55Z</time>
      </trkpt>
      <trkpt lat="41.66727" lon="9.36502">
        <ele>35.71</ele>
        <time>2014-06-05T06:15:56Z</time>
      </trkpt>
      <trkpt lat="41.6674" lon="9.36498">
        <ele>34.74</ele>
        <time>2014-06-05T06:15:57Z</time>
      </trkpt>
      <trkpt lat="41.66837" lon="9.36467">
        <ele>34.26</ele>
        <time>2014-06-05T06:16:04Z</time>
      </trkpt>
      <trkpt lat="41.66846" lon="9.36467">
        <ele>33.78</ele>
        <time>2014-06-05T06:16:05Z</time>
      </trkpt>
      <trkpt lat="41.66854" lon="9.3647">
        <ele>33.78</ele>
        <time>2014-06-05T06:16:06Z</time>
      </trkpt>
      <trkpt lat="41.66861" lon="9.36476">
        <ele>33.3</ele>
        <time>2014-06-05T06:16:07Z</time>
      </trkpt>
      <trkpt lat="41.66868" lon="9.36486">
        <ele>33.3</ele>
        <time>2014-06-05T06:16:08Z</time>
      </trkpt>
      <trkpt lat="41.66877" lon="9.36497">
        <ele>32.82</ele>
        <time>2014-06-05T06:16:09Z</time>
      </trkpt>
      <trkpt lat="41.66886" lon="9.36509">
        <ele>32.34</ele>
        <time>2014-06-05T06:16:10Z</time>
      </trkpt>
      <trkpt lat="41.66925" lon="9.36552">
        <ele>29.94</ele>
        <time>2014-06-05T06:16:14Z</time>
      </trkpt>
      <trkpt lat="41.66936" lon="9.3656">
        <ele>29.46</ele>
        <time>2014-06-05T06:16:15Z</time>
      </trkpt>
      <trkpt lat="41.66946" lon="9.36566">
        <ele>29.46</ele>
        <time>2014-06-05T06:16:16Z</time>
      </trkpt>
      <trkpt lat="41.66956" lon="9.36572">
        <ele>29.46</ele>
        <time>2014-06-05T06:16:17Z</time>
      </trkpt>
      <trkpt lat="41.66966" lon="9.36576">
        <ele>29.46</ele>
        <time>2014-06-05T06:16:18Z</time>
      </trkpt>
      <trkpt lat="41.66983" lon="9.36582">
        <ele>29.46</ele>
        <time>2014-06-05T06:16:20Z</time>
      </trkpt>
      <trkpt lat="41.66991" lon="9.36581">
        <ele>29.46</ele>
        <time>2014-06-05T06:16:21Z</time>
      </trkpt>
      <trkpt lat="41.66998" lon="9.36575">
        <ele>28.5</ele>
        <time>2014-06-05T06:16:22Z</time>
      </trkpt>
      <trkpt lat="41.67005" lon="9.36568">
        <ele>27.53</ele>
        <time>2014-06-05T06:16:23Z</time>
      </trkpt>
      <trkpt lat="41.67012" lon="9.36559">
        <ele>27.05</ele>
        <time>2014-06-05T06:16:24Z</time>
      </trkpt>
      <trkpt lat="41.67029" lon="9.36545">
        <ele>26.57</ele>
        <time>2014-06-05T06:16:26Z</time>
      </trkpt>
      <trkpt lat="41.67039" lon="9.36543">
        <ele>25.61</ele>
        <time>2014-06-05T06:16:27Z</time>
      </trkpt>
      <trkpt lat="41.67047" lon="9.36546">
        <ele>24.65</ele>
        <time>2014-06-05T06:16:28Z</time>
      </trkpt>
      <trkpt lat="41.67056" lon="9.36552">
        <ele>24.17</ele>
        <time>2014-06-05T06:16:29Z</time>
      </trkpt>
      <trkpt lat="41.67065" lon="9.3656">
        <ele>22.73</ele>
        <time>2014-06-05T06:16:30Z</time>
      </trkpt>
      <trkpt lat="41.67074" lon="9.3657">
        <ele>21.77</ele>
        <time>2014-06-05T06:16:31Z</time>
      </trkpt>
      <trkpt lat="41.67094" lon="9.3659">
        <ele>20.81</ele>
        <time>2014-06-05T06:16:33Z</time>
      </trkpt>
      <trkpt lat="41.67105" lon="9.36598">
        <ele>20.32</ele>
        <time>2014-06-05T06:16:34Z</time>
      </trkpt>
      <trkpt lat="41.67117" lon="9.36604">
        <ele>20.32</ele>
        <time>2014-06-05T06:16:35Z</time>
      </trkpt>
      <trkpt lat="41.67129" lon="9.3661">
        <ele>20.32</ele>
        <time>2014-06-05T06:16:36Z</time>
      </trkpt>
      <trkpt lat="41.6714" lon="9.36614">
        <ele>19.84</ele>
        <time>2014-06-05T06:16:37Z</time>
      </trkpt>
      <trkpt lat="41.67151" lon="9.36617">
        <ele>20.32</ele>
        <time>2014-06-05T06:16:38Z</time>
      </trkpt>
      <trkpt lat="41.67161" lon="9.36617">
        <ele>20.32</ele>
        <time>2014-06-05T06:16:39Z</time>
      </trkpt>
      <trkpt lat="41.67172" lon="9.36614">
        <ele>19.84</ele>
        <time>2014-06-05T06:16:40Z</time>
      </trkpt>
      <trkpt lat="41.67183" lon="9.3661">
        <ele>19.84</ele>
        <time>2014-06-05T06:16:41Z</time>
      </trkpt>
      <trkpt lat="41.67193" lon="9.36604">
        <ele>20.32</ele>
        <time>2014-06-05T06:16:42Z</time>
      </trkpt>
      <trkpt lat="41.67205" lon="9.36596">
        <ele>20.81</ele>
        <time>2014-06-05T06:16:43Z</time>
      </trkpt>
      <trkpt lat="41.67215" lon="9.36588">
        <ele>20.32</ele>
        <time>2014-06-05T06:16:44Z</time>
      </trkpt>
      <trkpt lat="41.67346" lon="9.36497">
        <ele>12.15</ele>
        <time>2014-06-05T06:16:56Z</time>
      </trkpt>
      <trkpt lat="41.67357" lon="9.36495">
        <ele>11.67</ele>
        <time>2014-06-05T06:16:57Z</time>
      </trkpt>
      <trkpt lat="41.67366" lon="9.36496">
        <ele>11.67</ele>
        <time>2014-06-05T06:16:58Z</time>
      </trkpt>
      <trkpt lat="41.67375" lon="9.36499">
        <ele>11.67</ele>
        <time>2014-06-05T06:16:59Z</time>
      </trkpt>
      <trkpt lat="41.67384" lon="9.36505">
        <ele>10.71</ele>
        <time>2014-06-05T06:17:00Z</time>
      </trkpt>
      <trkpt lat="41.67393" lon="9.36511">
        <ele>9.75</ele>
        <time>2014-06-05T06:17:01Z</time>
      </trkpt>
      <trkpt lat="41.67402" lon="9.36518">
        <ele>9.27</ele>
        <time>2014-06-05T06:17:02Z</time>
      </trkpt>
      <trkpt lat="41.67422" lon="9.36532">
        <ele>7.83</ele>
        <time>2014-06-05T06:17:04Z</time>
      </trkpt>
      <trkpt lat="41.67432" lon="9.36535">
        <ele>7.83</ele>
        <time>2014-06-05T06:17:05Z</time>
      </trkpt>
      <trkpt lat="41.6745" lon="9.36544">
        <ele>6.87</ele>
        <time>2014-06-05T06:17:07Z</time>
      </trkpt>
      <trkpt lat="41.67458" lon="9.36551">
        <ele>5.91</ele>
        <time>2014-06-05T06:17:08Z</time>
      </trkpt>
      <trkpt lat="41.67464" lon="9.3656">
        <ele>5.42</ele>
        <time>2014-06-05T06:17:09Z</time>
      </trkpt>
      <trkpt lat="41.67469" lon="9.36571">
        <ele>5.42</ele>
        <time>2014-06-05T06:17:10Z</time>
      </trkpt>
      <trkpt lat="41.67474" lon="9.36583">
        <ele>4.94</ele>
        <time>2014-06-05T06:17:11Z</time>
      </trkpt>
      <trkpt lat="41.67549" lon="9.36739">
        <ele>2.06</ele>
        <time>2014-06-05T06:17:22Z</time>
      </trkpt>
      <trkpt lat="41.6757" lon="9.36777">
        <ele>2.54</ele>
        <time>2014-06-05T06:17:25Z</time>
      </trkpt>
      <trkpt lat="41.67597" lon="9.36819">
        <ele>3.98</ele>
        <time>2014-06-05T06:17:29Z</time>
      </trkpt>
      <trkpt lat="41.676" lon="9.36829">
        <ele>3.98</ele>
        <time>2014-06-05T06:17:30Z</time>
      </trkpt>
      <trkpt lat="41.67603" lon="9.36842">
        <ele>3.98</ele>
        <time>2014-06-05T06:17:31Z</time>
      </trkpt>
      <trkpt lat="41.67613" lon="9.36882">
        <ele>1.1</ele>
        <time>2014-06-05T06:17:34Z</time>
      </trkpt>
      <trkpt lat="41.67627" lon="9.36923">
        <ele>-1.3</ele>
        <time>2014-06-05T06:17:37Z</time>
      </trkpt>
      <trkpt lat="41.67641" lon="9.36958">
        <ele>-2.27</ele>
        <time>2014-06-05T06:17:40Z</time>
      </trkpt>
      <trkpt lat="41.6766" lon="9.37011">
        <ele>-1.79</ele>
        <time>2014-06-05T06:17:48Z</time>
      </trkpt>
      <trkpt lat="41.67658" lon="9.37014">
        <ele>-2.75</ele>
        <time>2014-06-05T06:17:49Z</time>
      </trkpt>
      <trkpt lat="41.67655" lon="9.37016">
        <ele>-2.75</ele>
        <time>2014-06-05T06:17:50Z</time>
      </trkpt>
      <trkpt lat="41.67652" lon="9.37018">
        <ele>-2.27</ele>
        <time>2014-06-05T06:17:51Z</time>
      </trkpt>
      <trkpt lat="41.67647" lon="9.37019">
        <ele>-2.27</ele>
        <time>2014-06-05T06:17:52Z</time>
      </trkpt>
      <trkpt lat="41.67641" lon="9.3702">
        <ele>-2.27</ele>
        <time>2014-06-05T06:17:53Z</time>
      </trkpt>
      <trkpt lat="41.67554" lon="9.37035">
        <ele>-0.82</ele>
        <time>2014-06-05T06:18:05Z</time>
      </trkpt>
      <trkpt lat="41.67477" lon="9.37069">
        <ele>3.5</ele>
        <time>2014-06-05T06:18:15Z</time>
      </trkpt>
      <trkpt lat="41.67394" lon="9.371">
        <ele>3.02</ele>
        <time>2014-06-05T06:18:24Z</time>
      </trkpt>
      <trkpt lat="41.6727" lon="9.37141">
        <ele>1.1</ele>
        <time>2014-06-05T06:18:36Z</time>
      </trkpt>
      <trkpt lat="41.67156" lon="9.37184">
        <ele>0.62</ele>
        <time>2014-06-05T06:18:48Z</time>
      </trkpt>
      <trkpt lat="41.67079" lon="9.37198">
        <ele>2.06</ele>
        <time>2014-06-05T06:18:57Z</time>
      </trkpt>
      <trkpt lat="41.67071" lon="9.37202">
        <ele>1.58</ele>
        <time>2014-06-05T06:18:58Z</time>
      </trkpt>
      <trkpt lat="41.67056" lon="9.37212">
        <ele>1.58</ele>
        <time>2014-06-05T06:19:00Z</time>
      </trkpt>
      <trkpt lat="41.67049" lon="9.3722">
        <ele>1.58</ele>
        <time>2014-06-05T06:19:01Z</time>
      </trkpt>
      <trkpt lat="41.6703" lon="9.37245">
        <ele>2.06</ele>
        <time>2014-06-05T06:19:04Z</time>
      </trkpt>
      <trkpt lat="41.66957" lon="9.37376">
        <ele>0.14</ele>
        <time>2014-06-05T06:19:17Z</time>
      </trkpt>
      <trkpt lat="41.66946" lon="9.37397">
        <ele>0.14</ele>
        <time>2014-06-05T06:19:19Z</time>
      </trkpt>
      <trkpt lat="41.66941" lon="9.37409">
        <ele>0.62</ele>
        <time>2014-06-05T06:19:20Z</time>
      </trkpt>
      <trkpt lat="41.66938" lon="9.3742">
        <ele>0.62</ele>
        <time>2014-06-05T06:19:21Z</time>
      </trkpt>
      <trkpt lat="41.66936" lon="9.37432">
        <ele>0.14</ele>
        <time>2014-06-05T06:19:22Z</time>
      </trkpt>
      <trkpt lat="41.66934" lon="9.37444">
        <ele>0.62</ele>
        <time>2014-06-05T06:19:23Z</time>
      </trkpt>
      <trkpt lat="41.66911" lon="9.37542">
        <ele>0.14</ele>
        <time>2014-06-05T06:19:33Z</time>
      </trkpt>
      <trkpt lat="41.66908" lon="9.37549">
        <ele>0.14</ele>
        <time>2014-06-05T06:19:34Z</time>
      </trkpt>
      <trkpt lat="41.66904" lon="9.37557">
        <ele>-0.82</ele>
        <time>2014-06-05T06:19:35Z</time>
      </trkpt>
      <trkpt lat="41.66894" lon="9.37571">
        <ele>-0.34</ele>
        <time>2014-06-05T06:19:37Z</time>
      </trkpt>
      <trkpt lat="41.66812" lon="9.37642">
        <ele>0.62</ele>
        <time>2014-06-05T06:19:48Z</time>
      </trkpt>
      <trkpt lat="41.66714" lon="9.37715">
        <ele>0.14</ele>
        <time>2014-06-05T06:20:01Z</time>
      </trkpt>
      <trkpt lat="41.66703" lon="9.37733">
        <ele>0.62</ele>
        <time>2014-06-05T06:20:03Z</time>
      </trkpt>
      <trkpt lat="41.66698" lon="9.37743">
        <ele>0.14</ele>
        <time>2014-06-05T06:20:04Z</time>
      </trkpt>
      <trkpt lat="41.66695" lon="9.37755">
        <ele>0.14</ele>
        <time>2014-06-05T06:20:05Z</time>
      </trkpt>
      <trkpt lat="41.66692" lon="9.37766">
        <ele>0.14</ele>
        <time>2014-06-05T06:20:06Z</time>
      </trkpt>
      <trkpt lat="41.6669" lon="9.37778">
        <ele>0.14</ele>
        <time>2014-06-05T06:20:07Z</time>
      </trkpt>
      <trkpt lat="41.66689" lon="9.37791">
        <ele>0.14</ele>
        <time>2014-06-05T06:20:08Z</time>
      </trkpt>
      <trkpt lat="41.66688" lon="9.37803">
        <ele>0.14</ele>
        <time>2014-06-05T06:20:09Z</time>
      </trkpt>
      <trkpt lat="41.66692" lon="9.37881">
        <ele>0.14</ele>
        <time>2014-06-05T06:20:16Z</time>
      </trkpt>
      <trkpt lat="41.66691" lon="9.37892">
        <ele>0.14</ele>
        <time>2014-06-05T06:20:17Z</time>
      </trkpt>
      <trkpt lat="41.66679" lon="9.37996">
        <ele>3.98</ele>
        <time>2014-06-05T06:20:27Z</time>
      </trkpt>
      <trkpt lat="41.66673" lon="9.38035">
        <ele>3.98</ele>
        <time>2014-06-05T06:20:37Z</time>
      </trkpt>
      <trkpt lat="41.66671" lon="9.38039">
        <ele>4.46</ele>
        <time>2014-06-05T06:20:50Z</time>
      </trkpt>
      <trkpt lat="41.66661" lon="9.38062">
        <ele>3.98</ele>
        <time>2014-06-05T06:20:54Z</time>
      </trkpt>
      <trkpt lat="41.6665" lon="9.38105">
        <ele>1.58</ele>
        <time>2014-06-05T06:21:04Z</time>
      </trkpt>
      <trkpt lat="41.66649" lon="9.38126">
        <ele>1.1</ele>
        <time>2014-06-05T06:21:13Z</time>
      </trkpt>
      <trkpt lat="41.66655" lon="9.38114">
        <ele>0.14</ele>
        <time>2014-06-05T06:21:20Z</time>
      </trkpt>
      <trkpt lat="41.66656" lon="9.38103">
        <ele>1.1</ele>
        <time>2014-06-05T06:21:22Z</time>
      </trkpt>
      <trkpt lat="41.66675" lon="9.3804">
        <ele>3.02</ele>
        <time>2014-06-05T06:21:34Z</time>
      </trkpt>
      <trkpt lat="41.66683" lon="9.37983">
        <ele>0.62</ele>
        <time>2014-06-05T06:21:46Z</time>
      </trkpt>
      <trkpt lat="41.66697" lon="9.37884">
        <ele>-1.79</ele>
        <time>2014-06-05T06:22:01Z</time>
      </trkpt>
      <trkpt lat="41.66697" lon="9.37876">
        <ele>-1.79</ele>
        <time>2014-06-05T06:22:02Z</time>
      </trkpt>
      <trkpt lat="41.66696" lon="9.37867">
        <ele>-1.79</ele>
        <time>2014-06-05T06:22:03Z</time>
      </trkpt>
      <trkpt lat="41.66695" lon="9.37859">
        <ele>-1.79</ele>
        <time>2014-06-05T06:22:04Z</time>
      </trkpt>
      <trkpt lat="41.66694" lon="9.37851">
        <ele>-2.27</ele>
        <time>2014-06-05T06:22:05Z</time>
      </trkpt>
      <trkpt lat="41.66697" lon="9.37768">
        <ele>-3.71</ele>
        <time>2014-06-05T06:22:17Z</time>
      </trkpt>
      <trkpt lat="41.66702" lon="9.37746">
        <ele>-4.19</ele>
        <time>2014-06-05T06:22:20Z</time>
      </trkpt>
      <trkpt lat="41.66705" lon="9.3774">
        <ele>-4.19</ele>
        <time>2014-06-05T06:22:21Z</time>
      </trkpt>
      <trkpt lat="41.66707" lon="9.37734">
        <ele>-4.67</ele>
        <time>2014-06-05T06:22:22Z</time>
      </trkpt>
      <trkpt lat="41.66711" lon="9.37728">
        <ele>-4.19</ele>
        <time>2014-06-05T06:22:23Z</time>
      </trkpt>
      <trkpt lat="41.66715" lon="9.37722">
        <ele>-4.19</ele>
        <time>2014-06-05T06:22:24Z</time>
      </trkpt>
      <trkpt lat="41.66719" lon="9.37716">
        <ele>-4.19</ele>
        <time>2014-06-05T06:22:25Z</time>
      </trkpt>
      <trkpt lat="41.66794" lon="9.37653">
        <ele>-2.75</ele>
        <time>2014-06-05T06:22:37Z</time>
      </trkpt>
      <trkpt lat="41.66881" lon="9.37592">
        <ele>-1.3</ele>
        <time>2014-06-05T06:22:51Z</time>
      </trkpt>
      <trkpt lat="41.66909" lon="9.37559">
        <ele>0.14</ele>
        <time>2014-06-05T06:23:01Z</time>
      </trkpt>
      <trkpt lat="41.6693" lon="9.37496">
        <ele>0.14</ele>
        <time>2014-06-05T06:23:15Z</time>
      </trkpt>
      <trkpt lat="41.66945" lon="9.3741">
        <ele>-1.3</ele>
        <time>2014-06-05T06:23:28Z</time>
      </trkpt>
      <trkpt lat="41.66948" lon="9.37403">
        <ele>-1.79</ele>
        <time>2014-06-05T06:23:29Z</time>
      </trkpt>
      <trkpt lat="41.66952" lon="9.37396">
        <ele>-1.79</ele>
        <time>2014-06-05T06:23:30Z</time>
      </trkpt>
      <trkpt lat="41.66956" lon="9.37388">
        <ele>-2.27</ele>
        <time>2014-06-05T06:23:31Z</time>
      </trkpt>
      <trkpt lat="41.66961" lon="9.37379">
        <ele>-1.79</ele>
        <time>2014-06-05T06:23:32Z</time>
      </trkpt>
      <trkpt lat="41.67029" lon="9.37258">
        <ele>-3.23</ele>
        <time>2014-06-05T06:23:46Z</time>
      </trkpt>
      <trkpt lat="41.67066" lon="9.37211">
        <ele>-2.75</ele>
        <time>2014-06-05T06:23:53Z</time>
      </trkpt>
      <trkpt lat="41.67079" lon="9.37202">
        <ele>-2.75</ele>
        <time>2014-06-05T06:23:55Z</time>
      </trkpt>
      <trkpt lat="41.67086" lon="9.37199">
        <ele>-2.75</ele>
        <time>2014-06-05T06:23:56Z</time>
      </trkpt>
      <trkpt lat="41.67093" lon="9.37197">
        <ele>-2.75</ele>
        <time>2014-06-05T06:23:57Z</time>
      </trkpt>
      <trkpt lat="41.67198" lon="9.37176">
        <ele>-2.27</ele>
        <time>2014-06-05T06:24:11Z</time>
      </trkpt>
      <trkpt lat="41.67294" lon="9.37138">
        <ele>-2.27</ele>
        <time>2014-06-05T06:24:23Z</time>
      </trkpt>
      <trkpt lat="41.67415" lon="9.371">
        <ele>-3.23</ele>
        <time>2014-06-05T06:24:35Z</time>
      </trkpt>
      <trkpt lat="41.67544" lon="9.37047">
        <ele>-5.15</ele>
        <time>2014-06-05T06:24:47Z</time>
      </trkpt>
      <trkpt lat="41.67591" lon="9.37029">
        <ele>-5.63</ele>
        <time>2014-06-05T06:24:52Z</time>
      </trkpt>
      <trkpt lat="41.6766" lon="9.37022">
        <ele>-4.19</ele>
        <time>2014-06-05T06:25:03Z</time>
      </trkpt>
      <trkpt lat="41.67669" lon="9.37026">
        <ele>-3.71</ele>
        <time>2014-06-05T06:25:07Z</time>
      </trkpt>
      <trkpt lat="41.67674" lon="9.37033">
        <ele>-4.67</ele>
        <time>2014-06-05T06:25:08Z</time>
      </trkpt>
      <trkpt lat="41.67681" lon="9.3704">
        <ele>-5.63</ele>
        <time>2014-06-05T06:25:09Z</time>
      </trkpt>
      <trkpt lat="41.67691" lon="9.37045">
        <ele>-6.59</ele>
        <time>2014-06-05T06:25:10Z</time>
      </trkpt>
      <trkpt lat="41.677" lon="9.37048">
        <ele>-7.07</ele>
        <time>2014-06-05T06:25:11Z</time>
      </trkpt>
      <trkpt lat="41.6771" lon="9.37048">
        <ele>-7.07</ele>
        <time>2014-06-05T06:25:12Z</time>
      </trkpt>
      <trkpt lat="41.6772" lon="9.37048">
        <ele>-7.07</ele>
        <time>2014-06-05T06:25:13Z</time>
      </trkpt>
      <trkpt lat="41.6776" lon="9.37044">
        <ele>-5.15</ele>
        <time>2014-06-05T06:25:17Z</time>
      </trkpt>
      <trkpt lat="41.67826" lon="9.37022">
        <ele>-5.63</ele>
        <time>2014-06-05T06:25:23Z</time>
      </trkpt>
      <trkpt lat="41.67837" lon="9.37021">
        <ele>-6.11</ele>
        <time>2014-06-05T06:25:24Z</time>
      </trkpt>
      <trkpt lat="41.67847" lon="9.37021">
        <ele>-6.11</ele>
        <time>2014-06-05T06:25:25Z</time>
      </trkpt>
      <trkpt lat="41.67858" lon="9.37022">
        <ele>-5.63</ele>
        <time>2014-06-05T06:25:26Z</time>
      </trkpt>
      <trkpt lat="41.67868" lon="9.37025">
        <ele>-4.67</ele>
        <time>2014-06-05T06:25:27Z</time>
      </trkpt>
      <trkpt lat="41.67879" lon="9.37028">
        <ele>-4.67</ele>
        <time>2014-06-05T06:25:28Z</time>
      </trkpt>
      <trkpt lat="41.67889" lon="9.37033">
        <ele>-4.67</ele>
        <time>2014-06-05T06:25:29Z</time>
      </trkpt>
      <trkpt lat="41.67898" lon="9.37038">
        <ele>-5.15</ele>
        <time>2014-06-05T06:25:30Z</time>
      </trkpt>
      <trkpt lat="41.67907" lon="9.37045">
        <ele>-5.63</ele>
        <time>2014-06-05T06:25:31Z</time>
      </trkpt>
      <trkpt lat="41.67917" lon="9.37052">
        <ele>-5.63</ele>
        <time>2014-06-05T06:25:32Z</time>
      </trkpt>
      <trkpt lat="41.6796" lon="9.37094">
        <ele>-5.15</ele>
        <time>2014-06-05T06:25:37Z</time>
      </trkpt>
      <trkpt lat="41.67967" lon="9.37104">
        <ele>-5.15</ele>
        <time>2014-06-05T06:25:38Z</time>
      </trkpt>
      <trkpt lat="41.67973" lon="9.37115">
        <ele>-4.67</ele>
        <time>2014-06-05T06:25:39Z</time>
      </trkpt>
      <trkpt lat="41.67978" lon="9.37127">
        <ele>-5.15</ele>
        <time>2014-06-05T06:25:40Z</time>
      </trkpt>
      <trkpt lat="41.67983" lon="9.37139">
        <ele>-5.15</ele>
        <time>2014-06-05T06:25:41Z</time>
      </trkpt>
      <trkpt lat="41.68005" lon="9.37211">
        <ele>-3.71</ele>
        <time>2014-06-05T06:25:47Z</time>
      </trkpt>
      <trkpt lat="41.68025" lon="9.37257">
        <ele>-1.79</ele>
        <time>2014-06-05T06:25:51Z</time>
      </trkpt>
      <trkpt lat="41.68059" lon="9.37334">
        <ele>0.14</ele>
        <time>2014-06-05T06:25:58Z</time>
      </trkpt>
      <trkpt lat="41.68064" lon="9.37343">
        <ele>-0.34</ele>
        <time>2014-06-05T06:25:59Z</time>
      </trkpt>
      <trkpt lat="41.68148" lon="9.37443">
        <ele>-0.82</ele>
        <time>2014-06-05T06:26:11Z</time>
      </trkpt>
      <trkpt lat="41.68176" lon="9.37472">
        <ele>-1.3</ele>
        <time>2014-06-05T06:26:16Z</time>
      </trkpt>
      <trkpt lat="41.68182" lon="9.37474">
        <ele>-1.3</ele>
        <time>2014-06-05T06:26:17Z</time>
      </trkpt>
      <trkpt lat="41.68187" lon="9.37474">
        <ele>-1.3</ele>
        <time>2014-06-05T06:26:18Z</time>
      </trkpt>
      <trkpt lat="41.68192" lon="9.37473">
        <ele>-1.79</ele>
        <time>2014-06-05T06:26:19Z</time>
      </trkpt>
      <trkpt lat="41.68196" lon="9.37471">
        <ele>-1.79</ele>
        <time>2014-06-05T06:26:20Z</time>
      </trkpt>
      <trkpt lat="41.68199" lon="9.3747">
        <ele>-0.82</ele>
        <time>2014-06-05T06:26:21Z</time>
      </trkpt>
      <trkpt lat="41.68203" lon="9.37468">
        <ele>-0.34</ele>
        <time>2014-06-05T06:26:22Z</time>
      </trkpt>
      <trkpt lat="41.68206" lon="9.37464">
        <ele>0.62</ele>
        <time>2014-06-05T06:26:23Z</time>
      </trkpt>
      <trkpt lat="41.68209" lon="9.37461">
        <ele>1.1</ele>
        <time>2014-06-05T06:26:24Z</time>
      </trkpt>
      <trkpt lat="41.68211" lon="9.37458">
        <ele>1.58</ele>
        <time>2014-06-05T06:26:25Z</time>
      </trkpt>
      <trkpt lat="41.68214" lon="9.37444">
        <ele>2.54</ele>
        <time>2014-06-05T06:26:28Z</time>
      </trkpt>
      <trkpt lat="41.68212" lon="9.37435">
        <ele>2.54</ele>
        <time>2014-06-05T06:26:29Z</time>
      </trkpt>
      <trkpt lat="41.68205" lon="9.37403">
        <ele>3.02</ele>
        <time>2014-06-05T06:26:32Z</time>
      </trkpt>
      <trkpt lat="41.68202" lon="9.37366">
        <ele>3.5</ele>
        <time>2014-06-05T06:26:35Z</time>
      </trkpt>
      <trkpt lat="41.68202" lon="9.37353">
        <ele>3.98</ele>
        <time>2014-06-05T06:26:36Z</time>
      </trkpt>
      <trkpt lat="41.68208" lon="9.37266">
        <ele>5.91</ele>
        <time>2014-06-05T06:26:42Z</time>
      </trkpt>
      <trkpt lat="41.68212" lon="9.37253">
        <ele>6.39</ele>
        <time>2014-06-05T06:26:43Z</time>
      </trkpt>
      <trkpt lat="41.68219" lon="9.3724">
        <ele>6.87</ele>
        <time>2014-06-05T06:26:44Z</time>
      </trkpt>
      <trkpt lat="41.68228" lon="9.37229">
        <ele>7.35</ele>
        <time>2014-06-05T06:26:45Z</time>
      </trkpt>
      <trkpt lat="41.68237" lon="9.3722">
        <ele>7.83</ele>
        <time>2014-06-05T06:26:46Z</time>
      </trkpt>
      <trkpt lat="41.68247" lon="9.3721">
        <ele>8.79</ele>
        <time>2014-06-05T06:26:47Z</time>
      </trkpt>
      <trkpt lat="41.68258" lon="9.37203">
        <ele>9.27</ele>
        <time>2014-06-05T06:26:48Z</time>
      </trkpt>
      <trkpt lat="41.6827" lon="9.37197">
        <ele>9.75</ele>
        <time>2014-06-05T06:26:49Z</time>
      </trkpt>
      <trkpt lat="41.68282" lon="9.37194">
        <ele>9.75</ele>
        <time>2014-06-05T06:26:50Z</time>
      </trkpt>
      <trkpt lat="41.68294" lon="9.37194">
        <ele>10.71</ele>
        <time>2014-06-05T06:26:51Z</time>
      </trkpt>
      <trkpt lat="41.68306" lon="9.37196">
        <ele>10.71</ele>
        <time>2014-06-05T06:26:52Z</time>
      </trkpt>
      <trkpt lat="41.68319" lon="9.37198">
        <ele>11.67</ele>
        <time>2014-06-05T06:26:53Z</time>
      </trkpt>
      <trkpt lat="41.68331" lon="9.37202">
        <ele>12.15</ele>
        <time>2014-06-05T06:26:54Z</time>
      </trkpt>
      <trkpt lat="41.68353" lon="9.37209">
        <ele>12.63</ele>
        <time>2014-06-05T06:26:56Z</time>
      </trkpt>
      <trkpt lat="41.68363" lon="9.37209">
        <ele>13.12</ele>
        <time>2014-06-05T06:26:57Z</time>
      </trkpt>
      <trkpt lat="41.68373" lon="9.37206">
        <ele>11.67</ele>
        <time>2014-06-05T06:26:58Z</time>
      </trkpt>
      <trkpt lat="41.68382" lon="9.37199">
        <ele>12.15</ele>
        <time>2014-06-05T06:26:59Z</time>
      </trkpt>
      <trkpt lat="41.68389" lon="9.37187">
        <ele>14.08</ele>
        <time>2014-06-05T06:27:00Z</time>
      </trkpt>
      <trkpt lat="41.68396" lon="9.37174">
        <ele>15.04</ele>
        <time>2014-06-05T06:27:01Z</time>
      </trkpt>
      <trkpt lat="41.68414" lon="9.37155">
        <ele>15.04</ele>
        <time>2014-06-05T06:27:03Z</time>
      </trkpt>
      <trkpt lat="41.68424" lon="9.37147">
        <ele>15.04</ele>
        <time>2014-06-05T06:27:04Z</time>
      </trkpt>
      <trkpt lat="41.68448" lon="9.37134">
        <ele>15.52</ele>
        <time>2014-06-05T06:27:06Z</time>
      </trkpt>
      <trkpt lat="41.68461" lon="9.37128">
        <ele>15.52</ele>
        <time>2014-06-05T06:27:07Z</time>
      </trkpt>
      <trkpt lat="41.68498" lon="9.37117">
        <ele>14.08</ele>
        <time>2014-06-05T06:27:10Z</time>
      </trkpt>
      <trkpt lat="41.68544" lon="9.37105">
        <ele>14.56</ele>
        <time>2014-06-05T06:27:14Z</time>
      </trkpt>
      <trkpt lat="41.68555" lon="9.37097">
        <ele>15.52</ele>
        <time>2014-06-05T06:27:15Z</time>
      </trkpt>
      <trkpt lat="41.68575" lon="9.3708">
        <ele>15.04</ele>
        <time>2014-06-05T06:27:17Z</time>
      </trkpt>
      <trkpt lat="41.68584" lon="9.37069">
        <ele>15.52</ele>
        <time>2014-06-05T06:27:18Z</time>
      </trkpt>
      <trkpt lat="41.68591" lon="9.3706">
        <ele>16</ele>
        <time>2014-06-05T06:27:19Z</time>
      </trkpt>
      <trkpt lat="41.68596" lon="9.37051">
        <ele>16.96</ele>
        <time>2014-06-05T06:27:20Z</time>
      </trkpt>
      <trkpt lat="41.686" lon="9.37042">
        <ele>16.96</ele>
        <time>2014-06-05T06:27:21Z</time>
      </trkpt>
      <trkpt lat="41.68604" lon="9.37032">
        <ele>17.92</ele>
        <time>2014-06-05T06:27:22Z</time>
      </trkpt>
      <trkpt lat="41.68608" lon="9.3702">
        <ele>18.4</ele>
        <time>2014-06-05T06:27:23Z</time>
      </trkpt>
      <trkpt lat="41.68616" lon="9.36993">
        <ele>19.84</ele>
        <time>2014-06-05T06:27:25Z</time>
      </trkpt>
      <trkpt lat="41.68619" lon="9.36978">
        <ele>19.84</ele>
        <time>2014-06-05T06:27:26Z</time>
      </trkpt>
      <trkpt lat="41.6864" lon="9.36831">
        <ele>27.53</ele>
        <time>2014-06-05T06:27:35Z</time>
      </trkpt>
      <trkpt lat="41.68645" lon="9.36688">
        <ele>33.78</ele>
        <time>2014-06-05T06:27:43Z</time>
      </trkpt>
      <trkpt lat="41.68659" lon="9.36621">
        <ele>35.23</ele>
        <time>2014-06-05T06:27:47Z</time>
      </trkpt>
      <trkpt lat="41.68664" lon="9.36606">
        <ele>35.71</ele>
        <time>2014-06-05T06:27:48Z</time>
      </trkpt>
      <trkpt lat="41.68671" lon="9.36593">
        <ele>36.19</ele>
        <time>2014-06-05T06:27:49Z</time>
      </trkpt>
      <trkpt lat="41.68692" lon="9.36561">
        <ele>37.63</ele>
        <time>2014-06-05T06:27:52Z</time>
      </trkpt>
      <trkpt lat="41.68699" lon="9.36555">
        <ele>37.63</ele>
        <time>2014-06-05T06:27:53Z</time>
      </trkpt>
      <trkpt lat="41.68707" lon="9.36553">
        <ele>37.15</ele>
        <time>2014-06-05T06:27:54Z</time>
      </trkpt>
      <trkpt lat="41.68716" lon="9.36554">
        <ele>36.19</ele>
        <time>2014-06-05T06:27:55Z</time>
      </trkpt>
      <trkpt lat="41.68725" lon="9.36556">
        <ele>35.71</ele>
        <time>2014-06-05T06:27:56Z</time>
      </trkpt>
      <trkpt lat="41.68744" lon="9.36557">
        <ele>35.71</ele>
        <time>2014-06-05T06:27:58Z</time>
      </trkpt>
      <trkpt lat="41.68752" lon="9.36552">
        <ele>35.23</ele>
        <time>2014-06-05T06:27:59Z</time>
      </trkpt>
      <trkpt lat="41.68758" lon="9.36546">
        <ele>35.23</ele>
        <time>2014-06-05T06:28:00Z</time>
      </trkpt>
      <trkpt lat="41.68761" lon="9.36536">
        <ele>35.23</ele>
        <time>2014-06-05T06:28:01Z</time>
      </trkpt>
      <trkpt lat="41.68762" lon="9.36525">
        <ele>35.71</ele>
        <time>2014-06-05T06:28:02Z</time>
      </trkpt>
      <trkpt lat="41.6876" lon="9.36512">
        <ele>35.23</ele>
        <time>2014-06-05T06:28:03Z</time>
      </trkpt>
      <trkpt lat="41.68759" lon="9.36499">
        <ele>35.71</ele>
        <time>2014-06-05T06:28:04Z</time>
      </trkpt>
      <trkpt lat="41.68763" lon="9.36471">
        <ele>36.19</ele>
        <time>2014-06-05T06:28:06Z</time>
      </trkpt>
      <trkpt lat="41.68767" lon="9.36458">
        <ele>36.19</ele>
        <time>2014-06-05T06:28:07Z</time>
      </trkpt>
      <trkpt lat="41.68774" lon="9.36445">
        <ele>36.19</ele>
        <time>2014-06-05T06:28:08Z</time>
      </trkpt>
      <trkpt lat="41.68781" lon="9.36436">
        <ele>36.67</ele>
        <time>2014-06-05T06:28:09Z</time>
      </trkpt>
      <trkpt lat="41.6879" lon="9.36428">
        <ele>36.67</ele>
        <time>2014-06-05T06:28:10Z</time>
      </trkpt>
      <trkpt lat="41.688" lon="9.36422">
        <ele>36.19</ele>
        <time>2014-06-05T06:28:11Z</time>
      </trkpt>
      <trkpt lat="41.6881" lon="9.36418">
        <ele>35.71</ele>
        <time>2014-06-05T06:28:12Z</time>
      </trkpt>
      <trkpt lat="41.68821" lon="9.36416">
        <ele>35.23</ele>
        <time>2014-06-05T06:28:13Z</time>
      </trkpt>
      <trkpt lat="41.68833" lon="9.36414">
        <ele>34.74</ele>
        <time>2014-06-05T06:28:14Z</time>
      </trkpt>
      <trkpt lat="41.68858" lon="9.36408">
        <ele>34.74</ele>
        <time>2014-06-05T06:28:16Z</time>
      </trkpt>
      <trkpt lat="41.6887" lon="9.36402">
        <ele>34.26</ele>
        <time>2014-06-05T06:28:17Z</time>
      </trkpt>
      <trkpt lat="41.6888" lon="9.36393">
        <ele>33.78</ele>
        <time>2014-06-05T06:28:18Z</time>
      </trkpt>
      <trkpt lat="41.68889" lon="9.36381">
        <ele>33.78</ele>
        <time>2014-06-05T06:28:19Z</time>
      </trkpt>
      <trkpt lat="41.68896" lon="9.36368">
        <ele>33.3</ele>
        <time>2014-06-05T06:28:20Z</time>
      </trkpt>
      <trkpt lat="41.68903" lon="9.36357">
        <ele>31.38</ele>
        <time>2014-06-05T06:28:21Z</time>
      </trkpt>
      <trkpt lat="41.68912" lon="9.36351">
        <ele>29.94</ele>
        <time>2014-06-05T06:28:22Z</time>
      </trkpt>
      <trkpt lat="41.68923" lon="9.3635">
        <ele>29.46</ele>
        <time>2014-06-05T06:28:23Z</time>
      </trkpt>
      <trkpt lat="41.68945" lon="9.36348">
        <ele>28.02</ele>
        <time>2014-06-05T06:28:25Z</time>
      </trkpt>
      <trkpt lat="41.68955" lon="9.36344">
        <ele>28.02</ele>
        <time>2014-06-05T06:28:26Z</time>
      </trkpt>
      <trkpt lat="41.68962" lon="9.36334">
        <ele>27.53</ele>
        <time>2014-06-05T06:28:27Z</time>
      </trkpt>
      <trkpt lat="41.68966" lon="9.36323">
        <ele>27.05</ele>
        <time>2014-06-05T06:28:28Z</time>
      </trkpt>
      <trkpt lat="41.68968" lon="9.36308">
        <ele>26.57</ele>
        <time>2014-06-05T06:28:29Z</time>
      </trkpt>
      <trkpt lat="41.68968" lon="9.36293">
        <ele>26.09</ele>
        <time>2014-06-05T06:28:30Z</time>
      </trkpt>
      <trkpt lat="41.68969" lon="9.36277">
        <ele>26.09</ele>
        <time>2014-06-05T06:28:31Z</time>
      </trkpt>
      <trkpt lat="41.68971" lon="9.36261">
        <ele>25.61</ele>
        <time>2014-06-05T06:28:32Z</time>
      </trkpt>
      <trkpt lat="41.68976" lon="9.36246">
        <ele>25.61</ele>
        <time>2014-06-05T06:28:33Z</time>
      </trkpt>
      <trkpt lat="41.68984" lon="9.36231">
        <ele>24.65</ele>
        <time>2014-06-05T06:28:34Z</time>
      </trkpt>
      <trkpt lat="41.68991" lon="9.36216">
        <ele>24.17</ele>
        <time>2014-06-05T06:28:35Z</time>
      </trkpt>
      <trkpt lat="41.68996" lon="9.36201">
        <ele>23.69</ele>
        <time>2014-06-05T06:28:36Z</time>
      </trkpt>
      <trkpt lat="41.69001" lon="9.36185">
        <ele>23.69</ele>
        <time>2014-06-05T06:28:37Z</time>
      </trkpt>
      <trkpt lat="41.69004" lon="9.3617">
        <ele>23.21</ele>
        <time>2014-06-05T06:28:38Z</time>
      </trkpt>
      <trkpt lat="41.69013" lon="9.36147">
        <ele>23.21</ele>
        <time>2014-06-05T06:28:40Z</time>
      </trkpt>
      <trkpt lat="41.6902" lon="9.36141">
        <ele>23.21</ele>
        <time>2014-06-05T06:28:41Z</time>
      </trkpt>
      <trkpt lat="41.69028" lon="9.36142">
        <ele>22.73</ele>
        <time>2014-06-05T06:28:42Z</time>
      </trkpt>
      <trkpt lat="41.69036" lon="9.36148">
        <ele>22.73</ele>
        <time>2014-06-05T06:28:43Z</time>
      </trkpt>
      <trkpt lat="41.69046" lon="9.36159">
        <ele>24.17</ele>
        <time>2014-06-05T06:28:44Z</time>
      </trkpt>
      <trkpt lat="41.69056" lon="9.36168">
        <ele>25.13</ele>
        <time>2014-06-05T06:28:45Z</time>
      </trkpt>
      <trkpt lat="41.69067" lon="9.36174">
        <ele>25.13</ele>
        <time>2014-06-05T06:28:46Z</time>
      </trkpt>
      <trkpt lat="41.69078" lon="9.36174">
        <ele>26.09</ele>
        <time>2014-06-05T06:28:47Z</time>
      </trkpt>
      <trkpt lat="41.69089" lon="9.3617">
        <ele>27.05</ele>
        <time>2014-06-05T06:28:48Z</time>
      </trkpt>
      <trkpt lat="41.691" lon="9.36161">
        <ele>28.02</ele>
        <time>2014-06-05T06:28:49Z</time>
      </trkpt>
      <trkpt lat="41.69108" lon="9.3615">
        <ele>29.94</ele>
        <time>2014-06-05T06:28:50Z</time>
      </trkpt>
      <trkpt lat="41.69116" lon="9.3614">
        <ele>30.9</ele>
        <time>2014-06-05T06:28:51Z</time>
      </trkpt>
      <trkpt lat="41.69124" lon="9.36132">
        <ele>31.38</ele>
        <time>2014-06-05T06:28:52Z</time>
      </trkpt>
      <trkpt lat="41.69134" lon="9.36128">
        <ele>31.38</ele>
        <time>2014-06-05T06:28:53Z</time>
      </trkpt>
      <trkpt lat="41.69151" lon="9.3612">
        <ele>33.78</ele>
        <time>2014-06-05T06:28:55Z</time>
      </trkpt>
      <trkpt lat="41.69159" lon="9.36109">
        <ele>32.82</ele>
        <time>2014-06-05T06:28:56Z</time>
      </trkpt>
      <trkpt lat="41.69164" lon="9.36093">
        <ele>31.86</ele>
        <time>2014-06-05T06:28:57Z</time>
      </trkpt>
      <trkpt lat="41.6918" lon="9.36061">
        <ele>31.38</ele>
        <time>2014-06-05T06:28:59Z</time>
      </trkpt>
      <trkpt lat="41.69195" lon="9.36031">
        <ele>30.42</ele>
        <time>2014-06-05T06:29:01Z</time>
      </trkpt>
      <trkpt lat="41.69198" lon="9.36014">
        <ele>30.42</ele>
        <time>2014-06-05T06:29:02Z</time>
      </trkpt>
      <trkpt lat="41.692" lon="9.35996">
        <ele>29.46</ele>
        <time>2014-06-05T06:29:03Z</time>
      </trkpt>
      <trkpt lat="41.69199" lon="9.35976">
        <ele>28.98</ele>
        <time>2014-06-05T06:29:04Z</time>
      </trkpt>
      <trkpt lat="41.69198" lon="9.35956">
        <ele>28.5</ele>
        <time>2014-06-05T06:29:05Z</time>
      </trkpt>
      <trkpt lat="41.692" lon="9.35935">
        <ele>28.02</ele>
        <time>2014-06-05T06:29:06Z</time>
      </trkpt>
      <trkpt lat="41.69204" lon="9.35915">
        <ele>27.05</ele>
        <time>2014-06-05T06:29:07Z</time>
      </trkpt>
      <trkpt lat="41.69209" lon="9.35897">
        <ele>27.05</ele>
        <time>2014-06-05T06:29:08Z</time>
      </trkpt>
      <trkpt lat="41.69217" lon="9.3588">
        <ele>26.57</ele>
        <time>2014-06-05T06:29:09Z</time>
      </trkpt>
      <trkpt lat="41.69226" lon="9.35865">
        <ele>26.57</ele>
        <time>2014-06-05T06:29:10Z</time>
      </trkpt>
      <trkpt lat="41.69232" lon="9.35849">
        <ele>26.09</ele>
        <time>2014-06-05T06:29:11Z</time>
      </trkpt>
      <trkpt lat="41.69237" lon="9.35832">
        <ele>25.61</ele>
        <time>2014-06-05T06:29:12Z</time>
      </trkpt>
      <trkpt lat="41.69238" lon="9.35816">
        <ele>25.61</ele>
        <time>2014-06-05T06:29:13Z</time>
      </trkpt>
      <trkpt lat="41.6924" lon="9.35799">
        <ele>25.13</ele>
        <time>2014-06-05T06:29:14Z</time>
      </trkpt>
      <trkpt lat="41.69243" lon="9.35785">
        <ele>24.65</ele>
        <time>2014-06-05T06:29:15Z</time>
      </trkpt>
      <trkpt lat="41.69248" lon="9.35776">
        <ele>24.17</ele>
        <time>2014-06-05T06:29:16Z</time>
      </trkpt>
      <trkpt lat="41.69255" lon="9.3577">
        <ele>24.17</ele>
        <time>2014-06-05T06:29:17Z</time>
      </trkpt>
      <trkpt lat="41.69265" lon="9.3577">
        <ele>24.65</ele>
        <time>2014-06-05T06:29:18Z</time>
      </trkpt>
      <trkpt lat="41.69274" lon="9.35774">
        <ele>25.13</ele>
        <time>2014-06-05T06:29:19Z</time>
      </trkpt>
      <trkpt lat="41.69283" lon="9.35782">
        <ele>25.13</ele>
        <time>2014-06-05T06:29:20Z</time>
      </trkpt>
      <trkpt lat="41.69291" lon="9.35794">
        <ele>25.61</ele>
        <time>2014-06-05T06:29:21Z</time>
      </trkpt>
      <trkpt lat="41.69299" lon="9.3581">
        <ele>25.61</ele>
        <time>2014-06-05T06:29:22Z</time>
      </trkpt>
      <trkpt lat="41.69308" lon="9.35824">
        <ele>27.05</ele>
        <time>2014-06-05T06:29:23Z</time>
      </trkpt>
      <trkpt lat="41.69326" lon="9.3584">
        <ele>28.98</ele>
        <time>2014-06-05T06:29:25Z</time>
      </trkpt>
      <trkpt lat="41.69336" lon="9.35839">
        <ele>29.46</ele>
        <time>2014-06-05T06:29:26Z</time>
      </trkpt>
      <trkpt lat="41.69345" lon="9.35834">
        <ele>30.42</ele>
        <time>2014-06-05T06:29:27Z</time>
      </trkpt>
      <trkpt lat="41.69354" lon="9.35826">
        <ele>30.9</ele>
        <time>2014-06-05T06:29:28Z</time>
      </trkpt>
      <trkpt lat="41.69363" lon="9.35818">
        <ele>31.86</ele>
        <time>2014-06-05T06:29:29Z</time>
      </trkpt>
      <trkpt lat="41.69373" lon="9.35816">
        <ele>32.34</ele>
        <time>2014-06-05T06:29:30Z</time>
      </trkpt>
      <trkpt lat="41.69383" lon="9.35818">
        <ele>33.3</ele>
        <time>2014-06-05T06:29:31Z</time>
      </trkpt>
      <trkpt lat="41.69395" lon="9.35823">
        <ele>33.3</ele>
        <time>2014-06-05T06:29:32Z</time>
      </trkpt>
      <trkpt lat="41.69409" lon="9.35828">
        <ele>34.26</ele>
        <time>2014-06-05T06:29:33Z</time>
      </trkpt>
      <trkpt lat="41.69425" lon="9.35831">
        <ele>34.26</ele>
        <time>2014-06-05T06:29:34Z</time>
      </trkpt>
      <trkpt lat="41.69442" lon="9.35831">
        <ele>35.23</ele>
        <time>2014-06-05T06:29:35Z</time>
      </trkpt>
      <trkpt lat="41.69458" lon="9.3583">
        <ele>35.71</ele>
        <time>2014-06-05T06:29:36Z</time>
      </trkpt>
      <trkpt lat="41.69487" lon="9.35824">
        <ele>37.15</ele>
        <time>2014-06-05T06:29:38Z</time>
      </trkpt>
      <trkpt lat="41.695" lon="9.35817">
        <ele>37.15</ele>
        <time>2014-06-05T06:29:39Z</time>
      </trkpt>
      <trkpt lat="41.69513" lon="9.35807">
        <ele>37.63</ele>
        <time>2014-06-05T06:29:40Z</time>
      </trkpt>
      <trkpt lat="41.69583" lon="9.35746">
        <ele>39.07</ele>
        <time>2014-06-05T06:29:46Z</time>
      </trkpt>
      <trkpt lat="41.69589" lon="9.35735">
        <ele>39.07</ele>
        <time>2014-06-05T06:29:47Z</time>
      </trkpt>
      <trkpt lat="41.69592" lon="9.3572">
        <ele>39.07</ele>
        <time>2014-06-05T06:29:48Z</time>
      </trkpt>
      <trkpt lat="41.69594" lon="9.35705">
        <ele>38.59</ele>
        <time>2014-06-05T06:29:49Z</time>
      </trkpt>
      <trkpt lat="41.69596" lon="9.35688">
        <ele>38.11</ele>
        <time>2014-06-05T06:29:50Z</time>
      </trkpt>
      <trkpt lat="41.69601" lon="9.35672">
        <ele>38.11</ele>
        <time>2014-06-05T06:29:51Z</time>
      </trkpt>
      <trkpt lat="41.69608" lon="9.35658">
        <ele>38.11</ele>
        <time>2014-06-05T06:29:52Z</time>
      </trkpt>
      <trkpt lat="41.69617" lon="9.35645">
        <ele>37.63</ele>
        <time>2014-06-05T06:29:53Z</time>
      </trkpt>
      <trkpt lat="41.69626" lon="9.35634">
        <ele>37.15</ele>
        <time>2014-06-05T06:29:54Z</time>
      </trkpt>
      <trkpt lat="41.69637" lon="9.35624">
        <ele>38.11</ele>
        <time>2014-06-05T06:29:55Z</time>
      </trkpt>
      <trkpt lat="41.69649" lon="9.35617">
        <ele>37.63</ele>
        <time>2014-06-05T06:29:56Z</time>
      </trkpt>
      <trkpt lat="41.69661" lon="9.35612">
        <ele>38.59</ele>
        <time>2014-06-05T06:29:57Z</time>
      </trkpt>
      <trkpt lat="41.69673" lon="9.35608">
        <ele>38.11</ele>
        <time>2014-06-05T06:29:58Z</time>
      </trkpt>
      <trkpt lat="41.69685" lon="9.35607">
        <ele>38.59</ele>
        <time>2014-06-05T06:29:59Z</time>
      </trkpt>
      <trkpt lat="41.69697" lon="9.35608">
        <ele>38.59</ele>
        <time>2014-06-05T06:30:00Z</time>
      </trkpt>
      <trkpt lat="41.69708" lon="9.35613">
        <ele>39.07</ele>
        <time>2014-06-05T06:30:01Z</time>
      </trkpt>
      <trkpt lat="41.69719" lon="9.35618">
        <ele>40.03</ele>
        <time>2014-06-05T06:30:02Z</time>
      </trkpt>
      <trkpt lat="41.69729" lon="9.3562">
        <ele>40.99</ele>
        <time>2014-06-05T06:30:03Z</time>
      </trkpt>
      <trkpt lat="41.6974" lon="9.35618">
        <ele>40.51</ele>
        <time>2014-06-05T06:30:04Z</time>
      </trkpt>
      <trkpt lat="41.6975" lon="9.35613">
        <ele>41.47</ele>
        <time>2014-06-05T06:30:05Z</time>
      </trkpt>
      <trkpt lat="41.69761" lon="9.35606">
        <ele>41.95</ele>
        <time>2014-06-05T06:30:06Z</time>
      </trkpt>
      <trkpt lat="41.69773" lon="9.35595">
        <ele>42.44</ele>
        <time>2014-06-05T06:30:07Z</time>
      </trkpt>
      <trkpt lat="41.69786" lon="9.35582">
        <ele>41.95</ele>
        <time>2014-06-05T06:30:08Z</time>
      </trkpt>
      <trkpt lat="41.69873" lon="9.35472">
        <ele>40.51</ele>
        <time>2014-06-05T06:30:15Z</time>
      </trkpt>
      <trkpt lat="41.69882" lon="9.35457">
        <ele>40.03</ele>
        <time>2014-06-05T06:30:16Z</time>
      </trkpt>
      <trkpt lat="41.69888" lon="9.35442">
        <ele>40.03</ele>
        <time>2014-06-05T06:30:17Z</time>
      </trkpt>
      <trkpt lat="41.69892" lon="9.35425">
        <ele>39.55</ele>
        <time>2014-06-05T06:30:18Z</time>
      </trkpt>
      <trkpt lat="41.69893" lon="9.35407">
        <ele>38.59</ele>
        <time>2014-06-05T06:30:19Z</time>
      </trkpt>
      <trkpt lat="41.69894" lon="9.35388">
        <ele>38.59</ele>
        <time>2014-06-05T06:30:20Z</time>
      </trkpt>
      <trkpt lat="41.69893" lon="9.35369">
        <ele>38.11</ele>
        <time>2014-06-05T06:30:21Z</time>
      </trkpt>
      <trkpt lat="41.69891" lon="9.35236">
        <ele>39.55</ele>
        <time>2014-06-05T06:30:28Z</time>
      </trkpt>
      <trkpt lat="41.69893" lon="9.35218">
        <ele>39.55</ele>
        <time>2014-06-05T06:30:29Z</time>
      </trkpt>
      <trkpt lat="41.69897" lon="9.352">
        <ele>40.03</ele>
        <time>2014-06-05T06:30:30Z</time>
      </trkpt>
      <trkpt lat="41.69921" lon="9.35084">
        <ele>40.99</ele>
        <time>2014-06-05T06:30:38Z</time>
      </trkpt>
      <trkpt lat="41.69922" lon="9.35065">
        <ele>40.99</ele>
        <time>2014-06-05T06:30:40Z</time>
      </trkpt>
      <trkpt lat="41.69927" lon="9.35012">
        <ele>40.99</ele>
        <time>2014-06-05T06:30:45Z</time>
      </trkpt>
      <trkpt lat="41.69927" lon="9.34983">
        <ele>41.95</ele>
        <time>2014-06-05T06:30:48Z</time>
      </trkpt>
      <trkpt lat="41.69936" lon="9.34906">
        <ele>47.72</ele>
        <time>2014-06-05T06:30:55Z</time>
      </trkpt>
      <trkpt lat="41.69954" lon="9.34854">
        <ele>45.32</ele>
        <time>2014-06-05T06:31:04Z</time>
      </trkpt>
      <trkpt lat="41.69963" lon="9.34841">
        <ele>43.88</ele>
        <time>2014-06-05T06:31:10Z</time>
      </trkpt>
      <trkpt lat="41.69961" lon="9.34834">
        <ele>43.88</ele>
        <time>2014-06-05T06:31:22Z</time>
      </trkpt>
      <trkpt lat="41.69959" lon="9.34832">
        <ele>43.88</ele>
        <time>2014-06-05T06:31:23Z</time>
      </trkpt>
      <trkpt lat="41.69957" lon="9.34833">
        <ele>44.36</ele>
        <time>2014-06-05T06:31:24Z</time>
      </trkpt>
      <trkpt lat="41.69956" lon="9.34835">
        <ele>43.88</ele>
        <time>2014-06-05T06:31:25Z</time>
      </trkpt>
      <trkpt lat="41.69955" lon="9.34837">
        <ele>44.36</ele>
        <time>2014-06-05T06:31:26Z</time>
      </trkpt>
      <trkpt lat="41.69954" lon="9.3484">
        <ele>44.36</ele>
        <time>2014-06-05T06:31:27Z</time>
      </trkpt>
      <trkpt lat="41.69953" lon="9.34845">
        <ele>44.36</ele>
        <time>2014-06-05T06:31:28Z</time>
      </trkpt>
      <trkpt lat="41.69931" lon="9.34901">
        <ele>45.32</ele>
        <time>2014-06-05T06:31:37Z</time>
      </trkpt>
      <trkpt lat="41.69928" lon="9.34905">
        <ele>46.76</ele>
        <time>2014-06-05T06:31:47Z</time>
      </trkpt>
      <trkpt lat="41.69928" lon="9.34906">
        <ele>46.28</ele>
        <time>2014-06-05T06:32:57Z</time>
      </trkpt>
      <trkpt lat="41.69928" lon="9.34906">
        <ele>45.8</ele>
        <time>2014-06-05T06:34:31Z</time>
      </trkpt>
      <trkpt lat="41.69928" lon="9.34906">
        <ele>46.28</ele>
        <time>2014-06-05T06:36:09Z</time>
      </trkpt>
      <trkpt lat="41.69928" lon="9.34906">
        <ele>46.28</ele>
        <time>2014-06-05T06:37:50Z</time>
      </trkpt>
      <trkpt lat="41.69929" lon="9.34907">
        <ele>45.8</ele>
        <time>2014-06-05T06:39:06Z</time>
      </trkpt>
      <trkpt lat="41.69929" lon="9.34906">
        <ele>45.8</ele>
        <time>2014-06-05T06:40:25Z</time>
      </trkpt>
      <trkpt lat="41.69929" lon="9.34906">
        <ele>46.28</ele>
        <time>2014-06-05T06:41:39Z</time>
      </trkpt>
      <trkpt lat="41.6993" lon="9.34907">
        <ele>46.28</ele>
        <time>2014-06-05T06:42:43Z</time>
      </trkpt>
      <trkpt lat="41.69929" lon="9.34907">
        <ele>46.28</ele>
        <time>2014-06-05T06:43:53Z</time>
      </trkpt>
      <trkpt lat="41.69929" lon="9.34907">
        <ele>46.76</ele>
        <time>2014-06-05T06:45:10Z</time>
      </trkpt>
      <trkpt lat="41.69929" lon="9.34907">
        <ele>46.28</ele>
        <time>2014-06-05T06:46:14Z</time>
      </trkpt>
      <trkpt lat="41.69929" lon="9.34907">
        <ele>46.28</ele>
        <time>2014-06-05T06:47:17Z</time>
      </trkpt>
      <trkpt lat="41.69929" lon="9.34906">
        <ele>46.28</ele>
        <time>2014-06-05T06:48:32Z</time>
      </trkpt>
      <trkpt lat="41.69928" lon="9.34906">
        <ele>46.28</ele>
        <time>2014-06-05T06:49:28Z</time>
      </trkpt>
      <trkpt lat="41.69928" lon="9.34906">
        <ele>46.28</ele>
        <time>2014-06-05T06:50:37Z</time>
      </trkpt>
      <trkpt lat="41.69928" lon="9.34906">
        <ele>46.28</ele>
        <time>2014-06-05T06:52:00Z</time>
      </trkpt>
      <trkpt lat="41.69928" lon="9.34906">
        <ele>46.28</ele>
        <time>2014-06-05T06:53:21Z</time>
      </trkpt>
      <trkpt lat="41.69928" lon="9.34906">
        <ele>46.28</ele>
        <time>2014-06-05T06:54:39Z</time>
      </trkpt>
      <trkpt lat="41.69928" lon="9.34906">
        <ele>46.28</ele>
        <time>2014-06-05T06:56:21Z</time>
      </trkpt>
      <trkpt lat="41.69928" lon="9.34906">
        <ele>46.28</ele>
        <time>2014-06-05T06:57:37Z</time>
      </trkpt>
      <trkpt lat="41.69928" lon="9.34906">
        <ele>46.28</ele>
        <time>2014-06-05T06:58:46Z</time>
      </trkpt>
      <trkpt lat="41.69928" lon="9.34906">
        <ele>46.28</ele>
        <time>2014-06-05T07:00:11Z</time>
      </trkpt>
      <trkpt lat="41.69928" lon="9.34906">
        <ele>46.28</ele>
        <time>2014-06-05T07:01:37Z</time>
      </trkpt>
      <trkpt lat="41.69929" lon="9.34906">
        <ele>46.28</ele>
        <time>2014-06-05T07:03:04Z</time>
      </trkpt>
      <trkpt lat="41.69929" lon="9.34906">
        <ele>45.8</ele>
        <time>2014-06-05T07:04:14Z</time>
      </trkpt>
      <trkpt lat="41.69929" lon="9.34906">
        <ele>45.8</ele>
        <time>2014-06-05T07:05:38Z</time>
      </trkpt>
      <trkpt lat="41.69929" lon="9.34906">
        <ele>45.8</ele>
        <time>2014-06-05T07:07:05Z</time>
      </trkpt>
      <trkpt lat="41.69929" lon="9.34906">
        <ele>45.8</ele>
        <time>2014-06-05T07:08:22Z</time>
      </trkpt>
      <trkpt lat="41.69929" lon="9.34906">
        <ele>45.32</ele>
        <time>2014-06-05T07:09:22Z</time>
      </trkpt>
      <trkpt lat="41.69929" lon="9.34906">
        <ele>45.32</ele>
        <time>2014-06-05T07:10:29Z</time>
      </trkpt>
      <trkpt lat="41.69929" lon="9.34906">
        <ele>45.8</ele>
        <time>2014-06-05T07:11:33Z</time>
      </trkpt>
      <trkpt lat="41.69929" lon="9.34906">
        <ele>45.8</ele>
        <time>2014-06-05T07:12:56Z</time>
      </trkpt>
      <trkpt lat="41.69929" lon="9.34906">
        <ele>45.8</ele>
        <time>2014-06-05T07:14:22Z</time>
      </trkpt>
      <trkpt lat="41.69928" lon="9.34906">
        <ele>45.8</ele>
        <time>2014-06-05T07:15:25Z</time>
      </trkpt>
      <trkpt lat="41.69928" lon="9.34906">
        <ele>46.28</ele>
        <time>2014-06-05T07:16:25Z</time>
      </trkpt>
      <trkpt lat="41.69928" lon="9.34907">
        <ele>46.28</ele>
        <time>2014-06-05T07:17:45Z</time>
      </trkpt>
      <trkpt lat="41.69928" lon="9.34907">
        <ele>46.28</ele>
        <time>2014-06-05T07:18:58Z</time>
      </trkpt>
      <trkpt lat="41.69928" lon="9.34907">
        <ele>46.28</ele>
        <time>2014-06-05T07:20:13Z</time>
      </trkpt>
      <trkpt lat="41.69927" lon="9.34912">
        <ele>46.76</ele>
        <time>2014-06-05T07:20:57Z</time>
      </trkpt>
      <trkpt lat="41.69923" lon="9.34982">
        <ele>45.8</ele>
        <time>2014-06-05T07:21:04Z</time>
      </trkpt>
      <trkpt lat="41.69916" lon="9.35098">
        <ele>44.36</ele>
        <time>2014-06-05T07:21:14Z</time>
      </trkpt>
      <trkpt lat="41.6989" lon="9.35213">
        <ele>40.51</ele>
        <time>2014-06-05T07:21:22Z</time>
      </trkpt>
      <trkpt lat="41.69887" lon="9.35228">
        <ele>39.55</ele>
        <time>2014-06-05T07:21:23Z</time>
      </trkpt>
      <trkpt lat="41.69885" lon="9.35243">
        <ele>39.07</ele>
        <time>2014-06-05T07:21:24Z</time>
      </trkpt>
      <trkpt lat="41.69884" lon="9.35261">
        <ele>41.95</ele>
        <time>2014-06-05T07:21:25Z</time>
      </trkpt>
      <trkpt lat="41.69886" lon="9.35419">
        <ele>42.44</ele>
        <time>2014-06-05T07:21:34Z</time>
      </trkpt>
      <trkpt lat="41.69884" lon="9.35435">
        <ele>42.44</ele>
        <time>2014-06-05T07:21:35Z</time>
      </trkpt>
      <trkpt lat="41.69879" lon="9.35451">
        <ele>42.92</ele>
        <time>2014-06-05T07:21:36Z</time>
      </trkpt>
      <trkpt lat="41.69874" lon="9.35465">
        <ele>42.92</ele>
        <time>2014-06-05T07:21:37Z</time>
      </trkpt>
      <trkpt lat="41.69866" lon="9.35477">
        <ele>43.4</ele>
        <time>2014-06-05T07:21:38Z</time>
      </trkpt>
      <trkpt lat="41.69857" lon="9.35489">
        <ele>43.88</ele>
        <time>2014-06-05T07:21:39Z</time>
      </trkpt>
      <trkpt lat="41.69847" lon="9.35501">
        <ele>43.4</ele>
        <time>2014-06-05T07:21:40Z</time>
      </trkpt>
      <trkpt lat="41.69839" lon="9.35512">
        <ele>45.32</ele>
        <time>2014-06-05T07:21:41Z</time>
      </trkpt>
      <trkpt lat="41.69775" lon="9.35587">
        <ele>47.24</ele>
        <time>2014-06-05T07:21:48Z</time>
      </trkpt>
      <trkpt lat="41.69739" lon="9.35615">
        <ele>46.76</ele>
        <time>2014-06-05T07:21:52Z</time>
      </trkpt>
      <trkpt lat="41.69729" lon="9.35619">
        <ele>46.28</ele>
        <time>2014-06-05T07:21:53Z</time>
      </trkpt>
      <trkpt lat="41.69718" lon="9.3562">
        <ele>45.32</ele>
        <time>2014-06-05T07:21:54Z</time>
      </trkpt>
      <trkpt lat="41.69707" lon="9.35619">
        <ele>44.36</ele>
        <time>2014-06-05T07:21:55Z</time>
      </trkpt>
      <trkpt lat="41.69696" lon="9.35616">
        <ele>43.88</ele>
        <time>2014-06-05T07:21:56Z</time>
      </trkpt>
      <trkpt lat="41.69672" lon="9.35613">
        <ele>41.95</ele>
        <time>2014-06-05T07:21:58Z</time>
      </trkpt>
      <trkpt lat="41.69659" lon="9.35616">
        <ele>41.47</ele>
        <time>2014-06-05T07:21:59Z</time>
      </trkpt>
      <trkpt lat="41.69646" lon="9.35621">
        <ele>40.51</ele>
        <time>2014-06-05T07:22:00Z</time>
      </trkpt>
      <trkpt lat="41.69634" lon="9.35628">
        <ele>40.03</ele>
        <time>2014-06-05T07:22:01Z</time>
      </trkpt>
      <trkpt lat="41.69622" lon="9.35636">
        <ele>40.03</ele>
        <time>2014-06-05T07:22:02Z</time>
      </trkpt>
      <trkpt lat="41.69612" lon="9.35645">
        <ele>40.99</ele>
        <time>2014-06-05T07:22:03Z</time>
      </trkpt>
      <trkpt lat="41.69603" lon="9.35658">
        <ele>40.99</ele>
        <time>2014-06-05T07:22:04Z</time>
      </trkpt>
      <trkpt lat="41.69595" lon="9.35672">
        <ele>40.51</ele>
        <time>2014-06-05T07:22:05Z</time>
      </trkpt>
      <trkpt lat="41.69588" lon="9.35686">
        <ele>41.95</ele>
        <time>2014-06-05T07:22:06Z</time>
      </trkpt>
      <trkpt lat="41.69585" lon="9.35703">
        <ele>41.95</ele>
        <time>2014-06-05T07:22:07Z</time>
      </trkpt>
      <trkpt lat="41.69583" lon="9.35719">
        <ele>41.95</ele>
        <time>2014-06-05T07:22:08Z</time>
      </trkpt>
      <trkpt lat="41.69575" lon="9.35745">
        <ele>42.44</ele>
        <time>2014-06-05T07:22:10Z</time>
      </trkpt>
      <trkpt lat="41.69567" lon="9.35754">
        <ele>42.92</ele>
        <time>2014-06-05T07:22:11Z</time>
      </trkpt>
      <trkpt lat="41.69558" lon="9.35763">
        <ele>42.92</ele>
        <time>2014-06-05T07:22:12Z</time>
      </trkpt>
      <trkpt lat="41.69488" lon="9.3582">
        <ele>41.95</ele>
        <time>2014-06-05T07:22:18Z</time>
      </trkpt>
      <trkpt lat="41.69475" lon="9.35827">
        <ele>41.47</ele>
        <time>2014-06-05T07:22:19Z</time>
      </trkpt>
      <trkpt lat="41.69461" lon="9.3583">
        <ele>40.51</ele>
        <time>2014-06-05T07:22:20Z</time>
      </trkpt>
      <trkpt lat="41.69446" lon="9.35832">
        <ele>40.51</ele>
        <time>2014-06-05T07:22:21Z</time>
      </trkpt>
      <trkpt lat="41.69431" lon="9.35833">
        <ele>39.55</ele>
        <time>2014-06-05T07:22:22Z</time>
      </trkpt>
      <trkpt lat="41.69417" lon="9.35833">
        <ele>39.07</ele>
        <time>2014-06-05T07:22:23Z</time>
      </trkpt>
      <trkpt lat="41.69403" lon="9.3583">
        <ele>38.59</ele>
        <time>2014-06-05T07:22:24Z</time>
      </trkpt>
      <trkpt lat="41.6939" lon="9.35824">
        <ele>37.63</ele>
        <time>2014-06-05T07:22:25Z</time>
      </trkpt>
      <trkpt lat="41.69378" lon="9.3582">
        <ele>37.15</ele>
        <time>2014-06-05T07:22:26Z</time>
      </trkpt>
      <trkpt lat="41.69367" lon="9.3582">
        <ele>36.67</ele>
        <time>2014-06-05T07:22:27Z</time>
      </trkpt>
      <trkpt lat="41.69357" lon="9.35824">
        <ele>35.71</ele>
        <time>2014-06-05T07:22:28Z</time>
      </trkpt>
      <trkpt lat="41.69347" lon="9.35831">
        <ele>34.74</ele>
        <time>2014-06-05T07:22:29Z</time>
      </trkpt>
      <trkpt lat="41.69338" lon="9.35838">
        <ele>33.78</ele>
        <time>2014-06-05T07:22:30Z</time>
      </trkpt>
      <trkpt lat="41.69329" lon="9.35841">
        <ele>33.3</ele>
        <time>2014-06-05T07:22:31Z</time>
      </trkpt>
      <trkpt lat="41.69321" lon="9.35838">
        <ele>32.34</ele>
        <time>2014-06-05T07:22:32Z</time>
      </trkpt>
      <trkpt lat="41.69312" lon="9.3583">
        <ele>31.86</ele>
        <time>2014-06-05T07:22:33Z</time>
      </trkpt>
      <trkpt lat="41.69304" lon="9.35818">
        <ele>31.38</ele>
        <time>2014-06-05T07:22:34Z</time>
      </trkpt>
      <trkpt lat="41.69297" lon="9.35805">
        <ele>30.42</ele>
        <time>2014-06-05T07:22:35Z</time>
      </trkpt>
      <trkpt lat="41.6929" lon="9.35792">
        <ele>29.94</ele>
        <time>2014-06-05T07:22:36Z</time>
      </trkpt>
      <trkpt lat="41.69281" lon="9.35781">
        <ele>29.46</ele>
        <time>2014-06-05T07:22:37Z</time>
      </trkpt>
      <trkpt lat="41.69272" lon="9.35773">
        <ele>28.98</ele>
        <time>2014-06-05T07:22:38Z</time>
      </trkpt>
      <trkpt lat="41.69263" lon="9.3577">
        <ele>28.02</ele>
        <time>2014-06-05T07:22:39Z</time>
      </trkpt>
      <trkpt lat="41.69254" lon="9.35771">
        <ele>28.5</ele>
        <time>2014-06-05T07:22:40Z</time>
      </trkpt>
      <trkpt lat="41.69246" lon="9.35775">
        <ele>28.02</ele>
        <time>2014-06-05T07:22:41Z</time>
      </trkpt>
      <trkpt lat="41.69239" lon="9.35782">
        <ele>28.98</ele>
        <time>2014-06-05T07:22:42Z</time>
      </trkpt>
      <trkpt lat="41.69235" lon="9.35794">
        <ele>28.98</ele>
        <time>2014-06-05T07:22:43Z</time>
      </trkpt>
      <trkpt lat="41.69233" lon="9.35809">
        <ele>28.5</ele>
        <time>2014-06-05T07:22:44Z</time>
      </trkpt>
      <trkpt lat="41.69232" lon="9.35826">
        <ele>29.94</ele>
        <time>2014-06-05T07:22:45Z</time>
      </trkpt>
      <trkpt lat="41.6923" lon="9.35841">
        <ele>29.94</ele>
        <time>2014-06-05T07:22:46Z</time>
      </trkpt>
      <trkpt lat="41.69226" lon="9.35856">
        <ele>29.94</ele>
        <time>2014-06-05T07:22:47Z</time>
      </trkpt>
      <trkpt lat="41.69219" lon="9.35872">
        <ele>29.46</ele>
        <time>2014-06-05T07:22:48Z</time>
      </trkpt>
      <trkpt lat="41.69203" lon="9.35907">
        <ele>33.3</ele>
        <time>2014-06-05T07:22:50Z</time>
      </trkpt>
      <trkpt lat="41.69197" lon="9.35926">
        <ele>33.78</ele>
        <time>2014-06-05T07:22:51Z</time>
      </trkpt>
      <trkpt lat="41.69194" lon="9.35947">
        <ele>34.26</ele>
        <time>2014-06-05T07:22:52Z</time>
      </trkpt>
      <trkpt lat="41.69193" lon="9.35967">
        <ele>34.74</ele>
        <time>2014-06-05T07:22:53Z</time>
      </trkpt>
      <trkpt lat="41.69193" lon="9.35986">
        <ele>35.23</ele>
        <time>2014-06-05T07:22:54Z</time>
      </trkpt>
      <trkpt lat="41.69194" lon="9.36004">
        <ele>35.71</ele>
        <time>2014-06-05T07:22:55Z</time>
      </trkpt>
      <trkpt lat="41.6919" lon="9.36034">
        <ele>36.19</ele>
        <time>2014-06-05T07:22:57Z</time>
      </trkpt>
      <trkpt lat="41.69183" lon="9.36048">
        <ele>36.67</ele>
        <time>2014-06-05T07:22:58Z</time>
      </trkpt>
      <trkpt lat="41.6915" lon="9.36116">
        <ele>38.59</ele>
        <time>2014-06-05T07:23:03Z</time>
      </trkpt>
      <trkpt lat="41.69143" lon="9.36125">
        <ele>38.59</ele>
        <time>2014-06-05T07:23:04Z</time>
      </trkpt>
      <trkpt lat="41.69134" lon="9.3613">
        <ele>39.07</ele>
        <time>2014-06-05T07:23:05Z</time>
      </trkpt>
      <trkpt lat="41.69125" lon="9.36133">
        <ele>38.59</ele>
        <time>2014-06-05T07:23:06Z</time>
      </trkpt>
      <trkpt lat="41.69116" lon="9.36137">
        <ele>37.63</ele>
        <time>2014-06-05T07:23:07Z</time>
      </trkpt>
      <trkpt lat="41.69108" lon="9.36145">
        <ele>37.15</ele>
        <time>2014-06-05T07:23:08Z</time>
      </trkpt>
      <trkpt lat="41.691" lon="9.36155">
        <ele>37.15</ele>
        <time>2014-06-05T07:23:09Z</time>
      </trkpt>
      <trkpt lat="41.69093" lon="9.36165">
        <ele>36.67</ele>
        <time>2014-06-05T07:23:10Z</time>
      </trkpt>
      <trkpt lat="41.69084" lon="9.36173">
        <ele>36.67</ele>
        <time>2014-06-05T07:23:11Z</time>
      </trkpt>
      <trkpt lat="41.69073" lon="9.36177">
        <ele>35.71</ele>
        <time>2014-06-05T07:23:12Z</time>
      </trkpt>
      <trkpt lat="41.69063" lon="9.36176">
        <ele>34.74</ele>
        <time>2014-06-05T07:23:13Z</time>
      </trkpt>
      <trkpt lat="41.69054" lon="9.36172">
        <ele>34.26</ele>
        <time>2014-06-05T07:23:14Z</time>
      </trkpt>
      <trkpt lat="41.69044" lon="9.36164">
        <ele>33.3</ele>
        <time>2014-06-05T07:23:15Z</time>
      </trkpt>
      <trkpt lat="41.69036" lon="9.36156">
        <ele>32.82</ele>
        <time>2014-06-05T07:23:16Z</time>
      </trkpt>
      <trkpt lat="41.69018" lon="9.36145">
        <ele>33.3</ele>
        <time>2014-06-05T07:23:18Z</time>
      </trkpt>
      <trkpt lat="41.69009" lon="9.36145">
        <ele>32.34</ele>
        <time>2014-06-05T07:23:19Z</time>
      </trkpt>
      <trkpt lat="41.69002" lon="9.36151">
        <ele>32.34</ele>
        <time>2014-06-05T07:23:20Z</time>
      </trkpt>
      <trkpt lat="41.68997" lon="9.36162">
        <ele>31.86</ele>
        <time>2014-06-05T07:23:21Z</time>
      </trkpt>
      <trkpt lat="41.68994" lon="9.36177">
        <ele>32.34</ele>
        <time>2014-06-05T07:23:22Z</time>
      </trkpt>
      <trkpt lat="41.6899" lon="9.36194">
        <ele>32.34</ele>
        <time>2014-06-05T07:23:23Z</time>
      </trkpt>
      <trkpt lat="41.68984" lon="9.36212">
        <ele>32.82</ele>
        <time>2014-06-05T07:23:24Z</time>
      </trkpt>
      <trkpt lat="41.68977" lon="9.36229">
        <ele>32.82</ele>
        <time>2014-06-05T07:23:25Z</time>
      </trkpt>
      <trkpt lat="41.6897" lon="9.36245">
        <ele>33.3</ele>
        <time>2014-06-05T07:23:26Z</time>
      </trkpt>
      <trkpt lat="41.68964" lon="9.36259">
        <ele>33.78</ele>
        <time>2014-06-05T07:23:27Z</time>
      </trkpt>
      <trkpt lat="41.6896" lon="9.36274">
        <ele>35.23</ele>
        <time>2014-06-05T07:23:28Z</time>
      </trkpt>
      <trkpt lat="41.68959" lon="9.3629">
        <ele>35.23</ele>
        <time>2014-06-05T07:23:29Z</time>
      </trkpt>
      <trkpt lat="41.68956" lon="9.36329">
        <ele>37.15</ele>
        <time>2014-06-05T07:23:32Z</time>
      </trkpt>
      <trkpt lat="41.68952" lon="9.36338">
        <ele>37.15</ele>
        <time>2014-06-05T07:23:33Z</time>
      </trkpt>
      <trkpt lat="41.68946" lon="9.36344">
        <ele>37.63</ele>
        <time>2014-06-05T07:23:34Z</time>
      </trkpt>
      <trkpt lat="41.68938" lon="9.36348">
        <ele>38.11</ele>
        <time>2014-06-05T07:23:35Z</time>
      </trkpt>
      <trkpt lat="41.68929" lon="9.36349">
        <ele>38.59</ele>
        <time>2014-06-05T07:23:36Z</time>
      </trkpt>
      <trkpt lat="41.68919" lon="9.3635">
        <ele>39.07</ele>
        <time>2014-06-05T07:23:37Z</time>
      </trkpt>
      <trkpt lat="41.68901" lon="9.36355">
        <ele>39.07</ele>
        <time>2014-06-05T07:23:39Z</time>
      </trkpt>
      <trkpt lat="41.68893" lon="9.36363">
        <ele>39.55</ele>
        <time>2014-06-05T07:23:40Z</time>
      </trkpt>
      <trkpt lat="41.68887" lon="9.36373">
        <ele>39.55</ele>
        <time>2014-06-05T07:23:41Z</time>
      </trkpt>
      <trkpt lat="41.68871" lon="9.36396">
        <ele>40.03</ele>
        <time>2014-06-05T07:23:43Z</time>
      </trkpt>
      <trkpt lat="41.68861" lon="9.36405">
        <ele>40.03</ele>
        <time>2014-06-05T07:23:44Z</time>
      </trkpt>
      <trkpt lat="41.68849" lon="9.36411">
        <ele>40.99</ele>
        <time>2014-06-05T07:23:45Z</time>
      </trkpt>
      <trkpt lat="41.68836" lon="9.36415">
        <ele>40.99</ele>
        <time>2014-06-05T07:23:46Z</time>
      </trkpt>
      <trkpt lat="41.68821" lon="9.36418">
        <ele>41.47</ele>
        <time>2014-06-05T07:23:47Z</time>
      </trkpt>
      <trkpt lat="41.68794" lon="9.36426">
        <ele>40.99</ele>
        <time>2014-06-05T07:23:49Z</time>
      </trkpt>
      <trkpt lat="41.68782" lon="9.36431">
        <ele>40.99</ele>
        <time>2014-06-05T07:23:50Z</time>
      </trkpt>
      <trkpt lat="41.68773" lon="9.36439">
        <ele>40.03</ele>
        <time>2014-06-05T07:23:51Z</time>
      </trkpt>
      <trkpt lat="41.68765" lon="9.3645">
        <ele>40.03</ele>
        <time>2014-06-05T07:23:52Z</time>
      </trkpt>
      <trkpt lat="41.68759" lon="9.36462">
        <ele>40.03</ele>
        <time>2014-06-05T07:23:53Z</time>
      </trkpt>
      <trkpt lat="41.68754" lon="9.36474">
        <ele>40.03</ele>
        <time>2014-06-05T07:23:54Z</time>
      </trkpt>
      <trkpt lat="41.68751" lon="9.36486">
        <ele>40.03</ele>
        <time>2014-06-05T07:23:55Z</time>
      </trkpt>
      <trkpt lat="41.6875" lon="9.36498">
        <ele>40.03</ele>
        <time>2014-06-05T07:23:56Z</time>
      </trkpt>
      <trkpt lat="41.68752" lon="9.36511">
        <ele>39.55</ele>
        <time>2014-06-05T07:23:57Z</time>
      </trkpt>
      <trkpt lat="41.68754" lon="9.36522">
        <ele>39.55</ele>
        <time>2014-06-05T07:23:58Z</time>
      </trkpt>
      <trkpt lat="41.68756" lon="9.36542">
        <ele>38.59</ele>
        <time>2014-06-05T07:24:00Z</time>
      </trkpt>
      <trkpt lat="41.68753" lon="9.36551">
        <ele>38.59</ele>
        <time>2014-06-05T07:24:01Z</time>
      </trkpt>
      <trkpt lat="41.68749" lon="9.36558">
        <ele>38.59</ele>
        <time>2014-06-05T07:24:02Z</time>
      </trkpt>
      <trkpt lat="41.68742" lon="9.36562">
        <ele>38.59</ele>
        <time>2014-06-05T07:24:03Z</time>
      </trkpt>
      <trkpt lat="41.68733" lon="9.36564">
        <ele>38.11</ele>
        <time>2014-06-05T07:24:04Z</time>
      </trkpt>
      <trkpt lat="41.68723" lon="9.36563">
        <ele>38.59</ele>
        <time>2014-06-05T07:24:05Z</time>
      </trkpt>
      <trkpt lat="41.68713" lon="9.36561">
        <ele>39.07</ele>
        <time>2014-06-05T07:24:06Z</time>
      </trkpt>
      <trkpt lat="41.68695" lon="9.36565">
        <ele>37.15</ele>
        <time>2014-06-05T07:24:08Z</time>
      </trkpt>
      <trkpt lat="41.68688" lon="9.36573">
        <ele>36.19</ele>
        <time>2014-06-05T07:24:09Z</time>
      </trkpt>
      <trkpt lat="41.6868" lon="9.36584">
        <ele>35.23</ele>
        <time>2014-06-05T07:24:10Z</time>
      </trkpt>
      <trkpt lat="41.68654" lon="9.36635">
        <ele>35.23</ele>
        <time>2014-06-05T07:24:14Z</time>
      </trkpt>
      <trkpt lat="41.6865" lon="9.36648">
        <ele>35.23</ele>
        <time>2014-06-05T07:24:15Z</time>
      </trkpt>
      <trkpt lat="41.68636" lon="9.36755">
        <ele>33.78</ele>
        <time>2014-06-05T07:24:23Z</time>
      </trkpt>
      <trkpt lat="41.68637" lon="9.36768">
        <ele>33.78</ele>
        <time>2014-06-05T07:24:24Z</time>
      </trkpt>
      <trkpt lat="41.68634" lon="9.36862">
        <ele>29.46</ele>
        <time>2014-06-05T07:24:31Z</time>
      </trkpt>
      <trkpt lat="41.68615" lon="9.36984">
        <ele>25.13</ele>
        <time>2014-06-05T07:24:40Z</time>
      </trkpt>
      <trkpt lat="41.68591" lon="9.3705">
        <ele>21.77</ele>
        <time>2014-06-05T07:24:46Z</time>
      </trkpt>
      <trkpt lat="41.68585" lon="9.37062">
        <ele>21.29</ele>
        <time>2014-06-05T07:24:47Z</time>
      </trkpt>
      <trkpt lat="41.68575" lon="9.37074">
        <ele>21.29</ele>
        <time>2014-06-05T07:24:48Z</time>
      </trkpt>
      <trkpt lat="41.68542" lon="9.37106">
        <ele>20.32</ele>
        <time>2014-06-05T07:24:51Z</time>
      </trkpt>
      <trkpt lat="41.68531" lon="9.37112">
        <ele>19.84</ele>
        <time>2014-06-05T07:24:52Z</time>
      </trkpt>
      <trkpt lat="41.6852" lon="9.37116">
        <ele>20.32</ele>
        <time>2014-06-05T07:24:53Z</time>
      </trkpt>
      <trkpt lat="41.68507" lon="9.37118">
        <ele>20.32</ele>
        <time>2014-06-05T07:24:54Z</time>
      </trkpt>
      <trkpt lat="41.68494" lon="9.3712">
        <ele>19.84</ele>
        <time>2014-06-05T07:24:55Z</time>
      </trkpt>
      <trkpt lat="41.68458" lon="9.37129">
        <ele>20.32</ele>
        <time>2014-06-05T07:24:58Z</time>
      </trkpt>
      <trkpt lat="41.68402" lon="9.37158">
        <ele>17.92</ele>
        <time>2014-06-05T07:25:04Z</time>
      </trkpt>
      <trkpt lat="41.68395" lon="9.37165">
        <ele>17.44</ele>
        <time>2014-06-05T07:25:05Z</time>
      </trkpt>
      <trkpt lat="41.6839" lon="9.37173">
        <ele>17.44</ele>
        <time>2014-06-05T07:25:06Z</time>
      </trkpt>
      <trkpt lat="41.68385" lon="9.37182">
        <ele>16.96</ele>
        <time>2014-06-05T07:25:07Z</time>
      </trkpt>
      <trkpt lat="41.6838" lon="9.37193">
        <ele>16.48</ele>
        <time>2014-06-05T07:25:08Z</time>
      </trkpt>
      <trkpt lat="41.68373" lon="9.37201">
        <ele>16</ele>
        <time>2014-06-05T07:25:09Z</time>
      </trkpt>
      <trkpt lat="41.68365" lon="9.37208">
        <ele>16</ele>
        <time>2014-06-05T07:25:10Z</time>
      </trkpt>
      <trkpt lat="41.68354" lon="9.37211">
        <ele>15.04</ele>
        <time>2014-06-05T07:25:11Z</time>
      </trkpt>
      <trkpt lat="41.68343" lon="9.37211">
        <ele>14.56</ele>
        <time>2014-06-05T07:25:12Z</time>
      </trkpt>
      <trkpt lat="41.6833" lon="9.37208">
        <ele>15.04</ele>
        <time>2014-06-05T07:25:13Z</time>
      </trkpt>
      <trkpt lat="41.68316" lon="9.37202">
        <ele>14.56</ele>
        <time>2014-06-05T07:25:14Z</time>
      </trkpt>
      <trkpt lat="41.68287" lon="9.37195">
        <ele>14.08</ele>
        <time>2014-06-05T07:25:16Z</time>
      </trkpt>
      <trkpt lat="41.68274" lon="9.37195">
        <ele>13.6</ele>
        <time>2014-06-05T07:25:17Z</time>
      </trkpt>
      <trkpt lat="41.68261" lon="9.37199">
        <ele>12.63</ele>
        <time>2014-06-05T07:25:18Z</time>
      </trkpt>
      <trkpt lat="41.68249" lon="9.37204">
        <ele>11.19</ele>
        <time>2014-06-05T07:25:19Z</time>
      </trkpt>
      <trkpt lat="41.68238" lon="9.37212">
        <ele>10.71</ele>
        <time>2014-06-05T07:25:20Z</time>
      </trkpt>
      <trkpt lat="41.68227" lon="9.37221">
        <ele>10.23</ele>
        <time>2014-06-05T07:25:21Z</time>
      </trkpt>
      <trkpt lat="41.68218" lon="9.3723">
        <ele>10.23</ele>
        <time>2014-06-05T07:25:22Z</time>
      </trkpt>
      <trkpt lat="41.6821" lon="9.37241">
        <ele>9.75</ele>
        <time>2014-06-05T07:25:23Z</time>
      </trkpt>
      <trkpt lat="41.68204" lon="9.37252">
        <ele>9.27</ele>
        <time>2014-06-05T07:25:24Z</time>
      </trkpt>
      <trkpt lat="41.682" lon="9.37264">
        <ele>8.79</ele>
        <time>2014-06-05T07:25:25Z</time>
      </trkpt>
      <trkpt lat="41.68198" lon="9.37277">
        <ele>8.31</ele>
        <time>2014-06-05T07:25:26Z</time>
      </trkpt>
      <trkpt lat="41.68196" lon="9.37294">
        <ele>7.83</ele>
        <time>2014-06-05T07:25:27Z</time>
      </trkpt>
      <trkpt lat="41.68194" lon="9.37313">
        <ele>7.83</ele>
        <time>2014-06-05T07:25:28Z</time>
      </trkpt>
      <trkpt lat="41.68193" lon="9.37331">
        <ele>6.87</ele>
        <time>2014-06-05T07:25:29Z</time>
      </trkpt>
      <trkpt lat="41.68202" lon="9.37426">
        <ele>3.5</ele>
        <time>2014-06-05T07:25:36Z</time>
      </trkpt>
      <trkpt lat="41.68204" lon="9.37442">
        <ele>3.98</ele>
        <time>2014-06-05T07:25:38Z</time>
      </trkpt>
      <trkpt lat="41.68204" lon="9.3745">
        <ele>3.98</ele>
        <time>2014-06-05T07:25:39Z</time>
      </trkpt>
      <trkpt lat="41.68202" lon="9.37458">
        <ele>3.5</ele>
        <time>2014-06-05T07:25:40Z</time>
      </trkpt>
      <trkpt lat="41.68199" lon="9.37464">
        <ele>3.02</ele>
        <time>2014-06-05T07:25:41Z</time>
      </trkpt>
      <trkpt lat="41.68196" lon="9.37469">
        <ele>3.02</ele>
        <time>2014-06-05T07:25:42Z</time>
      </trkpt>
      <trkpt lat="41.68191" lon="9.37472">
        <ele>3.02</ele>
        <time>2014-06-05T07:25:43Z</time>
      </trkpt>
      <trkpt lat="41.68185" lon="9.37473">
        <ele>3.02</ele>
        <time>2014-06-05T07:25:44Z</time>
      </trkpt>
      <trkpt lat="41.68179" lon="9.37472">
        <ele>2.54</ele>
        <time>2014-06-05T07:25:45Z</time>
      </trkpt>
      <trkpt lat="41.68172" lon="9.37469">
        <ele>2.54</ele>
        <time>2014-06-05T07:25:46Z</time>
      </trkpt>
      <trkpt lat="41.68164" lon="9.37462">
        <ele>2.06</ele>
        <time>2014-06-05T07:25:47Z</time>
      </trkpt>
      <trkpt lat="41.68156" lon="9.37454">
        <ele>2.06</ele>
        <time>2014-06-05T07:25:48Z</time>
      </trkpt>
      <trkpt lat="41.68148" lon="9.37444">
        <ele>1.58</ele>
        <time>2014-06-05T07:25:49Z</time>
      </trkpt>
      <trkpt lat="41.68113" lon="9.37399">
        <ele>0.62</ele>
        <time>2014-06-05T07:25:54Z</time>
      </trkpt>
      <trkpt lat="41.68105" lon="9.37391">
        <ele>0.62</ele>
        <time>2014-06-05T07:25:55Z</time>
      </trkpt>
      <trkpt lat="41.68066" lon="9.37351">
        <ele>2.54</ele>
        <time>2014-06-05T07:25:59Z</time>
      </trkpt>
      <trkpt lat="41.6805" lon="9.37328">
        <ele>4.46</ele>
        <time>2014-06-05T07:26:01Z</time>
      </trkpt>
      <trkpt lat="41.68043" lon="9.37313">
        <ele>4.94</ele>
        <time>2014-06-05T07:26:02Z</time>
      </trkpt>
      <trkpt lat="41.68036" lon="9.37297">
        <ele>5.42</ele>
        <time>2014-06-05T07:26:03Z</time>
      </trkpt>
      <trkpt lat="41.68029" lon="9.37281">
        <ele>5.42</ele>
        <time>2014-06-05T07:26:04Z</time>
      </trkpt>
      <trkpt lat="41.68024" lon="9.37266">
        <ele>4.46</ele>
        <time>2014-06-05T07:26:05Z</time>
      </trkpt>
      <trkpt lat="41.6802" lon="9.37251">
        <ele>3.5</ele>
        <time>2014-06-05T07:26:06Z</time>
      </trkpt>
      <trkpt lat="41.68009" lon="9.37223">
        <ele>2.54</ele>
        <time>2014-06-05T07:26:08Z</time>
      </trkpt>
      <trkpt lat="41.67991" lon="9.3718">
        <ele>2.54</ele>
        <time>2014-06-05T07:26:11Z</time>
      </trkpt>
      <trkpt lat="41.67969" lon="9.37112">
        <ele>3.02</ele>
        <time>2014-06-05T07:26:15Z</time>
      </trkpt>
      <trkpt lat="41.67963" lon="9.37099">
        <ele>3.5</ele>
        <time>2014-06-05T07:26:16Z</time>
      </trkpt>
      <trkpt lat="41.67956" lon="9.37087">
        <ele>3.5</ele>
        <time>2014-06-05T07:26:17Z</time>
      </trkpt>
      <trkpt lat="41.67947" lon="9.37077">
        <ele>3.5</ele>
        <time>2014-06-05T07:26:18Z</time>
      </trkpt>
      <trkpt lat="41.67937" lon="9.37068">
        <ele>3.02</ele>
        <time>2014-06-05T07:26:19Z</time>
      </trkpt>
      <trkpt lat="41.67927" lon="9.3706">
        <ele>3.02</ele>
        <time>2014-06-05T07:26:20Z</time>
      </trkpt>
      <trkpt lat="41.67884" lon="9.37029">
        <ele>3.98</ele>
        <time>2014-06-05T07:26:24Z</time>
      </trkpt>
      <trkpt lat="41.6786" lon="9.37019">
        <ele>4.46</ele>
        <time>2014-06-05T07:26:26Z</time>
      </trkpt>
      <trkpt lat="41.67848" lon="9.37017">
        <ele>3.5</ele>
        <time>2014-06-05T07:26:27Z</time>
      </trkpt>
      <trkpt lat="41.67836" lon="9.37016">
        <ele>3.5</ele>
        <time>2014-06-05T07:26:28Z</time>
      </trkpt>
      <trkpt lat="41.67823" lon="9.37016">
        <ele>3.98</ele>
        <time>2014-06-05T07:26:29Z</time>
      </trkpt>
      <trkpt lat="41.6781" lon="9.37019">
        <ele>3.98</ele>
        <time>2014-06-05T07:26:30Z</time>
      </trkpt>
      <trkpt lat="41.67797" lon="9.37022">
        <ele>3.98</ele>
        <time>2014-06-05T07:26:31Z</time>
      </trkpt>
      <trkpt lat="41.67784" lon="9.37027">
        <ele>3.02</ele>
        <time>2014-06-05T07:26:32Z</time>
      </trkpt>
      <trkpt lat="41.67691" lon="9.37042">
        <ele>3.5</ele>
        <time>2014-06-05T07:26:40Z</time>
      </trkpt>
      <trkpt lat="41.67682" lon="9.37037">
        <ele>3.02</ele>
        <time>2014-06-05T07:26:41Z</time>
      </trkpt>
      <trkpt lat="41.67674" lon="9.37031">
        <ele>3.02</ele>
        <time>2014-06-05T07:26:42Z</time>
      </trkpt>
      <trkpt lat="41.67668" lon="9.37024">
        <ele>3.02</ele>
        <time>2014-06-05T07:26:43Z</time>
      </trkpt>
      <trkpt lat="41.67662" lon="9.37019">
        <ele>2.54</ele>
        <time>2014-06-05T07:26:44Z</time>
      </trkpt>
      <trkpt lat="41.67656" lon="9.37017">
        <ele>3.02</ele>
        <time>2014-06-05T07:26:45Z</time>
      </trkpt>
      <trkpt lat="41.67651" lon="9.37016">
        <ele>3.5</ele>
        <time>2014-06-05T07:26:46Z</time>
      </trkpt>
      <trkpt lat="41.67643" lon="9.37018">
        <ele>3.02</ele>
        <time>2014-06-05T07:26:47Z</time>
      </trkpt>
      <trkpt lat="41.67632" lon="9.3702">
        <ele>3.02</ele>
        <time>2014-06-05T07:26:48Z</time>
      </trkpt>
      <trkpt lat="41.67542" lon="9.37043">
        <ele>1.1</ele>
        <time>2014-06-05T07:26:54Z</time>
      </trkpt>
      <trkpt lat="41.67409" lon="9.37102">
        <ele>0.62</ele>
        <time>2014-06-05T07:27:03Z</time>
      </trkpt>
      <trkpt lat="41.67271" lon="9.37142">
        <ele>1.58</ele>
        <time>2014-06-05T07:27:11Z</time>
      </trkpt>
      <trkpt lat="41.67164" lon="9.37183">
        <ele>3.02</ele>
        <time>2014-06-05T07:27:18Z</time>
      </trkpt>
      <trkpt lat="41.67151" lon="9.37185">
        <ele>3.5</ele>
        <time>2014-06-05T07:27:19Z</time>
      </trkpt>
      <trkpt lat="41.6707" lon="9.37201">
        <ele>4.46</ele>
        <time>2014-06-05T07:27:26Z</time>
      </trkpt>
      <trkpt lat="41.6706" lon="9.37208">
        <ele>4.46</ele>
        <time>2014-06-05T07:27:27Z</time>
      </trkpt>
      <trkpt lat="41.67051" lon="9.37216">
        <ele>3.98</ele>
        <time>2014-06-05T07:27:28Z</time>
      </trkpt>
      <trkpt lat="41.67041" lon="9.37226">
        <ele>3.98</ele>
        <time>2014-06-05T07:27:29Z</time>
      </trkpt>
      <trkpt lat="41.67033" lon="9.37237">
        <ele>4.94</ele>
        <time>2014-06-05T07:27:30Z</time>
      </trkpt>
      <trkpt lat="41.67024" lon="9.37249">
        <ele>4.94</ele>
        <time>2014-06-05T07:27:31Z</time>
      </trkpt>
      <trkpt lat="41.66962" lon="9.37357">
        <ele>3.98</ele>
        <time>2014-06-05T07:27:41Z</time>
      </trkpt>
      <trkpt lat="41.6694" lon="9.37401">
        <ele>4.94</ele>
        <time>2014-06-05T07:27:45Z</time>
      </trkpt>
      <trkpt lat="41.66937" lon="9.37414">
        <ele>4.94</ele>
        <time>2014-06-05T07:27:46Z</time>
      </trkpt>
      <trkpt lat="41.66921" lon="9.37504">
        <ele>3.98</ele>
        <time>2014-06-05T07:27:55Z</time>
      </trkpt>
      <trkpt lat="41.66914" lon="9.37534">
        <ele>3.5</ele>
        <time>2014-06-05T07:28:00Z</time>
      </trkpt>
      <trkpt lat="41.6691" lon="9.37551">
        <ele>3.98</ele>
        <time>2014-06-05T07:28:04Z</time>
      </trkpt>
      <trkpt lat="41.66911" lon="9.37554">
        <ele>4.46</ele>
        <time>2014-06-05T07:28:05Z</time>
      </trkpt>
      <trkpt lat="41.66919" lon="9.37555">
        <ele>6.39</ele>
        <time>2014-06-05T07:28:11Z</time>
      </trkpt>
      <trkpt lat="41.66912" lon="9.37546">
        <ele>7.83</ele>
        <time>2014-06-05T08:53:16Z</time>
      </trkpt>
      <trkpt lat="41.66924" lon="9.37537">
        <ele>9.27</ele>
        <time>2014-06-05T08:53:58Z</time>
      </trkpt>
      <trkpt lat="41.66923" lon="9.3752">
        <ele>7.35</ele>
        <time>2014-06-05T08:54:07Z</time>
      </trkpt>
      <trkpt lat="41.66925" lon="9.37512">
        <ele>7.35</ele>
        <time>2014-06-05T08:54:08Z</time>
      </trkpt>
      <trkpt lat="41.66942" lon="9.37419">
        <ele>5.91</ele>
        <time>2014-06-05T08:54:16Z</time>
      </trkpt>
      <trkpt lat="41.66947" lon="9.37407">
        <ele>5.91</ele>
        <time>2014-06-05T08:54:17Z</time>
      </trkpt>
      <trkpt lat="41.66951" lon="9.37393">
        <ele>6.87</ele>
        <time>2014-06-05T08:54:18Z</time>
      </trkpt>
      <trkpt lat="41.66958" lon="9.37381">
        <ele>6.87</ele>
        <time>2014-06-05T08:54:19Z</time>
      </trkpt>
      <trkpt lat="41.66965" lon="9.37368">
        <ele>6.87</ele>
        <time>2014-06-05T08:54:20Z</time>
      </trkpt>
      <trkpt lat="41.67056" lon="9.37217">
        <ele>8.79</ele>
        <time>2014-06-05T08:54:32Z</time>
      </trkpt>
      <trkpt lat="41.67065" lon="9.3721">
        <ele>8.79</ele>
        <time>2014-06-05T08:54:33Z</time>
      </trkpt>
      <trkpt lat="41.67076" lon="9.37204">
        <ele>9.27</ele>
        <time>2014-06-05T08:54:34Z</time>
      </trkpt>
      <trkpt lat="41.67086" lon="9.372">
        <ele>9.27</ele>
        <time>2014-06-05T08:54:35Z</time>
      </trkpt>
      <trkpt lat="41.67097" lon="9.37198">
        <ele>9.27</ele>
        <time>2014-06-05T08:54:36Z</time>
      </trkpt>
      <trkpt lat="41.67164" lon="9.37188">
        <ele>9.27</ele>
        <time>2014-06-05T08:54:42Z</time>
      </trkpt>
      <trkpt lat="41.67178" lon="9.37183">
        <ele>9.27</ele>
        <time>2014-06-05T08:54:43Z</time>
      </trkpt>
      <trkpt lat="41.67295" lon="9.37138">
        <ele>9.75</ele>
        <time>2014-06-05T08:54:50Z</time>
      </trkpt>
      <trkpt lat="41.67431" lon="9.37094">
        <ele>7.83</ele>
        <time>2014-06-05T08:54:59Z</time>
      </trkpt>
      <trkpt lat="41.67527" lon="9.37044">
        <ele>1.58</ele>
        <time>2014-06-05T08:55:07Z</time>
      </trkpt>
      <trkpt lat="41.67606" lon="9.37024">
        <ele>3.02</ele>
        <time>2014-06-05T08:55:13Z</time>
      </trkpt>
      <trkpt lat="41.67653" lon="9.37021">
        <ele>2.06</ele>
        <time>2014-06-05T08:55:20Z</time>
      </trkpt>
      <trkpt lat="41.67665" lon="9.37028">
        <ele>5.42</ele>
        <time>2014-06-05T08:55:23Z</time>
      </trkpt>
      <trkpt lat="41.6767" lon="9.37035">
        <ele>5.91</ele>
        <time>2014-06-05T08:55:24Z</time>
      </trkpt>
      <trkpt lat="41.67679" lon="9.3704">
        <ele>6.39</ele>
        <time>2014-06-05T08:55:25Z</time>
      </trkpt>
      <trkpt lat="41.67688" lon="9.37044">
        <ele>5.42</ele>
        <time>2014-06-05T08:55:26Z</time>
      </trkpt>
      <trkpt lat="41.67698" lon="9.37046">
        <ele>5.42</ele>
        <time>2014-06-05T08:55:27Z</time>
      </trkpt>
      <trkpt lat="41.67708" lon="9.37047">
        <ele>5.42</ele>
        <time>2014-06-05T08:55:28Z</time>
      </trkpt>
      <trkpt lat="41.67717" lon="9.37046">
        <ele>5.91</ele>
        <time>2014-06-05T08:55:29Z</time>
      </trkpt>
      <trkpt lat="41.67731" lon="9.37043">
        <ele>4.46</ele>
        <time>2014-06-05T08:55:30Z</time>
      </trkpt>
      <trkpt lat="41.67745" lon="9.3704">
        <ele>3.98</ele>
        <time>2014-06-05T08:55:31Z</time>
      </trkpt>
      <trkpt lat="41.67811" lon="9.3702">
        <ele>4.46</ele>
        <time>2014-06-05T08:55:35Z</time>
      </trkpt>
      <trkpt lat="41.67825" lon="9.37018">
        <ele>4.94</ele>
        <time>2014-06-05T08:55:36Z</time>
      </trkpt>
      <trkpt lat="41.67837" lon="9.37018">
        <ele>3.98</ele>
        <time>2014-06-05T08:55:37Z</time>
      </trkpt>
      <trkpt lat="41.67849" lon="9.37019">
        <ele>3.5</ele>
        <time>2014-06-05T08:55:38Z</time>
      </trkpt>
      <trkpt lat="41.67861" lon="9.37021">
        <ele>3.02</ele>
        <time>2014-06-05T08:55:39Z</time>
      </trkpt>
      <trkpt lat="41.67885" lon="9.37031">
        <ele>1.1</ele>
        <time>2014-06-05T08:55:41Z</time>
      </trkpt>
      <trkpt lat="41.67897" lon="9.37038">
        <ele>0.62</ele>
        <time>2014-06-05T08:55:42Z</time>
      </trkpt>
      <trkpt lat="41.67909" lon="9.37047">
        <ele>0.14</ele>
        <time>2014-06-05T08:55:43Z</time>
      </trkpt>
      <trkpt lat="41.67947" lon="9.37074">
        <ele>-0.82</ele>
        <time>2014-06-05T08:55:47Z</time>
      </trkpt>
      <trkpt lat="41.67954" lon="9.37082">
        <ele>-0.34</ele>
        <time>2014-06-05T08:55:48Z</time>
      </trkpt>
      <trkpt lat="41.67961" lon="9.3709">
        <ele>0.14</ele>
        <time>2014-06-05T08:55:49Z</time>
      </trkpt>
      <trkpt lat="41.67966" lon="9.37102">
        <ele>1.1</ele>
        <time>2014-06-05T08:55:50Z</time>
      </trkpt>
      <trkpt lat="41.6797" lon="9.37117">
        <ele>2.54</ele>
        <time>2014-06-05T08:55:51Z</time>
      </trkpt>
      <trkpt lat="41.67974" lon="9.3713">
        <ele>2.54</ele>
        <time>2014-06-05T08:55:52Z</time>
      </trkpt>
      <trkpt lat="41.67977" lon="9.37144">
        <ele>3.5</ele>
        <time>2014-06-05T08:55:53Z</time>
      </trkpt>
      <trkpt lat="41.6798" lon="9.37157">
        <ele>3.98</ele>
        <time>2014-06-05T08:55:54Z</time>
      </trkpt>
      <trkpt lat="41.67993" lon="9.37202">
        <ele>4.46</ele>
        <time>2014-06-05T08:55:58Z</time>
      </trkpt>
      <trkpt lat="41.6801" lon="9.37237">
        <ele>4.94</ele>
        <time>2014-06-05T08:56:01Z</time>
      </trkpt>
      <trkpt lat="41.68014" lon="9.3725">
        <ele>5.42</ele>
        <time>2014-06-05T08:56:02Z</time>
      </trkpt>
      <trkpt lat="41.68043" lon="9.37327">
        <ele>10.23</ele>
        <time>2014-06-05T08:56:08Z</time>
      </trkpt>
      <trkpt lat="41.68078" lon="9.37374">
        <ele>11.19</ele>
        <time>2014-06-05T08:56:13Z</time>
      </trkpt>
      <trkpt lat="41.68129" lon="9.37429">
        <ele>12.63</ele>
        <time>2014-06-05T08:56:19Z</time>
      </trkpt>
      <trkpt lat="41.68167" lon="9.37476">
        <ele>12.15</ele>
        <time>2014-06-05T08:56:25Z</time>
      </trkpt>
      <trkpt lat="41.68172" lon="9.3748">
        <ele>12.63</ele>
        <time>2014-06-05T08:56:26Z</time>
      </trkpt>
      <trkpt lat="41.68177" lon="9.3748">
        <ele>12.63</ele>
        <time>2014-06-05T08:56:27Z</time>
      </trkpt>
      <trkpt lat="41.6818" lon="9.3748">
        <ele>13.12</ele>
        <time>2014-06-05T08:56:28Z</time>
      </trkpt>
      <trkpt lat="41.68183" lon="9.3748">
        <ele>13.12</ele>
        <time>2014-06-05T08:56:29Z</time>
      </trkpt>
      <trkpt lat="41.68186" lon="9.37479">
        <ele>13.6</ele>
        <time>2014-06-05T08:56:30Z</time>
      </trkpt>
      <trkpt lat="41.68189" lon="9.37477">
        <ele>13.6</ele>
        <time>2014-06-05T08:56:31Z</time>
      </trkpt>
      <trkpt lat="41.68207" lon="9.37453">
        <ele>13.6</ele>
        <time>2014-06-05T08:56:39Z</time>
      </trkpt>
      <trkpt lat="41.68207" lon="9.37445">
        <ele>13.12</ele>
        <time>2014-06-05T08:56:40Z</time>
      </trkpt>
      <trkpt lat="41.68206" lon="9.37436">
        <ele>12.63</ele>
        <time>2014-06-05T08:56:41Z</time>
      </trkpt>
      <trkpt lat="41.68198" lon="9.37315">
        <ele>14.56</ele>
        <time>2014-06-05T08:56:52Z</time>
      </trkpt>
      <trkpt lat="41.68206" lon="9.37266">
        <ele>15.04</ele>
        <time>2014-06-05T08:56:56Z</time>
      </trkpt>
      <trkpt lat="41.6821" lon="9.37255">
        <ele>15.04</ele>
        <time>2014-06-05T08:56:57Z</time>
      </trkpt>
      <trkpt lat="41.68216" lon="9.37244">
        <ele>15.04</ele>
        <time>2014-06-05T08:56:58Z</time>
      </trkpt>
      <trkpt lat="41.68224" lon="9.37233">
        <ele>15.52</ele>
        <time>2014-06-05T08:56:59Z</time>
      </trkpt>
      <trkpt lat="41.68233" lon="9.37223">
        <ele>16</ele>
        <time>2014-06-05T08:57:00Z</time>
      </trkpt>
      <trkpt lat="41.68242" lon="9.37215">
        <ele>16.48</ele>
        <time>2014-06-05T08:57:01Z</time>
      </trkpt>
      <trkpt lat="41.68252" lon="9.37208">
        <ele>16.96</ele>
        <time>2014-06-05T08:57:02Z</time>
      </trkpt>
      <trkpt lat="41.68262" lon="9.37202">
        <ele>16.96</ele>
        <time>2014-06-05T08:57:03Z</time>
      </trkpt>
      <trkpt lat="41.68272" lon="9.37199">
        <ele>17.44</ele>
        <time>2014-06-05T08:57:04Z</time>
      </trkpt>
      <trkpt lat="41.68282" lon="9.37197">
        <ele>17.92</ele>
        <time>2014-06-05T08:57:05Z</time>
      </trkpt>
      <trkpt lat="41.68294" lon="9.37198">
        <ele>19.84</ele>
        <time>2014-06-05T08:57:06Z</time>
      </trkpt>
      <trkpt lat="41.68304" lon="9.372">
        <ele>20.81</ele>
        <time>2014-06-05T08:57:07Z</time>
      </trkpt>
      <trkpt lat="41.68314" lon="9.37202">
        <ele>21.29</ele>
        <time>2014-06-05T08:57:08Z</time>
      </trkpt>
      <trkpt lat="41.68324" lon="9.37205">
        <ele>22.25</ele>
        <time>2014-06-05T08:57:09Z</time>
      </trkpt>
      <trkpt lat="41.68335" lon="9.37209">
        <ele>22.73</ele>
        <time>2014-06-05T08:57:10Z</time>
      </trkpt>
      <trkpt lat="41.68355" lon="9.37214">
        <ele>23.21</ele>
        <time>2014-06-05T08:57:12Z</time>
      </trkpt>
      <trkpt lat="41.68365" lon="9.37213">
        <ele>23.69</ele>
        <time>2014-06-05T08:57:13Z</time>
      </trkpt>
      <trkpt lat="41.68374" lon="9.37209">
        <ele>24.17</ele>
        <time>2014-06-05T08:57:14Z</time>
      </trkpt>
      <trkpt lat="41.68381" lon="9.37202">
        <ele>23.69</ele>
        <time>2014-06-05T08:57:15Z</time>
      </trkpt>
      <trkpt lat="41.68387" lon="9.37193">
        <ele>24.17</ele>
        <time>2014-06-05T08:57:16Z</time>
      </trkpt>
      <trkpt lat="41.68393" lon="9.37183">
        <ele>25.61</ele>
        <time>2014-06-05T08:57:17Z</time>
      </trkpt>
      <trkpt lat="41.68399" lon="9.37173">
        <ele>26.57</ele>
        <time>2014-06-05T08:57:18Z</time>
      </trkpt>
      <trkpt lat="41.68413" lon="9.37158">
        <ele>27.53</ele>
        <time>2014-06-05T08:57:20Z</time>
      </trkpt>
      <trkpt lat="41.68421" lon="9.37152">
        <ele>27.05</ele>
        <time>2014-06-05T08:57:21Z</time>
      </trkpt>
      <trkpt lat="41.68505" lon="9.37121">
        <ele>32.34</ele>
        <time>2014-06-05T08:57:30Z</time>
      </trkpt>
      <trkpt lat="41.68535" lon="9.37114">
        <ele>32.82</ele>
        <time>2014-06-05T08:57:33Z</time>
      </trkpt>
      <trkpt lat="41.68544" lon="9.37108">
        <ele>34.26</ele>
        <time>2014-06-05T08:57:34Z</time>
      </trkpt>
      <trkpt lat="41.68552" lon="9.37102">
        <ele>34.26</ele>
        <time>2014-06-05T08:57:35Z</time>
      </trkpt>
      <trkpt lat="41.68572" lon="9.37083">
        <ele>33.78</ele>
        <time>2014-06-05T08:57:38Z</time>
      </trkpt>
      <trkpt lat="41.68595" lon="9.37051">
        <ele>33.78</ele>
        <time>2014-06-05T08:57:44Z</time>
      </trkpt>
      <trkpt lat="41.68598" lon="9.37046">
        <ele>33.78</ele>
        <time>2014-06-05T08:57:45Z</time>
      </trkpt>
      <trkpt lat="41.68621" lon="9.36971">
        <ele>34.74</ele>
        <time>2014-06-05T08:57:52Z</time>
      </trkpt>
      <trkpt lat="41.68623" lon="9.36961">
        <ele>34.26</ele>
        <time>2014-06-05T08:57:53Z</time>
      </trkpt>
      <trkpt lat="41.6864" lon="9.3681">
        <ele>39.07</ele>
        <time>2014-06-05T08:58:04Z</time>
      </trkpt>
      <trkpt lat="41.6865" lon="9.36656">
        <ele>41.47</ele>
        <time>2014-06-05T08:58:15Z</time>
      </trkpt>
      <trkpt lat="41.68655" lon="9.36629">
        <ele>41.47</ele>
        <time>2014-06-05T08:58:17Z</time>
      </trkpt>
      <trkpt lat="41.6866" lon="9.36616">
        <ele>41.47</ele>
        <time>2014-06-05T08:58:18Z</time>
      </trkpt>
      <trkpt lat="41.68667" lon="9.36604">
        <ele>42.92</ele>
        <time>2014-06-05T08:58:19Z</time>
      </trkpt>
      <trkpt lat="41.68684" lon="9.36571">
        <ele>45.32</ele>
        <time>2014-06-05T08:58:22Z</time>
      </trkpt>
      <trkpt lat="41.68689" lon="9.36564">
        <ele>45.8</ele>
        <time>2014-06-05T08:58:23Z</time>
      </trkpt>
      <trkpt lat="41.68697" lon="9.3656">
        <ele>44.84</ele>
        <time>2014-06-05T08:58:24Z</time>
      </trkpt>
      <trkpt lat="41.68705" lon="9.36558">
        <ele>44.36</ele>
        <time>2014-06-05T08:58:25Z</time>
      </trkpt>
      <trkpt lat="41.68713" lon="9.3656">
        <ele>43.4</ele>
        <time>2014-06-05T08:58:26Z</time>
      </trkpt>
      <trkpt lat="41.68722" lon="9.36561">
        <ele>43.4</ele>
        <time>2014-06-05T08:58:27Z</time>
      </trkpt>
      <trkpt lat="41.68731" lon="9.36563">
        <ele>42.44</ele>
        <time>2014-06-05T08:58:28Z</time>
      </trkpt>
      <trkpt lat="41.6874" lon="9.36562">
        <ele>42.44</ele>
        <time>2014-06-05T08:58:29Z</time>
      </trkpt>
      <trkpt lat="41.68747" lon="9.36558">
        <ele>42.44</ele>
        <time>2014-06-05T08:58:30Z</time>
      </trkpt>
      <trkpt lat="41.68753" lon="9.36551">
        <ele>42.92</ele>
        <time>2014-06-05T08:58:31Z</time>
      </trkpt>
      <trkpt lat="41.68757" lon="9.36542">
        <ele>42.92</ele>
        <time>2014-06-05T08:58:32Z</time>
      </trkpt>
      <trkpt lat="41.68757" lon="9.36529">
        <ele>42.92</ele>
        <time>2014-06-05T08:58:33Z</time>
      </trkpt>
      <trkpt lat="41.68755" lon="9.36517">
        <ele>42.92</ele>
        <time>2014-06-05T08:58:34Z</time>
      </trkpt>
      <trkpt lat="41.68753" lon="9.36505">
        <ele>43.4</ele>
        <time>2014-06-05T08:58:35Z</time>
      </trkpt>
      <trkpt lat="41.68753" lon="9.36493">
        <ele>42.92</ele>
        <time>2014-06-05T08:58:36Z</time>
      </trkpt>
      <trkpt lat="41.68755" lon="9.3648">
        <ele>42.92</ele>
        <time>2014-06-05T08:58:37Z</time>
      </trkpt>
      <trkpt lat="41.68758" lon="9.36467">
        <ele>42.92</ele>
        <time>2014-06-05T08:58:38Z</time>
      </trkpt>
      <trkpt lat="41.68764" lon="9.36456">
        <ele>42.92</ele>
        <time>2014-06-05T08:58:39Z</time>
      </trkpt>
      <trkpt lat="41.68771" lon="9.36445">
        <ele>42.92</ele>
        <time>2014-06-05T08:58:40Z</time>
      </trkpt>
      <trkpt lat="41.68779" lon="9.36436">
        <ele>42.92</ele>
        <time>2014-06-05T08:58:41Z</time>
      </trkpt>
      <trkpt lat="41.68787" lon="9.3643">
        <ele>42.44</ele>
        <time>2014-06-05T08:58:42Z</time>
      </trkpt>
      <trkpt lat="41.68796" lon="9.36425">
        <ele>42.44</ele>
        <time>2014-06-05T08:58:43Z</time>
      </trkpt>
      <trkpt lat="41.68804" lon="9.36421">
        <ele>40.99</ele>
        <time>2014-06-05T08:58:44Z</time>
      </trkpt>
      <trkpt lat="41.68814" lon="9.36418">
        <ele>40.99</ele>
        <time>2014-06-05T08:58:45Z</time>
      </trkpt>
      <trkpt lat="41.68824" lon="9.36416">
        <ele>40.51</ele>
        <time>2014-06-05T08:58:46Z</time>
      </trkpt>
      <trkpt lat="41.68854" lon="9.3641">
        <ele>40.03</ele>
        <time>2014-06-05T08:58:49Z</time>
      </trkpt>
      <trkpt lat="41.68865" lon="9.36405">
        <ele>40.03</ele>
        <time>2014-06-05T08:58:50Z</time>
      </trkpt>
      <trkpt lat="41.68874" lon="9.36398">
        <ele>40.03</ele>
        <time>2014-06-05T08:58:51Z</time>
      </trkpt>
      <trkpt lat="41.68881" lon="9.36389">
        <ele>40.03</ele>
        <time>2014-06-05T08:58:52Z</time>
      </trkpt>
      <trkpt lat="41.68886" lon="9.36378">
        <ele>40.03</ele>
        <time>2014-06-05T08:58:53Z</time>
      </trkpt>
      <trkpt lat="41.68891" lon="9.36368">
        <ele>39.55</ele>
        <time>2014-06-05T08:58:54Z</time>
      </trkpt>
      <trkpt lat="41.68904" lon="9.36353">
        <ele>39.07</ele>
        <time>2014-06-05T08:58:56Z</time>
      </trkpt>
      <trkpt lat="41.68912" lon="9.36351">
        <ele>37.63</ele>
        <time>2014-06-05T08:58:57Z</time>
      </trkpt>
      <trkpt lat="41.68921" lon="9.36351">
        <ele>37.15</ele>
        <time>2014-06-05T08:58:58Z</time>
      </trkpt>
      <trkpt lat="41.68939" lon="9.36348">
        <ele>37.15</ele>
        <time>2014-06-05T08:59:00Z</time>
      </trkpt>
      <trkpt lat="41.68946" lon="9.36343">
        <ele>36.67</ele>
        <time>2014-06-05T08:59:01Z</time>
      </trkpt>
      <trkpt lat="41.68953" lon="9.36336">
        <ele>37.63</ele>
        <time>2014-06-05T08:59:02Z</time>
      </trkpt>
      <trkpt lat="41.68956" lon="9.36327">
        <ele>37.15</ele>
        <time>2014-06-05T08:59:03Z</time>
      </trkpt>
      <trkpt lat="41.68959" lon="9.36316">
        <ele>37.15</ele>
        <time>2014-06-05T08:59:04Z</time>
      </trkpt>
      <trkpt lat="41.68959" lon="9.36304">
        <ele>36.19</ele>
        <time>2014-06-05T08:59:05Z</time>
      </trkpt>
      <trkpt lat="41.68959" lon="9.36292">
        <ele>36.19</ele>
        <time>2014-06-05T08:59:06Z</time>
      </trkpt>
      <trkpt lat="41.68961" lon="9.36266">
        <ele>35.23</ele>
        <time>2014-06-05T08:59:08Z</time>
      </trkpt>
      <trkpt lat="41.68964" lon="9.36255">
        <ele>35.23</ele>
        <time>2014-06-05T08:59:09Z</time>
      </trkpt>
      <trkpt lat="41.68968" lon="9.36243">
        <ele>35.23</ele>
        <time>2014-06-05T08:59:10Z</time>
      </trkpt>
      <trkpt lat="41.68985" lon="9.36211">
        <ele>34.74</ele>
        <time>2014-06-05T08:59:13Z</time>
      </trkpt>
      <trkpt lat="41.68989" lon="9.362">
        <ele>35.23</ele>
        <time>2014-06-05T08:59:14Z</time>
      </trkpt>
      <trkpt lat="41.68993" lon="9.36188">
        <ele>35.71</ele>
        <time>2014-06-05T08:59:15Z</time>
      </trkpt>
      <trkpt lat="41.68995" lon="9.36177">
        <ele>35.23</ele>
        <time>2014-06-05T08:59:16Z</time>
      </trkpt>
      <trkpt lat="41.68997" lon="9.36165">
        <ele>35.71</ele>
        <time>2014-06-05T08:59:17Z</time>
      </trkpt>
      <trkpt lat="41.69" lon="9.36154">
        <ele>35.23</ele>
        <time>2014-06-05T08:59:18Z</time>
      </trkpt>
      <trkpt lat="41.69005" lon="9.36146">
        <ele>35.23</ele>
        <time>2014-06-05T08:59:19Z</time>
      </trkpt>
      <trkpt lat="41.69012" lon="9.36142">
        <ele>34.74</ele>
        <time>2014-06-05T08:59:20Z</time>
      </trkpt>
      <trkpt lat="41.69019" lon="9.36141">
        <ele>34.26</ele>
        <time>2014-06-05T08:59:21Z</time>
      </trkpt>
      <trkpt lat="41.69028" lon="9.36146">
        <ele>33.78</ele>
        <time>2014-06-05T08:59:22Z</time>
      </trkpt>
      <trkpt lat="41.69034" lon="9.36152">
        <ele>32.82</ele>
        <time>2014-06-05T08:59:23Z</time>
      </trkpt>
      <trkpt lat="41.6904" lon="9.3616">
        <ele>32.82</ele>
        <time>2014-06-05T08:59:24Z</time>
      </trkpt>
      <trkpt lat="41.69061" lon="9.36176">
        <ele>35.71</ele>
        <time>2014-06-05T08:59:27Z</time>
      </trkpt>
      <trkpt lat="41.6907" lon="9.36177">
        <ele>36.19</ele>
        <time>2014-06-05T08:59:28Z</time>
      </trkpt>
      <trkpt lat="41.69079" lon="9.36174">
        <ele>36.67</ele>
        <time>2014-06-05T08:59:29Z</time>
      </trkpt>
      <trkpt lat="41.69087" lon="9.3617">
        <ele>37.63</ele>
        <time>2014-06-05T08:59:30Z</time>
      </trkpt>
      <trkpt lat="41.69094" lon="9.36163">
        <ele>38.11</ele>
        <time>2014-06-05T08:59:31Z</time>
      </trkpt>
      <trkpt lat="41.69099" lon="9.36155">
        <ele>39.07</ele>
        <time>2014-06-05T08:59:32Z</time>
      </trkpt>
      <trkpt lat="41.69105" lon="9.36145">
        <ele>39.55</ele>
        <time>2014-06-05T08:59:33Z</time>
      </trkpt>
      <trkpt lat="41.69121" lon="9.36131">
        <ele>40.03</ele>
        <time>2014-06-05T08:59:35Z</time>
      </trkpt>
      <trkpt lat="41.6913" lon="9.36128">
        <ele>40.51</ele>
        <time>2014-06-05T08:59:36Z</time>
      </trkpt>
      <trkpt lat="41.69145" lon="9.36119">
        <ele>41.47</ele>
        <time>2014-06-05T08:59:38Z</time>
      </trkpt>
      <trkpt lat="41.69151" lon="9.36111">
        <ele>40.99</ele>
        <time>2014-06-05T08:59:39Z</time>
      </trkpt>
      <trkpt lat="41.6918" lon="9.36056">
        <ele>42.44</ele>
        <time>2014-06-05T08:59:44Z</time>
      </trkpt>
      <trkpt lat="41.69191" lon="9.36033">
        <ele>41.95</ele>
        <time>2014-06-05T08:59:46Z</time>
      </trkpt>
      <trkpt lat="41.69195" lon="9.36021">
        <ele>41.47</ele>
        <time>2014-06-05T08:59:47Z</time>
      </trkpt>
      <trkpt lat="41.69197" lon="9.36008">
        <ele>40.99</ele>
        <time>2014-06-05T08:59:48Z</time>
      </trkpt>
      <trkpt lat="41.69197" lon="9.35994">
        <ele>40.03</ele>
        <time>2014-06-05T08:59:49Z</time>
      </trkpt>
      <trkpt lat="41.69197" lon="9.3598">
        <ele>39.07</ele>
        <time>2014-06-05T08:59:50Z</time>
      </trkpt>
      <trkpt lat="41.69196" lon="9.35965">
        <ele>38.59</ele>
        <time>2014-06-05T08:59:51Z</time>
      </trkpt>
      <trkpt lat="41.69196" lon="9.35951">
        <ele>38.11</ele>
        <time>2014-06-05T08:59:52Z</time>
      </trkpt>
      <trkpt lat="41.69197" lon="9.35936">
        <ele>37.15</ele>
        <time>2014-06-05T08:59:53Z</time>
      </trkpt>
      <trkpt lat="41.692" lon="9.35922">
        <ele>37.15</ele>
        <time>2014-06-05T08:59:54Z</time>
      </trkpt>
      <trkpt lat="41.69203" lon="9.3591">
        <ele>37.15</ele>
        <time>2014-06-05T08:59:55Z</time>
      </trkpt>
      <trkpt lat="41.69207" lon="9.35897">
        <ele>37.15</ele>
        <time>2014-06-05T08:59:56Z</time>
      </trkpt>
      <trkpt lat="41.69212" lon="9.35886">
        <ele>36.67</ele>
        <time>2014-06-05T08:59:57Z</time>
      </trkpt>
      <trkpt lat="41.69217" lon="9.35875">
        <ele>36.67</ele>
        <time>2014-06-05T08:59:58Z</time>
      </trkpt>
      <trkpt lat="41.6923" lon="9.35844">
        <ele>35.71</ele>
        <time>2014-06-05T09:00:01Z</time>
      </trkpt>
      <trkpt lat="41.69232" lon="9.35833">
        <ele>34.74</ele>
        <time>2014-06-05T09:00:02Z</time>
      </trkpt>
      <trkpt lat="41.69233" lon="9.35821">
        <ele>34.26</ele>
        <time>2014-06-05T09:00:03Z</time>
      </trkpt>
      <trkpt lat="41.69241" lon="9.35781">
        <ele>32.34</ele>
        <time>2014-06-05T09:00:07Z</time>
      </trkpt>
      <trkpt lat="41.69246" lon="9.35774">
        <ele>31.38</ele>
        <time>2014-06-05T09:00:08Z</time>
      </trkpt>
      <trkpt lat="41.69254" lon="9.3577">
        <ele>30.9</ele>
        <time>2014-06-05T09:00:09Z</time>
      </trkpt>
      <trkpt lat="41.69263" lon="9.3577">
        <ele>30.9</ele>
        <time>2014-06-05T09:00:10Z</time>
      </trkpt>
      <trkpt lat="41.69271" lon="9.35773">
        <ele>31.38</ele>
        <time>2014-06-05T09:00:11Z</time>
      </trkpt>
      <trkpt lat="41.69278" lon="9.35778">
        <ele>31.38</ele>
        <time>2014-06-05T09:00:12Z</time>
      </trkpt>
      <trkpt lat="41.69286" lon="9.35785">
        <ele>31.38</ele>
        <time>2014-06-05T09:00:13Z</time>
      </trkpt>
      <trkpt lat="41.69292" lon="9.35797">
        <ele>30.9</ele>
        <time>2014-06-05T09:00:14Z</time>
      </trkpt>
      <trkpt lat="41.69299" lon="9.35809">
        <ele>30.9</ele>
        <time>2014-06-05T09:00:15Z</time>
      </trkpt>
      <trkpt lat="41.69312" lon="9.3583">
        <ele>31.38</ele>
        <time>2014-06-05T09:00:17Z</time>
      </trkpt>
      <trkpt lat="41.6932" lon="9.35838">
        <ele>31.38</ele>
        <time>2014-06-05T09:00:18Z</time>
      </trkpt>
      <trkpt lat="41.69328" lon="9.35842">
        <ele>32.34</ele>
        <time>2014-06-05T09:00:19Z</time>
      </trkpt>
      <trkpt lat="41.69336" lon="9.3584">
        <ele>32.82</ele>
        <time>2014-06-05T09:00:20Z</time>
      </trkpt>
      <trkpt lat="41.69343" lon="9.35836">
        <ele>33.3</ele>
        <time>2014-06-05T09:00:21Z</time>
      </trkpt>
      <trkpt lat="41.6935" lon="9.3583">
        <ele>33.78</ele>
        <time>2014-06-05T09:00:22Z</time>
      </trkpt>
      <trkpt lat="41.69356" lon="9.35823">
        <ele>33.78</ele>
        <time>2014-06-05T09:00:23Z</time>
      </trkpt>
      <trkpt lat="41.69364" lon="9.35818">
        <ele>33.78</ele>
        <time>2014-06-05T09:00:24Z</time>
      </trkpt>
      <trkpt lat="41.69372" lon="9.35817">
        <ele>34.26</ele>
        <time>2014-06-05T09:00:25Z</time>
      </trkpt>
      <trkpt lat="41.6938" lon="9.35819">
        <ele>34.74</ele>
        <time>2014-06-05T09:00:26Z</time>
      </trkpt>
      <trkpt lat="41.69389" lon="9.35822">
        <ele>35.71</ele>
        <time>2014-06-05T09:00:27Z</time>
      </trkpt>
      <trkpt lat="41.69399" lon="9.35827">
        <ele>36.67</ele>
        <time>2014-06-05T09:00:28Z</time>
      </trkpt>
      <trkpt lat="41.69419" lon="9.35833">
        <ele>38.11</ele>
        <time>2014-06-05T09:00:30Z</time>
      </trkpt>
      <trkpt lat="41.69429" lon="9.35833">
        <ele>37.63</ele>
        <time>2014-06-05T09:00:31Z</time>
      </trkpt>
      <trkpt lat="41.69471" lon="9.35829">
        <ele>40.51</ele>
        <time>2014-06-05T09:00:35Z</time>
      </trkpt>
      <trkpt lat="41.69481" lon="9.35826">
        <ele>41.47</ele>
        <time>2014-06-05T09:00:36Z</time>
      </trkpt>
      <trkpt lat="41.6949" lon="9.35821">
        <ele>41.95</ele>
        <time>2014-06-05T09:00:37Z</time>
      </trkpt>
      <trkpt lat="41.69499" lon="9.35814">
        <ele>42.92</ele>
        <time>2014-06-05T09:00:38Z</time>
      </trkpt>
      <trkpt lat="41.69508" lon="9.35807">
        <ele>43.4</ele>
        <time>2014-06-05T09:00:39Z</time>
      </trkpt>
      <trkpt lat="41.69575" lon="9.35747">
        <ele>44.36</ele>
        <time>2014-06-05T09:00:48Z</time>
      </trkpt>
      <trkpt lat="41.6958" lon="9.3574">
        <ele>44.84</ele>
        <time>2014-06-05T09:00:49Z</time>
      </trkpt>
      <trkpt lat="41.69584" lon="9.35731">
        <ele>44.84</ele>
        <time>2014-06-05T09:00:50Z</time>
      </trkpt>
      <trkpt lat="41.69587" lon="9.3572">
        <ele>44.36</ele>
        <time>2014-06-05T09:00:51Z</time>
      </trkpt>
      <trkpt lat="41.69588" lon="9.35708">
        <ele>43.88</ele>
        <time>2014-06-05T09:00:52Z</time>
      </trkpt>
      <trkpt lat="41.69589" lon="9.35696">
        <ele>43.88</ele>
        <time>2014-06-05T09:00:53Z</time>
      </trkpt>
      <trkpt lat="41.69597" lon="9.35672">
        <ele>44.36</ele>
        <time>2014-06-05T09:00:55Z</time>
      </trkpt>
      <trkpt lat="41.69603" lon="9.35661">
        <ele>44.84</ele>
        <time>2014-06-05T09:00:56Z</time>
      </trkpt>
      <trkpt lat="41.6961" lon="9.3565">
        <ele>45.32</ele>
        <time>2014-06-05T09:00:57Z</time>
      </trkpt>
      <trkpt lat="41.69618" lon="9.3564">
        <ele>44.84</ele>
        <time>2014-06-05T09:00:58Z</time>
      </trkpt>
      <trkpt lat="41.69627" lon="9.3563">
        <ele>45.32</ele>
        <time>2014-06-05T09:00:59Z</time>
      </trkpt>
      <trkpt lat="41.69637" lon="9.35622">
        <ele>45.32</ele>
        <time>2014-06-05T09:01:00Z</time>
      </trkpt>
      <trkpt lat="41.69647" lon="9.35617">
        <ele>44.84</ele>
        <time>2014-06-05T09:01:01Z</time>
      </trkpt>
      <trkpt lat="41.69658" lon="9.35612">
        <ele>45.32</ele>
        <time>2014-06-05T09:01:02Z</time>
      </trkpt>
      <trkpt lat="41.69669" lon="9.35609">
        <ele>45.32</ele>
        <time>2014-06-05T09:01:03Z</time>
      </trkpt>
      <trkpt lat="41.69679" lon="9.35608">
        <ele>45.32</ele>
        <time>2014-06-05T09:01:04Z</time>
      </trkpt>
      <trkpt lat="41.6969" lon="9.3561">
        <ele>45.32</ele>
        <time>2014-06-05T09:01:05Z</time>
      </trkpt>
      <trkpt lat="41.69699" lon="9.35613">
        <ele>45.32</ele>
        <time>2014-06-05T09:01:06Z</time>
      </trkpt>
      <trkpt lat="41.69709" lon="9.35617">
        <ele>46.28</ele>
        <time>2014-06-05T09:01:07Z</time>
      </trkpt>
      <trkpt lat="41.69728" lon="9.35621">
        <ele>48.2</ele>
        <time>2014-06-05T09:01:09Z</time>
      </trkpt>
      <trkpt lat="41.69736" lon="9.35619">
        <ele>49.16</ele>
        <time>2014-06-05T09:01:10Z</time>
      </trkpt>
      <trkpt lat="41.69744" lon="9.35615">
        <ele>48.68</ele>
        <time>2014-06-05T09:01:11Z</time>
      </trkpt>
      <trkpt lat="41.69752" lon="9.35608">
        <ele>49.65</ele>
        <time>2014-06-05T09:01:12Z</time>
      </trkpt>
      <trkpt lat="41.69759" lon="9.35601">
        <ele>49.16</ele>
        <time>2014-06-05T09:01:13Z</time>
      </trkpt>
      <trkpt lat="41.69862" lon="9.35481">
        <ele>46.76</ele>
        <time>2014-06-05T09:01:25Z</time>
      </trkpt>
      <trkpt lat="41.69875" lon="9.35459">
        <ele>46.76</ele>
        <time>2014-06-05T09:01:27Z</time>
      </trkpt>
      <trkpt lat="41.69881" lon="9.35447">
        <ele>46.28</ele>
        <time>2014-06-05T09:01:28Z</time>
      </trkpt>
      <trkpt lat="41.69885" lon="9.35434">
        <ele>45.8</ele>
        <time>2014-06-05T09:01:29Z</time>
      </trkpt>
      <trkpt lat="41.69887" lon="9.3542">
        <ele>44.84</ele>
        <time>2014-06-05T09:01:30Z</time>
      </trkpt>
      <trkpt lat="41.69888" lon="9.35404">
        <ele>44.84</ele>
        <time>2014-06-05T09:01:31Z</time>
      </trkpt>
      <trkpt lat="41.69888" lon="9.35387">
        <ele>43.88</ele>
        <time>2014-06-05T09:01:32Z</time>
      </trkpt>
      <trkpt lat="41.69887" lon="9.35369">
        <ele>43.4</ele>
        <time>2014-06-05T09:01:33Z</time>
      </trkpt>
      <trkpt lat="41.69885" lon="9.35242">
        <ele>43.88</ele>
        <time>2014-06-05T09:01:42Z</time>
      </trkpt>
      <trkpt lat="41.69887" lon="9.3523">
        <ele>44.36</ele>
        <time>2014-06-05T09:01:43Z</time>
      </trkpt>
      <trkpt lat="41.69889" lon="9.35217">
        <ele>44.84</ele>
        <time>2014-06-05T09:01:44Z</time>
      </trkpt>
      <trkpt lat="41.69912" lon="9.35093">
        <ele>44.36</ele>
        <time>2014-06-05T09:01:55Z</time>
      </trkpt>
      <trkpt lat="41.69915" lon="9.35063">
        <ele>43.88</ele>
        <time>2014-06-05T09:02:00Z</time>
      </trkpt>
      <trkpt lat="41.69919" lon="9.35034">
        <ele>43.4</ele>
        <time>2014-06-05T09:02:03Z</time>
      </trkpt>
      <trkpt lat="41.6992" lon="9.35003">
        <ele>43.4</ele>
        <time>2014-06-05T09:02:06Z</time>
      </trkpt>
      <trkpt lat="41.6993" lon="9.34903">
        <ele>43.88</ele>
        <time>2014-06-05T09:02:16Z</time>
      </trkpt>
      <trkpt lat="41.69945" lon="9.34863">
        <ele>45.8</ele>
        <time>2014-06-05T09:02:21Z</time>
      </trkpt>
      <trkpt lat="41.69948" lon="9.34858">
        <ele>46.28</ele>
        <time>2014-06-05T09:02:22Z</time>
      </trkpt>
      <trkpt lat="41.69954" lon="9.34844">
        <ele>46.76</ele>
        <time>2014-06-05T09:02:25Z</time>
      </trkpt>
      <trkpt lat="41.69955" lon="9.34838">
        <ele>46.28</ele>
        <time>2014-06-05T09:02:26Z</time>
      </trkpt>
      <trkpt lat="41.69966" lon="9.34792">
        <ele>43.88</ele>
        <time>2014-06-05T09:02:38Z</time>
      </trkpt>
      <trkpt lat="41.69966" lon="9.3479">
        <ele>41.95</ele>
        <time>2014-06-05T09:02:58Z</time>
      </trkpt>
      <trkpt lat="41.69967" lon="9.3479">
        <ele>42.44</ele>
        <time>2014-06-05T09:04:00Z</time>
      </trkpt>
      <trkpt lat="41.69972" lon="9.34778">
        <ele>44.84</ele>
        <time>2014-06-05T09:04:19Z</time>
      </trkpt>
      <trkpt lat="41.69978" lon="9.34766">
        <ele>47.72</ele>
        <time>2014-06-05T09:04:31Z</time>
      </trkpt>
      <trkpt lat="41.69977" lon="9.34755">
        <ele>47.24</ele>
        <time>2014-06-05T09:04:34Z</time>
      </trkpt>
      <trkpt lat="41.69975" lon="9.34749">
        <ele>47.72</ele>
        <time>2014-06-05T09:04:35Z</time>
      </trkpt>
      <trkpt lat="41.69953" lon="9.34705">
        <ele>49.16</ele>
        <time>2014-06-05T09:04:45Z</time>
      </trkpt>
      <trkpt lat="41.69926" lon="9.34654">
        <ele>50.61</ele>
        <time>2014-06-05T09:04:54Z</time>
      </trkpt>
      <trkpt lat="41.69885" lon="9.34572">
        <ele>52.05</ele>
        <time>2014-06-05T09:05:05Z</time>
      </trkpt>
      <trkpt lat="41.69819" lon="9.34445">
        <ele>55.41</ele>
        <time>2014-06-05T09:05:15Z</time>
      </trkpt>
      <trkpt lat="41.69759" lon="9.34318">
        <ele>59.26</ele>
        <time>2014-06-05T09:05:25Z</time>
      </trkpt>
      <trkpt lat="41.69659" lon="9.3413">
        <ele>57.82</ele>
        <time>2014-06-05T09:05:37Z</time>
      </trkpt>
      <trkpt lat="41.69498" lon="9.33819">
        <ele>63.1</ele>
        <time>2014-06-05T09:05:54Z</time>
      </trkpt>
      <trkpt lat="41.69388" lon="9.33606">
        <ele>65.99</ele>
        <time>2014-06-05T09:06:04Z</time>
      </trkpt>
      <trkpt lat="41.69271" lon="9.3338">
        <ele>68.87</ele>
        <time>2014-06-05T09:06:12Z</time>
      </trkpt>
      <trkpt lat="41.69103" lon="9.33051">
        <ele>73.2</ele>
        <time>2014-06-05T09:06:23Z</time>
      </trkpt>
      <trkpt lat="41.68858" lon="9.32574">
        <ele>86.18</ele>
        <time>2014-06-05T09:06:39Z</time>
      </trkpt>
      <trkpt lat="41.68702" lon="9.32268">
        <ele>94.35</ele>
        <time>2014-06-05T09:06:50Z</time>
      </trkpt>
      <trkpt lat="41.68669" lon="9.32204">
        <ele>95.31</ele>
        <time>2014-06-05T09:06:53Z</time>
      </trkpt>
      <trkpt lat="41.68655" lon="9.32189">
        <ele>94.83</ele>
        <time>2014-06-05T09:06:54Z</time>
      </trkpt>
      <trkpt lat="41.68639" lon="9.32176">
        <ele>95.31</ele>
        <time>2014-06-05T09:06:55Z</time>
      </trkpt>
      <trkpt lat="41.68522" lon="9.32104">
        <ele>96.75</ele>
        <time>2014-06-05T09:07:01Z</time>
      </trkpt>
      <trkpt lat="41.68373" lon="9.3201">
        <ele>94.35</ele>
        <time>2014-06-05T09:07:09Z</time>
      </trkpt>
      <trkpt lat="41.68179" lon="9.31889">
        <ele>90.98</ele>
        <time>2014-06-05T09:07:21Z</time>
      </trkpt>
      <trkpt lat="41.68078" lon="9.31821">
        <ele>89.54</ele>
        <time>2014-06-05T09:07:29Z</time>
      </trkpt>
      <trkpt lat="41.68016" lon="9.31784">
        <ele>87.14</ele>
        <time>2014-06-05T09:07:35Z</time>
      </trkpt>
      <trkpt lat="41.67972" lon="9.31743">
        <ele>87.14</ele>
        <time>2014-06-05T09:07:41Z</time>
      </trkpt>
      <trkpt lat="41.67965" lon="9.3174">
        <ele>87.14</ele>
        <time>2014-06-05T09:07:42Z</time>
      </trkpt>
      <trkpt lat="41.6794" lon="9.31735">
        <ele>86.18</ele>
        <time>2014-06-05T09:07:45Z</time>
      </trkpt>
      <trkpt lat="41.67931" lon="9.31731">
        <ele>86.66</ele>
        <time>2014-06-05T09:07:46Z</time>
      </trkpt>
      <trkpt lat="41.67922" lon="9.31726">
        <ele>87.14</ele>
        <time>2014-06-05T09:07:47Z</time>
      </trkpt>
      <trkpt lat="41.67821" lon="9.31663">
        <ele>85.69</ele>
        <time>2014-06-05T09:07:56Z</time>
      </trkpt>
      <trkpt lat="41.67656" lon="9.31558">
        <ele>82.33</ele>
        <time>2014-06-05T09:08:08Z</time>
      </trkpt>
      <trkpt lat="41.6753" lon="9.31482">
        <ele>77.52</ele>
        <time>2014-06-05T09:08:15Z</time>
      </trkpt>
      <trkpt lat="41.67369" lon="9.31382">
        <ele>75.12</ele>
        <time>2014-06-05T09:08:24Z</time>
      </trkpt>
      <trkpt lat="41.67207" lon="9.31282">
        <ele>73.68</ele>
        <time>2014-06-05T09:08:35Z</time>
      </trkpt>
      <trkpt lat="41.67104" lon="9.31212">
        <ele>75.12</ele>
        <time>2014-06-05T09:08:45Z</time>
      </trkpt>
      <trkpt lat="41.67099" lon="9.31204">
        <ele>74.64</ele>
        <time>2014-06-05T09:08:46Z</time>
      </trkpt>
      <trkpt lat="41.67085" lon="9.31182">
        <ele>74.16</ele>
        <time>2014-06-05T09:08:49Z</time>
      </trkpt>
      <trkpt lat="41.67078" lon="9.31181">
        <ele>74.16</ele>
        <time>2014-06-05T09:08:50Z</time>
      </trkpt>
      <trkpt lat="41.67071" lon="9.31183">
        <ele>75.12</ele>
        <time>2014-06-05T09:08:51Z</time>
      </trkpt>
      <trkpt lat="41.67067" lon="9.31188">
        <ele>75.6</ele>
        <time>2014-06-05T09:08:52Z</time>
      </trkpt>
      <trkpt lat="41.67064" lon="9.31195">
        <ele>75.12</ele>
        <time>2014-06-05T09:08:53Z</time>
      </trkpt>
      <trkpt lat="41.67063" lon="9.31204">
        <ele>75.6</ele>
        <time>2014-06-05T09:08:54Z</time>
      </trkpt>
      <trkpt lat="41.67065" lon="9.31214">
        <ele>75.6</ele>
        <time>2014-06-05T09:08:55Z</time>
      </trkpt>
      <trkpt lat="41.67068" lon="9.31224">
        <ele>75.6</ele>
        <time>2014-06-05T09:08:56Z</time>
      </trkpt>
      <trkpt lat="41.6707" lon="9.31232">
        <ele>76.08</ele>
        <time>2014-06-05T09:08:57Z</time>
      </trkpt>
      <trkpt lat="41.6707" lon="9.31239">
        <ele>76.08</ele>
        <time>2014-06-05T09:08:58Z</time>
      </trkpt>
      <trkpt lat="41.67067" lon="9.31244">
        <ele>76.56</ele>
        <time>2014-06-05T09:08:59Z</time>
      </trkpt>
      <trkpt lat="41.67063" lon="9.31246">
        <ele>76.56</ele>
        <time>2014-06-05T09:09:00Z</time>
      </trkpt>
      <trkpt lat="41.67058" lon="9.31245">
        <ele>77.04</ele>
        <time>2014-06-05T09:09:01Z</time>
      </trkpt>
      <trkpt lat="41.67054" lon="9.31243">
        <ele>76.56</ele>
        <time>2014-06-05T09:09:02Z</time>
      </trkpt>
      <trkpt lat="41.67051" lon="9.31241">
        <ele>76.08</ele>
        <time>2014-06-05T09:09:03Z</time>
      </trkpt>
      <trkpt lat="41.67047" lon="9.31239">
        <ele>76.08</ele>
        <time>2014-06-05T09:09:04Z</time>
      </trkpt>
      <trkpt lat="41.67039" lon="9.31234">
        <ele>75.6</ele>
        <time>2014-06-05T09:09:06Z</time>
      </trkpt>
      <trkpt lat="41.6702" lon="9.31217">
        <ele>75.12</ele>
        <time>2014-06-05T09:09:12Z</time>
      </trkpt>
      <trkpt lat="41.67025" lon="9.31197">
        <ele>74.16</ele>
        <time>2014-06-05T09:09:16Z</time>
      </trkpt>
      <trkpt lat="41.67013" lon="9.31192">
        <ele>73.68</ele>
        <time>2014-06-05T09:09:22Z</time>
      </trkpt>
      <trkpt lat="41.67014" lon="9.31215">
        <ele>72.72</ele>
        <time>2014-06-05T09:09:27Z</time>
      </trkpt>
      <trkpt lat="41.67017" lon="9.3122">
        <ele>72.24</ele>
        <time>2014-06-05T09:09:28Z</time>
      </trkpt>
      <trkpt lat="41.6702" lon="9.31224">
        <ele>71.76</ele>
        <time>2014-06-05T09:09:29Z</time>
      </trkpt>
      <trkpt lat="41.67026" lon="9.31229">
        <ele>72.72</ele>
        <time>2014-06-05T09:09:30Z</time>
      </trkpt>
      <trkpt lat="41.67032" lon="9.31232">
        <ele>72.24</ele>
        <time>2014-06-05T09:09:31Z</time>
      </trkpt>
      <trkpt lat="41.67059" lon="9.3125">
        <ele>73.2</ele>
        <time>2014-06-05T09:09:36Z</time>
      </trkpt>
      <trkpt lat="41.67064" lon="9.31251">
        <ele>72.72</ele>
        <time>2014-06-05T09:09:37Z</time>
      </trkpt>
      <trkpt lat="41.67068" lon="9.31249">
        <ele>73.2</ele>
        <time>2014-06-05T09:09:38Z</time>
      </trkpt>
      <trkpt lat="41.67073" lon="9.31245">
        <ele>73.68</ele>
        <time>2014-06-05T09:09:39Z</time>
      </trkpt>
      <trkpt lat="41.67076" lon="9.3124">
        <ele>73.68</ele>
        <time>2014-06-05T09:09:40Z</time>
      </trkpt>
      <trkpt lat="41.6708" lon="9.31234">
        <ele>73.68</ele>
        <time>2014-06-05T09:09:41Z</time>
      </trkpt>
      <trkpt lat="41.67088" lon="9.31224">
        <ele>73.68</ele>
        <time>2014-06-05T09:09:43Z</time>
      </trkpt>
      <trkpt lat="41.67098" lon="9.31205">
        <ele>74.64</ele>
        <time>2014-06-05T09:09:46Z</time>
      </trkpt>
      <trkpt lat="41.67098" lon="9.31197">
        <ele>74.64</ele>
        <time>2014-06-05T09:09:47Z</time>
      </trkpt>
      <trkpt lat="41.67096" lon="9.31189">
        <ele>74.64</ele>
        <time>2014-06-05T09:09:48Z</time>
      </trkpt>
      <trkpt lat="41.67092" lon="9.31184">
        <ele>74.64</ele>
        <time>2014-06-05T09:09:49Z</time>
      </trkpt>
      <trkpt lat="41.67086" lon="9.31181">
        <ele>74.64</ele>
        <time>2014-06-05T09:09:50Z</time>
      </trkpt>
      <trkpt lat="41.67077" lon="9.3118">
        <ele>74.64</ele>
        <time>2014-06-05T09:09:51Z</time>
      </trkpt>
      <trkpt lat="41.67067" lon="9.3118">
        <ele>74.64</ele>
        <time>2014-06-05T09:09:52Z</time>
      </trkpt>
      <trkpt lat="41.67044" lon="9.31174">
        <ele>74.64</ele>
        <time>2014-06-05T09:09:54Z</time>
      </trkpt>
      <trkpt lat="41.6703" lon="9.31167">
        <ele>74.64</ele>
        <time>2014-06-05T09:09:55Z</time>
      </trkpt>
      <trkpt lat="41.6692" lon="9.311">
        <ele>76.08</ele>
        <time>2014-06-05T09:10:01Z</time>
      </trkpt>
      <trkpt lat="41.66748" lon="9.30993">
        <ele>75.12</ele>
        <time>2014-06-05T09:10:10Z</time>
      </trkpt>
      <trkpt lat="41.66659" lon="9.30931">
        <ele>73.2</ele>
        <time>2014-06-05T09:10:16Z</time>
      </trkpt>
      <trkpt lat="41.66648" lon="9.30915">
        <ele>72.72</ele>
        <time>2014-06-05T09:10:17Z</time>
      </trkpt>
      <trkpt lat="41.66639" lon="9.30899">
        <ele>72.24</ele>
        <time>2014-06-05T09:10:18Z</time>
      </trkpt>
      <trkpt lat="41.66632" lon="9.3088">
        <ele>73.2</ele>
        <time>2014-06-05T09:10:19Z</time>
      </trkpt>
      <trkpt lat="41.66628" lon="9.30861">
        <ele>73.68</ele>
        <time>2014-06-05T09:10:20Z</time>
      </trkpt>
      <trkpt lat="41.66628" lon="9.30843">
        <ele>73.2</ele>
        <time>2014-06-05T09:10:21Z</time>
      </trkpt>
      <trkpt lat="41.66628" lon="9.30828">
        <ele>73.2</ele>
        <time>2014-06-05T09:10:22Z</time>
      </trkpt>
      <trkpt lat="41.66628" lon="9.30808">
        <ele>73.68</ele>
        <time>2014-06-05T09:10:24Z</time>
      </trkpt>
      <trkpt lat="41.66626" lon="9.30803">
        <ele>74.64</ele>
        <time>2014-06-05T09:10:25Z</time>
      </trkpt>
      <trkpt lat="41.66623" lon="9.30799">
        <ele>74.64</ele>
        <time>2014-06-05T09:10:26Z</time>
      </trkpt>
      <trkpt lat="41.66619" lon="9.30798">
        <ele>74.64</ele>
        <time>2014-06-05T09:10:27Z</time>
      </trkpt>
      <trkpt lat="41.66616" lon="9.30798">
        <ele>73.68</ele>
        <time>2014-06-05T09:10:28Z</time>
      </trkpt>
      <trkpt lat="41.66613" lon="9.30798">
        <ele>74.16</ele>
        <time>2014-06-05T09:10:29Z</time>
      </trkpt>
      <trkpt lat="41.66609" lon="9.30799">
        <ele>73.68</ele>
        <time>2014-06-05T09:10:30Z</time>
      </trkpt>
      <trkpt lat="41.66593" lon="9.308">
        <ele>72.72</ele>
        <time>2014-06-05T09:10:34Z</time>
      </trkpt>
      <trkpt lat="41.66588" lon="9.30802">
        <ele>72.72</ele>
        <time>2014-06-05T09:10:35Z</time>
      </trkpt>
      <trkpt lat="41.66582" lon="9.30804">
        <ele>72.72</ele>
        <time>2014-06-05T09:10:36Z</time>
      </trkpt>
      <trkpt lat="41.66576" lon="9.30809">
        <ele>72.24</ele>
        <time>2014-06-05T09:10:37Z</time>
      </trkpt>
      <trkpt lat="41.66568" lon="9.30815">
        <ele>72.24</ele>
        <time>2014-06-05T09:10:38Z</time>
      </trkpt>
      <trkpt lat="41.66488" lon="9.30881">
        <ele>69.83</ele>
        <time>2014-06-05T09:10:46Z</time>
      </trkpt>
      <trkpt lat="41.66439" lon="9.30923">
        <ele>67.91</ele>
        <time>2014-06-05T09:10:50Z</time>
      </trkpt>
      <trkpt lat="41.66427" lon="9.30936">
        <ele>67.43</ele>
        <time>2014-06-05T09:10:51Z</time>
      </trkpt>
      <trkpt lat="41.66416" lon="9.30952">
        <ele>66.95</ele>
        <time>2014-06-05T09:10:52Z</time>
      </trkpt>
      <trkpt lat="41.6632" lon="9.31101">
        <ele>64.07</ele>
        <time>2014-06-05T09:10:59Z</time>
      </trkpt>
      <trkpt lat="41.66256" lon="9.312">
        <ele>64.07</ele>
        <time>2014-06-05T09:11:04Z</time>
      </trkpt>
      <trkpt lat="41.66242" lon="9.31214">
        <ele>64.07</ele>
        <time>2014-06-05T09:11:05Z</time>
      </trkpt>
      <trkpt lat="41.66226" lon="9.31226">
        <ele>64.55</ele>
        <time>2014-06-05T09:11:06Z</time>
      </trkpt>
      <trkpt lat="41.6607" lon="9.31346">
        <ele>64.07</ele>
        <time>2014-06-05T09:11:16Z</time>
      </trkpt>
      <trkpt lat="41.66" lon="9.31394">
        <ele>63.58</ele>
        <time>2014-06-05T09:11:22Z</time>
      </trkpt>
      <trkpt lat="41.65992" lon="9.31403">
        <ele>62.14</ele>
        <time>2014-06-05T09:11:23Z</time>
      </trkpt>
      <trkpt lat="41.65987" lon="9.31414">
        <ele>61.66</ele>
        <time>2014-06-05T09:11:24Z</time>
      </trkpt>
      <trkpt lat="41.65984" lon="9.31427">
        <ele>61.18</ele>
        <time>2014-06-05T09:11:25Z</time>
      </trkpt>
      <trkpt lat="41.65984" lon="9.31442">
        <ele>60.7</ele>
        <time>2014-06-05T09:11:26Z</time>
      </trkpt>
      <trkpt lat="41.65985" lon="9.31457">
        <ele>60.22</ele>
        <time>2014-06-05T09:11:27Z</time>
      </trkpt>
      <trkpt lat="41.65986" lon="9.31472">
        <ele>60.22</ele>
        <time>2014-06-05T09:11:28Z</time>
      </trkpt>
      <trkpt lat="41.65988" lon="9.31486">
        <ele>59.26</ele>
        <time>2014-06-05T09:11:29Z</time>
      </trkpt>
      <trkpt lat="41.65992" lon="9.31498">
        <ele>58.78</ele>
        <time>2014-06-05T09:11:30Z</time>
      </trkpt>
      <trkpt lat="41.65997" lon="9.31509">
        <ele>58.78</ele>
        <time>2014-06-05T09:11:31Z</time>
      </trkpt>
      <trkpt lat="41.66001" lon="9.31519">
        <ele>57.82</ele>
        <time>2014-06-05T09:11:32Z</time>
      </trkpt>
      <trkpt lat="41.66003" lon="9.3153">
        <ele>57.82</ele>
        <time>2014-06-05T09:11:33Z</time>
      </trkpt>
      <trkpt lat="41.66002" lon="9.31542">
        <ele>57.34</ele>
        <time>2014-06-05T09:11:34Z</time>
      </trkpt>
      <trkpt lat="41.65998" lon="9.31556">
        <ele>57.34</ele>
        <time>2014-06-05T09:11:35Z</time>
      </trkpt>
      <trkpt lat="41.65967" lon="9.3164">
        <ele>56.37</ele>
        <time>2014-06-05T09:11:41Z</time>
      </trkpt>
      <trkpt lat="41.6596" lon="9.3165">
        <ele>56.37</ele>
        <time>2014-06-05T09:11:42Z</time>
      </trkpt>
      <trkpt lat="41.65951" lon="9.31658">
        <ele>56.37</ele>
        <time>2014-06-05T09:11:43Z</time>
      </trkpt>
      <trkpt lat="41.6594" lon="9.31664">
        <ele>56.37</ele>
        <time>2014-06-05T09:11:44Z</time>
      </trkpt>
      <trkpt lat="41.65927" lon="9.31669">
        <ele>56.37</ele>
        <time>2014-06-05T09:11:45Z</time>
      </trkpt>
      <trkpt lat="41.65912" lon="9.31674">
        <ele>55.89</ele>
        <time>2014-06-05T09:11:46Z</time>
      </trkpt>
      <trkpt lat="41.65768" lon="9.31721">
        <ele>51.09</ele>
        <time>2014-06-05T09:11:55Z</time>
      </trkpt>
      <trkpt lat="41.65703" lon="9.31775">
        <ele>49.65</ele>
        <time>2014-06-05T09:12:00Z</time>
      </trkpt>
      <trkpt lat="41.65694" lon="9.3179">
        <ele>48.68</ele>
        <time>2014-06-05T09:12:01Z</time>
      </trkpt>
      <trkpt lat="41.65686" lon="9.31806">
        <ele>48.68</ele>
        <time>2014-06-05T09:12:02Z</time>
      </trkpt>
      <trkpt lat="41.65627" lon="9.31969">
        <ele>45.8</ele>
        <time>2014-06-05T09:12:10Z</time>
      </trkpt>
      <trkpt lat="41.65612" lon="9.32024">
        <ele>45.32</ele>
        <time>2014-06-05T09:12:13Z</time>
      </trkpt>
      <trkpt lat="41.65603" lon="9.32036">
        <ele>45.32</ele>
        <time>2014-06-05T09:12:14Z</time>
      </trkpt>
      <trkpt lat="41.65592" lon="9.32045">
        <ele>45.8</ele>
        <time>2014-06-05T09:12:15Z</time>
      </trkpt>
      <trkpt lat="41.65563" lon="9.32067">
        <ele>40.03</ele>
        <time>2014-06-05T09:12:18Z</time>
      </trkpt>
      <trkpt lat="41.65556" lon="9.3208">
        <ele>39.07</ele>
        <time>2014-06-05T09:12:19Z</time>
      </trkpt>
      <trkpt lat="41.6552" lon="9.32172">
        <ele>35.23</ele>
        <time>2014-06-05T09:12:24Z</time>
      </trkpt>
      <trkpt lat="41.65503" lon="9.32209">
        <ele>34.74</ele>
        <time>2014-06-05T09:12:26Z</time>
      </trkpt>
      <trkpt lat="41.65492" lon="9.32222">
        <ele>35.23</ele>
        <time>2014-06-05T09:12:27Z</time>
      </trkpt>
      <trkpt lat="41.65481" lon="9.32234">
        <ele>36.19</ele>
        <time>2014-06-05T09:12:28Z</time>
      </trkpt>
      <trkpt lat="41.65447" lon="9.32265">
        <ele>37.63</ele>
        <time>2014-06-05T09:12:31Z</time>
      </trkpt>
      <trkpt lat="41.65436" lon="9.32277">
        <ele>37.63</ele>
        <time>2014-06-05T09:12:32Z</time>
      </trkpt>
      <trkpt lat="41.65337" lon="9.32403">
        <ele>38.59</ele>
        <time>2014-06-05T09:12:41Z</time>
      </trkpt>
      <trkpt lat="41.65321" lon="9.32425">
        <ele>38.11</ele>
        <time>2014-06-05T09:12:43Z</time>
      </trkpt>
      <trkpt lat="41.65315" lon="9.3244">
        <ele>35.71</ele>
        <time>2014-06-05T09:12:44Z</time>
      </trkpt>
      <trkpt lat="41.65312" lon="9.32456">
        <ele>35.23</ele>
        <time>2014-06-05T09:12:45Z</time>
      </trkpt>
      <trkpt lat="41.65296" lon="9.32585">
        <ele>36.19</ele>
        <time>2014-06-05T09:12:53Z</time>
      </trkpt>
      <trkpt lat="41.65291" lon="9.32594">
        <ele>36.19</ele>
        <time>2014-06-05T09:12:54Z</time>
      </trkpt>
      <trkpt lat="41.65282" lon="9.32598">
        <ele>37.15</ele>
        <time>2014-06-05T09:12:55Z</time>
      </trkpt>
      <trkpt lat="41.65272" lon="9.32602">
        <ele>37.15</ele>
        <time>2014-06-05T09:12:56Z</time>
      </trkpt>
      <trkpt lat="41.6526" lon="9.32605">
        <ele>36.19</ele>
        <time>2014-06-05T09:12:57Z</time>
      </trkpt>
      <trkpt lat="41.65132" lon="9.32664">
        <ele>36.19</ele>
        <time>2014-06-05T09:13:07Z</time>
      </trkpt>
      <trkpt lat="41.64995" lon="9.32752">
        <ele>36.19</ele>
        <time>2014-06-05T09:13:17Z</time>
      </trkpt>
      <trkpt lat="41.64838" lon="9.32827">
        <ele>34.74</ele>
        <time>2014-06-05T09:13:27Z</time>
      </trkpt>
      <trkpt lat="41.64793" lon="9.32841">
        <ele>33.3</ele>
        <time>2014-06-05T09:13:30Z</time>
      </trkpt>
      <trkpt lat="41.64778" lon="9.3285">
        <ele>33.3</ele>
        <time>2014-06-05T09:13:31Z</time>
      </trkpt>
      <trkpt lat="41.64661" lon="9.32893">
        <ele>31.86</ele>
        <time>2014-06-05T09:13:38Z</time>
      </trkpt>
      <trkpt lat="41.64519" lon="9.32898">
        <ele>28.5</ele>
        <time>2014-06-05T09:13:46Z</time>
      </trkpt>
      <trkpt lat="41.64388" lon="9.32935">
        <ele>28.02</ele>
        <time>2014-06-05T09:13:54Z</time>
      </trkpt>
      <trkpt lat="41.64373" lon="9.32944">
        <ele>28.02</ele>
        <time>2014-06-05T09:13:55Z</time>
      </trkpt>
      <trkpt lat="41.64359" lon="9.32955">
        <ele>28.5</ele>
        <time>2014-06-05T09:13:56Z</time>
      </trkpt>
      <trkpt lat="41.64347" lon="9.32969">
        <ele>28.02</ele>
        <time>2014-06-05T09:13:57Z</time>
      </trkpt>
      <trkpt lat="41.64335" lon="9.32984">
        <ele>28.02</ele>
        <time>2014-06-05T09:13:58Z</time>
      </trkpt>
      <trkpt lat="41.64325" lon="9.33">
        <ele>27.53</ele>
        <time>2014-06-05T09:13:59Z</time>
      </trkpt>
      <trkpt lat="41.64258" lon="9.33144">
        <ele>25.61</ele>
        <time>2014-06-05T09:14:07Z</time>
      </trkpt>
      <trkpt lat="41.64178" lon="9.33274">
        <ele>28.02</ele>
        <time>2014-06-05T09:14:15Z</time>
      </trkpt>
      <trkpt lat="41.64165" lon="9.33287">
        <ele>28.5</ele>
        <time>2014-06-05T09:14:16Z</time>
      </trkpt>
      <trkpt lat="41.64053" lon="9.33378">
        <ele>27.53</ele>
        <time>2014-06-05T09:14:24Z</time>
      </trkpt>
      <trkpt lat="41.64018" lon="9.33423">
        <ele>27.05</ele>
        <time>2014-06-05T09:14:27Z</time>
      </trkpt>
      <trkpt lat="41.64005" lon="9.33436">
        <ele>27.05</ele>
        <time>2014-06-05T09:14:28Z</time>
      </trkpt>
      <trkpt lat="41.63891" lon="9.33521">
        <ele>24.17</ele>
        <time>2014-06-05T09:14:37Z</time>
      </trkpt>
      <trkpt lat="41.63881" lon="9.3353">
        <ele>23.69</ele>
        <time>2014-06-05T09:14:38Z</time>
      </trkpt>
      <trkpt lat="41.63871" lon="9.33537">
        <ele>23.21</ele>
        <time>2014-06-05T09:14:39Z</time>
      </trkpt>
      <trkpt lat="41.63842" lon="9.3356">
        <ele>22.25</ele>
        <time>2014-06-05T09:14:43Z</time>
      </trkpt>
      <trkpt lat="41.63834" lon="9.33563">
        <ele>21.77</ele>
        <time>2014-06-05T09:14:44Z</time>
      </trkpt>
      <trkpt lat="41.63827" lon="9.33568">
        <ele>20.81</ele>
        <time>2014-06-05T09:14:45Z</time>
      </trkpt>
      <trkpt lat="41.63822" lon="9.33576">
        <ele>19.36</ele>
        <time>2014-06-05T09:14:46Z</time>
      </trkpt>
      <trkpt lat="41.6382" lon="9.33584">
        <ele>19.84</ele>
        <time>2014-06-05T09:14:47Z</time>
      </trkpt>
      <trkpt lat="41.6382" lon="9.33592">
        <ele>19.84</ele>
        <time>2014-06-05T09:14:48Z</time>
      </trkpt>
      <trkpt lat="41.63824" lon="9.33598">
        <ele>19.84</ele>
        <time>2014-06-05T09:14:49Z</time>
      </trkpt>
      <trkpt lat="41.6383" lon="9.33601">
        <ele>19.36</ele>
        <time>2014-06-05T09:14:50Z</time>
      </trkpt>
      <trkpt lat="41.63836" lon="9.33602">
        <ele>17.92</ele>
        <time>2014-06-05T09:14:51Z</time>
      </trkpt>
      <trkpt lat="41.63844" lon="9.33605">
        <ele>17.92</ele>
        <time>2014-06-05T09:14:52Z</time>
      </trkpt>
      <trkpt lat="41.63863" lon="9.33616">
        <ele>19.36</ele>
        <time>2014-06-05T09:14:54Z</time>
      </trkpt>
      <trkpt lat="41.63872" lon="9.33624">
        <ele>19.84</ele>
        <time>2014-06-05T09:14:55Z</time>
      </trkpt>
      <trkpt lat="41.63882" lon="9.33634">
        <ele>19.36</ele>
        <time>2014-06-05T09:14:56Z</time>
      </trkpt>
      <trkpt lat="41.63984" lon="9.33756">
        <ele>18.88</ele>
        <time>2014-06-05T09:15:05Z</time>
      </trkpt>
      <trkpt lat="41.64137" lon="9.33937">
        <ele>13.6</ele>
        <time>2014-06-05T09:15:16Z</time>
      </trkpt>
      <trkpt lat="41.64286" lon="9.34109">
        <ele>13.6</ele>
        <time>2014-06-05T09:15:24Z</time>
      </trkpt>
      <trkpt lat="41.64407" lon="9.34247">
        <ele>14.08</ele>
        <time>2014-06-05T09:15:32Z</time>
      </trkpt>
      <trkpt lat="41.64618" lon="9.34458">
        <ele>12.15</ele>
        <time>2014-06-05T09:15:46Z</time>
      </trkpt>
      <trkpt lat="41.64757" lon="9.34532">
        <ele>18.88</ele>
        <time>2014-06-05T09:15:54Z</time>
      </trkpt>
      <trkpt lat="41.64774" lon="9.34533">
        <ele>20.32</ele>
        <time>2014-06-05T09:15:55Z</time>
      </trkpt>
      <trkpt lat="41.6484" lon="9.34535">
        <ele>22.25</ele>
        <time>2014-06-05T09:15:59Z</time>
      </trkpt>
      <trkpt lat="41.64854" lon="9.34538">
        <ele>23.21</ele>
        <time>2014-06-05T09:16:00Z</time>
      </trkpt>
      <trkpt lat="41.64866" lon="9.34544">
        <ele>24.17</ele>
        <time>2014-06-05T09:16:01Z</time>
      </trkpt>
      <trkpt lat="41.6489" lon="9.34555">
        <ele>25.61</ele>
        <time>2014-06-05T09:16:03Z</time>
      </trkpt>
      <trkpt lat="41.64903" lon="9.34559">
        <ele>26.09</ele>
        <time>2014-06-05T09:16:04Z</time>
      </trkpt>
      <trkpt lat="41.64917" lon="9.34562">
        <ele>26.09</ele>
        <time>2014-06-05T09:16:05Z</time>
      </trkpt>
      <trkpt lat="41.65027" lon="9.34583">
        <ele>27.53</ele>
        <time>2014-06-05T09:16:14Z</time>
      </trkpt>
      <trkpt lat="41.65123" lon="9.34614">
        <ele>29.94</ele>
        <time>2014-06-05T09:16:23Z</time>
      </trkpt>
      <trkpt lat="41.6515" lon="9.34628">
        <ele>30.42</ele>
        <time>2014-06-05T09:16:26Z</time>
      </trkpt>
      <trkpt lat="41.65158" lon="9.34635">
        <ele>30.9</ele>
        <time>2014-06-05T09:16:27Z</time>
      </trkpt>
      <trkpt lat="41.65166" lon="9.34643">
        <ele>31.38</ele>
        <time>2014-06-05T09:16:28Z</time>
      </trkpt>
      <trkpt lat="41.65171" lon="9.34654">
        <ele>31.86</ele>
        <time>2014-06-05T09:16:29Z</time>
      </trkpt>
      <trkpt lat="41.65177" lon="9.34665">
        <ele>32.34</ele>
        <time>2014-06-05T09:16:30Z</time>
      </trkpt>
      <trkpt lat="41.65208" lon="9.34739">
        <ele>32.34</ele>
        <time>2014-06-05T09:16:39Z</time>
      </trkpt>
      <trkpt lat="41.65219" lon="9.34786">
        <ele>30.42</ele>
        <time>2014-06-05T09:16:52Z</time>
      </trkpt>
      <trkpt lat="41.65214" lon="9.34827">
        <ele>31.38</ele>
        <time>2014-06-05T09:17:04Z</time>
      </trkpt>
      <trkpt lat="41.65215" lon="9.34839">
        <ele>29.46</ele>
        <time>2014-06-05T09:17:07Z</time>
      </trkpt>
      <trkpt lat="41.6521" lon="9.34871">
        <ele>28.98</ele>
        <time>2014-06-05T09:17:18Z</time>
      </trkpt>
      <trkpt lat="41.65209" lon="9.34874">
        <ele>28.98</ele>
        <time>2014-06-05T09:17:19Z</time>
      </trkpt>
      <trkpt lat="41.65211" lon="9.349">
        <ele>28.02</ele>
        <time>2014-06-05T09:17:27Z</time>
      </trkpt>
      <trkpt lat="41.65203" lon="9.34915">
        <ele>28.98</ele>
        <time>2014-06-05T09:17:35Z</time>
      </trkpt>
      <trkpt lat="41.65204" lon="9.34919">
        <ele>28.5</ele>
        <time>2014-06-05T09:17:56Z</time>
      </trkpt>
      <trkpt lat="41.65204" lon="9.34918">
        <ele>28.5</ele>
        <time>2014-06-05T09:19:29Z</time>
      </trkpt>
      <trkpt lat="41.65204" lon="9.34918">
        <ele>28.5</ele>
        <time>2014-06-05T09:21:22Z</time>
      </trkpt>
      <trkpt lat="41.65204" lon="9.34918">
        <ele>28.5</ele>
        <time>2014-06-05T09:23:22Z</time>
      </trkpt>
      <trkpt lat="41.65204" lon="9.34918">
        <ele>28.02</ele>
        <time>2014-06-05T09:25:00Z</time>
      </trkpt>
      <trkpt lat="41.65204" lon="9.34918">
        <ele>28.5</ele>
        <time>2014-06-05T09:27:50Z</time>
      </trkpt>
      <trkpt lat="41.65204" lon="9.34919">
        <ele>28.5</ele>
        <time>2014-06-05T09:30:22Z</time>
      </trkpt>
      <trkpt lat="41.65204" lon="9.34919">
        <ele>28.5</ele>
        <time>2014-06-05T09:32:43Z</time>
      </trkpt>
      <trkpt lat="41.65204" lon="9.34919">
        <ele>28.02</ele>
        <time>2014-06-05T09:35:10Z</time>
      </trkpt>
      <trkpt lat="41.65204" lon="9.34919">
        <ele>28.02</ele>
        <time>2014-06-05T09:37:33Z</time>
      </trkpt>
      <trkpt lat="41.65204" lon="9.34919">
        <ele>28.02</ele>
        <time>2014-06-05T09:39:56Z</time>
      </trkpt>
      <trkpt lat="41.65204" lon="9.34919">
        <ele>27.53</ele>
        <time>2014-06-05T09:41:58Z</time>
      </trkpt>
      <trkpt lat="41.65205" lon="9.34919">
        <ele>27.53</ele>
        <time>2014-06-05T09:44:23Z</time>
      </trkpt>
      <trkpt lat="41.65205" lon="9.34919">
        <ele>27.05</ele>
        <time>2014-06-05T09:46:41Z</time>
      </trkpt>
      <trkpt lat="41.65205" lon="9.34919">
        <ele>26.57</ele>
        <time>2014-06-05T09:49:26Z</time>
      </trkpt>
      <trkpt lat="41.65205" lon="9.3492">
        <ele>26.57</ele>
        <time>2014-06-05T09:52:12Z</time>
      </trkpt>
      <trkpt lat="41.65205" lon="9.3492">
        <ele>26.57</ele>
        <time>2014-06-05T09:54:40Z</time>
      </trkpt>
      <trkpt lat="41.65205" lon="9.34919">
        <ele>26.57</ele>
        <time>2014-06-05T09:57:06Z</time>
      </trkpt>
      <trkpt lat="41.65205" lon="9.34919">
        <ele>26.57</ele>
        <time>2014-06-05T09:59:18Z</time>
      </trkpt>
      <trkpt lat="41.65205" lon="9.34919">
        <ele>26.57</ele>
        <time>2014-06-05T10:01:34Z</time>
      </trkpt>
      <trkpt lat="41.65206" lon="9.34919">
        <ele>26.57</ele>
        <time>2014-06-05T10:03:54Z</time>
      </trkpt>
      <trkpt lat="41.65206" lon="9.34919">
        <ele>26.09</ele>
        <time>2014-06-05T10:06:00Z</time>
      </trkpt>
      <trkpt lat="41.65206" lon="9.34919">
        <ele>26.09</ele>
        <time>2014-06-05T10:07:28Z</time>
      </trkpt>
      <trkpt lat="41.65206" lon="9.34919">
        <ele>26.09</ele>
        <time>2014-06-05T10:09:32Z</time>
      </trkpt>
      <trkpt lat="41.65206" lon="9.34919">
        <ele>25.61</ele>
        <time>2014-06-05T10:10:37Z</time>
      </trkpt>
      <trkpt lat="41.65214" lon="9.34919">
        <ele>25.13</ele>
        <time>2014-06-05T10:10:46Z</time>
      </trkpt>
      <trkpt lat="41.65213" lon="9.34923">
        <ele>25.13</ele>
        <time>2014-06-05T10:11:10Z</time>
      </trkpt>
      <trkpt lat="41.65213" lon="9.34923">
        <ele>25.13</ele>
        <time>2014-06-05T10:11:20Z</time>
      </trkpt>
      <trkpt lat="41.65215" lon="9.349">
        <ele>25.61</ele>
        <time>2014-06-05T10:11:26Z</time>
      </trkpt>
      <trkpt lat="41.65211" lon="9.34879">
        <ele>24.65</ele>
        <time>2014-06-05T10:11:32Z</time>
      </trkpt>
      <trkpt lat="41.65215" lon="9.34861">
        <ele>23.69</ele>
        <time>2014-06-05T10:11:36Z</time>
      </trkpt>
      <trkpt lat="41.65214" lon="9.34836">
        <ele>23.21</ele>
        <time>2014-06-05T10:11:41Z</time>
      </trkpt>
      <trkpt lat="41.65213" lon="9.34831">
        <ele>23.21</ele>
        <time>2014-06-05T10:11:42Z</time>
      </trkpt>
      <trkpt lat="41.65213" lon="9.34827">
        <ele>23.21</ele>
        <time>2014-06-05T10:11:43Z</time>
      </trkpt>
      <trkpt lat="41.65216" lon="9.3482">
        <ele>23.69</ele>
        <time>2014-06-05T10:11:44Z</time>
      </trkpt>
      <trkpt lat="41.65218" lon="9.34813">
        <ele>23.21</ele>
        <time>2014-06-05T10:11:45Z</time>
      </trkpt>
      <trkpt lat="41.65218" lon="9.34806">
        <ele>23.21</ele>
        <time>2014-06-05T10:11:46Z</time>
      </trkpt>
      <trkpt lat="41.65214" lon="9.34762">
        <ele>24.17</ele>
        <time>2014-06-05T10:11:55Z</time>
      </trkpt>
      <trkpt lat="41.65213" lon="9.34757">
        <ele>24.17</ele>
        <time>2014-06-05T10:11:57Z</time>
      </trkpt>
      <trkpt lat="41.65214" lon="9.34754">
        <ele>24.17</ele>
        <time>2014-06-05T10:11:58Z</time>
      </trkpt>
      <trkpt lat="41.65213" lon="9.34752">
        <ele>24.17</ele>
        <time>2014-06-05T10:11:59Z</time>
      </trkpt>
      <trkpt lat="41.65198" lon="9.34706">
        <ele>25.13</ele>
        <time>2014-06-05T10:12:05Z</time>
      </trkpt>
      <trkpt lat="41.65192" lon="9.34692">
        <ele>24.65</ele>
        <time>2014-06-05T10:12:06Z</time>
      </trkpt>
      <trkpt lat="41.65167" lon="9.34643">
        <ele>24.17</ele>
        <time>2014-06-05T10:12:10Z</time>
      </trkpt>
      <trkpt lat="41.65158" lon="9.34634">
        <ele>23.69</ele>
        <time>2014-06-05T10:12:11Z</time>
      </trkpt>
      <trkpt lat="41.65148" lon="9.34626">
        <ele>22.25</ele>
        <time>2014-06-05T10:12:12Z</time>
      </trkpt>
      <trkpt lat="41.65136" lon="9.34619">
        <ele>22.25</ele>
        <time>2014-06-05T10:12:13Z</time>
      </trkpt>
      <trkpt lat="41.65122" lon="9.34613">
        <ele>21.77</ele>
        <time>2014-06-05T10:12:14Z</time>
      </trkpt>
      <trkpt lat="41.64957" lon="9.34565">
        <ele>20.32</ele>
        <time>2014-06-05T10:12:25Z</time>
      </trkpt>
      <trkpt lat="41.64879" lon="9.34553">
        <ele>22.25</ele>
        <time>2014-06-05T10:12:30Z</time>
      </trkpt>
      <trkpt lat="41.64865" lon="9.34547">
        <ele>21.77</ele>
        <time>2014-06-05T10:12:31Z</time>
      </trkpt>
      <trkpt lat="41.64823" lon="9.34531">
        <ele>18.88</ele>
        <time>2014-06-05T10:12:34Z</time>
      </trkpt>
      <trkpt lat="41.64808" lon="9.3453">
        <ele>18.4</ele>
        <time>2014-06-05T10:12:35Z</time>
      </trkpt>
      <trkpt lat="41.64732" lon="9.34525">
        <ele>14.56</ele>
        <time>2014-06-05T10:12:40Z</time>
      </trkpt>
      <trkpt lat="41.64715" lon="9.34518">
        <ele>13.6</ele>
        <time>2014-06-05T10:12:41Z</time>
      </trkpt>
      <trkpt lat="41.64585" lon="9.34434">
        <ele>9.27</ele>
        <time>2014-06-05T10:12:48Z</time>
      </trkpt>
      <trkpt lat="41.64422" lon="9.34264">
        <ele>11.19</ele>
        <time>2014-06-05T10:12:57Z</time>
      </trkpt>
      <trkpt lat="41.64096" lon="9.33884">
        <ele>10.71</ele>
        <time>2014-06-05T10:13:16Z</time>
      </trkpt>
      <trkpt lat="41.63966" lon="9.33727">
        <ele>13.12</ele>
        <time>2014-06-05T10:13:25Z</time>
      </trkpt>
      <trkpt lat="41.63874" lon="9.33615">
        <ele>13.6</ele>
        <time>2014-06-05T10:13:34Z</time>
      </trkpt>
      <trkpt lat="41.63855" lon="9.33592">
        <ele>13.12</ele>
        <time>2014-06-05T10:13:37Z</time>
      </trkpt>
      <trkpt lat="41.63853" lon="9.33584">
        <ele>13.12</ele>
        <time>2014-06-05T10:13:38Z</time>
      </trkpt>
      <trkpt lat="41.63848" lon="9.33567">
        <ele>12.63</ele>
        <time>2014-06-05T10:13:40Z</time>
      </trkpt>
      <trkpt lat="41.63843" lon="9.33561">
        <ele>12.63</ele>
        <time>2014-06-05T10:13:41Z</time>
      </trkpt>
      <trkpt lat="41.63836" lon="9.33557">
        <ele>12.15</ele>
        <time>2014-06-05T10:13:42Z</time>
      </trkpt>
      <trkpt lat="41.63828" lon="9.33554">
        <ele>11.67</ele>
        <time>2014-06-05T10:13:43Z</time>
      </trkpt>
      <trkpt lat="41.63817" lon="9.33551">
        <ele>11.19</ele>
        <time>2014-06-05T10:13:44Z</time>
      </trkpt>
      <trkpt lat="41.63805" lon="9.33549">
        <ele>10.71</ele>
        <time>2014-06-05T10:13:45Z</time>
      </trkpt>
      <trkpt lat="41.63761" lon="9.33541">
        <ele>9.75</ele>
        <time>2014-06-05T10:13:48Z</time>
      </trkpt>
      <trkpt lat="41.63624" lon="9.3349">
        <ele>9.27</ele>
        <time>2014-06-05T10:13:55Z</time>
      </trkpt>
      <trkpt lat="41.63431" lon="9.33421">
        <ele>8.31</ele>
        <time>2014-06-05T10:14:05Z</time>
      </trkpt>
      <trkpt lat="41.63417" lon="9.33411">
        <ele>8.31</ele>
        <time>2014-06-05T10:14:06Z</time>
      </trkpt>
      <trkpt lat="41.63404" lon="9.33397">
        <ele>7.83</ele>
        <time>2014-06-05T10:14:07Z</time>
      </trkpt>
      <trkpt lat="41.63391" lon="9.33381">
        <ele>8.31</ele>
        <time>2014-06-05T10:14:08Z</time>
      </trkpt>
      <trkpt lat="41.63379" lon="9.33364">
        <ele>7.83</ele>
        <time>2014-06-05T10:14:09Z</time>
      </trkpt>
      <trkpt lat="41.63283" lon="9.33219">
        <ele>9.27</ele>
        <time>2014-06-05T10:14:18Z</time>
      </trkpt>
      <trkpt lat="41.63265" lon="9.33173">
        <ele>10.23</ele>
        <time>2014-06-05T10:14:21Z</time>
      </trkpt>
      <trkpt lat="41.63256" lon="9.33129">
        <ele>9.75</ele>
        <time>2014-06-05T10:14:25Z</time>
      </trkpt>
      <trkpt lat="41.6325" lon="9.33095">
        <ele>9.27</ele>
        <time>2014-06-05T10:14:28Z</time>
      </trkpt>
      <trkpt lat="41.63247" lon="9.33066">
        <ele>8.79</ele>
        <time>2014-06-05T10:14:30Z</time>
      </trkpt>
      <trkpt lat="41.63247" lon="9.33049">
        <ele>9.27</ele>
        <time>2014-06-05T10:14:31Z</time>
      </trkpt>
      <trkpt lat="41.63245" lon="9.32993">
        <ele>9.27</ele>
        <time>2014-06-05T10:14:34Z</time>
      </trkpt>
      <trkpt lat="41.63243" lon="9.32975">
        <ele>9.75</ele>
        <time>2014-06-05T10:14:35Z</time>
      </trkpt>
      <trkpt lat="41.63239" lon="9.32958">
        <ele>10.23</ele>
        <time>2014-06-05T10:14:36Z</time>
      </trkpt>
      <trkpt lat="41.632" lon="9.32839">
        <ele>9.27</ele>
        <time>2014-06-05T10:14:43Z</time>
      </trkpt>
      <trkpt lat="41.6318" lon="9.32704">
        <ele>7.83</ele>
        <time>2014-06-05T10:14:51Z</time>
      </trkpt>
      <trkpt lat="41.63155" lon="9.32532">
        <ele>6.39</ele>
        <time>2014-06-05T10:14:59Z</time>
      </trkpt>
      <trkpt lat="41.63093" lon="9.32214">
        <ele>4.46</ele>
        <time>2014-06-05T10:15:13Z</time>
      </trkpt>
      <trkpt lat="41.63091" lon="9.32191">
        <ele>4.94</ele>
        <time>2014-06-05T10:15:14Z</time>
      </trkpt>
      <trkpt lat="41.63091" lon="9.32168">
        <ele>4.94</ele>
        <time>2014-06-05T10:15:15Z</time>
      </trkpt>
      <trkpt lat="41.63093" lon="9.32146">
        <ele>5.42</ele>
        <time>2014-06-05T10:15:16Z</time>
      </trkpt>
      <trkpt lat="41.63096" lon="9.32123">
        <ele>5.42</ele>
        <time>2014-06-05T10:15:17Z</time>
      </trkpt>
      <trkpt lat="41.63101" lon="9.32101">
        <ele>5.42</ele>
        <time>2014-06-05T10:15:18Z</time>
      </trkpt>
      <trkpt lat="41.63107" lon="9.3208">
        <ele>5.91</ele>
        <time>2014-06-05T10:15:19Z</time>
      </trkpt>
      <trkpt lat="41.63115" lon="9.32059">
        <ele>5.91</ele>
        <time>2014-06-05T10:15:20Z</time>
      </trkpt>
      <trkpt lat="41.63124" lon="9.32039">
        <ele>6.39</ele>
        <time>2014-06-05T10:15:21Z</time>
      </trkpt>
      <trkpt lat="41.63135" lon="9.32019">
        <ele>7.35</ele>
        <time>2014-06-05T10:15:22Z</time>
      </trkpt>
      <trkpt lat="41.63155" lon="9.31981">
        <ele>7.35</ele>
        <time>2014-06-05T10:15:24Z</time>
      </trkpt>
      <trkpt lat="41.63162" lon="9.31961">
        <ele>8.31</ele>
        <time>2014-06-05T10:15:25Z</time>
      </trkpt>
      <trkpt lat="41.63167" lon="9.31941">
        <ele>9.75</ele>
        <time>2014-06-05T10:15:26Z</time>
      </trkpt>
      <trkpt lat="41.63202" lon="9.31761">
        <ele>14.08</ele>
        <time>2014-06-05T10:15:35Z</time>
      </trkpt>
      <trkpt lat="41.63203" lon="9.31742">
        <ele>14.08</ele>
        <time>2014-06-05T10:15:36Z</time>
      </trkpt>
      <trkpt lat="41.63203" lon="9.31724">
        <ele>13.6</ele>
        <time>2014-06-05T10:15:37Z</time>
      </trkpt>
      <trkpt lat="41.63201" lon="9.31707">
        <ele>13.12</ele>
        <time>2014-06-05T10:15:38Z</time>
      </trkpt>
      <trkpt lat="41.63198" lon="9.31691">
        <ele>12.63</ele>
        <time>2014-06-05T10:15:39Z</time>
      </trkpt>
      <trkpt lat="41.63191" lon="9.31676">
        <ele>12.15</ele>
        <time>2014-06-05T10:15:40Z</time>
      </trkpt>
      <trkpt lat="41.63181" lon="9.3166">
        <ele>11.19</ele>
        <time>2014-06-05T10:15:41Z</time>
      </trkpt>
      <trkpt lat="41.63172" lon="9.31644">
        <ele>10.71</ele>
        <time>2014-06-05T10:15:42Z</time>
      </trkpt>
      <trkpt lat="41.63073" lon="9.31468">
        <ele>4.46</ele>
        <time>2014-06-05T10:15:51Z</time>
      </trkpt>
      <trkpt lat="41.6302" lon="9.31292">
        <ele>2.06</ele>
        <time>2014-06-05T10:15:59Z</time>
      </trkpt>
      <trkpt lat="41.63019" lon="9.3127">
        <ele>2.06</ele>
        <time>2014-06-05T10:16:00Z</time>
      </trkpt>
      <trkpt lat="41.63019" lon="9.31248">
        <ele>2.06</ele>
        <time>2014-06-05T10:16:01Z</time>
      </trkpt>
      <trkpt lat="41.63013" lon="9.31132">
        <ele>2.54</ele>
        <time>2014-06-05T10:16:06Z</time>
      </trkpt>
      <trkpt lat="41.62966" lon="9.30958">
        <ele>11.67</ele>
        <time>2014-06-05T10:16:13Z</time>
      </trkpt>
      <trkpt lat="41.62944" lon="9.3085">
        <ele>17.44</ele>
        <time>2014-06-05T10:16:18Z</time>
      </trkpt>
      <trkpt lat="41.62942" lon="9.30831">
        <ele>16.96</ele>
        <time>2014-06-05T10:16:19Z</time>
      </trkpt>
      <trkpt lat="41.62941" lon="9.30812">
        <ele>16.48</ele>
        <time>2014-06-05T10:16:20Z</time>
      </trkpt>
      <trkpt lat="41.62935" lon="9.3075">
        <ele>11.67</ele>
        <time>2014-06-05T10:16:23Z</time>
      </trkpt>
      <trkpt lat="41.62931" lon="9.3073">
        <ele>10.23</ele>
        <time>2014-06-05T10:16:24Z</time>
      </trkpt>
      <trkpt lat="41.62923" lon="9.30708">
        <ele>9.27</ele>
        <time>2014-06-05T10:16:25Z</time>
      </trkpt>
      <trkpt lat="41.62914" lon="9.30688">
        <ele>8.31</ele>
        <time>2014-06-05T10:16:26Z</time>
      </trkpt>
      <trkpt lat="41.62904" lon="9.30667">
        <ele>7.83</ele>
        <time>2014-06-05T10:16:27Z</time>
      </trkpt>
      <trkpt lat="41.62848" lon="9.3056">
        <ele>9.75</ele>
        <time>2014-06-05T10:16:33Z</time>
      </trkpt>
      <trkpt lat="41.62838" lon="9.30547">
        <ele>9.27</ele>
        <time>2014-06-05T10:16:34Z</time>
      </trkpt>
      <trkpt lat="41.62801" lon="9.30507">
        <ele>7.35</ele>
        <time>2014-06-05T10:16:37Z</time>
      </trkpt>
      <trkpt lat="41.62782" lon="9.30474">
        <ele>6.39</ele>
        <time>2014-06-05T10:16:39Z</time>
      </trkpt>
      <trkpt lat="41.62775" lon="9.30455">
        <ele>6.87</ele>
        <time>2014-06-05T10:16:40Z</time>
      </trkpt>
      <trkpt lat="41.62767" lon="9.30436">
        <ele>8.31</ele>
        <time>2014-06-05T10:16:41Z</time>
      </trkpt>
      <trkpt lat="41.62758" lon="9.30418">
        <ele>9.75</ele>
        <time>2014-06-05T10:16:42Z</time>
      </trkpt>
      <trkpt lat="41.62746" lon="9.304">
        <ele>10.71</ele>
        <time>2014-06-05T10:16:43Z</time>
      </trkpt>
      <trkpt lat="41.62732" lon="9.30382">
        <ele>10.71</ele>
        <time>2014-06-05T10:16:44Z</time>
      </trkpt>
      <trkpt lat="41.62717" lon="9.30365">
        <ele>10.71</ele>
        <time>2014-06-05T10:16:45Z</time>
      </trkpt>
      <trkpt lat="41.62595" lon="9.3024">
        <ele>14.56</ele>
        <time>2014-06-05T10:16:52Z</time>
      </trkpt>
      <trkpt lat="41.62539" lon="9.30154">
        <ele>16</ele>
        <time>2014-06-05T10:16:57Z</time>
      </trkpt>
      <trkpt lat="41.62521" lon="9.30125">
        <ele>16</ele>
        <time>2014-06-05T10:17:00Z</time>
      </trkpt>
      <trkpt lat="41.62516" lon="9.3012">
        <ele>16.48</ele>
        <time>2014-06-05T10:17:01Z</time>
      </trkpt>
      <trkpt lat="41.62505" lon="9.30106">
        <ele>17.92</ele>
        <time>2014-06-05T10:17:04Z</time>
      </trkpt>
      <trkpt lat="41.62501" lon="9.30099">
        <ele>17.44</ele>
        <time>2014-06-05T10:17:05Z</time>
      </trkpt>
      <trkpt lat="41.62477" lon="9.30048">
        <ele>16.96</ele>
        <time>2014-06-05T10:17:16Z</time>
      </trkpt>
      <trkpt lat="41.62474" lon="9.3004">
        <ele>17.44</ele>
        <time>2014-06-05T10:17:19Z</time>
      </trkpt>
      <trkpt lat="41.62471" lon="9.30041">
        <ele>17.44</ele>
        <time>2014-06-05T10:17:20Z</time>
      </trkpt>
      <trkpt lat="41.62469" lon="9.30043">
        <ele>17.44</ele>
        <time>2014-06-05T10:17:21Z</time>
      </trkpt>
      <trkpt lat="41.62469" lon="9.30047">
        <ele>17.44</ele>
        <time>2014-06-05T10:17:22Z</time>
      </trkpt>
      <trkpt lat="41.6247" lon="9.3005">
        <ele>17.44</ele>
        <time>2014-06-05T10:17:23Z</time>
      </trkpt>
      <trkpt lat="41.62475" lon="9.30059">
        <ele>16.48</ele>
        <time>2014-06-05T10:17:35Z</time>
      </trkpt>
      <trkpt lat="41.62476" lon="9.3006">
        <ele>16</ele>
        <time>2014-06-05T10:17:55Z</time>
      </trkpt>
      <trkpt lat="41.62476" lon="9.30056">
        <ele>16.48</ele>
        <time>2014-06-05T10:18:18Z</time>
      </trkpt>
      <trkpt lat="41.62476" lon="9.30056">
        <ele>16.96</ele>
        <time>2014-06-05T10:18:31Z</time>
      </trkpt>
      <trkpt lat="41.62467" lon="9.30051">
        <ele>16.48</ele>
        <time>2014-06-05T10:19:06Z</time>
      </trkpt>
      <trkpt lat="41.62453" lon="9.30059">
        <ele>16.96</ele>
        <time>2014-06-05T10:19:34Z</time>
      </trkpt>
      <trkpt lat="41.62448" lon="9.30053">
        <ele>16.96</ele>
        <time>2014-06-05T10:19:56Z</time>
      </trkpt>
      <trkpt lat="41.62458" lon="9.30051">
        <ele>16.96</ele>
        <time>2014-06-05T10:20:15Z</time>
      </trkpt>
      <trkpt lat="41.62449" lon="9.30059">
        <ele>16.96</ele>
        <time>2014-06-05T10:20:40Z</time>
      </trkpt>
      <trkpt lat="41.62446" lon="9.30059">
        <ele>16.96</ele>
        <time>2014-06-05T10:20:42Z</time>
      </trkpt>
      <trkpt lat="41.62444" lon="9.30057">
        <ele>16.96</ele>
        <time>2014-06-05T10:20:43Z</time>
      </trkpt>
      <trkpt lat="41.62448" lon="9.30053">
        <ele>16.48</ele>
        <time>2014-06-05T10:21:01Z</time>
      </trkpt>
      <trkpt lat="41.62426" lon="9.30042">
        <ele>11.67</ele>
        <time>2014-06-05T10:22:17Z</time>
      </trkpt>
      <trkpt lat="41.62461" lon="9.30068">
        <ele>17.92</ele>
        <time>2014-06-05T10:22:44Z</time>
      </trkpt>
      <trkpt lat="41.62463" lon="9.30068">
        <ele>17.44</ele>
        <time>2014-06-05T10:23:08Z</time>
      </trkpt>
      <trkpt lat="41.62468" lon="9.30065">
        <ele>16.48</ele>
        <time>2014-06-05T10:23:29Z</time>
      </trkpt>
      <trkpt lat="41.62462" lon="9.30064">
        <ele>16</ele>
        <time>2014-06-05T10:23:54Z</time>
      </trkpt>
      <trkpt lat="41.62457" lon="9.30051">
        <ele>16.48</ele>
        <time>2014-06-05T10:24:22Z</time>
      </trkpt>
      <trkpt lat="41.62458" lon="9.30052">
        <ele>16</ele>
        <time>2014-06-05T10:24:46Z</time>
      </trkpt>
      <trkpt lat="41.62475" lon="9.30059">
        <ele>13.12</ele>
        <time>2014-06-05T10:25:08Z</time>
      </trkpt>
      <trkpt lat="41.62478" lon="9.30059">
        <ele>12.15</ele>
        <time>2014-06-05T10:25:32Z</time>
      </trkpt>
      <trkpt lat="41.62478" lon="9.3006">
        <ele>12.15</ele>
        <time>2014-06-05T10:26:18Z</time>
      </trkpt>
      <trkpt lat="41.62478" lon="9.3006">
        <ele>12.63</ele>
        <time>2014-06-05T10:26:55Z</time>
      </trkpt>
      <trkpt lat="41.62484" lon="9.30072">
        <ele>12.63</ele>
        <time>2014-06-05T10:26:58Z</time>
      </trkpt>
      <trkpt lat="41.62491" lon="9.30092">
        <ele>13.12</ele>
        <time>2014-06-05T10:27:00Z</time>
      </trkpt>
      <trkpt lat="41.62496" lon="9.30107">
        <ele>14.08</ele>
        <time>2014-06-05T10:27:02Z</time>
      </trkpt>
      <trkpt lat="41.62501" lon="9.30112">
        <ele>14.56</ele>
        <time>2014-06-05T10:27:03Z</time>
      </trkpt>
      <trkpt lat="41.62503" lon="9.30114">
        <ele>14.56</ele>
        <time>2014-06-05T10:27:04Z</time>
      </trkpt>
      <trkpt lat="41.62511" lon="9.30112">
        <ele>14.56</ele>
        <time>2014-06-05T10:27:08Z</time>
      </trkpt>
      <trkpt lat="41.62512" lon="9.30107">
        <ele>13.6</ele>
        <time>2014-06-05T10:27:15Z</time>
      </trkpt>
      <trkpt lat="41.62512" lon="9.30101">
        <ele>13.6</ele>
        <time>2014-06-05T10:27:16Z</time>
      </trkpt>
      <trkpt lat="41.62509" lon="9.30092">
        <ele>13.6</ele>
        <time>2014-06-05T10:27:17Z</time>
      </trkpt>
      <trkpt lat="41.62504" lon="9.30082">
        <ele>13.12</ele>
        <time>2014-06-05T10:27:18Z</time>
      </trkpt>
      <trkpt lat="41.62499" lon="9.30071">
        <ele>13.12</ele>
        <time>2014-06-05T10:27:19Z</time>
      </trkpt>
      <trkpt lat="41.62469" lon="9.29983">
        <ele>15.04</ele>
        <time>2014-06-05T10:27:29Z</time>
      </trkpt>
      <trkpt lat="41.62465" lon="9.29969">
        <ele>14.56</ele>
        <time>2014-06-05T10:27:31Z</time>
      </trkpt>
      <trkpt lat="41.62449" lon="9.29948">
        <ele>14.08</ele>
        <time>2014-06-05T10:27:38Z</time>
      </trkpt>
      <trkpt lat="41.62447" lon="9.29949">
        <ele>13.6</ele>
        <time>2014-06-05T10:27:39Z</time>
      </trkpt>
      <trkpt lat="41.62446" lon="9.29951">
        <ele>13.6</ele>
        <time>2014-06-05T10:27:40Z</time>
      </trkpt>
      <trkpt lat="41.62445" lon="9.29954">
        <ele>14.08</ele>
        <time>2014-06-05T10:27:41Z</time>
      </trkpt>
      <trkpt lat="41.62444" lon="9.29958">
        <ele>14.56</ele>
        <time>2014-06-05T10:27:42Z</time>
      </trkpt>
      <trkpt lat="41.62443" lon="9.29961">
        <ele>14.56</ele>
        <time>2014-06-05T10:27:43Z</time>
      </trkpt>
      <trkpt lat="41.6244" lon="9.29967">
        <ele>15.04</ele>
        <time>2014-06-05T10:27:45Z</time>
      </trkpt>
      <trkpt lat="41.62438" lon="9.2997">
        <ele>15.04</ele>
        <time>2014-06-05T10:27:55Z</time>
      </trkpt>
      <trkpt lat="41.62439" lon="9.2997">
        <ele>15.04</ele>
        <time>2014-06-05T10:29:35Z</time>
      </trkpt>
      <trkpt lat="41.62438" lon="9.2997">
        <ele>15.04</ele>
        <time>2014-06-05T10:31:26Z</time>
      </trkpt>
      <trkpt lat="41.62438" lon="9.2997">
        <ele>15.04</ele>
        <time>2014-06-05T10:32:46Z</time>
      </trkpt>
      <trkpt lat="41.62438" lon="9.2997">
        <ele>15.04</ele>
        <time>2014-06-05T10:33:59Z</time>
      </trkpt>
      <trkpt lat="41.62437" lon="9.29974">
        <ele>15.52</ele>
        <time>2014-06-05T10:34:08Z</time>
      </trkpt>
      <trkpt lat="41.62431" lon="9.30019">
        <ele>14.56</ele>
        <time>2014-06-05T10:34:20Z</time>
      </trkpt>
      <trkpt lat="41.62429" lon="9.30024">
        <ele>14.56</ele>
        <time>2014-06-05T10:34:21Z</time>
      </trkpt>
      <trkpt lat="41.62425" lon="9.30027">
        <ele>14.08</ele>
        <time>2014-06-05T10:34:22Z</time>
      </trkpt>
      <trkpt lat="41.6242" lon="9.3003">
        <ele>14.08</ele>
        <time>2014-06-05T10:34:23Z</time>
      </trkpt>
      <trkpt lat="41.62414" lon="9.30031">
        <ele>13.6</ele>
        <time>2014-06-05T10:34:24Z</time>
      </trkpt>
      <trkpt lat="41.62407" lon="9.30033">
        <ele>13.6</ele>
        <time>2014-06-05T10:34:25Z</time>
      </trkpt>
      <trkpt lat="41.62369" lon="9.30036">
        <ele>13.6</ele>
        <time>2014-06-05T10:34:29Z</time>
      </trkpt>
      <trkpt lat="41.6236" lon="9.30034">
        <ele>13.6</ele>
        <time>2014-06-05T10:34:30Z</time>
      </trkpt>
      <trkpt lat="41.6235" lon="9.3003">
        <ele>13.6</ele>
        <time>2014-06-05T10:34:31Z</time>
      </trkpt>
      <trkpt lat="41.62341" lon="9.30024">
        <ele>13.6</ele>
        <time>2014-06-05T10:34:32Z</time>
      </trkpt>
      <trkpt lat="41.62331" lon="9.30018">
        <ele>14.08</ele>
        <time>2014-06-05T10:34:33Z</time>
      </trkpt>
      <trkpt lat="41.62214" lon="9.29942">
        <ele>15.04</ele>
        <time>2014-06-05T10:34:46Z</time>
      </trkpt>
      <trkpt lat="41.6213" lon="9.2989">
        <ele>16.48</ele>
        <time>2014-06-05T10:34:55Z</time>
      </trkpt>
      <trkpt lat="41.62076" lon="9.29865">
        <ele>17.92</ele>
        <time>2014-06-05T10:35:01Z</time>
      </trkpt>
      <trkpt lat="41.6206" lon="9.29862">
        <ele>18.4</ele>
        <time>2014-06-05T10:35:03Z</time>
      </trkpt>
      <trkpt lat="41.62039" lon="9.29864">
        <ele>17.92</ele>
        <time>2014-06-05T10:35:07Z</time>
      </trkpt>
      <trkpt lat="41.62038" lon="9.29867">
        <ele>18.4</ele>
        <time>2014-06-05T10:35:08Z</time>
      </trkpt>
      <trkpt lat="41.62036" lon="9.29871">
        <ele>18.88</ele>
        <time>2014-06-05T10:35:09Z</time>
      </trkpt>
      <trkpt lat="41.62036" lon="9.29874">
        <ele>19.84</ele>
        <time>2014-06-05T10:35:10Z</time>
      </trkpt>
      <trkpt lat="41.62035" lon="9.29878">
        <ele>19.36</ele>
        <time>2014-06-05T10:35:11Z</time>
      </trkpt>
      <trkpt lat="41.62046" lon="9.2993">
        <ele>13.6</ele>
        <time>2014-06-05T10:35:25Z</time>
      </trkpt>
      <trkpt lat="41.62052" lon="9.29934">
        <ele>13.12</ele>
        <time>2014-06-05T10:35:35Z</time>
      </trkpt>
      <trkpt lat="41.62056" lon="9.29937">
        <ele>13.6</ele>
        <time>2014-06-05T10:35:44Z</time>
      </trkpt>
      <trkpt lat="41.62061" lon="9.29937">
        <ele>14.08</ele>
        <time>2014-06-05T10:35:57Z</time>
      </trkpt>
      <trkpt lat="41.62061" lon="9.29939">
        <ele>14.08</ele>
        <time>2014-06-05T10:36:15Z</time>
      </trkpt>
      <trkpt lat="41.62051" lon="9.29943">
        <ele>64.07</ele>
        <time>2014-06-05T13:55:12Z</time>
      </trkpt>
      <trkpt lat="41.62064" lon="9.29929">
        <ele>29.94</ele>
        <time>2014-06-05T13:55:22Z</time>
      </trkpt>
      <trkpt lat="41.62056" lon="9.29929">
        <ele>23.69</ele>
        <time>2014-06-05T13:55:26Z</time>
      </trkpt>
      <trkpt lat="41.62052" lon="9.29928">
        <ele>15.52</ele>
        <time>2014-06-05T13:55:41Z</time>
      </trkpt>
      <trkpt lat="41.62048" lon="9.29927">
        <ele>15.04</ele>
        <time>2014-06-05T13:56:03Z</time>
      </trkpt>
      <trkpt lat="41.62037" lon="9.29884">
        <ele>16</ele>
        <time>2014-06-05T13:56:13Z</time>
      </trkpt>
      <trkpt lat="41.62041" lon="9.29869">
        <ele>16.96</ele>
        <time>2014-06-05T13:56:18Z</time>
      </trkpt>
      <trkpt lat="41.62042" lon="9.29867">
        <ele>16.96</ele>
        <time>2014-06-05T13:56:19Z</time>
      </trkpt>
      <trkpt lat="41.62045" lon="9.29865">
        <ele>17.44</ele>
        <time>2014-06-05T13:56:20Z</time>
      </trkpt>
      <trkpt lat="41.62051" lon="9.29863">
        <ele>17.44</ele>
        <time>2014-06-05T13:56:21Z</time>
      </trkpt>
      <trkpt lat="41.62058" lon="9.29863">
        <ele>17.44</ele>
        <time>2014-06-05T13:56:22Z</time>
      </trkpt>
      <trkpt lat="41.62067" lon="9.29863">
        <ele>16</ele>
        <time>2014-06-05T13:56:23Z</time>
      </trkpt>
      <trkpt lat="41.62077" lon="9.29865">
        <ele>16</ele>
        <time>2014-06-05T13:56:24Z</time>
      </trkpt>
      <trkpt lat="41.62088" lon="9.2987">
        <ele>16</ele>
        <time>2014-06-05T13:56:25Z</time>
      </trkpt>
      <trkpt lat="41.62099" lon="9.29875">
        <ele>16</ele>
        <time>2014-06-05T13:56:26Z</time>
      </trkpt>
      <trkpt lat="41.62158" lon="9.29912">
        <ele>16.96</ele>
        <time>2014-06-05T13:56:33Z</time>
      </trkpt>
      <trkpt lat="41.62215" lon="9.29952">
        <ele>20.81</ele>
        <time>2014-06-05T13:56:41Z</time>
      </trkpt>
      <trkpt lat="41.62338" lon="9.30026">
        <ele>20.32</ele>
        <time>2014-06-05T13:56:52Z</time>
      </trkpt>
      <trkpt lat="41.62359" lon="9.30039">
        <ele>20.81</ele>
        <time>2014-06-05T13:56:54Z</time>
      </trkpt>
      <trkpt lat="41.6237" lon="9.30042">
        <ele>20.81</ele>
        <time>2014-06-05T13:56:55Z</time>
      </trkpt>
      <trkpt lat="41.62382" lon="9.30043">
        <ele>20.81</ele>
        <time>2014-06-05T13:56:56Z</time>
      </trkpt>
      <trkpt lat="41.62394" lon="9.30043">
        <ele>20.81</ele>
        <time>2014-06-05T13:56:57Z</time>
      </trkpt>
      <trkpt lat="41.62405" lon="9.30041">
        <ele>20.32</ele>
        <time>2014-06-05T13:56:58Z</time>
      </trkpt>
      <trkpt lat="41.62416" lon="9.30039">
        <ele>20.32</ele>
        <time>2014-06-05T13:56:59Z</time>
      </trkpt>
      <trkpt lat="41.62426" lon="9.30036">
        <ele>20.32</ele>
        <time>2014-06-05T13:57:00Z</time>
      </trkpt>
      <trkpt lat="41.62434" lon="9.30031">
        <ele>19.84</ele>
        <time>2014-06-05T13:57:01Z</time>
      </trkpt>
      <trkpt lat="41.62441" lon="9.30024">
        <ele>19.84</ele>
        <time>2014-06-05T13:57:02Z</time>
      </trkpt>
      <trkpt lat="41.62448" lon="9.30017">
        <ele>20.32</ele>
        <time>2014-06-05T13:57:03Z</time>
      </trkpt>
      <trkpt lat="41.62453" lon="9.3001">
        <ele>20.81</ele>
        <time>2014-06-05T13:57:04Z</time>
      </trkpt>
      <trkpt lat="41.62469" lon="9.29994">
        <ele>20.81</ele>
        <time>2014-06-05T13:57:07Z</time>
      </trkpt>
      <trkpt lat="41.6247" lon="9.29987">
        <ele>20.32</ele>
        <time>2014-06-05T13:57:08Z</time>
      </trkpt>
      <trkpt lat="41.62469" lon="9.2998">
        <ele>20.32</ele>
        <time>2014-06-05T13:57:09Z</time>
      </trkpt>
      <trkpt lat="41.62467" lon="9.29971">
        <ele>20.32</ele>
        <time>2014-06-05T13:57:10Z</time>
      </trkpt>
      <trkpt lat="41.62464" lon="9.29961">
        <ele>20.81</ele>
        <time>2014-06-05T13:57:11Z</time>
      </trkpt>
      <trkpt lat="41.6246" lon="9.29939">
        <ele>20.81</ele>
        <time>2014-06-05T13:57:13Z</time>
      </trkpt>
      <trkpt lat="41.62459" lon="9.29925">
        <ele>21.29</ele>
        <time>2014-06-05T13:57:14Z</time>
      </trkpt>
      <trkpt lat="41.62451" lon="9.29785">
        <ele>23.21</ele>
        <time>2014-06-05T13:57:22Z</time>
      </trkpt>
      <trkpt lat="41.62417" lon="9.29604">
        <ele>34.26</ele>
        <time>2014-06-05T13:57:33Z</time>
      </trkpt>
      <trkpt lat="41.62412" lon="9.29591">
        <ele>34.74</ele>
        <time>2014-06-05T13:57:34Z</time>
      </trkpt>
      <trkpt lat="41.62405" lon="9.29579">
        <ele>34.26</ele>
        <time>2014-06-05T13:57:35Z</time>
      </trkpt>
      <trkpt lat="41.62395" lon="9.2957">
        <ele>34.74</ele>
        <time>2014-06-05T13:57:36Z</time>
      </trkpt>
      <trkpt lat="41.62384" lon="9.29562">
        <ele>34.74</ele>
        <time>2014-06-05T13:57:37Z</time>
      </trkpt>
      <trkpt lat="41.62373" lon="9.29555">
        <ele>35.71</ele>
        <time>2014-06-05T13:57:38Z</time>
      </trkpt>
      <trkpt lat="41.62315" lon="9.29508">
        <ele>39.55</ele>
        <time>2014-06-05T13:57:43Z</time>
      </trkpt>
      <trkpt lat="41.62304" lon="9.29494">
        <ele>41.95</ele>
        <time>2014-06-05T13:57:44Z</time>
      </trkpt>
      <trkpt lat="41.62295" lon="9.29478">
        <ele>42.92</ele>
        <time>2014-06-05T13:57:45Z</time>
      </trkpt>
      <trkpt lat="41.62286" lon="9.29462">
        <ele>44.84</ele>
        <time>2014-06-05T13:57:46Z</time>
      </trkpt>
      <trkpt lat="41.6228" lon="9.29444">
        <ele>46.28</ele>
        <time>2014-06-05T13:57:47Z</time>
      </trkpt>
      <trkpt lat="41.62274" lon="9.29427">
        <ele>47.24</ele>
        <time>2014-06-05T13:57:48Z</time>
      </trkpt>
      <trkpt lat="41.6227" lon="9.29411">
        <ele>47.72</ele>
        <time>2014-06-05T13:57:49Z</time>
      </trkpt>
      <trkpt lat="41.62269" lon="9.29392">
        <ele>49.16</ele>
        <time>2014-06-05T13:57:50Z</time>
      </trkpt>
      <trkpt lat="41.62269" lon="9.29336">
        <ele>53.01</ele>
        <time>2014-06-05T13:57:53Z</time>
      </trkpt>
      <trkpt lat="41.62271" lon="9.29317">
        <ele>54.45</ele>
        <time>2014-06-05T13:57:54Z</time>
      </trkpt>
      <trkpt lat="41.62274" lon="9.29298">
        <ele>55.41</ele>
        <time>2014-06-05T13:57:55Z</time>
      </trkpt>
      <trkpt lat="41.6228" lon="9.2928">
        <ele>56.37</ele>
        <time>2014-06-05T13:57:56Z</time>
      </trkpt>
      <trkpt lat="41.62285" lon="9.29262">
        <ele>57.82</ele>
        <time>2014-06-05T13:57:57Z</time>
      </trkpt>
      <trkpt lat="41.62367" lon="9.29026">
        <ele>64.55</ele>
        <time>2014-06-05T13:58:11Z</time>
      </trkpt>
      <trkpt lat="41.62412" lon="9.28945">
        <ele>58.78</ele>
        <time>2014-06-05T13:58:19Z</time>
      </trkpt>
      <trkpt lat="41.62419" lon="9.28933">
        <ele>59.26</ele>
        <time>2014-06-05T13:58:21Z</time>
      </trkpt>
      <trkpt lat="41.62417" lon="9.28927">
        <ele>59.74</ele>
        <time>2014-06-05T13:58:22Z</time>
      </trkpt>
      <trkpt lat="41.62415" lon="9.28922">
        <ele>59.74</ele>
        <time>2014-06-05T13:58:23Z</time>
      </trkpt>
      <trkpt lat="41.6241" lon="9.28918">
        <ele>59.26</ele>
        <time>2014-06-05T13:58:24Z</time>
      </trkpt>
      <trkpt lat="41.62403" lon="9.28913">
        <ele>58.78</ele>
        <time>2014-06-05T13:58:25Z</time>
      </trkpt>
      <trkpt lat="41.62379" lon="9.28891">
        <ele>57.82</ele>
        <time>2014-06-05T13:58:28Z</time>
      </trkpt>
      <trkpt lat="41.62307" lon="9.28809">
        <ele>56.86</ele>
        <time>2014-06-05T13:58:35Z</time>
      </trkpt>
      <trkpt lat="41.62298" lon="9.28794">
        <ele>56.37</ele>
        <time>2014-06-05T13:58:36Z</time>
      </trkpt>
      <trkpt lat="41.62291" lon="9.28777">
        <ele>55.41</ele>
        <time>2014-06-05T13:58:37Z</time>
      </trkpt>
      <trkpt lat="41.62286" lon="9.2876">
        <ele>55.41</ele>
        <time>2014-06-05T13:58:38Z</time>
      </trkpt>
      <trkpt lat="41.62284" lon="9.28741">
        <ele>54.93</ele>
        <time>2014-06-05T13:58:39Z</time>
      </trkpt>
      <trkpt lat="41.62284" lon="9.28722">
        <ele>53.97</ele>
        <time>2014-06-05T13:58:40Z</time>
      </trkpt>
      <trkpt lat="41.62286" lon="9.28703">
        <ele>53.97</ele>
        <time>2014-06-05T13:58:41Z</time>
      </trkpt>
      <trkpt lat="41.62289" lon="9.28684">
        <ele>53.01</ele>
        <time>2014-06-05T13:58:42Z</time>
      </trkpt>
      <trkpt lat="41.62294" lon="9.28663">
        <ele>52.53</ele>
        <time>2014-06-05T13:58:43Z</time>
      </trkpt>
      <trkpt lat="41.62299" lon="9.28643">
        <ele>51.57</ele>
        <time>2014-06-05T13:58:44Z</time>
      </trkpt>
      <trkpt lat="41.62315" lon="9.28582">
        <ele>46.76</ele>
        <time>2014-06-05T13:58:47Z</time>
      </trkpt>
      <trkpt lat="41.62315" lon="9.28561">
        <ele>45.32</ele>
        <time>2014-06-05T13:58:48Z</time>
      </trkpt>
      <trkpt lat="41.62313" lon="9.28542">
        <ele>44.36</ele>
        <time>2014-06-05T13:58:49Z</time>
      </trkpt>
      <trkpt lat="41.62308" lon="9.28523">
        <ele>43.88</ele>
        <time>2014-06-05T13:58:50Z</time>
      </trkpt>
      <trkpt lat="41.62301" lon="9.28507">
        <ele>42.44</ele>
        <time>2014-06-05T13:58:51Z</time>
      </trkpt>
      <trkpt lat="41.62291" lon="9.28494">
        <ele>41.47</ele>
        <time>2014-06-05T13:58:52Z</time>
      </trkpt>
      <trkpt lat="41.62279" lon="9.28482">
        <ele>40.99</ele>
        <time>2014-06-05T13:58:53Z</time>
      </trkpt>
      <trkpt lat="41.62265" lon="9.28473">
        <ele>40.03</ele>
        <time>2014-06-05T13:58:54Z</time>
      </trkpt>
      <trkpt lat="41.62249" lon="9.28462">
        <ele>40.03</ele>
        <time>2014-06-05T13:58:55Z</time>
      </trkpt>
      <trkpt lat="41.62054" lon="9.28339">
        <ele>31.38</ele>
        <time>2014-06-05T13:59:07Z</time>
      </trkpt>
      <trkpt lat="41.61816" lon="9.28188">
        <ele>21.77</ele>
        <time>2014-06-05T13:59:22Z</time>
      </trkpt>
      <trkpt lat="41.61582" lon="9.28037">
        <ele>15.04</ele>
        <time>2014-06-05T13:59:38Z</time>
      </trkpt>
      <trkpt lat="41.61453" lon="9.27987">
        <ele>15.04</ele>
        <time>2014-06-05T13:59:47Z</time>
      </trkpt>
      <trkpt lat="41.61311" lon="9.27948">
        <ele>12.15</ele>
        <time>2014-06-05T13:59:58Z</time>
      </trkpt>
      <trkpt lat="41.61216" lon="9.27922">
        <ele>7.35</ele>
        <time>2014-06-05T14:00:07Z</time>
      </trkpt>
      <trkpt lat="41.61086" lon="9.27887">
        <ele>2.06</ele>
        <time>2014-06-05T14:00:17Z</time>
      </trkpt>
      <trkpt lat="41.60881" lon="9.27833">
        <ele>0.62</ele>
        <time>2014-06-05T14:00:33Z</time>
      </trkpt>
      <trkpt lat="41.60729" lon="9.27789">
        <ele>0.14</ele>
        <time>2014-06-05T14:00:44Z</time>
      </trkpt>
      <trkpt lat="41.6062" lon="9.27754">
        <ele>-1.3</ele>
        <time>2014-06-05T14:00:54Z</time>
      </trkpt>
      <trkpt lat="41.60592" lon="9.27738">
        <ele>-1.3</ele>
        <time>2014-06-05T14:01:00Z</time>
      </trkpt>
      <trkpt lat="41.60586" lon="9.27731">
        <ele>-1.79</ele>
        <time>2014-06-05T14:01:03Z</time>
      </trkpt>
      <trkpt lat="41.60584" lon="9.27725">
        <ele>-2.27</ele>
        <time>2014-06-05T14:01:04Z</time>
      </trkpt>
      <trkpt lat="41.60581" lon="9.27717">
        <ele>-2.75</ele>
        <time>2014-06-05T14:01:05Z</time>
      </trkpt>
      <trkpt lat="41.60571" lon="9.27692">
        <ele>-2.75</ele>
        <time>2014-06-05T14:01:08Z</time>
      </trkpt>
      <trkpt lat="41.60555" lon="9.27658">
        <ele>-4.19</ele>
        <time>2014-06-05T14:01:11Z</time>
      </trkpt>
      <trkpt lat="41.60541" lon="9.27622">
        <ele>-4.67</ele>
        <time>2014-06-05T14:01:13Z</time>
      </trkpt>
      <trkpt lat="41.60531" lon="9.27602">
        <ele>-5.15</ele>
        <time>2014-06-05T14:01:14Z</time>
      </trkpt>
      <trkpt lat="41.6046" lon="9.27455">
        <ele>-5.63</ele>
        <time>2014-06-05T14:01:21Z</time>
      </trkpt>
      <trkpt lat="41.60402" lon="9.27219">
        <ele>-4.67</ele>
        <time>2014-06-05T14:01:29Z</time>
      </trkpt>
      <trkpt lat="41.60326" lon="9.27044">
        <ele>-0.82</ele>
        <time>2014-06-05T14:01:36Z</time>
      </trkpt>
      <trkpt lat="41.60256" lon="9.2695">
        <ele>2.54</ele>
        <time>2014-06-05T14:01:42Z</time>
      </trkpt>
      <trkpt lat="41.60229" lon="9.26922">
        <ele>1.1</ele>
        <time>2014-06-05T14:01:45Z</time>
      </trkpt>
      <trkpt lat="41.60223" lon="9.26913">
        <ele>0.62</ele>
        <time>2014-06-05T14:01:46Z</time>
      </trkpt>
      <trkpt lat="41.60217" lon="9.26902">
        <ele>0.62</ele>
        <time>2014-06-05T14:01:47Z</time>
      </trkpt>
      <trkpt lat="41.60213" lon="9.26892">
        <ele>0.62</ele>
        <time>2014-06-05T14:01:48Z</time>
      </trkpt>
      <trkpt lat="41.60209" lon="9.26881">
        <ele>1.1</ele>
        <time>2014-06-05T14:01:49Z</time>
      </trkpt>
      <trkpt lat="41.60204" lon="9.26874">
        <ele>1.1</ele>
        <time>2014-06-05T14:01:50Z</time>
      </trkpt>
      <trkpt lat="41.60197" lon="9.2687">
        <ele>1.58</ele>
        <time>2014-06-05T14:01:51Z</time>
      </trkpt>
      <trkpt lat="41.60189" lon="9.26868">
        <ele>0.62</ele>
        <time>2014-06-05T14:01:52Z</time>
      </trkpt>
      <trkpt lat="41.60159" lon="9.2686">
        <ele>0.62</ele>
        <time>2014-06-05T14:01:55Z</time>
      </trkpt>
      <trkpt lat="41.60148" lon="9.26853">
        <ele>1.1</ele>
        <time>2014-06-05T14:01:56Z</time>
      </trkpt>
      <trkpt lat="41.60014" lon="9.26786">
        <ele>1.1</ele>
        <time>2014-06-05T14:02:06Z</time>
      </trkpt>
      <trkpt lat="41.59849" lon="9.26717">
        <ele>1.1</ele>
        <time>2014-06-05T14:02:20Z</time>
      </trkpt>
      <trkpt lat="41.59842" lon="9.26712">
        <ele>1.58</ele>
        <time>2014-06-05T14:02:21Z</time>
      </trkpt>
      <trkpt lat="41.59836" lon="9.26706">
        <ele>1.58</ele>
        <time>2014-06-05T14:02:22Z</time>
      </trkpt>
      <trkpt lat="41.59833" lon="9.26702">
        <ele>2.06</ele>
        <time>2014-06-05T14:02:23Z</time>
      </trkpt>
      <trkpt lat="41.5983" lon="9.26697">
        <ele>2.06</ele>
        <time>2014-06-05T14:02:24Z</time>
      </trkpt>
      <trkpt lat="41.59828" lon="9.26692">
        <ele>2.06</ele>
        <time>2014-06-05T14:02:25Z</time>
      </trkpt>
      <trkpt lat="41.59825" lon="9.26685">
        <ele>2.54</ele>
        <time>2014-06-05T14:02:26Z</time>
      </trkpt>
      <trkpt lat="41.59817" lon="9.26673">
        <ele>2.06</ele>
        <time>2014-06-05T14:02:28Z</time>
      </trkpt>
      <trkpt lat="41.5981" lon="9.26671">
        <ele>1.58</ele>
        <time>2014-06-05T14:02:29Z</time>
      </trkpt>
      <trkpt lat="41.59804" lon="9.26672">
        <ele>1.58</ele>
        <time>2014-06-05T14:02:30Z</time>
      </trkpt>
      <trkpt lat="41.59796" lon="9.26675">
        <ele>1.58</ele>
        <time>2014-06-05T14:02:31Z</time>
      </trkpt>
      <trkpt lat="41.59788" lon="9.26679">
        <ele>1.58</ele>
        <time>2014-06-05T14:02:32Z</time>
      </trkpt>
      <trkpt lat="41.59768" lon="9.26681">
        <ele>0.62</ele>
        <time>2014-06-05T14:02:34Z</time>
      </trkpt>
      <trkpt lat="41.59757" lon="9.26679">
        <ele>0.62</ele>
        <time>2014-06-05T14:02:35Z</time>
      </trkpt>
      <trkpt lat="41.59625" lon="9.26623">
        <ele>7.83</ele>
        <time>2014-06-05T14:02:45Z</time>
      </trkpt>
      <trkpt lat="41.59437" lon="9.26533">
        <ele>17.92</ele>
        <time>2014-06-05T14:02:57Z</time>
      </trkpt>
      <trkpt lat="41.59308" lon="9.26464">
        <ele>23.69</ele>
        <time>2014-06-05T14:03:06Z</time>
      </trkpt>
      <trkpt lat="41.59268" lon="9.2644">
        <ele>23.69</ele>
        <time>2014-06-05T14:03:11Z</time>
      </trkpt>
      <trkpt lat="41.59263" lon="9.26432">
        <ele>23.69</ele>
        <time>2014-06-05T14:03:12Z</time>
      </trkpt>
      <trkpt lat="41.59259" lon="9.26424">
        <ele>23.21</ele>
        <time>2014-06-05T14:03:13Z</time>
      </trkpt>
      <trkpt lat="41.5925" lon="9.26412">
        <ele>22.73</ele>
        <time>2014-06-05T14:03:15Z</time>
      </trkpt>
      <trkpt lat="41.59244" lon="9.26409">
        <ele>22.73</ele>
        <time>2014-06-05T14:03:16Z</time>
      </trkpt>
      <trkpt lat="41.59237" lon="9.26409">
        <ele>22.73</ele>
        <time>2014-06-05T14:03:17Z</time>
      </trkpt>
      <trkpt lat="41.59211" lon="9.26407">
        <ele>21.29</ele>
        <time>2014-06-05T14:03:20Z</time>
      </trkpt>
      <trkpt lat="41.592" lon="9.26403">
        <ele>21.77</ele>
        <time>2014-06-05T14:03:21Z</time>
      </trkpt>
      <trkpt lat="41.59092" lon="9.26345">
        <ele>20.32</ele>
        <time>2014-06-05T14:03:29Z</time>
      </trkpt>
      <trkpt lat="41.58914" lon="9.26265">
        <ele>18.88</ele>
        <time>2014-06-05T14:03:39Z</time>
      </trkpt>
      <trkpt lat="41.58769" lon="9.26249">
        <ele>17.44</ele>
        <time>2014-06-05T14:03:47Z</time>
      </trkpt>
      <trkpt lat="41.58603" lon="9.2629">
        <ele>15.52</ele>
        <time>2014-06-05T14:03:56Z</time>
      </trkpt>
      <trkpt lat="41.58462" lon="9.26383">
        <ele>14.08</ele>
        <time>2014-06-05T14:04:05Z</time>
      </trkpt>
      <trkpt lat="41.5836" lon="9.26497">
        <ele>14.56</ele>
        <time>2014-06-05T14:04:15Z</time>
      </trkpt>
      <trkpt lat="41.58314" lon="9.26567">
        <ele>14.56</ele>
        <time>2014-06-05T14:04:23Z</time>
      </trkpt>
      <trkpt lat="41.58309" lon="9.26571">
        <ele>15.04</ele>
        <time>2014-06-05T14:04:24Z</time>
      </trkpt>
      <trkpt lat="41.58303" lon="9.26574">
        <ele>15.04</ele>
        <time>2014-06-05T14:04:25Z</time>
      </trkpt>
      <trkpt lat="41.58285" lon="9.26589">
        <ele>16</ele>
        <time>2014-06-05T14:04:28Z</time>
      </trkpt>
      <trkpt lat="41.58281" lon="9.26598">
        <ele>16</ele>
        <time>2014-06-05T14:04:29Z</time>
      </trkpt>
      <trkpt lat="41.58279" lon="9.2661">
        <ele>15.52</ele>
        <time>2014-06-05T14:04:30Z</time>
      </trkpt>
      <trkpt lat="41.58273" lon="9.26637">
        <ele>16.48</ele>
        <time>2014-06-05T14:04:32Z</time>
      </trkpt>
      <trkpt lat="41.58267" lon="9.26653">
        <ele>16</ele>
        <time>2014-06-05T14:04:33Z</time>
      </trkpt>
      <trkpt lat="41.58259" lon="9.2667">
        <ele>16.48</ele>
        <time>2014-06-05T14:04:34Z</time>
      </trkpt>
      <trkpt lat="41.58185" lon="9.2683">
        <ele>15.52</ele>
        <time>2014-06-05T14:04:43Z</time>
      </trkpt>
      <trkpt lat="41.5807" lon="9.271">
        <ele>6.39</ele>
        <time>2014-06-05T14:04:58Z</time>
      </trkpt>
      <trkpt lat="41.57956" lon="9.27277">
        <ele>6.39</ele>
        <time>2014-06-05T14:05:09Z</time>
      </trkpt>
      <trkpt lat="41.5785" lon="9.27338">
        <ele>5.42</ele>
        <time>2014-06-05T14:05:16Z</time>
      </trkpt>
      <trkpt lat="41.57784" lon="9.27366">
        <ele>4.46</ele>
        <time>2014-06-05T14:05:21Z</time>
      </trkpt>
      <trkpt lat="41.57772" lon="9.27376">
        <ele>3.98</ele>
        <time>2014-06-05T14:05:22Z</time>
      </trkpt>
      <trkpt lat="41.57762" lon="9.27387">
        <ele>3.5</ele>
        <time>2014-06-05T14:05:23Z</time>
      </trkpt>
      <trkpt lat="41.57754" lon="9.27401">
        <ele>3.5</ele>
        <time>2014-06-05T14:05:24Z</time>
      </trkpt>
      <trkpt lat="41.57746" lon="9.27415">
        <ele>3.5</ele>
        <time>2014-06-05T14:05:25Z</time>
      </trkpt>
      <trkpt lat="41.57729" lon="9.27439">
        <ele>3.98</ele>
        <time>2014-06-05T14:05:27Z</time>
      </trkpt>
      <trkpt lat="41.57718" lon="9.27449">
        <ele>3.98</ele>
        <time>2014-06-05T14:05:28Z</time>
      </trkpt>
      <trkpt lat="41.57706" lon="9.27458">
        <ele>3.5</ele>
        <time>2014-06-05T14:05:29Z</time>
      </trkpt>
      <trkpt lat="41.57694" lon="9.27464">
        <ele>3.02</ele>
        <time>2014-06-05T14:05:30Z</time>
      </trkpt>
      <trkpt lat="41.57681" lon="9.27469">
        <ele>3.5</ele>
        <time>2014-06-05T14:05:31Z</time>
      </trkpt>
      <trkpt lat="41.57667" lon="9.27472">
        <ele>1.58</ele>
        <time>2014-06-05T14:05:32Z</time>
      </trkpt>
      <trkpt lat="41.57652" lon="9.27473">
        <ele>-0.82</ele>
        <time>2014-06-05T14:05:33Z</time>
      </trkpt>
      <trkpt lat="41.57636" lon="9.27471">
        <ele>-2.75</ele>
        <time>2014-06-05T14:05:34Z</time>
      </trkpt>
      <trkpt lat="41.57619" lon="9.27469">
        <ele>-2.75</ele>
        <time>2014-06-05T14:05:35Z</time>
      </trkpt>
      <trkpt lat="41.57447" lon="9.27445">
        <ele>0.62</ele>
        <time>2014-06-05T14:05:43Z</time>
      </trkpt>
      <trkpt lat="41.5726" lon="9.27425">
        <ele>-3.23</ele>
        <time>2014-06-05T14:05:52Z</time>
      </trkpt>
      <trkpt lat="41.57213" lon="9.27417">
        <ele>-3.23</ele>
        <time>2014-06-05T14:05:56Z</time>
      </trkpt>
      <trkpt lat="41.57206" lon="9.27412">
        <ele>-3.23</ele>
        <time>2014-06-05T14:05:57Z</time>
      </trkpt>
      <trkpt lat="41.572" lon="9.27406">
        <ele>-2.75</ele>
        <time>2014-06-05T14:05:58Z</time>
      </trkpt>
      <trkpt lat="41.57187" lon="9.27397">
        <ele>-2.27</ele>
        <time>2014-06-05T14:06:00Z</time>
      </trkpt>
      <trkpt lat="41.57179" lon="9.27399">
        <ele>-2.75</ele>
        <time>2014-06-05T14:06:01Z</time>
      </trkpt>
      <trkpt lat="41.57172" lon="9.27405">
        <ele>-3.23</ele>
        <time>2014-06-05T14:06:02Z</time>
      </trkpt>
      <trkpt lat="41.57164" lon="9.27411">
        <ele>-3.23</ele>
        <time>2014-06-05T14:06:03Z</time>
      </trkpt>
      <trkpt lat="41.57154" lon="9.27414">
        <ele>-3.71</ele>
        <time>2014-06-05T14:06:04Z</time>
      </trkpt>
      <trkpt lat="41.57144" lon="9.27414">
        <ele>-3.71</ele>
        <time>2014-06-05T14:06:05Z</time>
      </trkpt>
      <trkpt lat="41.57133" lon="9.27413">
        <ele>-4.19</ele>
        <time>2014-06-05T14:06:06Z</time>
      </trkpt>
      <trkpt lat="41.56987" lon="9.27398">
        <ele>-4.19</ele>
        <time>2014-06-05T14:06:17Z</time>
      </trkpt>
      <trkpt lat="41.56826" lon="9.27377">
        <ele>-4.19</ele>
        <time>2014-06-05T14:06:28Z</time>
      </trkpt>
      <trkpt lat="41.56731" lon="9.27365">
        <ele>-2.27</ele>
        <time>2014-06-05T14:06:36Z</time>
      </trkpt>
      <trkpt lat="41.56598" lon="9.27348">
        <ele>1.58</ele>
        <time>2014-06-05T14:06:44Z</time>
      </trkpt>
      <trkpt lat="41.56356" lon="9.27317">
        <ele>6.87</ele>
        <time>2014-06-05T14:06:58Z</time>
      </trkpt>
      <trkpt lat="41.56136" lon="9.27289">
        <ele>16.48</ele>
        <time>2014-06-05T14:07:11Z</time>
      </trkpt>
      <trkpt lat="41.55881" lon="9.27252">
        <ele>21.29</ele>
        <time>2014-06-05T14:07:27Z</time>
      </trkpt>
      <trkpt lat="41.55679" lon="9.27195">
        <ele>18.88</ele>
        <time>2014-06-05T14:07:39Z</time>
      </trkpt>
      <trkpt lat="41.55403" lon="9.27114">
        <ele>22.73</ele>
        <time>2014-06-05T14:07:56Z</time>
      </trkpt>
      <trkpt lat="41.5515" lon="9.27043">
        <ele>22.73</ele>
        <time>2014-06-05T14:08:12Z</time>
      </trkpt>
      <trkpt lat="41.54953" lon="9.26986">
        <ele>20.32</ele>
        <time>2014-06-05T14:08:23Z</time>
      </trkpt>
      <trkpt lat="41.54795" lon="9.26942">
        <ele>22.25</ele>
        <time>2014-06-05T14:08:35Z</time>
      </trkpt>
      <trkpt lat="41.54724" lon="9.2692">
        <ele>21.77</ele>
        <time>2014-06-05T14:08:44Z</time>
      </trkpt>
      <trkpt lat="41.54699" lon="9.2691">
        <ele>20.81</ele>
        <time>2014-06-05T14:08:51Z</time>
      </trkpt>
      <trkpt lat="41.54698" lon="9.2691">
        <ele>20.81</ele>
        <time>2014-06-05T14:08:59Z</time>
      </trkpt>
      <trkpt lat="41.54696" lon="9.26906">
        <ele>20.81</ele>
        <time>2014-06-05T14:09:00Z</time>
      </trkpt>
      <trkpt lat="41.54688" lon="9.26896">
        <ele>20.32</ele>
        <time>2014-06-05T14:09:03Z</time>
      </trkpt>
      <trkpt lat="41.54685" lon="9.26897">
        <ele>19.84</ele>
        <time>2014-06-05T14:09:04Z</time>
      </trkpt>
      <trkpt lat="41.54682" lon="9.269">
        <ele>19.84</ele>
        <time>2014-06-05T14:09:05Z</time>
      </trkpt>
      <trkpt lat="41.54681" lon="9.26905">
        <ele>19.36</ele>
        <time>2014-06-05T14:09:06Z</time>
      </trkpt>
      <trkpt lat="41.5468" lon="9.26912">
        <ele>19.84</ele>
        <time>2014-06-05T14:09:07Z</time>
      </trkpt>
      <trkpt lat="41.5468" lon="9.26919">
        <ele>19.36</ele>
        <time>2014-06-05T14:09:08Z</time>
      </trkpt>
      <trkpt lat="41.54678" lon="9.26933">
        <ele>18.4</ele>
        <time>2014-06-05T14:09:10Z</time>
      </trkpt>
      <trkpt lat="41.54672" lon="9.26955">
        <ele>16.96</ele>
        <time>2014-06-05T14:09:15Z</time>
      </trkpt>
      <trkpt lat="41.54665" lon="9.26987">
        <ele>17.44</ele>
        <time>2014-06-05T14:09:19Z</time>
      </trkpt>
      <trkpt lat="41.54666" lon="9.26995">
        <ele>18.4</ele>
        <time>2014-06-05T14:09:20Z</time>
      </trkpt>
      <trkpt lat="41.5467" lon="9.27002">
        <ele>18.88</ele>
        <time>2014-06-05T14:09:21Z</time>
      </trkpt>
      <trkpt lat="41.54674" lon="9.27008">
        <ele>19.36</ele>
        <time>2014-06-05T14:09:22Z</time>
      </trkpt>
      <trkpt lat="41.54681" lon="9.27014">
        <ele>19.36</ele>
        <time>2014-06-05T14:09:23Z</time>
      </trkpt>
      <trkpt lat="41.54688" lon="9.27021">
        <ele>19.84</ele>
        <time>2014-06-05T14:09:24Z</time>
      </trkpt>
      <trkpt lat="41.54729" lon="9.27055">
        <ele>21.77</ele>
        <time>2014-06-05T14:09:29Z</time>
      </trkpt>
      <trkpt lat="41.54735" lon="9.27063">
        <ele>22.73</ele>
        <time>2014-06-05T14:09:30Z</time>
      </trkpt>
      <trkpt lat="41.54738" lon="9.27071">
        <ele>23.21</ele>
        <time>2014-06-05T14:09:31Z</time>
      </trkpt>
      <trkpt lat="41.54739" lon="9.27079">
        <ele>23.69</ele>
        <time>2014-06-05T14:09:32Z</time>
      </trkpt>
      <trkpt lat="41.54738" lon="9.27088">
        <ele>24.17</ele>
        <time>2014-06-05T14:09:33Z</time>
      </trkpt>
      <trkpt lat="41.54735" lon="9.27096">
        <ele>24.17</ele>
        <time>2014-06-05T14:09:34Z</time>
      </trkpt>
      <trkpt lat="41.54729" lon="9.27105">
        <ele>25.13</ele>
        <time>2014-06-05T14:09:35Z</time>
      </trkpt>
      <trkpt lat="41.54723" lon="9.27115">
        <ele>24.65</ele>
        <time>2014-06-05T14:09:36Z</time>
      </trkpt>
      <trkpt lat="41.54715" lon="9.27125">
        <ele>24.65</ele>
        <time>2014-06-05T14:09:37Z</time>
      </trkpt>
      <trkpt lat="41.54695" lon="9.27159">
        <ele>24.65</ele>
        <time>2014-06-05T14:09:40Z</time>
      </trkpt>
      <trkpt lat="41.54689" lon="9.27173">
        <ele>24.65</ele>
        <time>2014-06-05T14:09:41Z</time>
      </trkpt>
      <trkpt lat="41.54684" lon="9.27188">
        <ele>24.65</ele>
        <time>2014-06-05T14:09:42Z</time>
      </trkpt>
      <trkpt lat="41.54652" lon="9.27304">
        <ele>23.21</ele>
        <time>2014-06-05T14:09:49Z</time>
      </trkpt>
      <trkpt lat="41.54641" lon="9.27426">
        <ele>29.94</ele>
        <time>2014-06-05T14:09:57Z</time>
      </trkpt>
      <trkpt lat="41.54638" lon="9.27436">
        <ele>30.9</ele>
        <time>2014-06-05T14:09:58Z</time>
      </trkpt>
      <trkpt lat="41.54633" lon="9.27443">
        <ele>31.38</ele>
        <time>2014-06-05T14:09:59Z</time>
      </trkpt>
      <trkpt lat="41.54627" lon="9.27449">
        <ele>32.34</ele>
        <time>2014-06-05T14:10:00Z</time>
      </trkpt>
      <trkpt lat="41.54618" lon="9.27455">
        <ele>32.34</ele>
        <time>2014-06-05T14:10:01Z</time>
      </trkpt>
      <trkpt lat="41.54609" lon="9.27461">
        <ele>32.82</ele>
        <time>2014-06-05T14:10:02Z</time>
      </trkpt>
      <trkpt lat="41.54581" lon="9.27475">
        <ele>33.78</ele>
        <time>2014-06-05T14:10:05Z</time>
      </trkpt>
      <trkpt lat="41.54573" lon="9.27482">
        <ele>34.26</ele>
        <time>2014-06-05T14:10:06Z</time>
      </trkpt>
      <trkpt lat="41.54566" lon="9.2749">
        <ele>34.74</ele>
        <time>2014-06-05T14:10:07Z</time>
      </trkpt>
      <trkpt lat="41.5456" lon="9.27502">
        <ele>34.26</ele>
        <time>2014-06-05T14:10:08Z</time>
      </trkpt>
      <trkpt lat="41.54555" lon="9.27514">
        <ele>34.74</ele>
        <time>2014-06-05T14:10:09Z</time>
      </trkpt>
      <trkpt lat="41.5455" lon="9.27527">
        <ele>35.23</ele>
        <time>2014-06-05T14:10:10Z</time>
      </trkpt>
      <trkpt lat="41.54538" lon="9.27549">
        <ele>36.19</ele>
        <time>2014-06-05T14:10:12Z</time>
      </trkpt>
      <trkpt lat="41.54517" lon="9.27578">
        <ele>38.11</ele>
        <time>2014-06-05T14:10:15Z</time>
      </trkpt>
      <trkpt lat="41.54491" lon="9.27622">
        <ele>40.51</ele>
        <time>2014-06-05T14:10:19Z</time>
      </trkpt>
      <trkpt lat="41.54483" lon="9.27632">
        <ele>40.51</ele>
        <time>2014-06-05T14:10:20Z</time>
      </trkpt>
      <trkpt lat="41.54474" lon="9.27639">
        <ele>40.99</ele>
        <time>2014-06-05T14:10:21Z</time>
      </trkpt>
      <trkpt lat="41.54462" lon="9.27645">
        <ele>40.51</ele>
        <time>2014-06-05T14:10:22Z</time>
      </trkpt>
      <trkpt lat="41.54452" lon="9.2765">
        <ele>41.47</ele>
        <time>2014-06-05T14:10:23Z</time>
      </trkpt>
      <trkpt lat="41.54423" lon="9.27666">
        <ele>41.95</ele>
        <time>2014-06-05T14:10:26Z</time>
      </trkpt>
      <trkpt lat="41.54413" lon="9.27668">
        <ele>41.95</ele>
        <time>2014-06-05T14:10:27Z</time>
      </trkpt>
      <trkpt lat="41.5439" lon="9.27677">
        <ele>41.47</ele>
        <time>2014-06-05T14:10:30Z</time>
      </trkpt>
      <trkpt lat="41.54385" lon="9.27684">
        <ele>42.92</ele>
        <time>2014-06-05T14:10:31Z</time>
      </trkpt>
      <trkpt lat="41.5438" lon="9.27693">
        <ele>42.92</ele>
        <time>2014-06-05T14:10:33Z</time>
      </trkpt>
      <trkpt lat="41.54356" lon="9.27742">
        <ele>43.4</ele>
        <time>2014-06-05T14:10:37Z</time>
      </trkpt>
      <trkpt lat="41.5435" lon="9.27751">
        <ele>43.4</ele>
        <time>2014-06-05T14:10:38Z</time>
      </trkpt>
      <trkpt lat="41.54343" lon="9.27759">
        <ele>43.88</ele>
        <time>2014-06-05T14:10:39Z</time>
      </trkpt>
      <trkpt lat="41.54336" lon="9.27768">
        <ele>44.36</ele>
        <time>2014-06-05T14:10:40Z</time>
      </trkpt>
      <trkpt lat="41.54328" lon="9.27776">
        <ele>44.36</ele>
        <time>2014-06-05T14:10:41Z</time>
      </trkpt>
      <trkpt lat="41.54298" lon="9.27813">
        <ele>48.2</ele>
        <time>2014-06-05T14:10:46Z</time>
      </trkpt>
      <trkpt lat="41.54295" lon="9.27821">
        <ele>48.2</ele>
        <time>2014-06-05T14:10:47Z</time>
      </trkpt>
      <trkpt lat="41.54295" lon="9.27829">
        <ele>48.68</ele>
        <time>2014-06-05T14:10:48Z</time>
      </trkpt>
      <trkpt lat="41.54297" lon="9.27838">
        <ele>49.16</ele>
        <time>2014-06-05T14:10:49Z</time>
      </trkpt>
      <trkpt lat="41.54301" lon="9.27847">
        <ele>50.13</ele>
        <time>2014-06-05T14:10:50Z</time>
      </trkpt>
      <trkpt lat="41.54308" lon="9.27857">
        <ele>51.57</ele>
        <time>2014-06-05T14:10:51Z</time>
      </trkpt>
      <trkpt lat="41.54315" lon="9.27868">
        <ele>53.01</ele>
        <time>2014-06-05T14:10:52Z</time>
      </trkpt>
      <trkpt lat="41.54341" lon="9.27917">
        <ele>57.82</ele>
        <time>2014-06-05T14:10:56Z</time>
      </trkpt>
      <trkpt lat="41.54344" lon="9.2793">
        <ele>59.26</ele>
        <time>2014-06-05T14:10:57Z</time>
      </trkpt>
      <trkpt lat="41.54345" lon="9.27944">
        <ele>60.22</ele>
        <time>2014-06-05T14:10:58Z</time>
      </trkpt>
      <trkpt lat="41.54352" lon="9.28064">
        <ele>69.35</ele>
        <time>2014-06-05T14:11:05Z</time>
      </trkpt>
      <trkpt lat="41.54355" lon="9.28078">
        <ele>69.83</ele>
        <time>2014-06-05T14:11:06Z</time>
      </trkpt>
      <trkpt lat="41.54358" lon="9.28092">
        <ele>71.27</ele>
        <time>2014-06-05T14:11:07Z</time>
      </trkpt>
      <trkpt lat="41.54377" lon="9.28149">
        <ele>75.6</ele>
        <time>2014-06-05T14:11:12Z</time>
      </trkpt>
      <trkpt lat="41.54382" lon="9.28177">
        <ele>77.52</ele>
        <time>2014-06-05T14:11:15Z</time>
      </trkpt>
      <trkpt lat="41.54385" lon="9.28186">
        <ele>78</ele>
        <time>2014-06-05T14:11:16Z</time>
      </trkpt>
      <trkpt lat="41.54394" lon="9.28212">
        <ele>77.52</ele>
        <time>2014-06-05T14:11:19Z</time>
      </trkpt>
      <trkpt lat="41.54409" lon="9.28252">
        <ele>77.52</ele>
        <time>2014-06-05T14:11:23Z</time>
      </trkpt>
      <trkpt lat="41.54419" lon="9.28261">
        <ele>76.56</ele>
        <time>2014-06-05T14:11:24Z</time>
      </trkpt>
      <trkpt lat="41.5443" lon="9.2827">
        <ele>76.08</ele>
        <time>2014-06-05T14:11:25Z</time>
      </trkpt>
      <trkpt lat="41.54442" lon="9.28277">
        <ele>75.6</ele>
        <time>2014-06-05T14:11:26Z</time>
      </trkpt>
      <trkpt lat="41.54453" lon="9.28284">
        <ele>74.64</ele>
        <time>2014-06-05T14:11:27Z</time>
      </trkpt>
      <trkpt lat="41.54463" lon="9.28291">
        <ele>74.16</ele>
        <time>2014-06-05T14:11:28Z</time>
      </trkpt>
      <trkpt lat="41.54472" lon="9.283">
        <ele>73.68</ele>
        <time>2014-06-05T14:11:29Z</time>
      </trkpt>
      <trkpt lat="41.5448" lon="9.28311">
        <ele>73.2</ele>
        <time>2014-06-05T14:11:30Z</time>
      </trkpt>
      <trkpt lat="41.54504" lon="9.28341">
        <ele>69.35</ele>
        <time>2014-06-05T14:11:33Z</time>
      </trkpt>
      <trkpt lat="41.54513" lon="9.28349">
        <ele>69.83</ele>
        <time>2014-06-05T14:11:34Z</time>
      </trkpt>
      <trkpt lat="41.54549" lon="9.28373">
        <ele>67.43</ele>
        <time>2014-06-05T14:11:38Z</time>
      </trkpt>
      <trkpt lat="41.54554" lon="9.28379">
        <ele>66.47</ele>
        <time>2014-06-05T14:11:39Z</time>
      </trkpt>
      <trkpt lat="41.54557" lon="9.28386">
        <ele>65.99</ele>
        <time>2014-06-05T14:11:40Z</time>
      </trkpt>
      <trkpt lat="41.54558" lon="9.28396">
        <ele>65.51</ele>
        <time>2014-06-05T14:11:41Z</time>
      </trkpt>
      <trkpt lat="41.54557" lon="9.28405">
        <ele>64.55</ele>
        <time>2014-06-05T14:11:42Z</time>
      </trkpt>
      <trkpt lat="41.54556" lon="9.28416">
        <ele>64.07</ele>
        <time>2014-06-05T14:11:43Z</time>
      </trkpt>
      <trkpt lat="41.54553" lon="9.28425">
        <ele>63.1</ele>
        <time>2014-06-05T14:11:44Z</time>
      </trkpt>
      <trkpt lat="41.54551" lon="9.28435">
        <ele>61.66</ele>
        <time>2014-06-05T14:11:45Z</time>
      </trkpt>
      <trkpt lat="41.54548" lon="9.28445">
        <ele>60.7</ele>
        <time>2014-06-05T14:11:46Z</time>
      </trkpt>
      <trkpt lat="41.54544" lon="9.28452">
        <ele>59.74</ele>
        <time>2014-06-05T14:11:47Z</time>
      </trkpt>
      <trkpt lat="41.54539" lon="9.28465">
        <ele>59.74</ele>
        <time>2014-06-05T14:11:49Z</time>
      </trkpt>
      <trkpt lat="41.54538" lon="9.28471">
        <ele>59.74</ele>
        <time>2014-06-05T14:11:50Z</time>
      </trkpt>
      <trkpt lat="41.54539" lon="9.28476">
        <ele>59.74</ele>
        <time>2014-06-05T14:11:51Z</time>
      </trkpt>
      <trkpt lat="41.5454" lon="9.2848">
        <ele>58.78</ele>
        <time>2014-06-05T14:11:52Z</time>
      </trkpt>
      <trkpt lat="41.54541" lon="9.28483">
        <ele>59.26</ele>
        <time>2014-06-05T14:11:53Z</time>
      </trkpt>
      <trkpt lat="41.54538" lon="9.28504">
        <ele>64.55</ele>
        <time>2014-06-05T14:11:58Z</time>
      </trkpt>
      <trkpt lat="41.54537" lon="9.28509">
        <ele>64.07</ele>
        <time>2014-06-05T14:11:59Z</time>
      </trkpt>
      <trkpt lat="41.54527" lon="9.28534">
        <ele>63.1</ele>
        <time>2014-06-05T14:12:03Z</time>
      </trkpt>
      <trkpt lat="41.54526" lon="9.2854">
        <ele>63.1</ele>
        <time>2014-06-05T14:12:04Z</time>
      </trkpt>
      <trkpt lat="41.54525" lon="9.28546">
        <ele>63.1</ele>
        <time>2014-06-05T14:12:05Z</time>
      </trkpt>
      <trkpt lat="41.54524" lon="9.28552">
        <ele>63.1</ele>
        <time>2014-06-05T14:12:06Z</time>
      </trkpt>
      <trkpt lat="41.54524" lon="9.28558">
        <ele>62.14</ele>
        <time>2014-06-05T14:12:07Z</time>
      </trkpt>
      <trkpt lat="41.54525" lon="9.28584">
        <ele>64.55</ele>
        <time>2014-06-05T14:12:11Z</time>
      </trkpt>
      <trkpt lat="41.54526" lon="9.2859">
        <ele>65.03</ele>
        <time>2014-06-05T14:12:12Z</time>
      </trkpt>
      <trkpt lat="41.54528" lon="9.28595">
        <ele>65.51</ele>
        <time>2014-06-05T14:12:13Z</time>
      </trkpt>
      <trkpt lat="41.5453" lon="9.28601">
        <ele>66.47</ele>
        <time>2014-06-05T14:12:14Z</time>
      </trkpt>
      <trkpt lat="41.54532" lon="9.28607">
        <ele>66.47</ele>
        <time>2014-06-05T14:12:15Z</time>
      </trkpt>
      <trkpt lat="41.54537" lon="9.28621">
        <ele>65.99</ele>
        <time>2014-06-05T14:12:17Z</time>
      </trkpt>
      <trkpt lat="41.54539" lon="9.28629">
        <ele>65.51</ele>
        <time>2014-06-05T14:12:18Z</time>
      </trkpt>
      <trkpt lat="41.5454" lon="9.28637">
        <ele>65.51</ele>
        <time>2014-06-05T14:12:19Z</time>
      </trkpt>
      <trkpt lat="41.5454" lon="9.28645">
        <ele>65.03</ele>
        <time>2014-06-05T14:12:20Z</time>
      </trkpt>
      <trkpt lat="41.5454" lon="9.28651">
        <ele>64.55</ele>
        <time>2014-06-05T14:12:21Z</time>
      </trkpt>
      <trkpt lat="41.54539" lon="9.28657">
        <ele>64.55</ele>
        <time>2014-06-05T14:12:22Z</time>
      </trkpt>
      <trkpt lat="41.54538" lon="9.28663">
        <ele>64.07</ele>
        <time>2014-06-05T14:12:23Z</time>
      </trkpt>
      <trkpt lat="41.54535" lon="9.28669">
        <ele>63.58</ele>
        <time>2014-06-05T14:12:24Z</time>
      </trkpt>
      <trkpt lat="41.54527" lon="9.28688">
        <ele>62.62</ele>
        <time>2014-06-05T14:12:27Z</time>
      </trkpt>
      <trkpt lat="41.54527" lon="9.28696">
        <ele>62.62</ele>
        <time>2014-06-05T14:12:28Z</time>
      </trkpt>
      <trkpt lat="41.54529" lon="9.28703">
        <ele>61.18</ele>
        <time>2014-06-05T14:12:29Z</time>
      </trkpt>
      <trkpt lat="41.54532" lon="9.28709">
        <ele>60.7</ele>
        <time>2014-06-05T14:12:30Z</time>
      </trkpt>
      <trkpt lat="41.54537" lon="9.28714">
        <ele>60.22</ele>
        <time>2014-06-05T14:12:31Z</time>
      </trkpt>
      <trkpt lat="41.54543" lon="9.2872">
        <ele>59.26</ele>
        <time>2014-06-05T14:12:32Z</time>
      </trkpt>
      <trkpt lat="41.54554" lon="9.28733">
        <ele>58.78</ele>
        <time>2014-06-05T14:12:34Z</time>
      </trkpt>
      <trkpt lat="41.54566" lon="9.28748">
        <ele>58.78</ele>
        <time>2014-06-05T14:12:36Z</time>
      </trkpt>
      <trkpt lat="41.54571" lon="9.28757">
        <ele>58.78</ele>
        <time>2014-06-05T14:12:37Z</time>
      </trkpt>
      <trkpt lat="41.54575" lon="9.28768">
        <ele>57.34</ele>
        <time>2014-06-05T14:12:38Z</time>
      </trkpt>
      <trkpt lat="41.54578" lon="9.28779">
        <ele>56.86</ele>
        <time>2014-06-05T14:12:39Z</time>
      </trkpt>
      <trkpt lat="41.54581" lon="9.2879">
        <ele>56.37</ele>
        <time>2014-06-05T14:12:40Z</time>
      </trkpt>
      <trkpt lat="41.54585" lon="9.28801">
        <ele>55.41</ele>
        <time>2014-06-05T14:12:41Z</time>
      </trkpt>
      <trkpt lat="41.5459" lon="9.28809">
        <ele>55.41</ele>
        <time>2014-06-05T14:12:42Z</time>
      </trkpt>
      <trkpt lat="41.54596" lon="9.28817">
        <ele>55.89</ele>
        <time>2014-06-05T14:12:43Z</time>
      </trkpt>
      <trkpt lat="41.54648" lon="9.28885">
        <ele>58.3</ele>
        <time>2014-06-05T14:12:52Z</time>
      </trkpt>
      <trkpt lat="41.5465" lon="9.28892">
        <ele>57.82</ele>
        <time>2014-06-05T14:12:53Z</time>
      </trkpt>
      <trkpt lat="41.5465" lon="9.28897">
        <ele>56.86</ele>
        <time>2014-06-05T14:12:54Z</time>
      </trkpt>
      <trkpt lat="41.54648" lon="9.28903">
        <ele>56.86</ele>
        <time>2014-06-05T14:12:55Z</time>
      </trkpt>
      <trkpt lat="41.54643" lon="9.28908">
        <ele>56.37</ele>
        <time>2014-06-05T14:12:56Z</time>
      </trkpt>
      <trkpt lat="41.54637" lon="9.28914">
        <ele>54.93</ele>
        <time>2014-06-05T14:12:57Z</time>
      </trkpt>
      <trkpt lat="41.54626" lon="9.28933">
        <ele>54.45</ele>
        <time>2014-06-05T14:12:59Z</time>
      </trkpt>
      <trkpt lat="41.54623" lon="9.28946">
        <ele>53.97</ele>
        <time>2014-06-05T14:13:00Z</time>
      </trkpt>
      <trkpt lat="41.54622" lon="9.2896">
        <ele>53.97</ele>
        <time>2014-06-05T14:13:01Z</time>
      </trkpt>
      <trkpt lat="41.5462" lon="9.28986">
        <ele>56.37</ele>
        <time>2014-06-05T14:13:03Z</time>
      </trkpt>
      <trkpt lat="41.54617" lon="9.28997">
        <ele>55.41</ele>
        <time>2014-06-05T14:13:04Z</time>
      </trkpt>
      <trkpt lat="41.54613" lon="9.29005">
        <ele>54.93</ele>
        <time>2014-06-05T14:13:05Z</time>
      </trkpt>
      <trkpt lat="41.54607" lon="9.29011">
        <ele>53.97</ele>
        <time>2014-06-05T14:13:06Z</time>
      </trkpt>
      <trkpt lat="41.546" lon="9.29015">
        <ele>53.49</ele>
        <time>2014-06-05T14:13:07Z</time>
      </trkpt>
      <trkpt lat="41.54591" lon="9.29017">
        <ele>52.53</ele>
        <time>2014-06-05T14:13:08Z</time>
      </trkpt>
      <trkpt lat="41.54583" lon="9.29018">
        <ele>52.05</ele>
        <time>2014-06-05T14:13:09Z</time>
      </trkpt>
      <trkpt lat="41.54565" lon="9.29024">
        <ele>50.13</ele>
        <time>2014-06-05T14:13:11Z</time>
      </trkpt>
      <trkpt lat="41.54557" lon="9.29033">
        <ele>50.61</ele>
        <time>2014-06-05T14:13:12Z</time>
      </trkpt>
      <trkpt lat="41.54523" lon="9.29078">
        <ele>51.09</ele>
        <time>2014-06-05T14:13:16Z</time>
      </trkpt>
      <trkpt lat="41.54514" lon="9.29086">
        <ele>51.09</ele>
        <time>2014-06-05T14:13:17Z</time>
      </trkpt>
      <trkpt lat="41.54503" lon="9.2909">
        <ele>51.09</ele>
        <time>2014-06-05T14:13:18Z</time>
      </trkpt>
      <trkpt lat="41.54492" lon="9.29094">
        <ele>50.13</ele>
        <time>2014-06-05T14:13:19Z</time>
      </trkpt>
      <trkpt lat="41.54481" lon="9.29096">
        <ele>50.13</ele>
        <time>2014-06-05T14:13:20Z</time>
      </trkpt>
      <trkpt lat="41.54469" lon="9.29098">
        <ele>50.13</ele>
        <time>2014-06-05T14:13:21Z</time>
      </trkpt>
      <trkpt lat="41.54421" lon="9.291">
        <ele>47.72</ele>
        <time>2014-06-05T14:13:26Z</time>
      </trkpt>
      <trkpt lat="41.54412" lon="9.29096">
        <ele>47.72</ele>
        <time>2014-06-05T14:13:27Z</time>
      </trkpt>
      <trkpt lat="41.54405" lon="9.2909">
        <ele>47.72</ele>
        <time>2014-06-05T14:13:28Z</time>
      </trkpt>
      <trkpt lat="41.54384" lon="9.29073">
        <ele>47.24</ele>
        <time>2014-06-05T14:13:31Z</time>
      </trkpt>
      <trkpt lat="41.54376" lon="9.2907">
        <ele>46.76</ele>
        <time>2014-06-05T14:13:32Z</time>
      </trkpt>
      <trkpt lat="41.54367" lon="9.29068">
        <ele>47.72</ele>
        <time>2014-06-05T14:13:33Z</time>
      </trkpt>
      <trkpt lat="41.54359" lon="9.29069">
        <ele>49.16</ele>
        <time>2014-06-05T14:13:34Z</time>
      </trkpt>
      <trkpt lat="41.54352" lon="9.29073">
        <ele>49.65</ele>
        <time>2014-06-05T14:13:35Z</time>
      </trkpt>
      <trkpt lat="41.54346" lon="9.29079">
        <ele>49.16</ele>
        <time>2014-06-05T14:13:36Z</time>
      </trkpt>
      <trkpt lat="41.54342" lon="9.29087">
        <ele>49.65</ele>
        <time>2014-06-05T14:13:37Z</time>
      </trkpt>
      <trkpt lat="41.54338" lon="9.29097">
        <ele>50.61</ele>
        <time>2014-06-05T14:13:38Z</time>
      </trkpt>
      <trkpt lat="41.54334" lon="9.29109">
        <ele>51.09</ele>
        <time>2014-06-05T14:13:39Z</time>
      </trkpt>
      <trkpt lat="41.5433" lon="9.29122">
        <ele>51.09</ele>
        <time>2014-06-05T14:13:40Z</time>
      </trkpt>
      <trkpt lat="41.54326" lon="9.29137">
        <ele>52.05</ele>
        <time>2014-06-05T14:13:41Z</time>
      </trkpt>
      <trkpt lat="41.54318" lon="9.29166">
        <ele>50.61</ele>
        <time>2014-06-05T14:13:43Z</time>
      </trkpt>
      <trkpt lat="41.54313" lon="9.29179">
        <ele>50.13</ele>
        <time>2014-06-05T14:13:44Z</time>
      </trkpt>
      <trkpt lat="41.54306" lon="9.29192">
        <ele>50.61</ele>
        <time>2014-06-05T14:13:45Z</time>
      </trkpt>
      <trkpt lat="41.54298" lon="9.29204">
        <ele>50.61</ele>
        <time>2014-06-05T14:13:46Z</time>
      </trkpt>
      <trkpt lat="41.54292" lon="9.29214">
        <ele>51.09</ele>
        <time>2014-06-05T14:13:47Z</time>
      </trkpt>
      <trkpt lat="41.54287" lon="9.29224">
        <ele>51.57</ele>
        <time>2014-06-05T14:13:48Z</time>
      </trkpt>
      <trkpt lat="41.54285" lon="9.29234">
        <ele>51.09</ele>
        <time>2014-06-05T14:13:49Z</time>
      </trkpt>
      <trkpt lat="41.54285" lon="9.29244">
        <ele>51.09</ele>
        <time>2014-06-05T14:13:50Z</time>
      </trkpt>
      <trkpt lat="41.54288" lon="9.29256">
        <ele>51.57</ele>
        <time>2014-06-05T14:13:51Z</time>
      </trkpt>
      <trkpt lat="41.54293" lon="9.2927">
        <ele>51.57</ele>
        <time>2014-06-05T14:13:52Z</time>
      </trkpt>
      <trkpt lat="41.54348" lon="9.29375">
        <ele>50.13</ele>
        <time>2014-06-05T14:13:59Z</time>
      </trkpt>
      <trkpt lat="41.54377" lon="9.29428">
        <ele>49.65</ele>
        <time>2014-06-05T14:14:03Z</time>
      </trkpt>
      <trkpt lat="41.54386" lon="9.29439">
        <ele>49.16</ele>
        <time>2014-06-05T14:14:04Z</time>
      </trkpt>
      <trkpt lat="41.54395" lon="9.29448">
        <ele>49.16</ele>
        <time>2014-06-05T14:14:05Z</time>
      </trkpt>
      <trkpt lat="41.54433" lon="9.29481">
        <ele>48.68</ele>
        <time>2014-06-05T14:14:09Z</time>
      </trkpt>
      <trkpt lat="41.54442" lon="9.29491">
        <ele>48.68</ele>
        <time>2014-06-05T14:14:10Z</time>
      </trkpt>
      <trkpt lat="41.54483" lon="9.29545">
        <ele>49.65</ele>
        <time>2014-06-05T14:14:15Z</time>
      </trkpt>
      <trkpt lat="41.54488" lon="9.29557">
        <ele>50.61</ele>
        <time>2014-06-05T14:14:16Z</time>
      </trkpt>
      <trkpt lat="41.54492" lon="9.2957">
        <ele>51.57</ele>
        <time>2014-06-05T14:14:17Z</time>
      </trkpt>
      <trkpt lat="41.54495" lon="9.29584">
        <ele>52.05</ele>
        <time>2014-06-05T14:14:18Z</time>
      </trkpt>
      <trkpt lat="41.54498" lon="9.29596">
        <ele>52.53</ele>
        <time>2014-06-05T14:14:19Z</time>
      </trkpt>
      <trkpt lat="41.54506" lon="9.29637">
        <ele>53.01</ele>
        <time>2014-06-05T14:14:22Z</time>
      </trkpt>
      <trkpt lat="41.54512" lon="9.29651">
        <ele>52.53</ele>
        <time>2014-06-05T14:14:23Z</time>
      </trkpt>
      <trkpt lat="41.54519" lon="9.29663">
        <ele>51.57</ele>
        <time>2014-06-05T14:14:24Z</time>
      </trkpt>
      <trkpt lat="41.54527" lon="9.29674">
        <ele>51.57</ele>
        <time>2014-06-05T14:14:25Z</time>
      </trkpt>
      <trkpt lat="41.54536" lon="9.29684">
        <ele>51.09</ele>
        <time>2014-06-05T14:14:26Z</time>
      </trkpt>
      <trkpt lat="41.54546" lon="9.29693">
        <ele>50.61</ele>
        <time>2014-06-05T14:14:27Z</time>
      </trkpt>
      <trkpt lat="41.54586" lon="9.29726">
        <ele>49.16</ele>
        <time>2014-06-05T14:14:31Z</time>
      </trkpt>
      <trkpt lat="41.54593" lon="9.29736">
        <ele>48.68</ele>
        <time>2014-06-05T14:14:32Z</time>
      </trkpt>
      <trkpt lat="41.54598" lon="9.29747">
        <ele>49.16</ele>
        <time>2014-06-05T14:14:33Z</time>
      </trkpt>
      <trkpt lat="41.5462" lon="9.29775">
        <ele>49.16</ele>
        <time>2014-06-05T14:14:36Z</time>
      </trkpt>
      <trkpt lat="41.54631" lon="9.29778">
        <ele>48.68</ele>
        <time>2014-06-05T14:14:37Z</time>
      </trkpt>
      <trkpt lat="41.54643" lon="9.2978">
        <ele>47.72</ele>
        <time>2014-06-05T14:14:38Z</time>
      </trkpt>
      <trkpt lat="41.54657" lon="9.29781">
        <ele>46.28</ele>
        <time>2014-06-05T14:14:39Z</time>
      </trkpt>
      <trkpt lat="41.5467" lon="9.2978">
        <ele>44.84</ele>
        <time>2014-06-05T14:14:40Z</time>
      </trkpt>
      <trkpt lat="41.54682" lon="9.29777">
        <ele>43.4</ele>
        <time>2014-06-05T14:14:41Z</time>
      </trkpt>
      <trkpt lat="41.54694" lon="9.29772">
        <ele>41.95</ele>
        <time>2014-06-05T14:14:42Z</time>
      </trkpt>
      <trkpt lat="41.54704" lon="9.29764">
        <ele>40.99</ele>
        <time>2014-06-05T14:14:43Z</time>
      </trkpt>
      <trkpt lat="41.54715" lon="9.29754">
        <ele>40.51</ele>
        <time>2014-06-05T14:14:44Z</time>
      </trkpt>
      <trkpt lat="41.54724" lon="9.29742">
        <ele>40.99</ele>
        <time>2014-06-05T14:14:45Z</time>
      </trkpt>
      <trkpt lat="41.54751" lon="9.2971">
        <ele>38.11</ele>
        <time>2014-06-05T14:14:48Z</time>
      </trkpt>
      <trkpt lat="41.5476" lon="9.29704">
        <ele>38.11</ele>
        <time>2014-06-05T14:14:49Z</time>
      </trkpt>
      <trkpt lat="41.54768" lon="9.297">
        <ele>38.11</ele>
        <time>2014-06-05T14:14:50Z</time>
      </trkpt>
      <trkpt lat="41.54777" lon="9.29701">
        <ele>38.11</ele>
        <time>2014-06-05T14:14:51Z</time>
      </trkpt>
      <trkpt lat="41.54787" lon="9.29705">
        <ele>38.11</ele>
        <time>2014-06-05T14:14:52Z</time>
      </trkpt>
      <trkpt lat="41.54796" lon="9.2971">
        <ele>38.11</ele>
        <time>2014-06-05T14:14:53Z</time>
      </trkpt>
      <trkpt lat="41.5483" lon="9.29724">
        <ele>37.63</ele>
        <time>2014-06-05T14:14:56Z</time>
      </trkpt>
      <trkpt lat="41.54866" lon="9.29732">
        <ele>35.23</ele>
        <time>2014-06-05T14:14:59Z</time>
      </trkpt>
      <trkpt lat="41.54877" lon="9.29738">
        <ele>34.74</ele>
        <time>2014-06-05T14:15:00Z</time>
      </trkpt>
      <trkpt lat="41.54886" lon="9.29745">
        <ele>34.74</ele>
        <time>2014-06-05T14:15:01Z</time>
      </trkpt>
      <trkpt lat="41.54892" lon="9.29755">
        <ele>34.74</ele>
        <time>2014-06-05T14:15:02Z</time>
      </trkpt>
      <trkpt lat="41.54898" lon="9.29766">
        <ele>34.74</ele>
        <time>2014-06-05T14:15:03Z</time>
      </trkpt>
      <trkpt lat="41.54903" lon="9.29778">
        <ele>34.74</ele>
        <time>2014-06-05T14:15:04Z</time>
      </trkpt>
      <trkpt lat="41.54974" lon="9.29902">
        <ele>31.38</ele>
        <time>2014-06-05T14:15:14Z</time>
      </trkpt>
      <trkpt lat="41.54983" lon="9.29911">
        <ele>31.38</ele>
        <time>2014-06-05T14:15:15Z</time>
      </trkpt>
      <trkpt lat="41.54994" lon="9.29919">
        <ele>30.9</ele>
        <time>2014-06-05T14:15:16Z</time>
      </trkpt>
      <trkpt lat="41.55036" lon="9.29953">
        <ele>31.86</ele>
        <time>2014-06-05T14:15:20Z</time>
      </trkpt>
      <trkpt lat="41.55043" lon="9.29964">
        <ele>31.86</ele>
        <time>2014-06-05T14:15:21Z</time>
      </trkpt>
      <trkpt lat="41.55049" lon="9.29977">
        <ele>31.86</ele>
        <time>2014-06-05T14:15:22Z</time>
      </trkpt>
      <trkpt lat="41.55054" lon="9.29991">
        <ele>31.38</ele>
        <time>2014-06-05T14:15:23Z</time>
      </trkpt>
      <trkpt lat="41.55058" lon="9.30006">
        <ele>29.94</ele>
        <time>2014-06-05T14:15:24Z</time>
      </trkpt>
      <trkpt lat="41.5506" lon="9.30021">
        <ele>30.42</ele>
        <time>2014-06-05T14:15:25Z</time>
      </trkpt>
      <trkpt lat="41.55062" lon="9.30037">
        <ele>30.42</ele>
        <time>2014-06-05T14:15:26Z</time>
      </trkpt>
      <trkpt lat="41.55068" lon="9.30066">
        <ele>29.46</ele>
        <time>2014-06-05T14:15:28Z</time>
      </trkpt>
      <trkpt lat="41.55073" lon="9.30078">
        <ele>28.98</ele>
        <time>2014-06-05T14:15:29Z</time>
      </trkpt>
      <trkpt lat="41.55079" lon="9.30086">
        <ele>28.98</ele>
        <time>2014-06-05T14:15:30Z</time>
      </trkpt>
      <trkpt lat="41.55086" lon="9.30092">
        <ele>28.5</ele>
        <time>2014-06-05T14:15:31Z</time>
      </trkpt>
      <trkpt lat="41.55095" lon="9.30095">
        <ele>28.5</ele>
        <time>2014-06-05T14:15:32Z</time>
      </trkpt>
      <trkpt lat="41.55108" lon="9.30096">
        <ele>26.09</ele>
        <time>2014-06-05T14:15:33Z</time>
      </trkpt>
      <trkpt lat="41.55121" lon="9.30097">
        <ele>25.13</ele>
        <time>2014-06-05T14:15:34Z</time>
      </trkpt>
      <trkpt lat="41.55196" lon="9.30108">
        <ele>18.4</ele>
        <time>2014-06-05T14:15:40Z</time>
      </trkpt>
      <trkpt lat="41.55207" lon="9.30114">
        <ele>16.96</ele>
        <time>2014-06-05T14:15:41Z</time>
      </trkpt>
      <trkpt lat="41.55219" lon="9.30122">
        <ele>17.44</ele>
        <time>2014-06-05T14:15:42Z</time>
      </trkpt>
      <trkpt lat="41.55232" lon="9.30131">
        <ele>16.48</ele>
        <time>2014-06-05T14:15:43Z</time>
      </trkpt>
      <trkpt lat="41.55244" lon="9.30142">
        <ele>16.48</ele>
        <time>2014-06-05T14:15:44Z</time>
      </trkpt>
      <trkpt lat="41.55279" lon="9.30182">
        <ele>17.92</ele>
        <time>2014-06-05T14:15:48Z</time>
      </trkpt>
      <trkpt lat="41.55284" lon="9.30192">
        <ele>18.4</ele>
        <time>2014-06-05T14:15:49Z</time>
      </trkpt>
      <trkpt lat="41.55285" lon="9.30203">
        <ele>19.84</ele>
        <time>2014-06-05T14:15:50Z</time>
      </trkpt>
      <trkpt lat="41.55283" lon="9.30215">
        <ele>20.81</ele>
        <time>2014-06-05T14:15:51Z</time>
      </trkpt>
      <trkpt lat="41.55279" lon="9.30226">
        <ele>21.77</ele>
        <time>2014-06-05T14:15:52Z</time>
      </trkpt>
      <trkpt lat="41.55272" lon="9.30237">
        <ele>23.21</ele>
        <time>2014-06-05T14:15:53Z</time>
      </trkpt>
      <trkpt lat="41.55262" lon="9.30248">
        <ele>25.61</ele>
        <time>2014-06-05T14:15:54Z</time>
      </trkpt>
      <trkpt lat="41.55252" lon="9.30256">
        <ele>26.57</ele>
        <time>2014-06-05T14:15:55Z</time>
      </trkpt>
      <trkpt lat="41.5524" lon="9.30264">
        <ele>28.02</ele>
        <time>2014-06-05T14:15:56Z</time>
      </trkpt>
      <trkpt lat="41.55229" lon="9.30269">
        <ele>28.98</ele>
        <time>2014-06-05T14:15:57Z</time>
      </trkpt>
      <trkpt lat="41.55218" lon="9.30273">
        <ele>29.94</ele>
        <time>2014-06-05T14:15:58Z</time>
      </trkpt>
      <trkpt lat="41.55208" lon="9.30275">
        <ele>30.42</ele>
        <time>2014-06-05T14:15:59Z</time>
      </trkpt>
      <trkpt lat="41.5519" lon="9.30281">
        <ele>31.38</ele>
        <time>2014-06-05T14:16:01Z</time>
      </trkpt>
      <trkpt lat="41.55183" lon="9.30287">
        <ele>30.9</ele>
        <time>2014-06-05T14:16:02Z</time>
      </trkpt>
      <trkpt lat="41.55178" lon="9.30296">
        <ele>31.38</ele>
        <time>2014-06-05T14:16:03Z</time>
      </trkpt>
      <trkpt lat="41.55175" lon="9.30306">
        <ele>31.38</ele>
        <time>2014-06-05T14:16:04Z</time>
      </trkpt>
      <trkpt lat="41.55173" lon="9.30321">
        <ele>31.38</ele>
        <time>2014-06-05T14:16:05Z</time>
      </trkpt>
      <trkpt lat="41.55171" lon="9.30338">
        <ele>30.9</ele>
        <time>2014-06-05T14:16:06Z</time>
      </trkpt>
      <trkpt lat="41.55166" lon="9.30376">
        <ele>31.38</ele>
        <time>2014-06-05T14:16:08Z</time>
      </trkpt>
      <trkpt lat="41.5516" lon="9.30394">
        <ele>30.9</ele>
        <time>2014-06-05T14:16:09Z</time>
      </trkpt>
      <trkpt lat="41.55128" lon="9.30474">
        <ele>27.53</ele>
        <time>2014-06-05T14:16:14Z</time>
      </trkpt>
      <trkpt lat="41.55119" lon="9.3049">
        <ele>27.05</ele>
        <time>2014-06-05T14:16:15Z</time>
      </trkpt>
      <trkpt lat="41.55052" lon="9.30577">
        <ele>26.09</ele>
        <time>2014-06-05T14:16:23Z</time>
      </trkpt>
      <trkpt lat="41.55022" lon="9.30615">
        <ele>26.57</ele>
        <time>2014-06-05T14:16:32Z</time>
      </trkpt>
      <trkpt lat="41.55024" lon="9.30637">
        <ele>25.61</ele>
        <time>2014-06-05T14:16:37Z</time>
      </trkpt>
      <trkpt lat="41.5503" lon="9.30654">
        <ele>27.05</ele>
        <time>2014-06-05T14:16:42Z</time>
      </trkpt>
      <trkpt lat="41.55029" lon="9.30657">
        <ele>26.57</ele>
        <time>2014-06-05T14:16:43Z</time>
      </trkpt>
      <trkpt lat="41.55028" lon="9.30659">
        <ele>26.57</ele>
        <time>2014-06-05T14:16:44Z</time>
      </trkpt>
      <trkpt lat="41.55027" lon="9.30661">
        <ele>26.57</ele>
        <time>2014-06-05T14:16:45Z</time>
      </trkpt>
      <trkpt lat="41.55026" lon="9.30664">
        <ele>26.57</ele>
        <time>2014-06-05T14:16:46Z</time>
      </trkpt>
      <trkpt lat="41.55024" lon="9.30666">
        <ele>26.09</ele>
        <time>2014-06-05T14:16:47Z</time>
      </trkpt>
      <trkpt lat="41.55005" lon="9.30681">
        <ele>21.77</ele>
        <time>2014-06-05T14:17:00Z</time>
      </trkpt>
      <trkpt lat="41.54944" lon="9.30824">
        <ele>22.73</ele>
        <time>2014-06-05T15:54:18Z</time>
      </trkpt>
      <trkpt lat="41.54929" lon="9.30806">
        <ele>12.15</ele>
        <time>2014-06-05T15:54:58Z</time>
      </trkpt>
      <trkpt lat="41.54929" lon="9.30806">
        <ele>12.15</ele>
        <time>2014-06-05T15:55:47Z</time>
      </trkpt>
      <trkpt lat="41.54929" lon="9.30806">
        <ele>12.15</ele>
        <time>2014-06-05T15:55:48Z</time>
      </trkpt>
      <trkpt lat="41.54922" lon="9.30796">
        <ele>12.15</ele>
        <time>2014-06-05T15:55:52Z</time>
      </trkpt>
      <trkpt lat="41.54931" lon="9.30778">
        <ele>13.12</ele>
        <time>2014-06-05T15:56:00Z</time>
      </trkpt>
      <trkpt lat="41.54935" lon="9.30775">
        <ele>15.52</ele>
        <time>2014-06-05T15:56:02Z</time>
      </trkpt>
      <trkpt lat="41.54986" lon="9.30727">
        <ele>15.52</ele>
        <time>2014-06-05T15:56:17Z</time>
      </trkpt>
      <trkpt lat="41.54989" lon="9.30723">
        <ele>16</ele>
        <time>2014-06-05T15:56:18Z</time>
      </trkpt>
      <trkpt lat="41.54997" lon="9.30705">
        <ele>17.44</ele>
        <time>2014-06-05T15:56:22Z</time>
      </trkpt>
      <trkpt lat="41.54999" lon="9.30695">
        <ele>16.96</ele>
        <time>2014-06-05T15:56:24Z</time>
      </trkpt>
      <trkpt lat="41.55028" lon="9.30657">
        <ele>20.32</ele>
        <time>2014-06-05T15:56:34Z</time>
      </trkpt>
      <trkpt lat="41.55036" lon="9.30651">
        <ele>21.29</ele>
        <time>2014-06-05T15:56:37Z</time>
      </trkpt>
      <trkpt lat="41.55039" lon="9.30652">
        <ele>21.29</ele>
        <time>2014-06-05T15:56:38Z</time>
      </trkpt>
      <trkpt lat="41.55043" lon="9.30655">
        <ele>21.29</ele>
        <time>2014-06-05T15:56:39Z</time>
      </trkpt>
      <trkpt lat="41.55069" lon="9.30674">
        <ele>22.25</ele>
        <time>2014-06-05T15:56:43Z</time>
      </trkpt>
      <trkpt lat="41.55086" lon="9.30685">
        <ele>22.73</ele>
        <time>2014-06-05T15:56:45Z</time>
      </trkpt>
      <trkpt lat="41.55094" lon="9.30691">
        <ele>23.21</ele>
        <time>2014-06-05T15:56:46Z</time>
      </trkpt>
      <trkpt lat="41.55119" lon="9.30709">
        <ele>24.65</ele>
        <time>2014-06-05T15:56:49Z</time>
      </trkpt>
      <trkpt lat="41.55129" lon="9.30713">
        <ele>25.13</ele>
        <time>2014-06-05T15:56:50Z</time>
      </trkpt>
      <trkpt lat="41.5516" lon="9.3072">
        <ele>25.13</ele>
        <time>2014-06-05T15:56:53Z</time>
      </trkpt>
      <trkpt lat="41.55202" lon="9.30733">
        <ele>22.25</ele>
        <time>2014-06-05T15:56:57Z</time>
      </trkpt>
      <trkpt lat="41.55213" lon="9.30734">
        <ele>21.29</ele>
        <time>2014-06-05T15:56:58Z</time>
      </trkpt>
      <trkpt lat="41.55243" lon="9.30744">
        <ele>18.4</ele>
        <time>2014-06-05T15:57:01Z</time>
      </trkpt>
      <trkpt lat="41.55267" lon="9.30764">
        <ele>16.48</ele>
        <time>2014-06-05T15:57:04Z</time>
      </trkpt>
      <trkpt lat="41.55283" lon="9.30783">
        <ele>15.52</ele>
        <time>2014-06-05T15:57:07Z</time>
      </trkpt>
      <trkpt lat="41.55284" lon="9.30791">
        <ele>15.04</ele>
        <time>2014-06-05T15:57:08Z</time>
      </trkpt>
      <trkpt lat="41.5528" lon="9.30799">
        <ele>14.56</ele>
        <time>2014-06-05T15:57:09Z</time>
      </trkpt>
      <trkpt lat="41.55267" lon="9.3083">
        <ele>16.48</ele>
        <time>2014-06-05T15:57:12Z</time>
      </trkpt>
      <trkpt lat="41.55265" lon="9.30841">
        <ele>17.44</ele>
        <time>2014-06-05T15:57:13Z</time>
      </trkpt>
      <trkpt lat="41.55265" lon="9.30853">
        <ele>17.44</ele>
        <time>2014-06-05T15:57:14Z</time>
      </trkpt>
      <trkpt lat="41.55268" lon="9.30865">
        <ele>16.96</ele>
        <time>2014-06-05T15:57:15Z</time>
      </trkpt>
      <trkpt lat="41.55272" lon="9.30878">
        <ele>16</ele>
        <time>2014-06-05T15:57:16Z</time>
      </trkpt>
      <trkpt lat="41.55277" lon="9.30892">
        <ele>15.52</ele>
        <time>2014-06-05T15:57:17Z</time>
      </trkpt>
      <trkpt lat="41.55313" lon="9.30983">
        <ele>13.12</ele>
        <time>2014-06-05T15:57:24Z</time>
      </trkpt>
      <trkpt lat="41.55317" lon="9.30997">
        <ele>13.6</ele>
        <time>2014-06-05T15:57:25Z</time>
      </trkpt>
      <trkpt lat="41.55319" lon="9.31011">
        <ele>13.6</ele>
        <time>2014-06-05T15:57:26Z</time>
      </trkpt>
      <trkpt lat="41.55319" lon="9.31025">
        <ele>14.08</ele>
        <time>2014-06-05T15:57:27Z</time>
      </trkpt>
      <trkpt lat="41.55319" lon="9.3104">
        <ele>14.56</ele>
        <time>2014-06-05T15:57:28Z</time>
      </trkpt>
      <trkpt lat="41.55317" lon="9.31055">
        <ele>15.04</ele>
        <time>2014-06-05T15:57:29Z</time>
      </trkpt>
      <trkpt lat="41.55316" lon="9.31085">
        <ele>16.48</ele>
        <time>2014-06-05T15:57:31Z</time>
      </trkpt>
      <trkpt lat="41.55317" lon="9.31099">
        <ele>16.96</ele>
        <time>2014-06-05T15:57:32Z</time>
      </trkpt>
      <trkpt lat="41.55319" lon="9.31114">
        <ele>17.92</ele>
        <time>2014-06-05T15:57:33Z</time>
      </trkpt>
      <trkpt lat="41.55323" lon="9.3113">
        <ele>18.88</ele>
        <time>2014-06-05T15:57:34Z</time>
      </trkpt>
      <trkpt lat="41.55327" lon="9.31146">
        <ele>19.84</ele>
        <time>2014-06-05T15:57:35Z</time>
      </trkpt>
      <trkpt lat="41.55332" lon="9.3116">
        <ele>20.32</ele>
        <time>2014-06-05T15:57:36Z</time>
      </trkpt>
      <trkpt lat="41.55337" lon="9.31172">
        <ele>20.32</ele>
        <time>2014-06-05T15:57:37Z</time>
      </trkpt>
      <trkpt lat="41.55341" lon="9.31183">
        <ele>20.81</ele>
        <time>2014-06-05T15:57:38Z</time>
      </trkpt>
      <trkpt lat="41.55343" lon="9.31194">
        <ele>20.81</ele>
        <time>2014-06-05T15:57:39Z</time>
      </trkpt>
      <trkpt lat="41.55343" lon="9.31204">
        <ele>21.29</ele>
        <time>2014-06-05T15:57:40Z</time>
      </trkpt>
      <trkpt lat="41.5534" lon="9.31213">
        <ele>22.25</ele>
        <time>2014-06-05T15:57:41Z</time>
      </trkpt>
      <trkpt lat="41.55335" lon="9.31221">
        <ele>23.21</ele>
        <time>2014-06-05T15:57:42Z</time>
      </trkpt>
      <trkpt lat="41.55328" lon="9.31226">
        <ele>23.69</ele>
        <time>2014-06-05T15:57:43Z</time>
      </trkpt>
      <trkpt lat="41.55321" lon="9.31229">
        <ele>24.17</ele>
        <time>2014-06-05T15:57:44Z</time>
      </trkpt>
      <trkpt lat="41.55314" lon="9.31232">
        <ele>24.65</ele>
        <time>2014-06-05T15:57:45Z</time>
      </trkpt>
      <trkpt lat="41.55292" lon="9.31243">
        <ele>27.05</ele>
        <time>2014-06-05T15:57:48Z</time>
      </trkpt>
      <trkpt lat="41.55287" lon="9.31249">
        <ele>27.53</ele>
        <time>2014-06-05T15:57:49Z</time>
      </trkpt>
      <trkpt lat="41.55283" lon="9.31257">
        <ele>28.02</ele>
        <time>2014-06-05T15:57:50Z</time>
      </trkpt>
      <trkpt lat="41.55282" lon="9.31267">
        <ele>28.5</ele>
        <time>2014-06-05T15:57:51Z</time>
      </trkpt>
      <trkpt lat="41.55285" lon="9.31279">
        <ele>28.98</ele>
        <time>2014-06-05T15:57:52Z</time>
      </trkpt>
      <trkpt lat="41.55289" lon="9.31293">
        <ele>29.46</ele>
        <time>2014-06-05T15:57:53Z</time>
      </trkpt>
      <trkpt lat="41.55294" lon="9.31307">
        <ele>29.94</ele>
        <time>2014-06-05T15:57:54Z</time>
      </trkpt>
      <trkpt lat="41.55305" lon="9.3133">
        <ele>29.94</ele>
        <time>2014-06-05T15:57:56Z</time>
      </trkpt>
      <trkpt lat="41.55311" lon="9.3134">
        <ele>29.46</ele>
        <time>2014-06-05T15:57:57Z</time>
      </trkpt>
      <trkpt lat="41.55318" lon="9.31349">
        <ele>29.94</ele>
        <time>2014-06-05T15:57:58Z</time>
      </trkpt>
      <trkpt lat="41.55325" lon="9.31357">
        <ele>29.94</ele>
        <time>2014-06-05T15:57:59Z</time>
      </trkpt>
      <trkpt lat="41.55333" lon="9.31363">
        <ele>29.46</ele>
        <time>2014-06-05T15:58:00Z</time>
      </trkpt>
      <trkpt lat="41.55341" lon="9.31368">
        <ele>28.98</ele>
        <time>2014-06-05T15:58:01Z</time>
      </trkpt>
      <trkpt lat="41.55349" lon="9.31372">
        <ele>28.5</ele>
        <time>2014-06-05T15:58:02Z</time>
      </trkpt>
      <trkpt lat="41.55358" lon="9.31375">
        <ele>27.53</ele>
        <time>2014-06-05T15:58:03Z</time>
      </trkpt>
      <trkpt lat="41.55366" lon="9.31376">
        <ele>26.57</ele>
        <time>2014-06-05T15:58:04Z</time>
      </trkpt>
      <trkpt lat="41.55375" lon="9.31376">
        <ele>26.09</ele>
        <time>2014-06-05T15:58:05Z</time>
      </trkpt>
      <trkpt lat="41.55385" lon="9.31375">
        <ele>25.61</ele>
        <time>2014-06-05T15:58:06Z</time>
      </trkpt>
      <trkpt lat="41.55393" lon="9.31374">
        <ele>24.65</ele>
        <time>2014-06-05T15:58:07Z</time>
      </trkpt>
      <trkpt lat="41.55417" lon="9.31373">
        <ele>22.73</ele>
        <time>2014-06-05T15:58:10Z</time>
      </trkpt>
      <trkpt lat="41.55424" lon="9.31374">
        <ele>22.25</ele>
        <time>2014-06-05T15:58:11Z</time>
      </trkpt>
      <trkpt lat="41.5543" lon="9.31377">
        <ele>22.73</ele>
        <time>2014-06-05T15:58:12Z</time>
      </trkpt>
      <trkpt lat="41.55437" lon="9.31381">
        <ele>22.73</ele>
        <time>2014-06-05T15:58:13Z</time>
      </trkpt>
      <trkpt lat="41.55444" lon="9.31387">
        <ele>22.73</ele>
        <time>2014-06-05T15:58:14Z</time>
      </trkpt>
      <trkpt lat="41.55498" lon="9.31432">
        <ele>23.21</ele>
        <time>2014-06-05T15:58:21Z</time>
      </trkpt>
      <trkpt lat="41.55503" lon="9.31442">
        <ele>22.73</ele>
        <time>2014-06-05T15:58:22Z</time>
      </trkpt>
      <trkpt lat="41.55506" lon="9.31453">
        <ele>22.25</ele>
        <time>2014-06-05T15:58:23Z</time>
      </trkpt>
      <trkpt lat="41.55511" lon="9.31467">
        <ele>21.29</ele>
        <time>2014-06-05T15:58:24Z</time>
      </trkpt>
      <trkpt lat="41.55518" lon="9.31481">
        <ele>20.81</ele>
        <time>2014-06-05T15:58:25Z</time>
      </trkpt>
      <trkpt lat="41.55525" lon="9.31492">
        <ele>19.84</ele>
        <time>2014-06-05T15:58:26Z</time>
      </trkpt>
      <trkpt lat="41.55533" lon="9.31502">
        <ele>18.88</ele>
        <time>2014-06-05T15:58:27Z</time>
      </trkpt>
      <trkpt lat="41.55542" lon="9.31508">
        <ele>17.92</ele>
        <time>2014-06-05T15:58:28Z</time>
      </trkpt>
      <trkpt lat="41.55552" lon="9.31511">
        <ele>17.92</ele>
        <time>2014-06-05T15:58:29Z</time>
      </trkpt>
      <trkpt lat="41.55562" lon="9.3151">
        <ele>16.96</ele>
        <time>2014-06-05T15:58:30Z</time>
      </trkpt>
      <trkpt lat="41.55572" lon="9.31508">
        <ele>16.48</ele>
        <time>2014-06-05T15:58:31Z</time>
      </trkpt>
      <trkpt lat="41.55582" lon="9.31503">
        <ele>15.52</ele>
        <time>2014-06-05T15:58:32Z</time>
      </trkpt>
      <trkpt lat="41.55591" lon="9.31496">
        <ele>14.08</ele>
        <time>2014-06-05T15:58:33Z</time>
      </trkpt>
      <trkpt lat="41.556" lon="9.31488">
        <ele>12.63</ele>
        <time>2014-06-05T15:58:34Z</time>
      </trkpt>
      <trkpt lat="41.55629" lon="9.31472">
        <ele>12.15</ele>
        <time>2014-06-05T15:58:37Z</time>
      </trkpt>
      <trkpt lat="41.55653" lon="9.31465">
        <ele>11.19</ele>
        <time>2014-06-05T15:58:40Z</time>
      </trkpt>
      <trkpt lat="41.55662" lon="9.3146">
        <ele>10.71</ele>
        <time>2014-06-05T15:58:41Z</time>
      </trkpt>
      <trkpt lat="41.55696" lon="9.3144">
        <ele>7.83</ele>
        <time>2014-06-05T15:58:45Z</time>
      </trkpt>
      <trkpt lat="41.55704" lon="9.31441">
        <ele>6.87</ele>
        <time>2014-06-05T15:58:46Z</time>
      </trkpt>
      <trkpt lat="41.5571" lon="9.31442">
        <ele>6.87</ele>
        <time>2014-06-05T15:58:47Z</time>
      </trkpt>
      <trkpt lat="41.55716" lon="9.31447">
        <ele>6.87</ele>
        <time>2014-06-05T15:58:48Z</time>
      </trkpt>
      <trkpt lat="41.55721" lon="9.31453">
        <ele>6.87</ele>
        <time>2014-06-05T15:58:49Z</time>
      </trkpt>
      <trkpt lat="41.55724" lon="9.31461">
        <ele>6.39</ele>
        <time>2014-06-05T15:58:50Z</time>
      </trkpt>
      <trkpt lat="41.55724" lon="9.3147">
        <ele>5.42</ele>
        <time>2014-06-05T15:58:51Z</time>
      </trkpt>
      <trkpt lat="41.55719" lon="9.31477">
        <ele>4.94</ele>
        <time>2014-06-05T15:58:52Z</time>
      </trkpt>
      <trkpt lat="41.55715" lon="9.31484">
        <ele>5.42</ele>
        <time>2014-06-05T15:58:53Z</time>
      </trkpt>
      <trkpt lat="41.55669" lon="9.31542">
        <ele>7.83</ele>
        <time>2014-06-05T15:59:00Z</time>
      </trkpt>
      <trkpt lat="41.55663" lon="9.31551">
        <ele>7.83</ele>
        <time>2014-06-05T15:59:01Z</time>
      </trkpt>
      <trkpt lat="41.55658" lon="9.31561">
        <ele>8.79</ele>
        <time>2014-06-05T15:59:02Z</time>
      </trkpt>
      <trkpt lat="41.55656" lon="9.31572">
        <ele>9.27</ele>
        <time>2014-06-05T15:59:03Z</time>
      </trkpt>
      <trkpt lat="41.55657" lon="9.31583">
        <ele>9.75</ele>
        <time>2014-06-05T15:59:04Z</time>
      </trkpt>
      <trkpt lat="41.55658" lon="9.31594">
        <ele>10.23</ele>
        <time>2014-06-05T15:59:05Z</time>
      </trkpt>
      <trkpt lat="41.5566" lon="9.31605">
        <ele>10.23</ele>
        <time>2014-06-05T15:59:06Z</time>
      </trkpt>
      <trkpt lat="41.55657" lon="9.31628">
        <ele>11.19</ele>
        <time>2014-06-05T15:59:08Z</time>
      </trkpt>
      <trkpt lat="41.55654" lon="9.3164">
        <ele>11.67</ele>
        <time>2014-06-05T15:59:09Z</time>
      </trkpt>
      <trkpt lat="41.5565" lon="9.31651">
        <ele>12.15</ele>
        <time>2014-06-05T15:59:10Z</time>
      </trkpt>
      <trkpt lat="41.55645" lon="9.31671">
        <ele>13.6</ele>
        <time>2014-06-05T15:59:12Z</time>
      </trkpt>
      <trkpt lat="41.55643" lon="9.31681">
        <ele>15.52</ele>
        <time>2014-06-05T15:59:13Z</time>
      </trkpt>
      <trkpt lat="41.55644" lon="9.31691">
        <ele>16</ele>
        <time>2014-06-05T15:59:14Z</time>
      </trkpt>
      <trkpt lat="41.55648" lon="9.317">
        <ele>16.48</ele>
        <time>2014-06-05T15:59:15Z</time>
      </trkpt>
      <trkpt lat="41.55652" lon="9.3171">
        <ele>17.44</ele>
        <time>2014-06-05T15:59:16Z</time>
      </trkpt>
      <trkpt lat="41.55658" lon="9.31721">
        <ele>18.4</ele>
        <time>2014-06-05T15:59:17Z</time>
      </trkpt>
      <trkpt lat="41.55684" lon="9.31766">
        <ele>22.73</ele>
        <time>2014-06-05T15:59:21Z</time>
      </trkpt>
      <trkpt lat="41.55691" lon="9.31775">
        <ele>23.69</ele>
        <time>2014-06-05T15:59:22Z</time>
      </trkpt>
      <trkpt lat="41.557" lon="9.31784">
        <ele>24.65</ele>
        <time>2014-06-05T15:59:23Z</time>
      </trkpt>
      <trkpt lat="41.5571" lon="9.31792">
        <ele>25.61</ele>
        <time>2014-06-05T15:59:24Z</time>
      </trkpt>
      <trkpt lat="41.55719" lon="9.318">
        <ele>26.09</ele>
        <time>2014-06-05T15:59:25Z</time>
      </trkpt>
      <trkpt lat="41.5576" lon="9.31824">
        <ele>28.98</ele>
        <time>2014-06-05T15:59:29Z</time>
      </trkpt>
      <trkpt lat="41.5577" lon="9.31828">
        <ele>29.94</ele>
        <time>2014-06-05T15:59:30Z</time>
      </trkpt>
      <trkpt lat="41.55825" lon="9.31844">
        <ele>33.3</ele>
        <time>2014-06-05T15:59:35Z</time>
      </trkpt>
      <trkpt lat="41.55865" lon="9.31868">
        <ele>36.19</ele>
        <time>2014-06-05T15:59:39Z</time>
      </trkpt>
      <trkpt lat="41.55875" lon="9.3187">
        <ele>37.15</ele>
        <time>2014-06-05T15:59:40Z</time>
      </trkpt>
      <trkpt lat="41.55885" lon="9.31869">
        <ele>38.59</ele>
        <time>2014-06-05T15:59:41Z</time>
      </trkpt>
      <trkpt lat="41.55894" lon="9.31867">
        <ele>40.03</ele>
        <time>2014-06-05T15:59:42Z</time>
      </trkpt>
      <trkpt lat="41.55904" lon="9.31862">
        <ele>40.03</ele>
        <time>2014-06-05T15:59:43Z</time>
      </trkpt>
      <trkpt lat="41.55913" lon="9.31859">
        <ele>39.55</ele>
        <time>2014-06-05T15:59:44Z</time>
      </trkpt>
      <trkpt lat="41.55923" lon="9.31856">
        <ele>39.07</ele>
        <time>2014-06-05T15:59:45Z</time>
      </trkpt>
      <trkpt lat="41.55934" lon="9.31855">
        <ele>39.07</ele>
        <time>2014-06-05T15:59:46Z</time>
      </trkpt>
      <trkpt lat="41.55944" lon="9.31857">
        <ele>39.07</ele>
        <time>2014-06-05T15:59:47Z</time>
      </trkpt>
      <trkpt lat="41.55955" lon="9.31858">
        <ele>39.07</ele>
        <time>2014-06-05T15:59:48Z</time>
      </trkpt>
      <trkpt lat="41.55965" lon="9.31861">
        <ele>38.11</ele>
        <time>2014-06-05T15:59:49Z</time>
      </trkpt>
      <trkpt lat="41.55974" lon="9.31865">
        <ele>38.11</ele>
        <time>2014-06-05T15:59:50Z</time>
      </trkpt>
      <trkpt lat="41.55982" lon="9.31873">
        <ele>38.11</ele>
        <time>2014-06-05T15:59:51Z</time>
      </trkpt>
      <trkpt lat="41.5599" lon="9.31881">
        <ele>38.59</ele>
        <time>2014-06-05T15:59:52Z</time>
      </trkpt>
      <trkpt lat="41.55995" lon="9.31889">
        <ele>38.59</ele>
        <time>2014-06-05T15:59:53Z</time>
      </trkpt>
      <trkpt lat="41.56001" lon="9.31897">
        <ele>38.59</ele>
        <time>2014-06-05T15:59:54Z</time>
      </trkpt>
      <trkpt lat="41.56017" lon="9.31925">
        <ele>39.55</ele>
        <time>2014-06-05T15:59:57Z</time>
      </trkpt>
      <trkpt lat="41.56021" lon="9.31937">
        <ele>39.55</ele>
        <time>2014-06-05T15:59:58Z</time>
      </trkpt>
      <trkpt lat="41.56024" lon="9.31948">
        <ele>39.55</ele>
        <time>2014-06-05T15:59:59Z</time>
      </trkpt>
      <trkpt lat="41.56023" lon="9.31959">
        <ele>40.03</ele>
        <time>2014-06-05T16:00:00Z</time>
      </trkpt>
      <trkpt lat="41.5602" lon="9.31969">
        <ele>40.51</ele>
        <time>2014-06-05T16:00:01Z</time>
      </trkpt>
      <trkpt lat="41.56017" lon="9.3198">
        <ele>40.51</ele>
        <time>2014-06-05T16:00:02Z</time>
      </trkpt>
      <trkpt lat="41.56015" lon="9.31998">
        <ele>39.55</ele>
        <time>2014-06-05T16:00:04Z</time>
      </trkpt>
      <trkpt lat="41.56018" lon="9.32009">
        <ele>38.11</ele>
        <time>2014-06-05T16:00:05Z</time>
      </trkpt>
      <trkpt lat="41.56023" lon="9.3202">
        <ele>37.63</ele>
        <time>2014-06-05T16:00:06Z</time>
      </trkpt>
      <trkpt lat="41.56076" lon="9.32104">
        <ele>34.26</ele>
        <time>2014-06-05T16:00:14Z</time>
      </trkpt>
      <trkpt lat="41.56081" lon="9.32107">
        <ele>34.26</ele>
        <time>2014-06-05T16:00:15Z</time>
      </trkpt>
      <trkpt lat="41.56087" lon="9.32105">
        <ele>33.78</ele>
        <time>2014-06-05T16:00:16Z</time>
      </trkpt>
      <trkpt lat="41.56093" lon="9.32098">
        <ele>32.34</ele>
        <time>2014-06-05T16:00:17Z</time>
      </trkpt>
      <trkpt lat="41.56098" lon="9.32091">
        <ele>31.86</ele>
        <time>2014-06-05T16:00:18Z</time>
      </trkpt>
      <trkpt lat="41.56104" lon="9.32082">
        <ele>31.38</ele>
        <time>2014-06-05T16:00:19Z</time>
      </trkpt>
      <trkpt lat="41.56115" lon="9.32068">
        <ele>30.42</ele>
        <time>2014-06-05T16:00:21Z</time>
      </trkpt>
      <trkpt lat="41.56121" lon="9.32065">
        <ele>29.46</ele>
        <time>2014-06-05T16:00:22Z</time>
      </trkpt>
      <trkpt lat="41.56126" lon="9.32065">
        <ele>28.98</ele>
        <time>2014-06-05T16:00:23Z</time>
      </trkpt>
      <trkpt lat="41.56131" lon="9.32069">
        <ele>28.98</ele>
        <time>2014-06-05T16:00:24Z</time>
      </trkpt>
      <trkpt lat="41.56135" lon="9.32076">
        <ele>28.98</ele>
        <time>2014-06-05T16:00:25Z</time>
      </trkpt>
      <trkpt lat="41.56138" lon="9.32087">
        <ele>29.46</ele>
        <time>2014-06-05T16:00:26Z</time>
      </trkpt>
      <trkpt lat="41.5614" lon="9.32099">
        <ele>28.98</ele>
        <time>2014-06-05T16:00:27Z</time>
      </trkpt>
      <trkpt lat="41.56143" lon="9.32113">
        <ele>28.98</ele>
        <time>2014-06-05T16:00:28Z</time>
      </trkpt>
      <trkpt lat="41.56144" lon="9.32127">
        <ele>28.5</ele>
        <time>2014-06-05T16:00:29Z</time>
      </trkpt>
      <trkpt lat="41.56145" lon="9.32153">
        <ele>28.02</ele>
        <time>2014-06-05T16:00:31Z</time>
      </trkpt>
      <trkpt lat="41.56145" lon="9.32165">
        <ele>27.53</ele>
        <time>2014-06-05T16:00:32Z</time>
      </trkpt>
      <trkpt lat="41.56142" lon="9.32188">
        <ele>27.53</ele>
        <time>2014-06-05T16:00:34Z</time>
      </trkpt>
      <trkpt lat="41.56139" lon="9.32201">
        <ele>27.05</ele>
        <time>2014-06-05T16:00:35Z</time>
      </trkpt>
      <trkpt lat="41.5613" lon="9.32239">
        <ele>25.61</ele>
        <time>2014-06-05T16:00:38Z</time>
      </trkpt>
      <trkpt lat="41.5613" lon="9.32253">
        <ele>25.13</ele>
        <time>2014-06-05T16:00:39Z</time>
      </trkpt>
      <trkpt lat="41.56138" lon="9.32292">
        <ele>23.69</ele>
        <time>2014-06-05T16:00:42Z</time>
      </trkpt>
      <trkpt lat="41.56141" lon="9.32302">
        <ele>22.73</ele>
        <time>2014-06-05T16:00:43Z</time>
      </trkpt>
      <trkpt lat="41.56146" lon="9.3231">
        <ele>22.25</ele>
        <time>2014-06-05T16:00:44Z</time>
      </trkpt>
      <trkpt lat="41.56151" lon="9.32314">
        <ele>22.25</ele>
        <time>2014-06-05T16:00:45Z</time>
      </trkpt>
      <trkpt lat="41.56158" lon="9.32314">
        <ele>22.73</ele>
        <time>2014-06-05T16:00:46Z</time>
      </trkpt>
      <trkpt lat="41.56168" lon="9.3231">
        <ele>21.29</ele>
        <time>2014-06-05T16:00:47Z</time>
      </trkpt>
      <trkpt lat="41.56176" lon="9.32305">
        <ele>20.32</ele>
        <time>2014-06-05T16:00:48Z</time>
      </trkpt>
      <trkpt lat="41.56184" lon="9.32299">
        <ele>20.32</ele>
        <time>2014-06-05T16:00:49Z</time>
      </trkpt>
      <trkpt lat="41.56191" lon="9.3229">
        <ele>19.36</ele>
        <time>2014-06-05T16:00:50Z</time>
      </trkpt>
      <trkpt lat="41.56197" lon="9.32282">
        <ele>18.4</ele>
        <time>2014-06-05T16:00:51Z</time>
      </trkpt>
      <trkpt lat="41.56204" lon="9.32275">
        <ele>17.44</ele>
        <time>2014-06-05T16:00:52Z</time>
      </trkpt>
      <trkpt lat="41.56211" lon="9.32272">
        <ele>16.48</ele>
        <time>2014-06-05T16:00:53Z</time>
      </trkpt>
      <trkpt lat="41.56217" lon="9.32273">
        <ele>16</ele>
        <time>2014-06-05T16:00:54Z</time>
      </trkpt>
      <trkpt lat="41.56221" lon="9.32278">
        <ele>15.52</ele>
        <time>2014-06-05T16:00:55Z</time>
      </trkpt>
      <trkpt lat="41.56226" lon="9.32288">
        <ele>15.52</ele>
        <time>2014-06-05T16:00:56Z</time>
      </trkpt>
      <trkpt lat="41.56233" lon="9.32301">
        <ele>15.04</ele>
        <time>2014-06-05T16:00:57Z</time>
      </trkpt>
      <trkpt lat="41.56296" lon="9.32413">
        <ele>13.12</ele>
        <time>2014-06-05T16:01:03Z</time>
      </trkpt>
      <trkpt lat="41.5632" lon="9.32444">
        <ele>13.6</ele>
        <time>2014-06-05T16:01:05Z</time>
      </trkpt>
      <trkpt lat="41.56333" lon="9.32457">
        <ele>13.6</ele>
        <time>2014-06-05T16:01:06Z</time>
      </trkpt>
      <trkpt lat="41.56349" lon="9.32468">
        <ele>14.56</ele>
        <time>2014-06-05T16:01:07Z</time>
      </trkpt>
      <trkpt lat="41.56473" lon="9.3256">
        <ele>24.17</ele>
        <time>2014-06-05T16:01:16Z</time>
      </trkpt>
      <trkpt lat="41.56483" lon="9.32572">
        <ele>24.17</ele>
        <time>2014-06-05T16:01:17Z</time>
      </trkpt>
      <trkpt lat="41.56492" lon="9.32588">
        <ele>24.65</ele>
        <time>2014-06-05T16:01:18Z</time>
      </trkpt>
      <trkpt lat="41.56499" lon="9.32604">
        <ele>24.17</ele>
        <time>2014-06-05T16:01:19Z</time>
      </trkpt>
      <trkpt lat="41.56507" lon="9.3262">
        <ele>24.17</ele>
        <time>2014-06-05T16:01:20Z</time>
      </trkpt>
      <trkpt lat="41.56516" lon="9.32635">
        <ele>24.17</ele>
        <time>2014-06-05T16:01:21Z</time>
      </trkpt>
      <trkpt lat="41.56527" lon="9.3265">
        <ele>24.65</ele>
        <time>2014-06-05T16:01:22Z</time>
      </trkpt>
      <trkpt lat="41.56592" lon="9.32746">
        <ele>26.09</ele>
        <time>2014-06-05T16:01:29Z</time>
      </trkpt>
      <trkpt lat="41.56597" lon="9.32759">
        <ele>25.61</ele>
        <time>2014-06-05T16:01:30Z</time>
      </trkpt>
      <trkpt lat="41.566" lon="9.32773">
        <ele>26.09</ele>
        <time>2014-06-05T16:01:31Z</time>
      </trkpt>
      <trkpt lat="41.56601" lon="9.32787">
        <ele>26.09</ele>
        <time>2014-06-05T16:01:32Z</time>
      </trkpt>
      <trkpt lat="41.56601" lon="9.32802">
        <ele>26.57</ele>
        <time>2014-06-05T16:01:33Z</time>
      </trkpt>
      <trkpt lat="41.56604" lon="9.32831">
        <ele>27.05</ele>
        <time>2014-06-05T16:01:35Z</time>
      </trkpt>
      <trkpt lat="41.56611" lon="9.32844">
        <ele>25.61</ele>
        <time>2014-06-05T16:01:36Z</time>
      </trkpt>
      <trkpt lat="41.56618" lon="9.32858">
        <ele>25.61</ele>
        <time>2014-06-05T16:01:37Z</time>
      </trkpt>
      <trkpt lat="41.56629" lon="9.32872">
        <ele>26.09</ele>
        <time>2014-06-05T16:01:38Z</time>
      </trkpt>
      <trkpt lat="41.5664" lon="9.32888">
        <ele>25.61</ele>
        <time>2014-06-05T16:01:39Z</time>
      </trkpt>
      <trkpt lat="41.56732" lon="9.33011">
        <ele>21.77</ele>
        <time>2014-06-05T16:01:47Z</time>
      </trkpt>
      <trkpt lat="41.56744" lon="9.33021">
        <ele>21.77</ele>
        <time>2014-06-05T16:01:48Z</time>
      </trkpt>
      <trkpt lat="41.56757" lon="9.33029">
        <ele>21.29</ele>
        <time>2014-06-05T16:01:49Z</time>
      </trkpt>
      <trkpt lat="41.56772" lon="9.33035">
        <ele>21.29</ele>
        <time>2014-06-05T16:01:50Z</time>
      </trkpt>
      <trkpt lat="41.56789" lon="9.33042">
        <ele>22.25</ele>
        <time>2014-06-05T16:01:51Z</time>
      </trkpt>
      <trkpt lat="41.56905" lon="9.33063">
        <ele>28.5</ele>
        <time>2014-06-05T16:01:58Z</time>
      </trkpt>
      <trkpt lat="41.56965" lon="9.33081">
        <ele>34.26</ele>
        <time>2014-06-05T16:02:02Z</time>
      </trkpt>
      <trkpt lat="41.56972" lon="9.33092">
        <ele>34.26</ele>
        <time>2014-06-05T16:02:03Z</time>
      </trkpt>
      <trkpt lat="41.56978" lon="9.33104">
        <ele>33.78</ele>
        <time>2014-06-05T16:02:04Z</time>
      </trkpt>
      <trkpt lat="41.56982" lon="9.33118">
        <ele>34.74</ele>
        <time>2014-06-05T16:02:05Z</time>
      </trkpt>
      <trkpt lat="41.56986" lon="9.33134">
        <ele>35.23</ele>
        <time>2014-06-05T16:02:06Z</time>
      </trkpt>
      <trkpt lat="41.56989" lon="9.33147">
        <ele>35.23</ele>
        <time>2014-06-05T16:02:07Z</time>
      </trkpt>
      <trkpt lat="41.56995" lon="9.33159">
        <ele>36.19</ele>
        <time>2014-06-05T16:02:08Z</time>
      </trkpt>
      <trkpt lat="41.57003" lon="9.33171">
        <ele>36.67</ele>
        <time>2014-06-05T16:02:09Z</time>
      </trkpt>
      <trkpt lat="41.57012" lon="9.33181">
        <ele>37.63</ele>
        <time>2014-06-05T16:02:10Z</time>
      </trkpt>
      <trkpt lat="41.57023" lon="9.33191">
        <ele>38.11</ele>
        <time>2014-06-05T16:02:11Z</time>
      </trkpt>
      <trkpt lat="41.57035" lon="9.332">
        <ele>37.63</ele>
        <time>2014-06-05T16:02:12Z</time>
      </trkpt>
      <trkpt lat="41.57047" lon="9.33208">
        <ele>37.15</ele>
        <time>2014-06-05T16:02:13Z</time>
      </trkpt>
      <trkpt lat="41.5706" lon="9.33216">
        <ele>36.19</ele>
        <time>2014-06-05T16:02:14Z</time>
      </trkpt>
      <trkpt lat="41.57073" lon="9.33225">
        <ele>34.74</ele>
        <time>2014-06-05T16:02:15Z</time>
      </trkpt>
      <trkpt lat="41.57085" lon="9.33235">
        <ele>33.3</ele>
        <time>2014-06-05T16:02:16Z</time>
      </trkpt>
      <trkpt lat="41.57095" lon="9.33248">
        <ele>32.34</ele>
        <time>2014-06-05T16:02:17Z</time>
      </trkpt>
      <trkpt lat="41.57107" lon="9.33262">
        <ele>30.9</ele>
        <time>2014-06-05T16:02:18Z</time>
      </trkpt>
      <trkpt lat="41.57117" lon="9.33277">
        <ele>29.94</ele>
        <time>2014-06-05T16:02:19Z</time>
      </trkpt>
      <trkpt lat="41.57126" lon="9.33293">
        <ele>28.98</ele>
        <time>2014-06-05T16:02:20Z</time>
      </trkpt>
      <trkpt lat="41.57143" lon="9.33328">
        <ele>27.53</ele>
        <time>2014-06-05T16:02:22Z</time>
      </trkpt>
      <trkpt lat="41.57149" lon="9.33345">
        <ele>26.57</ele>
        <time>2014-06-05T16:02:23Z</time>
      </trkpt>
      <trkpt lat="41.57155" lon="9.33362">
        <ele>26.09</ele>
        <time>2014-06-05T16:02:24Z</time>
      </trkpt>
      <trkpt lat="41.57172" lon="9.33429">
        <ele>25.13</ele>
        <time>2014-06-05T16:02:28Z</time>
      </trkpt>
      <trkpt lat="41.57177" lon="9.33442">
        <ele>25.13</ele>
        <time>2014-06-05T16:02:29Z</time>
      </trkpt>
      <trkpt lat="41.57184" lon="9.33454">
        <ele>26.09</ele>
        <time>2014-06-05T16:02:30Z</time>
      </trkpt>
      <trkpt lat="41.57193" lon="9.33464">
        <ele>26.09</ele>
        <time>2014-06-05T16:02:31Z</time>
      </trkpt>
      <trkpt lat="41.57204" lon="9.33472">
        <ele>26.09</ele>
        <time>2014-06-05T16:02:32Z</time>
      </trkpt>
      <trkpt lat="41.57218" lon="9.33477">
        <ele>27.05</ele>
        <time>2014-06-05T16:02:33Z</time>
      </trkpt>
      <trkpt lat="41.57233" lon="9.33482">
        <ele>27.53</ele>
        <time>2014-06-05T16:02:34Z</time>
      </trkpt>
      <trkpt lat="41.57275" lon="9.33503">
        <ele>28.98</ele>
        <time>2014-06-05T16:02:37Z</time>
      </trkpt>
      <trkpt lat="41.57316" lon="9.33532">
        <ele>30.9</ele>
        <time>2014-06-05T16:02:40Z</time>
      </trkpt>
      <trkpt lat="41.57332" lon="9.33539">
        <ele>32.34</ele>
        <time>2014-06-05T16:02:41Z</time>
      </trkpt>
      <trkpt lat="41.57348" lon="9.33545">
        <ele>33.3</ele>
        <time>2014-06-05T16:02:42Z</time>
      </trkpt>
      <trkpt lat="41.57443" lon="9.33584">
        <ele>37.63</ele>
        <time>2014-06-05T16:02:49Z</time>
      </trkpt>
      <trkpt lat="41.57591" lon="9.33642">
        <ele>41.47</ele>
        <time>2014-06-05T16:03:00Z</time>
      </trkpt>
      <trkpt lat="41.5765" lon="9.33671">
        <ele>43.88</ele>
        <time>2014-06-05T16:03:04Z</time>
      </trkpt>
      <trkpt lat="41.57665" lon="9.33675">
        <ele>43.88</ele>
        <time>2014-06-05T16:03:05Z</time>
      </trkpt>
      <trkpt lat="41.57707" lon="9.3368">
        <ele>46.76</ele>
        <time>2014-06-05T16:03:08Z</time>
      </trkpt>
      <trkpt lat="41.5772" lon="9.3368">
        <ele>47.72</ele>
        <time>2014-06-05T16:03:09Z</time>
      </trkpt>
      <trkpt lat="41.57747" lon="9.33679">
        <ele>48.2</ele>
        <time>2014-06-05T16:03:11Z</time>
      </trkpt>
      <trkpt lat="41.5776" lon="9.33686">
        <ele>48.68</ele>
        <time>2014-06-05T16:03:12Z</time>
      </trkpt>
      <trkpt lat="41.57775" lon="9.33694">
        <ele>48.2</ele>
        <time>2014-06-05T16:03:13Z</time>
      </trkpt>
      <trkpt lat="41.57791" lon="9.33706">
        <ele>48.2</ele>
        <time>2014-06-05T16:03:14Z</time>
      </trkpt>
      <trkpt lat="41.57807" lon="9.3372">
        <ele>47.24</ele>
        <time>2014-06-05T16:03:15Z</time>
      </trkpt>
      <trkpt lat="41.57911" lon="9.33835">
        <ele>45.32</ele>
        <time>2014-06-05T16:03:23Z</time>
      </trkpt>
      <trkpt lat="41.57986" lon="9.33941">
        <ele>46.76</ele>
        <time>2014-06-05T16:03:31Z</time>
      </trkpt>
      <trkpt lat="41.58037" lon="9.33997">
        <ele>45.8</ele>
        <time>2014-06-05T16:03:37Z</time>
      </trkpt>
      <trkpt lat="41.58045" lon="9.34">
        <ele>44.84</ele>
        <time>2014-06-05T16:03:38Z</time>
      </trkpt>
      <trkpt lat="41.58055" lon="9.34">
        <ele>44.36</ele>
        <time>2014-06-05T16:03:39Z</time>
      </trkpt>
      <trkpt lat="41.58067" lon="9.33996">
        <ele>41.95</ele>
        <time>2014-06-05T16:03:40Z</time>
      </trkpt>
      <trkpt lat="41.58081" lon="9.33993">
        <ele>40.03</ele>
        <time>2014-06-05T16:03:41Z</time>
      </trkpt>
      <trkpt lat="41.58121" lon="9.33978">
        <ele>37.63</ele>
        <time>2014-06-05T16:03:44Z</time>
      </trkpt>
      <trkpt lat="41.58132" lon="9.33969">
        <ele>36.19</ele>
        <time>2014-06-05T16:03:45Z</time>
      </trkpt>
      <trkpt lat="41.58142" lon="9.33958">
        <ele>35.23</ele>
        <time>2014-06-05T16:03:46Z</time>
      </trkpt>
      <trkpt lat="41.58161" lon="9.3394">
        <ele>32.82</ele>
        <time>2014-06-05T16:03:48Z</time>
      </trkpt>
      <trkpt lat="41.58171" lon="9.33934">
        <ele>31.86</ele>
        <time>2014-06-05T16:03:49Z</time>
      </trkpt>
      <trkpt lat="41.58181" lon="9.33933">
        <ele>31.38</ele>
        <time>2014-06-05T16:03:50Z</time>
      </trkpt>
      <trkpt lat="41.58192" lon="9.33935">
        <ele>29.46</ele>
        <time>2014-06-05T16:03:51Z</time>
      </trkpt>
      <trkpt lat="41.58204" lon="9.33939">
        <ele>28.98</ele>
        <time>2014-06-05T16:03:52Z</time>
      </trkpt>
      <trkpt lat="41.58217" lon="9.33944">
        <ele>28.5</ele>
        <time>2014-06-05T16:03:53Z</time>
      </trkpt>
      <trkpt lat="41.5824" lon="9.33951">
        <ele>27.05</ele>
        <time>2014-06-05T16:03:55Z</time>
      </trkpt>
      <trkpt lat="41.58252" lon="9.33952">
        <ele>26.09</ele>
        <time>2014-06-05T16:03:56Z</time>
      </trkpt>
      <trkpt lat="41.58265" lon="9.3395">
        <ele>25.61</ele>
        <time>2014-06-05T16:03:57Z</time>
      </trkpt>
      <trkpt lat="41.58278" lon="9.33946">
        <ele>26.09</ele>
        <time>2014-06-05T16:03:58Z</time>
      </trkpt>
      <trkpt lat="41.5829" lon="9.33941">
        <ele>26.09</ele>
        <time>2014-06-05T16:03:59Z</time>
      </trkpt>
      <trkpt lat="41.58314" lon="9.33931">
        <ele>26.57</ele>
        <time>2014-06-05T16:04:01Z</time>
      </trkpt>
      <trkpt lat="41.58326" lon="9.33922">
        <ele>26.57</ele>
        <time>2014-06-05T16:04:02Z</time>
      </trkpt>
      <trkpt lat="41.58338" lon="9.33912">
        <ele>26.57</ele>
        <time>2014-06-05T16:04:03Z</time>
      </trkpt>
      <trkpt lat="41.58431" lon="9.33824">
        <ele>28.98</ele>
        <time>2014-06-05T16:04:11Z</time>
      </trkpt>
      <trkpt lat="41.58446" lon="9.33815">
        <ele>29.46</ele>
        <time>2014-06-05T16:04:12Z</time>
      </trkpt>
      <trkpt lat="41.58569" lon="9.33749">
        <ele>28.98</ele>
        <time>2014-06-05T16:04:20Z</time>
      </trkpt>
      <trkpt lat="41.58591" lon="9.33734">
        <ele>30.9</ele>
        <time>2014-06-05T16:04:22Z</time>
      </trkpt>
      <trkpt lat="41.58618" lon="9.33709">
        <ele>30.9</ele>
        <time>2014-06-05T16:04:25Z</time>
      </trkpt>
      <trkpt lat="41.58629" lon="9.33705">
        <ele>30.42</ele>
        <time>2014-06-05T16:04:26Z</time>
      </trkpt>
      <trkpt lat="41.5864" lon="9.33704">
        <ele>32.82</ele>
        <time>2014-06-05T16:04:27Z</time>
      </trkpt>
      <trkpt lat="41.5865" lon="9.33703">
        <ele>33.3</ele>
        <time>2014-06-05T16:04:28Z</time>
      </trkpt>
      <trkpt lat="41.58661" lon="9.33703">
        <ele>33.78</ele>
        <time>2014-06-05T16:04:29Z</time>
      </trkpt>
      <trkpt lat="41.58672" lon="9.33701">
        <ele>34.74</ele>
        <time>2014-06-05T16:04:30Z</time>
      </trkpt>
      <trkpt lat="41.58718" lon="9.33683">
        <ele>37.15</ele>
        <time>2014-06-05T16:04:35Z</time>
      </trkpt>
      <trkpt lat="41.58725" lon="9.33675">
        <ele>37.63</ele>
        <time>2014-06-05T16:04:36Z</time>
      </trkpt>
      <trkpt lat="41.58731" lon="9.33665">
        <ele>37.63</ele>
        <time>2014-06-05T16:04:37Z</time>
      </trkpt>
      <trkpt lat="41.58737" lon="9.33652">
        <ele>37.15</ele>
        <time>2014-06-05T16:04:38Z</time>
      </trkpt>
      <trkpt lat="41.58741" lon="9.33639">
        <ele>37.15</ele>
        <time>2014-06-05T16:04:39Z</time>
      </trkpt>
      <trkpt lat="41.58744" lon="9.33623">
        <ele>36.19</ele>
        <time>2014-06-05T16:04:40Z</time>
      </trkpt>
      <trkpt lat="41.58748" lon="9.33609">
        <ele>36.19</ele>
        <time>2014-06-05T16:04:41Z</time>
      </trkpt>
      <trkpt lat="41.58751" lon="9.33594">
        <ele>34.74</ele>
        <time>2014-06-05T16:04:42Z</time>
      </trkpt>
      <trkpt lat="41.58758" lon="9.33567">
        <ele>33.3</ele>
        <time>2014-06-05T16:04:44Z</time>
      </trkpt>
      <trkpt lat="41.58762" lon="9.33554">
        <ele>33.3</ele>
        <time>2014-06-05T16:04:45Z</time>
      </trkpt>
      <trkpt lat="41.58767" lon="9.33543">
        <ele>32.82</ele>
        <time>2014-06-05T16:04:46Z</time>
      </trkpt>
      <trkpt lat="41.58773" lon="9.33531">
        <ele>32.82</ele>
        <time>2014-06-05T16:04:47Z</time>
      </trkpt>
      <trkpt lat="41.58782" lon="9.33521">
        <ele>32.34</ele>
        <time>2014-06-05T16:04:48Z</time>
      </trkpt>
      <trkpt lat="41.5879" lon="9.33511">
        <ele>32.34</ele>
        <time>2014-06-05T16:04:49Z</time>
      </trkpt>
      <trkpt lat="41.58798" lon="9.33503">
        <ele>32.82</ele>
        <time>2014-06-05T16:04:50Z</time>
      </trkpt>
      <trkpt lat="41.58836" lon="9.33462">
        <ele>32.34</ele>
        <time>2014-06-05T16:04:57Z</time>
      </trkpt>
      <trkpt lat="41.58896" lon="9.3338">
        <ele>29.46</ele>
        <time>2014-06-05T16:05:04Z</time>
      </trkpt>
      <trkpt lat="41.58906" lon="9.33367">
        <ele>30.9</ele>
        <time>2014-06-05T16:05:05Z</time>
      </trkpt>
      <trkpt lat="41.58953" lon="9.33285">
        <ele>31.86</ele>
        <time>2014-06-05T16:05:11Z</time>
      </trkpt>
      <trkpt lat="41.5897" lon="9.33238">
        <ele>32.82</ele>
        <time>2014-06-05T16:05:17Z</time>
      </trkpt>
      <trkpt lat="41.59001" lon="9.33128">
        <ele>32.34</ele>
        <time>2014-06-05T16:05:26Z</time>
      </trkpt>
      <trkpt lat="41.59023" lon="9.33068">
        <ele>29.94</ele>
        <time>2014-06-05T16:05:33Z</time>
      </trkpt>
      <trkpt lat="41.59068" lon="9.32979">
        <ele>29.46</ele>
        <time>2014-06-05T16:05:40Z</time>
      </trkpt>
      <trkpt lat="41.59081" lon="9.32968">
        <ele>29.46</ele>
        <time>2014-06-05T16:05:41Z</time>
      </trkpt>
      <trkpt lat="41.59121" lon="9.32928">
        <ele>31.38</ele>
        <time>2014-06-05T16:05:44Z</time>
      </trkpt>
      <trkpt lat="41.59132" lon="9.32912">
        <ele>32.82</ele>
        <time>2014-06-05T16:05:45Z</time>
      </trkpt>
      <trkpt lat="41.59179" lon="9.32832">
        <ele>33.78</ele>
        <time>2014-06-05T16:05:50Z</time>
      </trkpt>
      <trkpt lat="41.59186" lon="9.32812">
        <ele>33.3</ele>
        <time>2014-06-05T16:05:51Z</time>
      </trkpt>
      <trkpt lat="41.59191" lon="9.32791">
        <ele>32.34</ele>
        <time>2014-06-05T16:05:52Z</time>
      </trkpt>
      <trkpt lat="41.59196" lon="9.32769">
        <ele>31.86</ele>
        <time>2014-06-05T16:05:53Z</time>
      </trkpt>
      <trkpt lat="41.592" lon="9.32748">
        <ele>31.38</ele>
        <time>2014-06-05T16:05:54Z</time>
      </trkpt>
      <trkpt lat="41.59205" lon="9.32729">
        <ele>31.38</ele>
        <time>2014-06-05T16:05:55Z</time>
      </trkpt>
      <trkpt lat="41.59212" lon="9.3271">
        <ele>30.9</ele>
        <time>2014-06-05T16:05:56Z</time>
      </trkpt>
      <trkpt lat="41.59275" lon="9.32565">
        <ele>29.94</ele>
        <time>2014-06-05T16:06:04Z</time>
      </trkpt>
      <trkpt lat="41.59289" lon="9.32535">
        <ele>28.98</ele>
        <time>2014-06-05T16:06:06Z</time>
      </trkpt>
      <trkpt lat="41.59298" lon="9.32523">
        <ele>28.98</ele>
        <time>2014-06-05T16:06:07Z</time>
      </trkpt>
      <trkpt lat="41.59312" lon="9.32517">
        <ele>29.46</ele>
        <time>2014-06-05T16:06:08Z</time>
      </trkpt>
      <trkpt lat="41.59326" lon="9.32512">
        <ele>30.42</ele>
        <time>2014-06-05T16:06:09Z</time>
      </trkpt>
      <trkpt lat="41.59339" lon="9.32504">
        <ele>31.38</ele>
        <time>2014-06-05T16:06:10Z</time>
      </trkpt>
      <trkpt lat="41.59352" lon="9.32497">
        <ele>33.3</ele>
        <time>2014-06-05T16:06:11Z</time>
      </trkpt>
      <trkpt lat="41.59364" lon="9.32486">
        <ele>35.71</ele>
        <time>2014-06-05T16:06:12Z</time>
      </trkpt>
      <trkpt lat="41.59374" lon="9.32475">
        <ele>36.67</ele>
        <time>2014-06-05T16:06:13Z</time>
      </trkpt>
      <trkpt lat="41.59385" lon="9.32464">
        <ele>36.67</ele>
        <time>2014-06-05T16:06:14Z</time>
      </trkpt>
      <trkpt lat="41.59397" lon="9.32455">
        <ele>36.19</ele>
        <time>2014-06-05T16:06:15Z</time>
      </trkpt>
      <trkpt lat="41.59422" lon="9.32433">
        <ele>37.63</ele>
        <time>2014-06-05T16:06:17Z</time>
      </trkpt>
      <trkpt lat="41.59433" lon="9.32418">
        <ele>38.11</ele>
        <time>2014-06-05T16:06:18Z</time>
      </trkpt>
      <trkpt lat="41.59444" lon="9.32401">
        <ele>39.07</ele>
        <time>2014-06-05T16:06:19Z</time>
      </trkpt>
      <trkpt lat="41.59473" lon="9.32359">
        <ele>40.03</ele>
        <time>2014-06-05T16:06:22Z</time>
      </trkpt>
      <trkpt lat="41.59484" lon="9.32347">
        <ele>40.51</ele>
        <time>2014-06-05T16:06:23Z</time>
      </trkpt>
      <trkpt lat="41.59497" lon="9.32337">
        <ele>40.99</ele>
        <time>2014-06-05T16:06:24Z</time>
      </trkpt>
      <trkpt lat="41.59509" lon="9.3233">
        <ele>41.95</ele>
        <time>2014-06-05T16:06:25Z</time>
      </trkpt>
      <trkpt lat="41.59521" lon="9.32323">
        <ele>41.95</ele>
        <time>2014-06-05T16:06:26Z</time>
      </trkpt>
      <trkpt lat="41.59532" lon="9.3232">
        <ele>41.95</ele>
        <time>2014-06-05T16:06:27Z</time>
      </trkpt>
      <trkpt lat="41.59542" lon="9.32322">
        <ele>40.51</ele>
        <time>2014-06-05T16:06:28Z</time>
      </trkpt>
      <trkpt lat="41.59549" lon="9.32329">
        <ele>39.55</ele>
        <time>2014-06-05T16:06:29Z</time>
      </trkpt>
      <trkpt lat="41.59555" lon="9.32341">
        <ele>39.07</ele>
        <time>2014-06-05T16:06:30Z</time>
      </trkpt>
      <trkpt lat="41.5956" lon="9.32356">
        <ele>39.55</ele>
        <time>2014-06-05T16:06:31Z</time>
      </trkpt>
      <trkpt lat="41.59564" lon="9.32372">
        <ele>40.03</ele>
        <time>2014-06-05T16:06:32Z</time>
      </trkpt>
      <trkpt lat="41.59567" lon="9.32387">
        <ele>40.99</ele>
        <time>2014-06-05T16:06:33Z</time>
      </trkpt>
      <trkpt lat="41.59571" lon="9.32403">
        <ele>41.95</ele>
        <time>2014-06-05T16:06:34Z</time>
      </trkpt>
      <trkpt lat="41.59578" lon="9.32418">
        <ele>42.44</ele>
        <time>2014-06-05T16:06:35Z</time>
      </trkpt>
      <trkpt lat="41.59586" lon="9.32433">
        <ele>43.4</ele>
        <time>2014-06-05T16:06:36Z</time>
      </trkpt>
      <trkpt lat="41.59594" lon="9.32447">
        <ele>43.88</ele>
        <time>2014-06-05T16:06:37Z</time>
      </trkpt>
      <trkpt lat="41.59605" lon="9.3246">
        <ele>44.36</ele>
        <time>2014-06-05T16:06:38Z</time>
      </trkpt>
      <trkpt lat="41.59618" lon="9.32472">
        <ele>46.28</ele>
        <time>2014-06-05T16:06:39Z</time>
      </trkpt>
      <trkpt lat="41.59632" lon="9.32481">
        <ele>47.72</ele>
        <time>2014-06-05T16:06:40Z</time>
      </trkpt>
      <trkpt lat="41.59647" lon="9.32487">
        <ele>49.16</ele>
        <time>2014-06-05T16:06:41Z</time>
      </trkpt>
      <trkpt lat="41.59661" lon="9.32492">
        <ele>50.61</ele>
        <time>2014-06-05T16:06:42Z</time>
      </trkpt>
      <trkpt lat="41.59674" lon="9.32494">
        <ele>51.09</ele>
        <time>2014-06-05T16:06:43Z</time>
      </trkpt>
      <trkpt lat="41.59687" lon="9.32495">
        <ele>52.53</ele>
        <time>2014-06-05T16:06:44Z</time>
      </trkpt>
      <trkpt lat="41.59701" lon="9.32493">
        <ele>53.97</ele>
        <time>2014-06-05T16:06:45Z</time>
      </trkpt>
      <trkpt lat="41.59715" lon="9.3249">
        <ele>54.93</ele>
        <time>2014-06-05T16:06:46Z</time>
      </trkpt>
      <trkpt lat="41.59738" lon="9.32481">
        <ele>56.37</ele>
        <time>2014-06-05T16:06:48Z</time>
      </trkpt>
      <trkpt lat="41.59747" lon="9.32474">
        <ele>56.86</ele>
        <time>2014-06-05T16:06:49Z</time>
      </trkpt>
      <trkpt lat="41.59753" lon="9.32466">
        <ele>57.82</ele>
        <time>2014-06-05T16:06:50Z</time>
      </trkpt>
      <trkpt lat="41.59757" lon="9.32454">
        <ele>58.78</ele>
        <time>2014-06-05T16:06:51Z</time>
      </trkpt>
      <trkpt lat="41.59759" lon="9.32441">
        <ele>60.22</ele>
        <time>2014-06-05T16:06:52Z</time>
      </trkpt>
      <trkpt lat="41.5976" lon="9.32425">
        <ele>61.18</ele>
        <time>2014-06-05T16:06:53Z</time>
      </trkpt>
      <trkpt lat="41.59762" lon="9.32389">
        <ele>62.62</ele>
        <time>2014-06-05T16:06:55Z</time>
      </trkpt>
      <trkpt lat="41.5977" lon="9.32331">
        <ele>66.95</ele>
        <time>2014-06-05T16:06:58Z</time>
      </trkpt>
      <trkpt lat="41.5977" lon="9.32311">
        <ele>67.91</ele>
        <time>2014-06-05T16:06:59Z</time>
      </trkpt>
      <trkpt lat="41.59767" lon="9.3229">
        <ele>68.87</ele>
        <time>2014-06-05T16:07:00Z</time>
      </trkpt>
      <trkpt lat="41.59752" lon="9.32126">
        <ele>75.12</ele>
        <time>2014-06-05T16:07:06Z</time>
      </trkpt>
      <trkpt lat="41.59726" lon="9.32006">
        <ele>79.93</ele>
        <time>2014-06-05T16:07:11Z</time>
      </trkpt>
      <trkpt lat="41.59717" lon="9.31985">
        <ele>80.89</ele>
        <time>2014-06-05T16:07:12Z</time>
      </trkpt>
      <trkpt lat="41.59604" lon="9.3177">
        <ele>78</ele>
        <time>2014-06-05T16:07:22Z</time>
      </trkpt>
      <trkpt lat="41.59519" lon="9.31638">
        <ele>75.6</ele>
        <time>2014-06-05T16:07:29Z</time>
      </trkpt>
      <trkpt lat="41.59411" lon="9.31542">
        <ele>71.76</ele>
        <time>2014-06-05T16:07:37Z</time>
      </trkpt>
      <trkpt lat="41.59398" lon="9.31534">
        <ele>71.76</ele>
        <time>2014-06-05T16:07:38Z</time>
      </trkpt>
      <trkpt lat="41.59384" lon="9.3153">
        <ele>72.24</ele>
        <time>2014-06-05T16:07:39Z</time>
      </trkpt>
      <trkpt lat="41.59315" lon="9.31514">
        <ele>71.76</ele>
        <time>2014-06-05T16:07:44Z</time>
      </trkpt>
      <trkpt lat="41.59302" lon="9.31505">
        <ele>71.76</ele>
        <time>2014-06-05T16:07:45Z</time>
      </trkpt>
      <trkpt lat="41.59291" lon="9.31492">
        <ele>71.27</ele>
        <time>2014-06-05T16:07:46Z</time>
      </trkpt>
      <trkpt lat="41.5928" lon="9.31477">
        <ele>70.79</ele>
        <time>2014-06-05T16:07:47Z</time>
      </trkpt>
      <trkpt lat="41.59269" lon="9.31459">
        <ele>70.31</ele>
        <time>2014-06-05T16:07:48Z</time>
      </trkpt>
      <trkpt lat="41.59195" lon="9.31347">
        <ele>66.47</ele>
        <time>2014-06-05T16:07:54Z</time>
      </trkpt>
      <trkpt lat="41.59161" lon="9.31307">
        <ele>63.58</ele>
        <time>2014-06-05T16:07:57Z</time>
      </trkpt>
      <trkpt lat="41.59154" lon="9.31294">
        <ele>63.1</ele>
        <time>2014-06-05T16:07:58Z</time>
      </trkpt>
      <trkpt lat="41.5915" lon="9.3128">
        <ele>63.1</ele>
        <time>2014-06-05T16:07:59Z</time>
      </trkpt>
      <trkpt lat="41.59149" lon="9.31265">
        <ele>63.58</ele>
        <time>2014-06-05T16:08:00Z</time>
      </trkpt>
      <trkpt lat="41.59149" lon="9.31248">
        <ele>62.14</ele>
        <time>2014-06-05T16:08:01Z</time>
      </trkpt>
      <trkpt lat="41.59147" lon="9.31229">
        <ele>61.66</ele>
        <time>2014-06-05T16:08:02Z</time>
      </trkpt>
      <trkpt lat="41.59143" lon="9.31209">
        <ele>60.7</ele>
        <time>2014-06-05T16:08:03Z</time>
      </trkpt>
      <trkpt lat="41.59137" lon="9.3119">
        <ele>60.22</ele>
        <time>2014-06-05T16:08:04Z</time>
      </trkpt>
      <trkpt lat="41.59129" lon="9.3117">
        <ele>59.26</ele>
        <time>2014-06-05T16:08:05Z</time>
      </trkpt>
      <trkpt lat="41.59119" lon="9.31148">
        <ele>58.78</ele>
        <time>2014-06-05T16:08:06Z</time>
      </trkpt>
      <trkpt lat="41.59026" lon="9.30976">
        <ele>49.65</ele>
        <time>2014-06-05T16:08:15Z</time>
      </trkpt>
      <trkpt lat="41.59" lon="9.30937">
        <ele>47.24</ele>
        <time>2014-06-05T16:08:18Z</time>
      </trkpt>
      <trkpt lat="41.58997" lon="9.30921">
        <ele>46.76</ele>
        <time>2014-06-05T16:08:19Z</time>
      </trkpt>
      <trkpt lat="41.58997" lon="9.30903">
        <ele>45.8</ele>
        <time>2014-06-05T16:08:20Z</time>
      </trkpt>
      <trkpt lat="41.58996" lon="9.30869">
        <ele>44.84</ele>
        <time>2014-06-05T16:08:22Z</time>
      </trkpt>
      <trkpt lat="41.58995" lon="9.30851">
        <ele>43.88</ele>
        <time>2014-06-05T16:08:23Z</time>
      </trkpt>
      <trkpt lat="41.58992" lon="9.30833">
        <ele>42.44</ele>
        <time>2014-06-05T16:08:24Z</time>
      </trkpt>
      <trkpt lat="41.58988" lon="9.30815">
        <ele>40.51</ele>
        <time>2014-06-05T16:08:25Z</time>
      </trkpt>
      <trkpt lat="41.58982" lon="9.30797">
        <ele>40.03</ele>
        <time>2014-06-05T16:08:26Z</time>
      </trkpt>
      <trkpt lat="41.58973" lon="9.30777">
        <ele>39.07</ele>
        <time>2014-06-05T16:08:27Z</time>
      </trkpt>
      <trkpt lat="41.58961" lon="9.30757">
        <ele>39.07</ele>
        <time>2014-06-05T16:08:28Z</time>
      </trkpt>
      <trkpt lat="41.58948" lon="9.30735">
        <ele>38.11</ele>
        <time>2014-06-05T16:08:29Z</time>
      </trkpt>
      <trkpt lat="41.58843" lon="9.30557">
        <ele>30.9</ele>
        <time>2014-06-05T16:08:37Z</time>
      </trkpt>
      <trkpt lat="41.58775" lon="9.30398">
        <ele>28.5</ele>
        <time>2014-06-05T16:08:44Z</time>
      </trkpt>
      <trkpt lat="41.58711" lon="9.30246">
        <ele>31.38</ele>
        <time>2014-06-05T16:08:53Z</time>
      </trkpt>
      <trkpt lat="41.58677" lon="9.30169">
        <ele>27.05</ele>
        <time>2014-06-05T16:09:01Z</time>
      </trkpt>
      <trkpt lat="41.58659" lon="9.30134">
        <ele>22.73</ele>
        <time>2014-06-05T16:09:04Z</time>
      </trkpt>
      <trkpt lat="41.58648" lon="9.30125">
        <ele>22.25</ele>
        <time>2014-06-05T16:09:05Z</time>
      </trkpt>
      <trkpt lat="41.58639" lon="9.30118">
        <ele>21.77</ele>
        <time>2014-06-05T16:09:06Z</time>
      </trkpt>
      <trkpt lat="41.58631" lon="9.30113">
        <ele>20.81</ele>
        <time>2014-06-05T16:09:07Z</time>
      </trkpt>
      <trkpt lat="41.58623" lon="9.3011">
        <ele>20.32</ele>
        <time>2014-06-05T16:09:08Z</time>
      </trkpt>
      <trkpt lat="41.58565" lon="9.30082">
        <ele>14.56</ele>
        <time>2014-06-05T16:09:17Z</time>
      </trkpt>
      <trkpt lat="41.58519" lon="9.30058">
        <ele>7.83</ele>
        <time>2014-06-05T16:09:24Z</time>
      </trkpt>
      <trkpt lat="41.58464" lon="9.30027">
        <ele>4.94</ele>
        <time>2014-06-05T16:09:30Z</time>
      </trkpt>
      <trkpt lat="41.58366" lon="9.29956">
        <ele>3.02</ele>
        <time>2014-06-05T16:09:38Z</time>
      </trkpt>
      <trkpt lat="41.58277" lon="9.29873">
        <ele>0.14</ele>
        <time>2014-06-05T16:09:45Z</time>
      </trkpt>
      <trkpt lat="41.58237" lon="9.29824">
        <ele>-1.79</ele>
        <time>2014-06-05T16:09:49Z</time>
      </trkpt>
      <trkpt lat="41.58226" lon="9.29812">
        <ele>-2.27</ele>
        <time>2014-06-05T16:09:50Z</time>
      </trkpt>
      <trkpt lat="41.58213" lon="9.29798">
        <ele>-3.23</ele>
        <time>2014-06-05T16:09:51Z</time>
      </trkpt>
      <trkpt lat="41.58198" lon="9.29788">
        <ele>-3.71</ele>
        <time>2014-06-05T16:09:52Z</time>
      </trkpt>
      <trkpt lat="41.58184" lon="9.29779">
        <ele>-3.71</ele>
        <time>2014-06-05T16:09:53Z</time>
      </trkpt>
      <trkpt lat="41.58171" lon="9.29769">
        <ele>-3.71</ele>
        <time>2014-06-05T16:09:54Z</time>
      </trkpt>
      <trkpt lat="41.5816" lon="9.29759">
        <ele>-3.71</ele>
        <time>2014-06-05T16:09:55Z</time>
      </trkpt>
      <trkpt lat="41.58151" lon="9.29748">
        <ele>-2.75</ele>
        <time>2014-06-05T16:09:56Z</time>
      </trkpt>
      <trkpt lat="41.58132" lon="9.29724">
        <ele>-3.23</ele>
        <time>2014-06-05T16:09:58Z</time>
      </trkpt>
      <trkpt lat="41.58122" lon="9.29714">
        <ele>-4.19</ele>
        <time>2014-06-05T16:09:59Z</time>
      </trkpt>
      <trkpt lat="41.5811" lon="9.29707">
        <ele>-4.19</ele>
        <time>2014-06-05T16:10:00Z</time>
      </trkpt>
      <trkpt lat="41.58098" lon="9.29701">
        <ele>-4.67</ele>
        <time>2014-06-05T16:10:01Z</time>
      </trkpt>
      <trkpt lat="41.58084" lon="9.29696">
        <ele>-4.67</ele>
        <time>2014-06-05T16:10:02Z</time>
      </trkpt>
      <trkpt lat="41.58015" lon="9.29677">
        <ele>-3.23</ele>
        <time>2014-06-05T16:10:07Z</time>
      </trkpt>
      <trkpt lat="41.58003" lon="9.2968">
        <ele>-2.75</ele>
        <time>2014-06-05T16:10:08Z</time>
      </trkpt>
      <trkpt lat="41.57991" lon="9.29686">
        <ele>-1.79</ele>
        <time>2014-06-05T16:10:09Z</time>
      </trkpt>
      <trkpt lat="41.57968" lon="9.29693">
        <ele>-1.3</ele>
        <time>2014-06-05T16:10:11Z</time>
      </trkpt>
      <trkpt lat="41.57957" lon="9.29692">
        <ele>-0.82</ele>
        <time>2014-06-05T16:10:12Z</time>
      </trkpt>
      <trkpt lat="41.57946" lon="9.29687">
        <ele>-0.82</ele>
        <time>2014-06-05T16:10:13Z</time>
      </trkpt>
      <trkpt lat="41.57935" lon="9.2968">
        <ele>-0.34</ele>
        <time>2014-06-05T16:10:14Z</time>
      </trkpt>
      <trkpt lat="41.57924" lon="9.2967">
        <ele>-0.34</ele>
        <time>2014-06-05T16:10:15Z</time>
      </trkpt>
      <trkpt lat="41.57913" lon="9.29659">
        <ele>-0.34</ele>
        <time>2014-06-05T16:10:16Z</time>
      </trkpt>
      <trkpt lat="41.57903" lon="9.29647">
        <ele>-0.34</ele>
        <time>2014-06-05T16:10:17Z</time>
      </trkpt>
      <trkpt lat="41.57884" lon="9.29622">
        <ele>-0.82</ele>
        <time>2014-06-05T16:10:19Z</time>
      </trkpt>
      <trkpt lat="41.57878" lon="9.29608">
        <ele>-0.34</ele>
        <time>2014-06-05T16:10:20Z</time>
      </trkpt>
      <trkpt lat="41.57874" lon="9.29595">
        <ele>-0.82</ele>
        <time>2014-06-05T16:10:21Z</time>
      </trkpt>
      <trkpt lat="41.57864" lon="9.29554">
        <ele>-1.79</ele>
        <time>2014-06-05T16:10:24Z</time>
      </trkpt>
      <trkpt lat="41.57859" lon="9.2954">
        <ele>-1.3</ele>
        <time>2014-06-05T16:10:25Z</time>
      </trkpt>
      <trkpt lat="41.57852" lon="9.29525">
        <ele>-1.3</ele>
        <time>2014-06-05T16:10:26Z</time>
      </trkpt>
      <trkpt lat="41.57811" lon="9.29431">
        <ele>-3.23</ele>
        <time>2014-06-05T16:10:32Z</time>
      </trkpt>
      <trkpt lat="41.57801" lon="9.2942">
        <ele>-2.75</ele>
        <time>2014-06-05T16:10:33Z</time>
      </trkpt>
      <trkpt lat="41.5779" lon="9.29413">
        <ele>-2.27</ele>
        <time>2014-06-05T16:10:34Z</time>
      </trkpt>
      <trkpt lat="41.57764" lon="9.29397">
        <ele>-1.79</ele>
        <time>2014-06-05T16:10:36Z</time>
      </trkpt>
      <trkpt lat="41.57752" lon="9.29387">
        <ele>-1.79</ele>
        <time>2014-06-05T16:10:37Z</time>
      </trkpt>
      <trkpt lat="41.57741" lon="9.29376">
        <ele>-2.27</ele>
        <time>2014-06-05T16:10:38Z</time>
      </trkpt>
      <trkpt lat="41.5773" lon="9.29365">
        <ele>-1.79</ele>
        <time>2014-06-05T16:10:39Z</time>
      </trkpt>
      <trkpt lat="41.57721" lon="9.29353">
        <ele>-2.27</ele>
        <time>2014-06-05T16:10:40Z</time>
      </trkpt>
      <trkpt lat="41.57695" lon="9.29316">
        <ele>-2.27</ele>
        <time>2014-06-05T16:10:43Z</time>
      </trkpt>
      <trkpt lat="41.57689" lon="9.29301">
        <ele>-3.23</ele>
        <time>2014-06-05T16:10:44Z</time>
      </trkpt>
      <trkpt lat="41.57684" lon="9.29284">
        <ele>-2.75</ele>
        <time>2014-06-05T16:10:45Z</time>
      </trkpt>
      <trkpt lat="41.57649" lon="9.29185">
        <ele>-3.71</ele>
        <time>2014-06-05T16:10:51Z</time>
      </trkpt>
      <trkpt lat="41.57641" lon="9.29171">
        <ele>-4.19</ele>
        <time>2014-06-05T16:10:52Z</time>
      </trkpt>
      <trkpt lat="41.57631" lon="9.29159">
        <ele>-4.67</ele>
        <time>2014-06-05T16:10:53Z</time>
      </trkpt>
      <trkpt lat="41.5762" lon="9.29149">
        <ele>-4.67</ele>
        <time>2014-06-05T16:10:54Z</time>
      </trkpt>
      <trkpt lat="41.57608" lon="9.29138">
        <ele>-4.67</ele>
        <time>2014-06-05T16:10:55Z</time>
      </trkpt>
      <trkpt lat="41.57587" lon="9.29118">
        <ele>-4.67</ele>
        <time>2014-06-05T16:10:57Z</time>
      </trkpt>
      <trkpt lat="41.57578" lon="9.29106">
        <ele>-5.15</ele>
        <time>2014-06-05T16:10:58Z</time>
      </trkpt>
      <trkpt lat="41.57569" lon="9.29093">
        <ele>-4.67</ele>
        <time>2014-06-05T16:10:59Z</time>
      </trkpt>
      <trkpt lat="41.57558" lon="9.29081">
        <ele>-5.15</ele>
        <time>2014-06-05T16:11:00Z</time>
      </trkpt>
      <trkpt lat="41.57548" lon="9.29073">
        <ele>-5.15</ele>
        <time>2014-06-05T16:11:01Z</time>
      </trkpt>
      <trkpt lat="41.57537" lon="9.29066">
        <ele>-5.15</ele>
        <time>2014-06-05T16:11:02Z</time>
      </trkpt>
      <trkpt lat="41.57526" lon="9.2906">
        <ele>-5.15</ele>
        <time>2014-06-05T16:11:03Z</time>
      </trkpt>
      <trkpt lat="41.57492" lon="9.29037">
        <ele>-6.11</ele>
        <time>2014-06-05T16:11:06Z</time>
      </trkpt>
      <trkpt lat="41.57482" lon="9.29026">
        <ele>-6.11</ele>
        <time>2014-06-05T16:11:07Z</time>
      </trkpt>
      <trkpt lat="41.57475" lon="9.29013">
        <ele>-6.11</ele>
        <time>2014-06-05T16:11:08Z</time>
      </trkpt>
      <trkpt lat="41.57458" lon="9.28979">
        <ele>-6.59</ele>
        <time>2014-06-05T16:11:10Z</time>
      </trkpt>
      <trkpt lat="41.57446" lon="9.28964">
        <ele>-6.59</ele>
        <time>2014-06-05T16:11:11Z</time>
      </trkpt>
      <trkpt lat="41.57431" lon="9.2895">
        <ele>-6.11</ele>
        <time>2014-06-05T16:11:12Z</time>
      </trkpt>
      <trkpt lat="41.5731" lon="9.28842">
        <ele>-8.03</ele>
        <time>2014-06-05T16:11:18Z</time>
      </trkpt>
      <trkpt lat="41.57181" lon="9.28735">
        <ele>-9</ele>
        <time>2014-06-05T16:11:25Z</time>
      </trkpt>
      <trkpt lat="41.57144" lon="9.28699">
        <ele>-9.48</ele>
        <time>2014-06-05T16:11:28Z</time>
      </trkpt>
      <trkpt lat="41.57137" lon="9.28688">
        <ele>-9.96</ele>
        <time>2014-06-05T16:11:29Z</time>
      </trkpt>
      <trkpt lat="41.57135" lon="9.28675">
        <ele>-9.96</ele>
        <time>2014-06-05T16:11:30Z</time>
      </trkpt>
      <trkpt lat="41.57136" lon="9.28661">
        <ele>-9.96</ele>
        <time>2014-06-05T16:11:31Z</time>
      </trkpt>
      <trkpt lat="41.57138" lon="9.28646">
        <ele>-9.96</ele>
        <time>2014-06-05T16:11:32Z</time>
      </trkpt>
      <trkpt lat="41.57143" lon="9.2863">
        <ele>-9.48</ele>
        <time>2014-06-05T16:11:33Z</time>
      </trkpt>
      <trkpt lat="41.57149" lon="9.2861">
        <ele>-9.48</ele>
        <time>2014-06-05T16:11:34Z</time>
      </trkpt>
      <trkpt lat="41.57188" lon="9.28478">
        <ele>-11.4</ele>
        <time>2014-06-05T16:11:39Z</time>
      </trkpt>
      <trkpt lat="41.57264" lon="9.28237">
        <ele>-11.88</ele>
        <time>2014-06-05T16:11:48Z</time>
      </trkpt>
      <trkpt lat="41.57286" lon="9.28158">
        <ele>-13.32</ele>
        <time>2014-06-05T16:11:52Z</time>
      </trkpt>
      <trkpt lat="41.57289" lon="9.28142">
        <ele>-13.32</ele>
        <time>2014-06-05T16:11:53Z</time>
      </trkpt>
      <trkpt lat="41.57288" lon="9.28127">
        <ele>-13.8</ele>
        <time>2014-06-05T16:11:54Z</time>
      </trkpt>
      <trkpt lat="41.57282" lon="9.2811">
        <ele>-14.28</ele>
        <time>2014-06-05T16:11:55Z</time>
      </trkpt>
      <trkpt lat="41.57273" lon="9.28093">
        <ele>-15.24</ele>
        <time>2014-06-05T16:11:56Z</time>
      </trkpt>
      <trkpt lat="41.57263" lon="9.28074">
        <ele>-16.69</ele>
        <time>2014-06-05T16:11:57Z</time>
      </trkpt>
      <trkpt lat="41.57192" lon="9.27948">
        <ele>-21.97</ele>
        <time>2014-06-05T16:12:04Z</time>
      </trkpt>
      <trkpt lat="41.57185" lon="9.27927">
        <ele>-22.45</ele>
        <time>2014-06-05T16:12:05Z</time>
      </trkpt>
      <trkpt lat="41.57153" lon="9.27826">
        <ele>-23.41</ele>
        <time>2014-06-05T16:12:10Z</time>
      </trkpt>
      <trkpt lat="41.57152" lon="9.27808">
        <ele>-23.9</ele>
        <time>2014-06-05T16:12:11Z</time>
      </trkpt>
      <trkpt lat="41.57153" lon="9.27794">
        <ele>-23.9</ele>
        <time>2014-06-05T16:12:12Z</time>
      </trkpt>
      <trkpt lat="41.57156" lon="9.27782">
        <ele>-24.38</ele>
        <time>2014-06-05T16:12:13Z</time>
      </trkpt>
      <trkpt lat="41.57162" lon="9.27772">
        <ele>-23.9</ele>
        <time>2014-06-05T16:12:14Z</time>
      </trkpt>
      <trkpt lat="41.5717" lon="9.27763">
        <ele>-23.9</ele>
        <time>2014-06-05T16:12:15Z</time>
      </trkpt>
      <trkpt lat="41.57179" lon="9.27754">
        <ele>-23.9</ele>
        <time>2014-06-05T16:12:16Z</time>
      </trkpt>
      <trkpt lat="41.57196" lon="9.27732">
        <ele>-23.9</ele>
        <time>2014-06-05T16:12:18Z</time>
      </trkpt>
      <trkpt lat="41.57199" lon="9.27719">
        <ele>-23.9</ele>
        <time>2014-06-05T16:12:19Z</time>
      </trkpt>
      <trkpt lat="41.57197" lon="9.27703">
        <ele>-23.41</ele>
        <time>2014-06-05T16:12:20Z</time>
      </trkpt>
      <trkpt lat="41.57192" lon="9.27684">
        <ele>-23.41</ele>
        <time>2014-06-05T16:12:21Z</time>
      </trkpt>
      <trkpt lat="41.57183" lon="9.27664">
        <ele>-21.01</ele>
        <time>2014-06-05T16:12:22Z</time>
      </trkpt>
      <trkpt lat="41.57179" lon="9.27645">
        <ele>-21.01</ele>
        <time>2014-06-05T16:12:23Z</time>
      </trkpt>
      <trkpt lat="41.57178" lon="9.27627">
        <ele>-21.01</ele>
        <time>2014-06-05T16:12:24Z</time>
      </trkpt>
      <trkpt lat="41.57179" lon="9.27608">
        <ele>-20.05</ele>
        <time>2014-06-05T16:12:25Z</time>
      </trkpt>
      <trkpt lat="41.5718" lon="9.2759">
        <ele>-17.65</ele>
        <time>2014-06-05T16:12:26Z</time>
      </trkpt>
      <trkpt lat="41.5719" lon="9.27482">
        <ele>-12.84</ele>
        <time>2014-06-05T16:12:33Z</time>
      </trkpt>
      <trkpt lat="41.57193" lon="9.27469">
        <ele>-11.88</ele>
        <time>2014-06-05T16:12:34Z</time>
      </trkpt>
      <trkpt lat="41.57197" lon="9.27458">
        <ele>-12.36</ele>
        <time>2014-06-05T16:12:35Z</time>
      </trkpt>
      <trkpt lat="41.57202" lon="9.27448">
        <ele>-11.88</ele>
        <time>2014-06-05T16:12:36Z</time>
      </trkpt>
      <trkpt lat="41.57208" lon="9.2744">
        <ele>-11.88</ele>
        <time>2014-06-05T16:12:37Z</time>
      </trkpt>
      <trkpt lat="41.57216" lon="9.27434">
        <ele>-11.88</ele>
        <time>2014-06-05T16:12:38Z</time>
      </trkpt>
      <trkpt lat="41.57225" lon="9.27429">
        <ele>-10.92</ele>
        <time>2014-06-05T16:12:39Z</time>
      </trkpt>
      <trkpt lat="41.57235" lon="9.27426">
        <ele>-10.92</ele>
        <time>2014-06-05T16:12:40Z</time>
      </trkpt>
      <trkpt lat="41.57246" lon="9.27426">
        <ele>-10.44</ele>
        <time>2014-06-05T16:12:41Z</time>
      </trkpt>
      <trkpt lat="41.57259" lon="9.27427">
        <ele>-10.44</ele>
        <time>2014-06-05T16:12:42Z</time>
      </trkpt>
      <trkpt lat="41.57272" lon="9.27428">
        <ele>-10.44</ele>
        <time>2014-06-05T16:12:43Z</time>
      </trkpt>
      <trkpt lat="41.57388" lon="9.27444">
        <ele>-4.67</ele>
        <time>2014-06-05T16:12:51Z</time>
      </trkpt>
      <trkpt lat="41.57568" lon="9.27476">
        <ele>1.1</ele>
        <time>2014-06-05T16:13:02Z</time>
      </trkpt>
      <trkpt lat="41.57701" lon="9.27492">
        <ele>3.98</ele>
        <time>2014-06-05T16:13:12Z</time>
      </trkpt>
      <trkpt lat="41.5771" lon="9.27498">
        <ele>3.5</ele>
        <time>2014-06-05T16:13:13Z</time>
      </trkpt>
      <trkpt lat="41.57716" lon="9.27504">
        <ele>3.98</ele>
        <time>2014-06-05T16:13:14Z</time>
      </trkpt>
      <trkpt lat="41.57735" lon="9.2752">
        <ele>3.5</ele>
        <time>2014-06-05T16:13:17Z</time>
      </trkpt>
      <trkpt lat="41.57743" lon="9.27521">
        <ele>3.98</ele>
        <time>2014-06-05T16:13:18Z</time>
      </trkpt>
      <trkpt lat="41.5775" lon="9.27521">
        <ele>4.46</ele>
        <time>2014-06-05T16:13:19Z</time>
      </trkpt>
      <trkpt lat="41.57757" lon="9.27517">
        <ele>4.46</ele>
        <time>2014-06-05T16:13:20Z</time>
      </trkpt>
      <trkpt lat="41.57765" lon="9.27512">
        <ele>4.46</ele>
        <time>2014-06-05T16:13:21Z</time>
      </trkpt>
      <trkpt lat="41.57772" lon="9.27508">
        <ele>4.46</ele>
        <time>2014-06-05T16:13:22Z</time>
      </trkpt>
      <trkpt lat="41.57796" lon="9.27503">
        <ele>2.54</ele>
        <time>2014-06-05T16:13:24Z</time>
      </trkpt>
      <trkpt lat="41.5781" lon="9.27504">
        <ele>1.58</ele>
        <time>2014-06-05T16:13:25Z</time>
      </trkpt>
      <trkpt lat="41.57946" lon="9.27523">
        <ele>5.91</ele>
        <time>2014-06-05T16:13:35Z</time>
      </trkpt>
      <trkpt lat="41.57981" lon="9.27527">
        <ele>5.42</ele>
        <time>2014-06-05T16:13:38Z</time>
      </trkpt>
      <trkpt lat="41.58039" lon="9.27538">
        <ele>9.27</ele>
        <time>2014-06-05T16:13:46Z</time>
      </trkpt>
      <trkpt lat="41.58045" lon="9.27539">
        <ele>9.27</ele>
        <time>2014-06-05T16:13:47Z</time>
      </trkpt>
      <trkpt lat="41.58079" lon="9.27538">
        <ele>12.15</ele>
        <time>2014-06-05T16:13:51Z</time>
      </trkpt>
      <trkpt lat="41.58164" lon="9.27546">
        <ele>13.6</ele>
        <time>2014-06-05T16:14:00Z</time>
      </trkpt>
      <trkpt lat="41.58233" lon="9.27553">
        <ele>16</ele>
        <time>2014-06-05T16:14:07Z</time>
      </trkpt>
      <trkpt lat="41.58411" lon="9.27576">
        <ele>20.81</ele>
        <time>2014-06-05T16:14:21Z</time>
      </trkpt>
      <trkpt lat="41.58548" lon="9.27588">
        <ele>32.34</ele>
        <time>2014-06-05T16:14:33Z</time>
      </trkpt>
      <trkpt lat="41.58668" lon="9.2761">
        <ele>44.84</ele>
        <time>2014-06-05T16:14:45Z</time>
      </trkpt>
      <trkpt lat="41.58682" lon="9.2761">
        <ele>40.03</ele>
        <time>2014-06-05T16:14:47Z</time>
      </trkpt>
      <trkpt lat="41.58687" lon="9.27614">
        <ele>39.55</ele>
        <time>2014-06-05T16:14:48Z</time>
      </trkpt>
      <trkpt lat="41.58696" lon="9.27621">
        <ele>40.03</ele>
        <time>2014-06-05T16:14:50Z</time>
      </trkpt>
      <trkpt lat="41.58702" lon="9.27621">
        <ele>40.51</ele>
        <time>2014-06-05T16:14:51Z</time>
      </trkpt>
      <trkpt lat="41.58707" lon="9.27619">
        <ele>40.99</ele>
        <time>2014-06-05T16:14:52Z</time>
      </trkpt>
      <trkpt lat="41.58728" lon="9.27616">
        <ele>38.59</ele>
        <time>2014-06-05T16:15:00Z</time>
      </trkpt>
      <trkpt lat="41.58731" lon="9.27617">
        <ele>35.71</ele>
        <time>2014-06-05T16:15:15Z</time>
      </trkpt>
      <trkpt lat="41.58767" lon="9.27616">
        <ele>37.15</ele>
        <time>2014-06-05T16:15:24Z</time>
      </trkpt>
      <trkpt lat="41.58806" lon="9.27614">
        <ele>40.99</ele>
        <time>2014-06-05T16:15:35Z</time>
      </trkpt>
      <trkpt lat="41.5884" lon="9.27609">
        <ele>46.76</ele>
        <time>2014-06-05T16:15:43Z</time>
      </trkpt>
      <trkpt lat="41.58845" lon="9.2761">
        <ele>47.24</ele>
        <time>2014-06-05T16:15:44Z</time>
      </trkpt>
      <trkpt lat="41.58849" lon="9.2761">
        <ele>50.13</ele>
        <time>2014-06-05T16:15:45Z</time>
      </trkpt>
      <trkpt lat="41.58854" lon="9.27611">
        <ele>51.57</ele>
        <time>2014-06-05T16:15:46Z</time>
      </trkpt>
      <trkpt lat="41.58859" lon="9.27613">
        <ele>52.53</ele>
        <time>2014-06-05T16:15:47Z</time>
      </trkpt>
      <trkpt lat="41.58872" lon="9.27618">
        <ele>53.49</ele>
        <time>2014-06-05T16:15:49Z</time>
      </trkpt>
      <trkpt lat="41.58915" lon="9.27639">
        <ele>53.49</ele>
        <time>2014-06-05T16:15:57Z</time>
      </trkpt>
      <trkpt lat="41.58919" lon="9.27641">
        <ele>53.97</ele>
        <time>2014-06-05T16:15:58Z</time>
      </trkpt>
      <trkpt lat="41.58933" lon="9.27643">
        <ele>55.41</ele>
        <time>2014-06-05T16:16:01Z</time>
      </trkpt>
      <trkpt lat="41.58966" lon="9.27643">
        <ele>56.86</ele>
        <time>2014-06-05T16:16:08Z</time>
      </trkpt>
      <trkpt lat="41.58998" lon="9.27664">
        <ele>58.3</ele>
        <time>2014-06-05T16:16:17Z</time>
      </trkpt>
      <trkpt lat="41.59001" lon="9.27682">
        <ele>57.82</ele>
        <time>2014-06-05T16:16:26Z</time>
      </trkpt>
      <trkpt lat="41.59003" lon="9.27694">
        <ele>57.34</ele>
        <time>2014-06-05T16:16:35Z</time>
      </trkpt>
      <trkpt lat="41.59015" lon="9.27724">
        <ele>57.82</ele>
        <time>2014-06-05T16:16:41Z</time>
      </trkpt>
      <trkpt lat="41.5903" lon="9.27759">
        <ele>60.7</ele>
        <time>2014-06-05T16:16:47Z</time>
      </trkpt>
      <trkpt lat="41.59032" lon="9.27767">
        <ele>59.26</ele>
        <time>2014-06-05T16:16:48Z</time>
      </trkpt>
      <trkpt lat="41.59032" lon="9.27774">
        <ele>59.26</ele>
        <time>2014-06-05T16:16:49Z</time>
      </trkpt>
      <trkpt lat="41.5903" lon="9.2778">
        <ele>58.78</ele>
        <time>2014-06-05T16:16:50Z</time>
      </trkpt>
      <trkpt lat="41.5903" lon="9.27784">
        <ele>57.82</ele>
        <time>2014-06-05T16:16:51Z</time>
      </trkpt>
      <trkpt lat="41.5902" lon="9.27825">
        <ele>62.14</ele>
        <time>2014-06-05T16:17:02Z</time>
      </trkpt>
      <trkpt lat="41.59014" lon="9.27878">
        <ele>65.03</ele>
        <time>2014-06-05T16:17:12Z</time>
      </trkpt>
      <trkpt lat="41.59015" lon="9.27883">
        <ele>65.03</ele>
        <time>2014-06-05T16:17:13Z</time>
      </trkpt>
      <trkpt lat="41.59022" lon="9.27897">
        <ele>64.55</ele>
        <time>2014-06-05T16:17:17Z</time>
      </trkpt>
      <trkpt lat="41.59025" lon="9.27898">
        <ele>65.03</ele>
        <time>2014-06-05T16:17:18Z</time>
      </trkpt>
      <trkpt lat="41.59027" lon="9.27899">
        <ele>64.55</ele>
        <time>2014-06-05T16:17:19Z</time>
      </trkpt>
      <trkpt lat="41.59029" lon="9.27899">
        <ele>64.55</ele>
        <time>2014-06-05T16:17:20Z</time>
      </trkpt>
      <trkpt lat="41.59031" lon="9.27898">
        <ele>64.55</ele>
        <time>2014-06-05T16:17:21Z</time>
      </trkpt>
      <trkpt lat="41.59046" lon="9.27893">
        <ele>63.58</ele>
        <time>2014-06-05T16:17:26Z</time>
      </trkpt>
      <trkpt lat="41.59048" lon="9.27894">
        <ele>63.58</ele>
        <time>2014-06-05T16:17:27Z</time>
      </trkpt>
      <trkpt lat="41.59055" lon="9.27895">
        <ele>64.07</ele>
        <time>2014-06-05T16:17:30Z</time>
      </trkpt>
      <trkpt lat="41.59057" lon="9.27897">
        <ele>64.07</ele>
        <time>2014-06-05T16:17:31Z</time>
      </trkpt>
      <trkpt lat="41.59068" lon="9.27907">
        <ele>64.07</ele>
        <time>2014-06-05T16:17:42Z</time>
      </trkpt>
      <trkpt lat="41.59084" lon="9.27919">
        <ele>59.74</ele>
        <time>2014-06-05T16:17:54Z</time>
      </trkpt>
      <trkpt lat="41.59093" lon="9.27933">
        <ele>59.26</ele>
        <time>2014-06-05T16:18:07Z</time>
      </trkpt>
      <trkpt lat="41.59103" lon="9.27938">
        <ele>56.86</ele>
        <time>2014-06-05T16:18:17Z</time>
      </trkpt>
      <trkpt lat="41.59105" lon="9.27937">
        <ele>56.37</ele>
        <time>2014-06-05T16:18:19Z</time>
      </trkpt>
      <trkpt lat="41.59121" lon="9.27913">
        <ele>55.89</ele>
        <time>2014-06-05T16:18:29Z</time>
      </trkpt>
      <trkpt lat="41.59124" lon="9.27898">
        <ele>53.49</ele>
        <time>2014-06-05T16:18:35Z</time>
      </trkpt>
      <trkpt lat="41.59126" lon="9.27897">
        <ele>53.49</ele>
        <time>2014-06-05T16:18:36Z</time>
      </trkpt>
      <trkpt lat="41.59128" lon="9.27896">
        <ele>52.05</ele>
        <time>2014-06-05T16:18:39Z</time>
      </trkpt>
      <trkpt lat="41.59133" lon="9.27888">
        <ele>50.13</ele>
        <time>2014-06-05T16:18:43Z</time>
      </trkpt>
      <trkpt lat="41.59133" lon="9.27884">
        <ele>48.68</ele>
        <time>2014-06-05T16:18:52Z</time>
      </trkpt>
      <trkpt lat="41.59136" lon="9.27885">
        <ele>49.16</ele>
        <time>2014-06-05T16:18:53Z</time>
      </trkpt>
      <trkpt lat="41.59137" lon="9.27887">
        <ele>49.16</ele>
        <time>2014-06-05T16:18:54Z</time>
      </trkpt>
      <trkpt lat="41.59142" lon="9.27889">
        <ele>49.16</ele>
        <time>2014-06-05T16:18:57Z</time>
      </trkpt>
      <trkpt lat="41.59144" lon="9.27889">
        <ele>48.68</ele>
        <time>2014-06-05T16:18:58Z</time>
      </trkpt>
      <trkpt lat="41.59155" lon="9.27892">
        <ele>52.05</ele>
        <time>2014-06-05T16:19:13Z</time>
      </trkpt>
      <trkpt lat="41.59156" lon="9.27896">
        <ele>52.05</ele>
        <time>2014-06-05T16:19:42Z</time>
      </trkpt>
      <trkpt lat="41.59158" lon="9.27896">
        <ele>58.3</ele>
        <time>2014-06-05T18:06:29Z</time>
      </trkpt>
      <trkpt lat="41.59147" lon="9.27891">
        <ele>65.99</ele>
        <time>2014-06-05T18:06:51Z</time>
      </trkpt>
      <trkpt lat="41.59136" lon="9.27877">
        <ele>65.99</ele>
        <time>2014-06-05T18:07:11Z</time>
      </trkpt>
      <trkpt lat="41.59128" lon="9.27875">
        <ele>65.51</ele>
        <time>2014-06-05T18:07:32Z</time>
      </trkpt>
      <trkpt lat="41.59121" lon="9.2787">
        <ele>65.03</ele>
        <time>2014-06-05T18:07:40Z</time>
      </trkpt>
      <trkpt lat="41.5916" lon="9.27843">
        <ele>57.82</ele>
        <time>2014-06-05T18:07:52Z</time>
      </trkpt>
      <trkpt lat="41.59181" lon="9.2783">
        <ele>52.05</ele>
        <time>2014-06-05T18:07:58Z</time>
      </trkpt>
      <trkpt lat="41.59184" lon="9.27824">
        <ele>52.05</ele>
        <time>2014-06-05T18:07:59Z</time>
      </trkpt>
      <trkpt lat="41.59185" lon="9.27819">
        <ele>50.61</ele>
        <time>2014-06-05T18:08:00Z</time>
      </trkpt>
      <trkpt lat="41.59184" lon="9.27815">
        <ele>49.65</ele>
        <time>2014-06-05T18:08:01Z</time>
      </trkpt>
      <trkpt lat="41.59185" lon="9.27813">
        <ele>48.68</ele>
        <time>2014-06-05T18:08:02Z</time>
      </trkpt>
      <trkpt lat="41.59191" lon="9.27815">
        <ele>48.2</ele>
        <time>2014-06-05T18:08:03Z</time>
      </trkpt>
      <trkpt lat="41.59197" lon="9.27818">
        <ele>47.24</ele>
        <time>2014-06-05T18:08:04Z</time>
      </trkpt>
      <trkpt lat="41.59233" lon="9.27841">
        <ele>42.44</ele>
        <time>2014-06-05T18:08:09Z</time>
      </trkpt>
      <trkpt lat="41.5931" lon="9.27865">
        <ele>33.78</ele>
        <time>2014-06-05T18:08:19Z</time>
      </trkpt>
      <trkpt lat="41.59356" lon="9.27888">
        <ele>35.23</ele>
        <time>2014-06-05T18:08:27Z</time>
      </trkpt>
      <trkpt lat="41.59391" lon="9.27909">
        <ele>34.26</ele>
        <time>2014-06-05T18:08:35Z</time>
      </trkpt>
      <trkpt lat="41.59401" lon="9.27912">
        <ele>34.26</ele>
        <time>2014-06-05T18:08:36Z</time>
      </trkpt>
      <trkpt lat="41.59412" lon="9.27912">
        <ele>33.78</ele>
        <time>2014-06-05T18:08:37Z</time>
      </trkpt>
      <trkpt lat="41.59422" lon="9.27909">
        <ele>33.78</ele>
        <time>2014-06-05T18:08:38Z</time>
      </trkpt>
      <trkpt lat="41.59431" lon="9.27905">
        <ele>33.3</ele>
        <time>2014-06-05T18:08:39Z</time>
      </trkpt>
      <trkpt lat="41.5944" lon="9.279">
        <ele>32.82</ele>
        <time>2014-06-05T18:08:40Z</time>
      </trkpt>
      <trkpt lat="41.59449" lon="9.27895">
        <ele>32.34</ele>
        <time>2014-06-05T18:08:41Z</time>
      </trkpt>
      <trkpt lat="41.59465" lon="9.27892">
        <ele>30.42</ele>
        <time>2014-06-05T18:08:43Z</time>
      </trkpt>
      <trkpt lat="41.59474" lon="9.27894">
        <ele>29.94</ele>
        <time>2014-06-05T18:08:44Z</time>
      </trkpt>
      <trkpt lat="41.59483" lon="9.27899">
        <ele>29.46</ele>
        <time>2014-06-05T18:08:45Z</time>
      </trkpt>
      <trkpt lat="41.5951" lon="9.27915">
        <ele>28.5</ele>
        <time>2014-06-05T18:08:48Z</time>
      </trkpt>
      <trkpt lat="41.59518" lon="9.27918">
        <ele>28.02</ele>
        <time>2014-06-05T18:08:49Z</time>
      </trkpt>
      <trkpt lat="41.59525" lon="9.27915">
        <ele>27.53</ele>
        <time>2014-06-05T18:08:50Z</time>
      </trkpt>
      <trkpt lat="41.59531" lon="9.2791">
        <ele>27.05</ele>
        <time>2014-06-05T18:08:51Z</time>
      </trkpt>
      <trkpt lat="41.59533" lon="9.27901">
        <ele>26.57</ele>
        <time>2014-06-05T18:08:52Z</time>
      </trkpt>
      <trkpt lat="41.59531" lon="9.27888">
        <ele>26.09</ele>
        <time>2014-06-05T18:08:53Z</time>
      </trkpt>
      <trkpt lat="41.59527" lon="9.27875">
        <ele>25.13</ele>
        <time>2014-06-05T18:08:54Z</time>
      </trkpt>
      <trkpt lat="41.59524" lon="9.27862">
        <ele>24.65</ele>
        <time>2014-06-05T18:08:55Z</time>
      </trkpt>
      <trkpt lat="41.5952" lon="9.27848">
        <ele>24.17</ele>
        <time>2014-06-05T18:08:56Z</time>
      </trkpt>
      <trkpt lat="41.59466" lon="9.27698">
        <ele>18.4</ele>
        <time>2014-06-05T18:09:06Z</time>
      </trkpt>
      <trkpt lat="41.59463" lon="9.27684">
        <ele>17.44</ele>
        <time>2014-06-05T18:09:07Z</time>
      </trkpt>
      <trkpt lat="41.59461" lon="9.2767">
        <ele>16.96</ele>
        <time>2014-06-05T18:09:08Z</time>
      </trkpt>
      <trkpt lat="41.59461" lon="9.27656">
        <ele>16.48</ele>
        <time>2014-06-05T18:09:09Z</time>
      </trkpt>
      <trkpt lat="41.59463" lon="9.27641">
        <ele>16</ele>
        <time>2014-06-05T18:09:10Z</time>
      </trkpt>
      <trkpt lat="41.59468" lon="9.27624">
        <ele>15.52</ele>
        <time>2014-06-05T18:09:11Z</time>
      </trkpt>
      <trkpt lat="41.59474" lon="9.27607">
        <ele>15.04</ele>
        <time>2014-06-05T18:09:12Z</time>
      </trkpt>
      <trkpt lat="41.5948" lon="9.2759">
        <ele>14.56</ele>
        <time>2014-06-05T18:09:13Z</time>
      </trkpt>
      <trkpt lat="41.59487" lon="9.27572">
        <ele>14.08</ele>
        <time>2014-06-05T18:09:14Z</time>
      </trkpt>
      <trkpt lat="41.59522" lon="9.27481">
        <ele>9.75</ele>
        <time>2014-06-05T18:09:20Z</time>
      </trkpt>
      <trkpt lat="41.59528" lon="9.27472">
        <ele>9.75</ele>
        <time>2014-06-05T18:09:21Z</time>
      </trkpt>
      <trkpt lat="41.59535" lon="9.27466">
        <ele>9.27</ele>
        <time>2014-06-05T18:09:22Z</time>
      </trkpt>
      <trkpt lat="41.59544" lon="9.27462">
        <ele>8.79</ele>
        <time>2014-06-05T18:09:23Z</time>
      </trkpt>
      <trkpt lat="41.59552" lon="9.2746">
        <ele>7.83</ele>
        <time>2014-06-05T18:09:24Z</time>
      </trkpt>
      <trkpt lat="41.5956" lon="9.27461">
        <ele>7.35</ele>
        <time>2014-06-05T18:09:25Z</time>
      </trkpt>
      <trkpt lat="41.59568" lon="9.27463">
        <ele>6.87</ele>
        <time>2014-06-05T18:09:26Z</time>
      </trkpt>
      <trkpt lat="41.59576" lon="9.27468">
        <ele>7.83</ele>
        <time>2014-06-05T18:09:27Z</time>
      </trkpt>
      <trkpt lat="41.59653" lon="9.27496">
        <ele>6.39</ele>
        <time>2014-06-05T18:09:35Z</time>
      </trkpt>
      <trkpt lat="41.59662" lon="9.27498">
        <ele>5.91</ele>
        <time>2014-06-05T18:09:36Z</time>
      </trkpt>
      <trkpt lat="41.59748" lon="9.27525">
        <ele>9.27</ele>
        <time>2014-06-05T18:09:47Z</time>
      </trkpt>
      <trkpt lat="41.59752" lon="9.2753">
        <ele>9.27</ele>
        <time>2014-06-05T18:09:48Z</time>
      </trkpt>
      <trkpt lat="41.59756" lon="9.27536">
        <ele>9.27</ele>
        <time>2014-06-05T18:09:49Z</time>
      </trkpt>
      <trkpt lat="41.59759" lon="9.27544">
        <ele>9.27</ele>
        <time>2014-06-05T18:09:50Z</time>
      </trkpt>
      <trkpt lat="41.59765" lon="9.2755">
        <ele>9.27</ele>
        <time>2014-06-05T18:09:51Z</time>
      </trkpt>
      <trkpt lat="41.59772" lon="9.27556">
        <ele>9.75</ele>
        <time>2014-06-05T18:09:52Z</time>
      </trkpt>
      <trkpt lat="41.59781" lon="9.27563">
        <ele>10.23</ele>
        <time>2014-06-05T18:09:53Z</time>
      </trkpt>
      <trkpt lat="41.59797" lon="9.27577">
        <ele>10.23</ele>
        <time>2014-06-05T18:09:55Z</time>
      </trkpt>
      <trkpt lat="41.59803" lon="9.27586">
        <ele>10.71</ele>
        <time>2014-06-05T18:09:56Z</time>
      </trkpt>
      <trkpt lat="41.5981" lon="9.27596">
        <ele>10.71</ele>
        <time>2014-06-05T18:09:57Z</time>
      </trkpt>
      <trkpt lat="41.59815" lon="9.27608">
        <ele>10.71</ele>
        <time>2014-06-05T18:09:58Z</time>
      </trkpt>
      <trkpt lat="41.5982" lon="9.27621">
        <ele>10.71</ele>
        <time>2014-06-05T18:09:59Z</time>
      </trkpt>
      <trkpt lat="41.59824" lon="9.27635">
        <ele>11.19</ele>
        <time>2014-06-05T18:10:00Z</time>
      </trkpt>
      <trkpt lat="41.59828" lon="9.27649">
        <ele>11.19</ele>
        <time>2014-06-05T18:10:01Z</time>
      </trkpt>
      <trkpt lat="41.59876" lon="9.27765">
        <ele>9.75</ele>
        <time>2014-06-05T18:10:10Z</time>
      </trkpt>
      <trkpt lat="41.59879" lon="9.27772">
        <ele>9.75</ele>
        <time>2014-06-05T18:10:11Z</time>
      </trkpt>
      <trkpt lat="41.59884" lon="9.27786">
        <ele>11.19</ele>
        <time>2014-06-05T18:10:16Z</time>
      </trkpt>
      <trkpt lat="41.59889" lon="9.27789">
        <ele>11.19</ele>
        <time>2014-06-05T18:10:17Z</time>
      </trkpt>
      <trkpt lat="41.59895" lon="9.27792">
        <ele>11.19</ele>
        <time>2014-06-05T18:10:18Z</time>
      </trkpt>
      <trkpt lat="41.59965" lon="9.27808">
        <ele>12.15</ele>
        <time>2014-06-05T18:10:24Z</time>
      </trkpt>
      <trkpt lat="41.60127" lon="9.27851">
        <ele>14.56</ele>
        <time>2014-06-05T18:10:34Z</time>
      </trkpt>
      <trkpt lat="41.60243" lon="9.2788">
        <ele>13.6</ele>
        <time>2014-06-05T18:10:42Z</time>
      </trkpt>
      <trkpt lat="41.60382" lon="9.27914">
        <ele>10.71</ele>
        <time>2014-06-05T18:10:54Z</time>
      </trkpt>
      <trkpt lat="41.60548" lon="9.27956">
        <ele>10.23</ele>
        <time>2014-06-05T18:11:09Z</time>
      </trkpt>
      <trkpt lat="41.60688" lon="9.27994">
        <ele>9.75</ele>
        <time>2014-06-05T18:11:23Z</time>
      </trkpt>
      <trkpt lat="41.60835" lon="9.28032">
        <ele>12.15</ele>
        <time>2014-06-05T18:11:37Z</time>
      </trkpt>
      <trkpt lat="41.6092" lon="9.28059">
        <ele>13.12</ele>
        <time>2014-06-05T18:11:44Z</time>
      </trkpt>
      <trkpt lat="41.6101" lon="9.28122">
        <ele>13.12</ele>
        <time>2014-06-05T18:11:52Z</time>
      </trkpt>
      <trkpt lat="41.61062" lon="9.28198">
        <ele>11.67</ele>
        <time>2014-06-05T18:12:00Z</time>
      </trkpt>
      <trkpt lat="41.61103" lon="9.28314">
        <ele>12.63</ele>
        <time>2014-06-05T18:12:07Z</time>
      </trkpt>
      <trkpt lat="41.61134" lon="9.28499">
        <ele>15.52</ele>
        <time>2014-06-05T18:12:17Z</time>
      </trkpt>
      <trkpt lat="41.61149" lon="9.28617">
        <ele>19.36</ele>
        <time>2014-06-05T18:12:24Z</time>
      </trkpt>
      <trkpt lat="41.61148" lon="9.28632">
        <ele>19.36</ele>
        <time>2014-06-05T18:12:25Z</time>
      </trkpt>
      <trkpt lat="41.61146" lon="9.28645">
        <ele>19.36</ele>
        <time>2014-06-05T18:12:26Z</time>
      </trkpt>
      <trkpt lat="41.61137" lon="9.28672">
        <ele>24.17</ele>
        <time>2014-06-05T18:12:29Z</time>
      </trkpt>
      <trkpt lat="41.61134" lon="9.2868">
        <ele>24.65</ele>
        <time>2014-06-05T18:12:30Z</time>
      </trkpt>
      <trkpt lat="41.61092" lon="9.2876">
        <ele>26.57</ele>
        <time>2014-06-05T18:12:39Z</time>
      </trkpt>
      <trkpt lat="41.61073" lon="9.28801">
        <ele>28.98</ele>
        <time>2014-06-05T18:12:42Z</time>
      </trkpt>
      <trkpt lat="41.61067" lon="9.28819">
        <ele>30.9</ele>
        <time>2014-06-05T18:12:43Z</time>
      </trkpt>
      <trkpt lat="41.61064" lon="9.28835">
        <ele>31.38</ele>
        <time>2014-06-05T18:12:44Z</time>
      </trkpt>
      <trkpt lat="41.61063" lon="9.28852">
        <ele>32.34</ele>
        <time>2014-06-05T18:12:45Z</time>
      </trkpt>
      <trkpt lat="41.61064" lon="9.28869">
        <ele>32.82</ele>
        <time>2014-06-05T18:12:46Z</time>
      </trkpt>
      <trkpt lat="41.61065" lon="9.28886">
        <ele>33.78</ele>
        <time>2014-06-05T18:12:47Z</time>
      </trkpt>
      <trkpt lat="41.61069" lon="9.28903">
        <ele>34.26</ele>
        <time>2014-06-05T18:12:48Z</time>
      </trkpt>
      <trkpt lat="41.61075" lon="9.28919">
        <ele>34.74</ele>
        <time>2014-06-05T18:12:49Z</time>
      </trkpt>
      <trkpt lat="41.61081" lon="9.28935">
        <ele>35.23</ele>
        <time>2014-06-05T18:12:50Z</time>
      </trkpt>
      <trkpt lat="41.61089" lon="9.2895">
        <ele>34.74</ele>
        <time>2014-06-05T18:12:51Z</time>
      </trkpt>
      <trkpt lat="41.61098" lon="9.28964">
        <ele>33.3</ele>
        <time>2014-06-05T18:12:52Z</time>
      </trkpt>
      <trkpt lat="41.61108" lon="9.28975">
        <ele>33.3</ele>
        <time>2014-06-05T18:12:53Z</time>
      </trkpt>
      <trkpt lat="41.61117" lon="9.28984">
        <ele>34.26</ele>
        <time>2014-06-05T18:12:54Z</time>
      </trkpt>
      <trkpt lat="41.61126" lon="9.28991">
        <ele>33.78</ele>
        <time>2014-06-05T18:12:55Z</time>
      </trkpt>
      <trkpt lat="41.61135" lon="9.28998">
        <ele>33.78</ele>
        <time>2014-06-05T18:12:56Z</time>
      </trkpt>
      <trkpt lat="41.61217" lon="9.29088">
        <ele>32.34</ele>
        <time>2014-06-05T18:13:06Z</time>
      </trkpt>
      <trkpt lat="41.61222" lon="9.291">
        <ele>32.34</ele>
        <time>2014-06-05T18:13:07Z</time>
      </trkpt>
      <trkpt lat="41.61227" lon="9.29113">
        <ele>30.9</ele>
        <time>2014-06-05T18:13:08Z</time>
      </trkpt>
      <trkpt lat="41.61236" lon="9.29191">
        <ele>28.5</ele>
        <time>2014-06-05T18:13:14Z</time>
      </trkpt>
      <trkpt lat="41.61235" lon="9.29203">
        <ele>28.98</ele>
        <time>2014-06-05T18:13:15Z</time>
      </trkpt>
      <trkpt lat="41.61207" lon="9.29318">
        <ele>28.02</ele>
        <time>2014-06-05T18:13:26Z</time>
      </trkpt>
      <trkpt lat="41.61205" lon="9.29329">
        <ele>27.53</ele>
        <time>2014-06-05T18:13:27Z</time>
      </trkpt>
      <trkpt lat="41.61203" lon="9.2934">
        <ele>27.53</ele>
        <time>2014-06-05T18:13:28Z</time>
      </trkpt>
      <trkpt lat="41.61206" lon="9.29463">
        <ele>29.94</ele>
        <time>2014-06-05T18:13:36Z</time>
      </trkpt>
      <trkpt lat="41.61203" lon="9.29523">
        <ele>31.86</ele>
        <time>2014-06-05T18:13:40Z</time>
      </trkpt>
      <trkpt lat="41.61201" lon="9.29538">
        <ele>31.38</ele>
        <time>2014-06-05T18:13:41Z</time>
      </trkpt>
      <trkpt lat="41.61198" lon="9.29553">
        <ele>31.86</ele>
        <time>2014-06-05T18:13:42Z</time>
      </trkpt>
      <trkpt lat="41.61194" lon="9.29567">
        <ele>31.86</ele>
        <time>2014-06-05T18:13:43Z</time>
      </trkpt>
      <trkpt lat="41.6119" lon="9.29581">
        <ele>32.34</ele>
        <time>2014-06-05T18:13:44Z</time>
      </trkpt>
      <trkpt lat="41.61156" lon="9.29682">
        <ele>36.19</ele>
        <time>2014-06-05T18:13:54Z</time>
      </trkpt>
      <trkpt lat="41.61152" lon="9.29698">
        <ele>36.67</ele>
        <time>2014-06-05T18:13:56Z</time>
      </trkpt>
      <trkpt lat="41.6115" lon="9.29709">
        <ele>37.15</ele>
        <time>2014-06-05T18:13:57Z</time>
      </trkpt>
      <trkpt lat="41.6115" lon="9.29723">
        <ele>37.15</ele>
        <time>2014-06-05T18:13:58Z</time>
      </trkpt>
      <trkpt lat="41.61151" lon="9.2974">
        <ele>37.63</ele>
        <time>2014-06-05T18:13:59Z</time>
      </trkpt>
      <trkpt lat="41.61153" lon="9.29758">
        <ele>37.63</ele>
        <time>2014-06-05T18:14:00Z</time>
      </trkpt>
      <trkpt lat="41.61157" lon="9.29775">
        <ele>38.11</ele>
        <time>2014-06-05T18:14:01Z</time>
      </trkpt>
      <trkpt lat="41.61161" lon="9.2979">
        <ele>38.11</ele>
        <time>2014-06-05T18:14:02Z</time>
      </trkpt>
      <trkpt lat="41.61166" lon="9.29804">
        <ele>38.11</ele>
        <time>2014-06-05T18:14:03Z</time>
      </trkpt>
      <trkpt lat="41.61172" lon="9.29817">
        <ele>38.59</ele>
        <time>2014-06-05T18:14:04Z</time>
      </trkpt>
      <trkpt lat="41.61205" lon="9.29874">
        <ele>40.51</ele>
        <time>2014-06-05T18:14:11Z</time>
      </trkpt>
      <trkpt lat="41.61246" lon="9.29959">
        <ele>40.99</ele>
        <time>2014-06-05T18:14:18Z</time>
      </trkpt>
      <trkpt lat="41.61255" lon="9.29972">
        <ele>40.99</ele>
        <time>2014-06-05T18:14:19Z</time>
      </trkpt>
      <trkpt lat="41.61265" lon="9.29984">
        <ele>41.47</ele>
        <time>2014-06-05T18:14:20Z</time>
      </trkpt>
      <trkpt lat="41.61276" lon="9.29995">
        <ele>41.95</ele>
        <time>2014-06-05T18:14:21Z</time>
      </trkpt>
      <trkpt lat="41.61289" lon="9.30004">
        <ele>41.95</ele>
        <time>2014-06-05T18:14:22Z</time>
      </trkpt>
      <trkpt lat="41.61302" lon="9.30012">
        <ele>41.95</ele>
        <time>2014-06-05T18:14:23Z</time>
      </trkpt>
      <trkpt lat="41.61316" lon="9.30017">
        <ele>42.44</ele>
        <time>2014-06-05T18:14:24Z</time>
      </trkpt>
      <trkpt lat="41.6133" lon="9.30021">
        <ele>42.44</ele>
        <time>2014-06-05T18:14:25Z</time>
      </trkpt>
      <trkpt lat="41.61343" lon="9.30021">
        <ele>42.92</ele>
        <time>2014-06-05T18:14:26Z</time>
      </trkpt>
      <trkpt lat="41.61356" lon="9.30019">
        <ele>42.92</ele>
        <time>2014-06-05T18:14:27Z</time>
      </trkpt>
      <trkpt lat="41.61369" lon="9.30012">
        <ele>43.4</ele>
        <time>2014-06-05T18:14:28Z</time>
      </trkpt>
      <trkpt lat="41.61384" lon="9.30004">
        <ele>43.4</ele>
        <time>2014-06-05T18:14:29Z</time>
      </trkpt>
      <trkpt lat="41.61481" lon="9.29953">
        <ele>42.44</ele>
        <time>2014-06-05T18:14:35Z</time>
      </trkpt>
      <trkpt lat="41.61494" lon="9.29951">
        <ele>42.92</ele>
        <time>2014-06-05T18:14:36Z</time>
      </trkpt>
      <trkpt lat="41.61506" lon="9.29951">
        <ele>42.44</ele>
        <time>2014-06-05T18:14:37Z</time>
      </trkpt>
      <trkpt lat="41.6152" lon="9.29953">
        <ele>42.44</ele>
        <time>2014-06-05T18:14:38Z</time>
      </trkpt>
      <trkpt lat="41.61535" lon="9.29959">
        <ele>42.92</ele>
        <time>2014-06-05T18:14:39Z</time>
      </trkpt>
      <trkpt lat="41.61553" lon="9.2997">
        <ele>41.47</ele>
        <time>2014-06-05T18:14:40Z</time>
      </trkpt>
      <trkpt lat="41.61568" lon="9.2998">
        <ele>41.47</ele>
        <time>2014-06-05T18:14:41Z</time>
      </trkpt>
      <trkpt lat="41.61586" lon="9.29996">
        <ele>40.51</ele>
        <time>2014-06-05T18:14:42Z</time>
      </trkpt>
      <trkpt lat="41.61599" lon="9.30011">
        <ele>40.03</ele>
        <time>2014-06-05T18:14:43Z</time>
      </trkpt>
      <trkpt lat="41.61661" lon="9.30081">
        <ele>39.07</ele>
        <time>2014-06-05T18:14:48Z</time>
      </trkpt>
      <trkpt lat="41.61686" lon="9.30097">
        <ele>38.11</ele>
        <time>2014-06-05T18:14:50Z</time>
      </trkpt>
      <trkpt lat="41.61699" lon="9.30101">
        <ele>37.63</ele>
        <time>2014-06-05T18:14:51Z</time>
      </trkpt>
      <trkpt lat="41.61713" lon="9.30103">
        <ele>37.15</ele>
        <time>2014-06-05T18:14:52Z</time>
      </trkpt>
      <trkpt lat="41.61725" lon="9.30104">
        <ele>37.15</ele>
        <time>2014-06-05T18:14:53Z</time>
      </trkpt>
      <trkpt lat="41.61738" lon="9.30103">
        <ele>36.67</ele>
        <time>2014-06-05T18:14:54Z</time>
      </trkpt>
      <trkpt lat="41.61749" lon="9.30101">
        <ele>36.67</ele>
        <time>2014-06-05T18:14:55Z</time>
      </trkpt>
      <trkpt lat="41.6176" lon="9.30097">
        <ele>36.19</ele>
        <time>2014-06-05T18:14:56Z</time>
      </trkpt>
      <trkpt lat="41.61772" lon="9.30091">
        <ele>36.19</ele>
        <time>2014-06-05T18:14:57Z</time>
      </trkpt>
      <trkpt lat="41.61783" lon="9.30082">
        <ele>35.23</ele>
        <time>2014-06-05T18:14:58Z</time>
      </trkpt>
      <trkpt lat="41.61794" lon="9.30073">
        <ele>34.74</ele>
        <time>2014-06-05T18:14:59Z</time>
      </trkpt>
      <trkpt lat="41.61804" lon="9.30061">
        <ele>34.26</ele>
        <time>2014-06-05T18:15:00Z</time>
      </trkpt>
      <trkpt lat="41.61813" lon="9.3005">
        <ele>33.78</ele>
        <time>2014-06-05T18:15:01Z</time>
      </trkpt>
      <trkpt lat="41.61821" lon="9.30037">
        <ele>32.82</ele>
        <time>2014-06-05T18:15:02Z</time>
      </trkpt>
      <trkpt lat="41.61828" lon="9.30025">
        <ele>32.34</ele>
        <time>2014-06-05T18:15:03Z</time>
      </trkpt>
      <trkpt lat="41.61883" lon="9.29918">
        <ele>25.61</ele>
        <time>2014-06-05T18:15:12Z</time>
      </trkpt>
      <trkpt lat="41.619" lon="9.29897">
        <ele>26.09</ele>
        <time>2014-06-05T18:15:14Z</time>
      </trkpt>
      <trkpt lat="41.6191" lon="9.29888">
        <ele>26.57</ele>
        <time>2014-06-05T18:15:15Z</time>
      </trkpt>
      <trkpt lat="41.6192" lon="9.29882">
        <ele>26.57</ele>
        <time>2014-06-05T18:15:16Z</time>
      </trkpt>
      <trkpt lat="41.61931" lon="9.29877">
        <ele>26.09</ele>
        <time>2014-06-05T18:15:17Z</time>
      </trkpt>
      <trkpt lat="41.61942" lon="9.29874">
        <ele>24.65</ele>
        <time>2014-06-05T18:15:18Z</time>
      </trkpt>
      <trkpt lat="41.61952" lon="9.29871">
        <ele>25.13</ele>
        <time>2014-06-05T18:15:19Z</time>
      </trkpt>
      <trkpt lat="41.61962" lon="9.29869">
        <ele>25.61</ele>
        <time>2014-06-05T18:15:20Z</time>
      </trkpt>
      <trkpt lat="41.61974" lon="9.29868">
        <ele>24.65</ele>
        <time>2014-06-05T18:15:21Z</time>
      </trkpt>
      <trkpt lat="41.62031" lon="9.29865">
        <ele>22.73</ele>
        <time>2014-06-05T18:15:29Z</time>
      </trkpt>
      <trkpt lat="41.62033" lon="9.29866">
        <ele>23.21</ele>
        <time>2014-06-05T18:15:30Z</time>
      </trkpt>
      <trkpt lat="41.62035" lon="9.29867">
        <ele>22.73</ele>
        <time>2014-06-05T18:15:31Z</time>
      </trkpt>
      <trkpt lat="41.62037" lon="9.29869">
        <ele>22.73</ele>
        <time>2014-06-05T18:15:32Z</time>
      </trkpt>
      <trkpt lat="41.62038" lon="9.29872">
        <ele>21.77</ele>
        <time>2014-06-05T18:15:33Z</time>
      </trkpt>
      <trkpt lat="41.62038" lon="9.29876">
        <ele>23.21</ele>
        <time>2014-06-05T18:15:34Z</time>
      </trkpt>
      <trkpt lat="41.62043" lon="9.29931">
        <ele>24.17</ele>
        <time>2014-06-05T18:15:46Z</time>
      </trkpt>
      <trkpt lat="41.62047" lon="9.29932">
        <ele>23.69</ele>
        <time>2014-06-05T18:15:52Z</time>
      </trkpt>
      <trkpt lat="41.62056" lon="9.29935">
        <ele>22.73</ele>
        <time>2014-06-05T18:15:57Z</time>
      </trkpt>
      <trkpt lat="41.62061" lon="9.29935">
        <ele>24.17</ele>
        <time>2014-06-05T18:16:09Z</time>
      </trkpt>
    </trkseg>
  </trk>
  <rte>
    <name><![CDATA[412o2]]></name>
      <rtept lat="43.29703" lon="3.51239">
        <ele>9.8</ele>
        <name><![CDATA[Début]]></name>
      </rtept>
      <rtept lat="45.53327" lon="4.63035">
        <ele>227</ele>
        <name><![CDATA[Fin]]></name>
      </rtept>
    </rte>
  <rte>
    <name><![CDATA[Enregistremen: 20 Avr. 2014 11:54]]></name>
      <rtept lat="43.29703" lon="3.51239">
        <ele>9.8</ele>
        <name><![CDATA[Début]]></name>
      </rtept>
      <rtept lat="43.29697" lon="3.51234">
        <ele>10</ele>
        <name><![CDATA[Fin]]></name>
      </rtept>
    </rte>
  <rte>
    <name><![CDATA[Enregistremen: 25 Avr. 2014 18:53]]></name>
      <rtept lat="43.29985" lon="3.47166">
        <ele>11.5</ele>
        <name><![CDATA[Début]]></name>
      </rtept>
      <rtept lat="43.29703" lon="3.51217">
        <ele>10.3</ele>
        <name><![CDATA[Fin]]></name>
      </rtept>
    </rte>
  <rte>
    <name><![CDATA[Enregistremen: 26 Avr. 2014 09:29]]></name>
      <rtept lat="43.29708" lon="3.51221">
        <ele>10.1</ele>
        <name><![CDATA[Début]]></name>
      </rtept>
      <rtept lat="44.8036" lon="3.42125">
        <ele>1116.3</ele>
        <name><![CDATA[Fin]]></name>
      </rtept>
    </rte>
  <rte>
    <name><![CDATA[Enregistremen: 26 Avr. 2014 13:36]]></name>
      <rtept lat="44.80459" lon="3.42344">
        <ele>1127.9</ele>
        <name><![CDATA[Début]]></name>
      </rtept>
      <rtept lat="45.5332" lon="4.63052">
        <ele>227</ele>
        <name><![CDATA[Fin]]></name>
      </rtept>
    </rte>
  <rte>
    <name><![CDATA[Enregistremen: 27 Avr. 2014 17:19]]></name>
      <rtept lat="45.53325" lon="4.63029">
        <ele>227</ele>
        <name><![CDATA[Début]]></name>
      </rtept>
      <rtept lat="45.53314" lon="4.6305">
        <ele>227</ele>
        <name><![CDATA[Fin]]></name>
      </rtept>
    </rte>
  <rte>
    <name><![CDATA[Enregistremen: 29 Avr. 2014 16:08]]></name>
      <rtept lat="45.70924" lon="4.98048">
        <ele>212</ele>
        <name><![CDATA[Début]]></name>
      </rtept>
      <rtept lat="45.87983" lon="4.59593">
        <ele>320.7</ele>
        <name><![CDATA[Fin]]></name>
      </rtept>
    </rte>
  <rte>
    <name><![CDATA[Enregistremen: 30 Avr. 2014 13:54]]></name>
      <rtept lat="45.87974" lon="4.59628">
        <ele>312.7</ele>
        <name><![CDATA[Début]]></name>
      </rtept>
      <rtept lat="45.70896" lon="4.98136">
        <ele>212</ele>
        <name><![CDATA[Fin]]></name>
      </rtept>
    </rte>
  <rte>
    <name><![CDATA[Enregistremen: 30 Avr. 2014 14:59]]></name>
      <rtept lat="45.70843" lon="4.98123">
        <ele>212</ele>
        <name><![CDATA[Début]]></name>
      </rtept>
      <rtept lat="45.53091" lon="4.62177">
        <ele>232.5</ele>
        <name><![CDATA[Fin]]></name>
      </rtept>
    </rte>
  <rte>
    <name><![CDATA[Lesfauxrdg]]></name>
      <rtept lat="44.80459" lon="3.42344">
        <ele>1127.9</ele>
        <name><![CDATA[Début]]></name>
      </rtept>
      <rtept lat="45.5332" lon="4.63052">
        <ele>227</ele>
        <name><![CDATA[Fin]]></name>
      </rtept>
    </rte>
</gpx>